<?xml version="1.0" encoding="UTF-8" standalone="no" ?>
<gpx xmlns="http://www.topografix.com/GPX/1/1" xmlns:xsi="http://www.w3.org/2001/XMLSchema-instance" xsi:schemaLocation="http://www.topografix.com/GPX/1/1 http://www.topografix.com/GPX/1/1/gpx.xsd" version="1.1" creator="VisuGPX - https://www.visugpx.com">
  <metadata>
    <name>Circuit 044</name>
    <desc><![CDATA[Sanary, Var Matin, Toulon, Le Mourillon, tour de la presqu%u2019Ile de Giens, (Vers Carqueiranne), Mt des oiseaux, La Crau, la Valette,
l\'Arthémise, Sanary. (044)]]></desc>
  </metadata>
  <trk>
    <name><![CDATA[27-MAI-12 20:45:07]]></name>
    <trkseg>
      <trkpt lat="43.11715" lon="5.80163">
        <ele>-36.39</ele>
        <time>2012-05-27T05:44:06Z</time>
      </trkpt>
      <trkpt lat="43.11718" lon="5.8016">
        <ele>-36.87</ele>
        <time>2012-05-27T05:44:07Z</time>
      </trkpt>
      <trkpt lat="43.11721" lon="5.80158">
        <ele>-36.87</ele>
        <time>2012-05-27T05:44:08Z</time>
      </trkpt>
      <trkpt lat="43.11771" lon="5.80157">
        <ele>-33.99</ele>
        <time>2012-05-27T05:44:38Z</time>
      </trkpt>
      <trkpt lat="43.11771" lon="5.80158">
        <ele>-30.62</ele>
        <time>2012-05-27T05:44:41Z</time>
      </trkpt>
      <trkpt lat="43.11772" lon="5.80158">
        <ele>-26.78</ele>
        <time>2012-05-27T05:44:44Z</time>
      </trkpt>
      <trkpt lat="43.11771" lon="5.80158">
        <ele>-23.41</ele>
        <time>2012-05-27T05:44:48Z</time>
      </trkpt>
      <trkpt lat="43.1177" lon="5.80157">
        <ele>-19.57</ele>
        <time>2012-05-27T05:44:52Z</time>
      </trkpt>
      <trkpt lat="43.1177" lon="5.80155">
        <ele>-16.21</ele>
        <time>2012-05-27T05:44:57Z</time>
      </trkpt>
      <trkpt lat="43.1177" lon="5.80154">
        <ele>-12.84</ele>
        <time>2012-05-27T05:45:02Z</time>
      </trkpt>
      <trkpt lat="43.1177" lon="5.80153">
        <ele>-12.36</ele>
        <time>2012-05-27T05:45:04Z</time>
      </trkpt>
      <trkpt lat="43.1177" lon="5.80153">
        <ele>-10.92</ele>
        <time>2012-05-27T05:45:07Z</time>
      </trkpt>
      <trkpt lat="43.1177" lon="5.80152">
        <ele>-9.48</ele>
        <time>2012-05-27T05:45:10Z</time>
      </trkpt>
      <trkpt lat="43.1177" lon="5.8015">
        <ele>-6.11</ele>
        <time>2012-05-27T05:45:19Z</time>
      </trkpt>
      <trkpt lat="43.11771" lon="5.8015">
        <ele>-2.75</ele>
        <time>2012-05-27T05:45:30Z</time>
      </trkpt>
      <trkpt lat="43.11771" lon="5.80152">
        <ele>0.62</ele>
        <time>2012-05-27T05:45:43Z</time>
      </trkpt>
      <trkpt lat="43.1177" lon="5.80154">
        <ele>3.5</ele>
        <time>2012-05-27T05:45:56Z</time>
      </trkpt>
      <trkpt lat="43.1177" lon="5.80154">
        <ele>11.19</ele>
        <time>2012-05-27T05:46:17Z</time>
      </trkpt>
      <trkpt lat="43.1177" lon="5.80154">
        <ele>6.39</ele>
        <time>2012-05-27T05:46:18Z</time>
      </trkpt>
      <trkpt lat="43.1177" lon="5.80154">
        <ele>9.27</ele>
        <time>2012-05-27T05:46:19Z</time>
      </trkpt>
      <trkpt lat="43.1177" lon="5.80154">
        <ele>6.39</ele>
        <time>2012-05-27T05:46:23Z</time>
      </trkpt>
      <trkpt lat="43.1177" lon="5.80154">
        <ele>6.87</ele>
        <time>2012-05-27T05:46:58Z</time>
      </trkpt>
      <trkpt lat="43.11771" lon="5.80154">
        <ele>7.35</ele>
        <time>2012-05-27T05:47:38Z</time>
      </trkpt>
      <trkpt lat="43.11771" lon="5.80154">
        <ele>7.35</ele>
        <time>2012-05-27T05:48:11Z</time>
      </trkpt>
      <trkpt lat="43.11773" lon="5.80154">
        <ele>7.35</ele>
        <time>2012-05-27T05:48:52Z</time>
      </trkpt>
      <trkpt lat="43.11773" lon="5.80153">
        <ele>7.35</ele>
        <time>2012-05-27T05:49:25Z</time>
      </trkpt>
      <trkpt lat="43.11774" lon="5.80154">
        <ele>7.35</ele>
        <time>2012-05-27T05:50:01Z</time>
      </trkpt>
      <trkpt lat="43.11774" lon="5.80154">
        <ele>7.83</ele>
        <time>2012-05-27T05:50:40Z</time>
      </trkpt>
      <trkpt lat="43.11774" lon="5.80154">
        <ele>7.83</ele>
        <time>2012-05-27T05:51:11Z</time>
      </trkpt>
      <trkpt lat="43.11774" lon="5.80154">
        <ele>8.31</ele>
        <time>2012-05-27T05:51:29Z</time>
      </trkpt>
      <trkpt lat="43.11774" lon="5.80162">
        <ele>8.31</ele>
        <time>2012-05-27T05:51:38Z</time>
      </trkpt>
      <trkpt lat="43.11775" lon="5.80163">
        <ele>7.83</ele>
        <time>2012-05-27T05:51:39Z</time>
      </trkpt>
      <trkpt lat="43.11772" lon="5.80175">
        <ele>8.31</ele>
        <time>2012-05-27T05:51:56Z</time>
      </trkpt>
      <trkpt lat="43.11771" lon="5.80174">
        <ele>7.83</ele>
        <time>2012-05-27T05:52:19Z</time>
      </trkpt>
      <trkpt lat="43.11771" lon="5.80175">
        <ele>8.31</ele>
        <time>2012-05-27T05:52:35Z</time>
      </trkpt>
      <trkpt lat="43.11771" lon="5.80175">
        <ele>7.83</ele>
        <time>2012-05-27T05:52:55Z</time>
      </trkpt>
      <trkpt lat="43.11771" lon="5.80175">
        <ele>7.83</ele>
        <time>2012-05-27T05:53:20Z</time>
      </trkpt>
      <trkpt lat="43.11771" lon="5.80175">
        <ele>8.31</ele>
        <time>2012-05-27T05:53:34Z</time>
      </trkpt>
      <trkpt lat="43.11771" lon="5.80175">
        <ele>7.83</ele>
        <time>2012-05-27T05:53:51Z</time>
      </trkpt>
      <trkpt lat="43.11771" lon="5.80175">
        <ele>7.83</ele>
        <time>2012-05-27T05:54:16Z</time>
      </trkpt>
      <trkpt lat="43.11771" lon="5.80179">
        <ele>7.83</ele>
        <time>2012-05-27T05:54:36Z</time>
      </trkpt>
      <trkpt lat="43.1177" lon="5.8018">
        <ele>8.31</ele>
        <time>2012-05-27T05:54:53Z</time>
      </trkpt>
      <trkpt lat="43.11769" lon="5.80184">
        <ele>8.31</ele>
        <time>2012-05-27T05:55:09Z</time>
      </trkpt>
      <trkpt lat="43.11769" lon="5.80184">
        <ele>8.31</ele>
        <time>2012-05-27T05:55:40Z</time>
      </trkpt>
      <trkpt lat="43.11768" lon="5.80184">
        <ele>7.83</ele>
        <time>2012-05-27T05:56:13Z</time>
      </trkpt>
      <trkpt lat="43.11768" lon="5.80184">
        <ele>7.83</ele>
        <time>2012-05-27T05:56:49Z</time>
      </trkpt>
      <trkpt lat="43.11767" lon="5.80184">
        <ele>7.83</ele>
        <time>2012-05-27T05:57:28Z</time>
      </trkpt>
      <trkpt lat="43.11767" lon="5.80184">
        <ele>7.83</ele>
        <time>2012-05-27T05:58:08Z</time>
      </trkpt>
      <trkpt lat="43.11767" lon="5.80185">
        <ele>7.35</ele>
        <time>2012-05-27T05:58:44Z</time>
      </trkpt>
      <trkpt lat="43.11767" lon="5.80185">
        <ele>7.83</ele>
        <time>2012-05-27T05:59:25Z</time>
      </trkpt>
      <trkpt lat="43.11766" lon="5.80185">
        <ele>7.35</ele>
        <time>2012-05-27T06:00:03Z</time>
      </trkpt>
      <trkpt lat="43.11766" lon="5.80184">
        <ele>6.87</ele>
        <time>2012-05-27T06:00:40Z</time>
      </trkpt>
      <trkpt lat="43.11767" lon="5.80184">
        <ele>7.35</ele>
        <time>2012-05-27T06:01:19Z</time>
      </trkpt>
      <trkpt lat="43.11767" lon="5.80184">
        <ele>7.35</ele>
        <time>2012-05-27T06:02:00Z</time>
      </trkpt>
      <trkpt lat="43.11767" lon="5.80186">
        <ele>7.35</ele>
        <time>2012-05-27T06:02:37Z</time>
      </trkpt>
      <trkpt lat="43.11771" lon="5.80188">
        <ele>7.35</ele>
        <time>2012-05-27T06:02:56Z</time>
      </trkpt>
      <trkpt lat="43.11771" lon="5.80189">
        <ele>6.87</ele>
        <time>2012-05-27T06:03:08Z</time>
      </trkpt>
      <trkpt lat="43.11771" lon="5.8019">
        <ele>7.35</ele>
        <time>2012-05-27T06:03:14Z</time>
      </trkpt>
      <trkpt lat="43.11769" lon="5.80217">
        <ele>7.35</ele>
        <time>2012-05-27T06:03:22Z</time>
      </trkpt>
      <trkpt lat="43.11743" lon="5.80296">
        <ele>7.83</ele>
        <time>2012-05-27T06:03:37Z</time>
      </trkpt>
      <trkpt lat="43.11732" lon="5.80346">
        <ele>8.31</ele>
        <time>2012-05-27T06:03:46Z</time>
      </trkpt>
      <trkpt lat="43.1173" lon="5.80352">
        <ele>7.35</ele>
        <time>2012-05-27T06:03:47Z</time>
      </trkpt>
      <trkpt lat="43.11727" lon="5.80356">
        <ele>7.83</ele>
        <time>2012-05-27T06:03:48Z</time>
      </trkpt>
      <trkpt lat="43.11673" lon="5.80441">
        <ele>7.83</ele>
        <time>2012-05-27T06:04:05Z</time>
      </trkpt>
      <trkpt lat="43.1166" lon="5.80477">
        <ele>7.83</ele>
        <time>2012-05-27T06:04:11Z</time>
      </trkpt>
      <trkpt lat="43.11659" lon="5.80484">
        <ele>8.31</ele>
        <time>2012-05-27T06:04:12Z</time>
      </trkpt>
      <trkpt lat="43.11629" lon="5.80572">
        <ele>8.31</ele>
        <time>2012-05-27T06:04:27Z</time>
      </trkpt>
      <trkpt lat="43.11621" lon="5.80592">
        <ele>8.31</ele>
        <time>2012-05-27T06:04:31Z</time>
      </trkpt>
      <trkpt lat="43.11618" lon="5.80597">
        <ele>8.31</ele>
        <time>2012-05-27T06:04:32Z</time>
      </trkpt>
      <trkpt lat="43.11615" lon="5.80602">
        <ele>8.79</ele>
        <time>2012-05-27T06:04:33Z</time>
      </trkpt>
      <trkpt lat="43.11612" lon="5.80607">
        <ele>8.31</ele>
        <time>2012-05-27T06:04:34Z</time>
      </trkpt>
      <trkpt lat="43.11609" lon="5.80612">
        <ele>8.31</ele>
        <time>2012-05-27T06:04:35Z</time>
      </trkpt>
      <trkpt lat="43.11609" lon="5.80618">
        <ele>8.79</ele>
        <time>2012-05-27T06:04:36Z</time>
      </trkpt>
      <trkpt lat="43.11611" lon="5.80624">
        <ele>8.79</ele>
        <time>2012-05-27T06:04:37Z</time>
      </trkpt>
      <trkpt lat="43.11614" lon="5.80627">
        <ele>8.79</ele>
        <time>2012-05-27T06:04:38Z</time>
      </trkpt>
      <trkpt lat="43.11618" lon="5.80629">
        <ele>8.79</ele>
        <time>2012-05-27T06:04:39Z</time>
      </trkpt>
      <trkpt lat="43.11622" lon="5.8063">
        <ele>8.31</ele>
        <time>2012-05-27T06:04:40Z</time>
      </trkpt>
      <trkpt lat="43.11626" lon="5.8063">
        <ele>8.79</ele>
        <time>2012-05-27T06:04:41Z</time>
      </trkpt>
      <trkpt lat="43.1164" lon="5.80633">
        <ele>8.79</ele>
        <time>2012-05-27T06:04:44Z</time>
      </trkpt>
      <trkpt lat="43.11713" lon="5.80666">
        <ele>7.83</ele>
        <time>2012-05-27T06:04:59Z</time>
      </trkpt>
      <trkpt lat="43.11763" lon="5.80719">
        <ele>8.31</ele>
        <time>2012-05-27T06:05:11Z</time>
      </trkpt>
      <trkpt lat="43.11766" lon="5.80725">
        <ele>8.31</ele>
        <time>2012-05-27T06:05:12Z</time>
      </trkpt>
      <trkpt lat="43.11775" lon="5.80742">
        <ele>8.31</ele>
        <time>2012-05-27T06:05:15Z</time>
      </trkpt>
      <trkpt lat="43.11786" lon="5.80775">
        <ele>8.79</ele>
        <time>2012-05-27T06:05:20Z</time>
      </trkpt>
      <trkpt lat="43.11789" lon="5.80782">
        <ele>8.79</ele>
        <time>2012-05-27T06:05:21Z</time>
      </trkpt>
      <trkpt lat="43.11802" lon="5.80822">
        <ele>8.79</ele>
        <time>2012-05-27T06:05:27Z</time>
      </trkpt>
      <trkpt lat="43.11837" lon="5.80934">
        <ele>9.75</ele>
        <time>2012-05-27T06:05:43Z</time>
      </trkpt>
      <trkpt lat="43.11853" lon="5.80987">
        <ele>9.75</ele>
        <time>2012-05-27T06:05:50Z</time>
      </trkpt>
      <trkpt lat="43.11877" lon="5.81059">
        <ele>10.23</ele>
        <time>2012-05-27T06:06:00Z</time>
      </trkpt>
      <trkpt lat="43.11886" lon="5.81079">
        <ele>10.23</ele>
        <time>2012-05-27T06:06:03Z</time>
      </trkpt>
      <trkpt lat="43.119" lon="5.81113">
        <ele>10.23</ele>
        <time>2012-05-27T06:06:08Z</time>
      </trkpt>
      <trkpt lat="43.11902" lon="5.81121">
        <ele>9.75</ele>
        <time>2012-05-27T06:06:09Z</time>
      </trkpt>
      <trkpt lat="43.11903" lon="5.81129">
        <ele>9.75</ele>
        <time>2012-05-27T06:06:10Z</time>
      </trkpt>
      <trkpt lat="43.11905" lon="5.81144">
        <ele>10.23</ele>
        <time>2012-05-27T06:06:12Z</time>
      </trkpt>
      <trkpt lat="43.11909" lon="5.81167">
        <ele>10.23</ele>
        <time>2012-05-27T06:06:15Z</time>
      </trkpt>
      <trkpt lat="43.11948" lon="5.81278">
        <ele>10.71</ele>
        <time>2012-05-27T06:06:31Z</time>
      </trkpt>
      <trkpt lat="43.11957" lon="5.81297">
        <ele>11.67</ele>
        <time>2012-05-27T06:06:34Z</time>
      </trkpt>
      <trkpt lat="43.12014" lon="5.81378">
        <ele>12.63</ele>
        <time>2012-05-27T06:06:49Z</time>
      </trkpt>
      <trkpt lat="43.12038" lon="5.81418">
        <ele>12.63</ele>
        <time>2012-05-27T06:06:56Z</time>
      </trkpt>
      <trkpt lat="43.12041" lon="5.81424">
        <ele>13.12</ele>
        <time>2012-05-27T06:06:57Z</time>
      </trkpt>
      <trkpt lat="43.12065" lon="5.8153">
        <ele>13.6</ele>
        <time>2012-05-27T06:07:12Z</time>
      </trkpt>
      <trkpt lat="43.1208" lon="5.81633">
        <ele>13.6</ele>
        <time>2012-05-27T06:07:28Z</time>
      </trkpt>
      <trkpt lat="43.12096" lon="5.81729">
        <ele>14.08</ele>
        <time>2012-05-27T06:07:43Z</time>
      </trkpt>
      <trkpt lat="43.12118" lon="5.81846">
        <ele>14.56</ele>
        <time>2012-05-27T06:08:01Z</time>
      </trkpt>
      <trkpt lat="43.12144" lon="5.8199">
        <ele>16</ele>
        <time>2012-05-27T06:08:23Z</time>
      </trkpt>
      <trkpt lat="43.12148" lon="5.82016">
        <ele>16</ele>
        <time>2012-05-27T06:08:27Z</time>
      </trkpt>
      <trkpt lat="43.1215" lon="5.82022">
        <ele>16</ele>
        <time>2012-05-27T06:08:28Z</time>
      </trkpt>
      <trkpt lat="43.12171" lon="5.82128">
        <ele>16.48</ele>
        <time>2012-05-27T06:08:45Z</time>
      </trkpt>
      <trkpt lat="43.12196" lon="5.8221">
        <ele>16.96</ele>
        <time>2012-05-27T06:08:58Z</time>
      </trkpt>
      <trkpt lat="43.12199" lon="5.82215">
        <ele>17.44</ele>
        <time>2012-05-27T06:08:59Z</time>
      </trkpt>
      <trkpt lat="43.12202" lon="5.82219">
        <ele>17.92</ele>
        <time>2012-05-27T06:09:00Z</time>
      </trkpt>
      <trkpt lat="43.12206" lon="5.82223">
        <ele>17.44</ele>
        <time>2012-05-27T06:09:01Z</time>
      </trkpt>
      <trkpt lat="43.1221" lon="5.82227">
        <ele>17.44</ele>
        <time>2012-05-27T06:09:02Z</time>
      </trkpt>
      <trkpt lat="43.12214" lon="5.8223">
        <ele>16.96</ele>
        <time>2012-05-27T06:09:03Z</time>
      </trkpt>
      <trkpt lat="43.12219" lon="5.82233">
        <ele>17.44</ele>
        <time>2012-05-27T06:09:04Z</time>
      </trkpt>
      <trkpt lat="43.12227" lon="5.82238">
        <ele>17.44</ele>
        <time>2012-05-27T06:09:06Z</time>
      </trkpt>
      <trkpt lat="43.12255" lon="5.82247">
        <ele>17.92</ele>
        <time>2012-05-27T06:09:12Z</time>
      </trkpt>
      <trkpt lat="43.1226" lon="5.82248">
        <ele>17.44</ele>
        <time>2012-05-27T06:09:13Z</time>
      </trkpt>
      <trkpt lat="43.12319" lon="5.82275">
        <ele>18.4</ele>
        <time>2012-05-27T06:09:26Z</time>
      </trkpt>
      <trkpt lat="43.1232" lon="5.82281">
        <ele>18.4</ele>
        <time>2012-05-27T06:09:27Z</time>
      </trkpt>
      <trkpt lat="43.1232" lon="5.82287">
        <ele>18.4</ele>
        <time>2012-05-27T06:09:28Z</time>
      </trkpt>
      <trkpt lat="43.12312" lon="5.82378">
        <ele>18.88</ele>
        <time>2012-05-27T06:09:41Z</time>
      </trkpt>
      <trkpt lat="43.12288" lon="5.82487">
        <ele>18.4</ele>
        <time>2012-05-27T06:09:57Z</time>
      </trkpt>
      <trkpt lat="43.12279" lon="5.82524">
        <ele>18.88</ele>
        <time>2012-05-27T06:10:04Z</time>
      </trkpt>
      <trkpt lat="43.12274" lon="5.82562">
        <ele>18.88</ele>
        <time>2012-05-27T06:10:10Z</time>
      </trkpt>
      <trkpt lat="43.12273" lon="5.82568">
        <ele>18.88</ele>
        <time>2012-05-27T06:10:11Z</time>
      </trkpt>
      <trkpt lat="43.12267" lon="5.82625">
        <ele>19.36</ele>
        <time>2012-05-27T06:10:20Z</time>
      </trkpt>
      <trkpt lat="43.12267" lon="5.82631">
        <ele>19.36</ele>
        <time>2012-05-27T06:10:21Z</time>
      </trkpt>
      <trkpt lat="43.12289" lon="5.82729">
        <ele>19.84</ele>
        <time>2012-05-27T06:10:35Z</time>
      </trkpt>
      <trkpt lat="43.1231" lon="5.82844">
        <ele>19.36</ele>
        <time>2012-05-27T06:10:50Z</time>
      </trkpt>
      <trkpt lat="43.12326" lon="5.82942">
        <ele>20.32</ele>
        <time>2012-05-27T06:11:02Z</time>
      </trkpt>
      <trkpt lat="43.12355" lon="5.83072">
        <ele>21.77</ele>
        <time>2012-05-27T06:11:20Z</time>
      </trkpt>
      <trkpt lat="43.12366" lon="5.83115">
        <ele>22.25</ele>
        <time>2012-05-27T06:11:26Z</time>
      </trkpt>
      <trkpt lat="43.12381" lon="5.83165">
        <ele>22.25</ele>
        <time>2012-05-27T06:11:34Z</time>
      </trkpt>
      <trkpt lat="43.12414" lon="5.83277">
        <ele>23.21</ele>
        <time>2012-05-27T06:11:51Z</time>
      </trkpt>
      <trkpt lat="43.12445" lon="5.83378">
        <ele>24.17</ele>
        <time>2012-05-27T06:12:06Z</time>
      </trkpt>
      <trkpt lat="43.12468" lon="5.83481">
        <ele>25.13</ele>
        <time>2012-05-27T06:12:22Z</time>
      </trkpt>
      <trkpt lat="43.12507" lon="5.83554">
        <ele>25.61</ele>
        <time>2012-05-27T06:12:35Z</time>
      </trkpt>
      <trkpt lat="43.12523" lon="5.83578">
        <ele>26.09</ele>
        <time>2012-05-27T06:12:40Z</time>
      </trkpt>
      <trkpt lat="43.12525" lon="5.83583">
        <ele>26.09</ele>
        <time>2012-05-27T06:12:41Z</time>
      </trkpt>
      <trkpt lat="43.12532" lon="5.836">
        <ele>26.09</ele>
        <time>2012-05-27T06:12:44Z</time>
      </trkpt>
      <trkpt lat="43.12535" lon="5.83605">
        <ele>26.57</ele>
        <time>2012-05-27T06:12:45Z</time>
      </trkpt>
      <trkpt lat="43.12539" lon="5.8361">
        <ele>26.57</ele>
        <time>2012-05-27T06:12:46Z</time>
      </trkpt>
      <trkpt lat="43.1255" lon="5.83626">
        <ele>26.09</ele>
        <time>2012-05-27T06:12:49Z</time>
      </trkpt>
      <trkpt lat="43.12553" lon="5.83632">
        <ele>26.57</ele>
        <time>2012-05-27T06:12:50Z</time>
      </trkpt>
      <trkpt lat="43.12555" lon="5.8364">
        <ele>26.57</ele>
        <time>2012-05-27T06:12:51Z</time>
      </trkpt>
      <trkpt lat="43.12582" lon="5.83775">
        <ele>27.53</ele>
        <time>2012-05-27T06:13:09Z</time>
      </trkpt>
      <trkpt lat="43.1259" lon="5.83822">
        <ele>27.53</ele>
        <time>2012-05-27T06:13:15Z</time>
      </trkpt>
      <trkpt lat="43.12593" lon="5.83829">
        <ele>27.53</ele>
        <time>2012-05-27T06:13:16Z</time>
      </trkpt>
      <trkpt lat="43.12595" lon="5.83836">
        <ele>28.02</ele>
        <time>2012-05-27T06:13:17Z</time>
      </trkpt>
      <trkpt lat="43.12598" lon="5.83843">
        <ele>28.02</ele>
        <time>2012-05-27T06:13:18Z</time>
      </trkpt>
      <trkpt lat="43.12602" lon="5.83849">
        <ele>28.02</ele>
        <time>2012-05-27T06:13:19Z</time>
      </trkpt>
      <trkpt lat="43.12607" lon="5.83854">
        <ele>28.02</ele>
        <time>2012-05-27T06:13:20Z</time>
      </trkpt>
      <trkpt lat="43.12612" lon="5.83859">
        <ele>28.02</ele>
        <time>2012-05-27T06:13:21Z</time>
      </trkpt>
      <trkpt lat="43.12617" lon="5.83863">
        <ele>28.02</ele>
        <time>2012-05-27T06:13:22Z</time>
      </trkpt>
      <trkpt lat="43.12659" lon="5.8389">
        <ele>28.98</ele>
        <time>2012-05-27T06:13:30Z</time>
      </trkpt>
      <trkpt lat="43.12663" lon="5.83895">
        <ele>28.5</ele>
        <time>2012-05-27T06:13:31Z</time>
      </trkpt>
      <trkpt lat="43.12667" lon="5.839">
        <ele>28.98</ele>
        <time>2012-05-27T06:13:32Z</time>
      </trkpt>
      <trkpt lat="43.12678" lon="5.83917">
        <ele>28.98</ele>
        <time>2012-05-27T06:13:35Z</time>
      </trkpt>
      <trkpt lat="43.12681" lon="5.83924">
        <ele>28.98</ele>
        <time>2012-05-27T06:13:36Z</time>
      </trkpt>
      <trkpt lat="43.12683" lon="5.83931">
        <ele>28.98</ele>
        <time>2012-05-27T06:13:37Z</time>
      </trkpt>
      <trkpt lat="43.12689" lon="5.84042">
        <ele>29.94</ele>
        <time>2012-05-27T06:13:51Z</time>
      </trkpt>
      <trkpt lat="43.1269" lon="5.84058">
        <ele>29.94</ele>
        <time>2012-05-27T06:13:53Z</time>
      </trkpt>
      <trkpt lat="43.12692" lon="5.84065">
        <ele>30.42</ele>
        <time>2012-05-27T06:13:54Z</time>
      </trkpt>
      <trkpt lat="43.12694" lon="5.84073">
        <ele>30.42</ele>
        <time>2012-05-27T06:13:55Z</time>
      </trkpt>
      <trkpt lat="43.12739" lon="5.84179">
        <ele>31.86</ele>
        <time>2012-05-27T06:14:11Z</time>
      </trkpt>
      <trkpt lat="43.12764" lon="5.84236">
        <ele>33.78</ele>
        <time>2012-05-27T06:14:21Z</time>
      </trkpt>
      <trkpt lat="43.12765" lon="5.84241">
        <ele>34.26</ele>
        <time>2012-05-27T06:14:22Z</time>
      </trkpt>
      <trkpt lat="43.12804" lon="5.8432">
        <ele>36.19</ele>
        <time>2012-05-27T06:14:37Z</time>
      </trkpt>
      <trkpt lat="43.12843" lon="5.84364">
        <ele>37.63</ele>
        <time>2012-05-27T06:14:47Z</time>
      </trkpt>
      <trkpt lat="43.12846" lon="5.84368">
        <ele>37.15</ele>
        <time>2012-05-27T06:14:48Z</time>
      </trkpt>
      <trkpt lat="43.1285" lon="5.84372">
        <ele>37.63</ele>
        <time>2012-05-27T06:14:49Z</time>
      </trkpt>
      <trkpt lat="43.12853" lon="5.84376">
        <ele>37.15</ele>
        <time>2012-05-27T06:14:50Z</time>
      </trkpt>
      <trkpt lat="43.12856" lon="5.84379">
        <ele>37.15</ele>
        <time>2012-05-27T06:14:51Z</time>
      </trkpt>
      <trkpt lat="43.12859" lon="5.84383">
        <ele>37.15</ele>
        <time>2012-05-27T06:14:52Z</time>
      </trkpt>
      <trkpt lat="43.12862" lon="5.84387">
        <ele>37.15</ele>
        <time>2012-05-27T06:14:53Z</time>
      </trkpt>
      <trkpt lat="43.12865" lon="5.84392">
        <ele>37.63</ele>
        <time>2012-05-27T06:14:54Z</time>
      </trkpt>
      <trkpt lat="43.12867" lon="5.84396">
        <ele>37.63</ele>
        <time>2012-05-27T06:14:55Z</time>
      </trkpt>
      <trkpt lat="43.12864" lon="5.84421">
        <ele>37.15</ele>
        <time>2012-05-27T06:15:02Z</time>
      </trkpt>
      <trkpt lat="43.1286" lon="5.84426">
        <ele>36.67</ele>
        <time>2012-05-27T06:15:03Z</time>
      </trkpt>
      <trkpt lat="43.12856" lon="5.8443">
        <ele>37.15</ele>
        <time>2012-05-27T06:15:04Z</time>
      </trkpt>
      <trkpt lat="43.1278" lon="5.84497">
        <ele>35.23</ele>
        <time>2012-05-27T06:15:18Z</time>
      </trkpt>
      <trkpt lat="43.12731" lon="5.84537">
        <ele>34.74</ele>
        <time>2012-05-27T06:15:27Z</time>
      </trkpt>
      <trkpt lat="43.12725" lon="5.84539">
        <ele>34.26</ele>
        <time>2012-05-27T06:15:28Z</time>
      </trkpt>
      <trkpt lat="43.12719" lon="5.8454">
        <ele>34.26</ele>
        <time>2012-05-27T06:15:29Z</time>
      </trkpt>
      <trkpt lat="43.12706" lon="5.8454">
        <ele>34.26</ele>
        <time>2012-05-27T06:15:31Z</time>
      </trkpt>
      <trkpt lat="43.127" lon="5.84543">
        <ele>34.26</ele>
        <time>2012-05-27T06:15:32Z</time>
      </trkpt>
      <trkpt lat="43.12694" lon="5.84549">
        <ele>33.3</ele>
        <time>2012-05-27T06:15:33Z</time>
      </trkpt>
      <trkpt lat="43.12692" lon="5.84557">
        <ele>33.78</ele>
        <time>2012-05-27T06:15:34Z</time>
      </trkpt>
      <trkpt lat="43.12692" lon="5.84567">
        <ele>33.3</ele>
        <time>2012-05-27T06:15:35Z</time>
      </trkpt>
      <trkpt lat="43.12695" lon="5.84575">
        <ele>33.78</ele>
        <time>2012-05-27T06:15:36Z</time>
      </trkpt>
      <trkpt lat="43.127" lon="5.84582">
        <ele>33.78</ele>
        <time>2012-05-27T06:15:37Z</time>
      </trkpt>
      <trkpt lat="43.12705" lon="5.84588">
        <ele>33.78</ele>
        <time>2012-05-27T06:15:38Z</time>
      </trkpt>
      <trkpt lat="43.12709" lon="5.84594">
        <ele>34.26</ele>
        <time>2012-05-27T06:15:39Z</time>
      </trkpt>
      <trkpt lat="43.12713" lon="5.84602">
        <ele>34.26</ele>
        <time>2012-05-27T06:15:40Z</time>
      </trkpt>
      <trkpt lat="43.12715" lon="5.8461">
        <ele>34.26</ele>
        <time>2012-05-27T06:15:41Z</time>
      </trkpt>
      <trkpt lat="43.12739" lon="5.84741">
        <ele>35.23</ele>
        <time>2012-05-27T06:15:58Z</time>
      </trkpt>
      <trkpt lat="43.12741" lon="5.84761">
        <ele>35.71</ele>
        <time>2012-05-27T06:16:01Z</time>
      </trkpt>
      <trkpt lat="43.12741" lon="5.84803">
        <ele>35.71</ele>
        <time>2012-05-27T06:16:07Z</time>
      </trkpt>
      <trkpt lat="43.12739" lon="5.84826">
        <ele>35.23</ele>
        <time>2012-05-27T06:16:10Z</time>
      </trkpt>
      <trkpt lat="43.12727" lon="5.84945">
        <ele>37.15</ele>
        <time>2012-05-27T06:16:26Z</time>
      </trkpt>
      <trkpt lat="43.12731" lon="5.85055">
        <ele>39.07</ele>
        <time>2012-05-27T06:16:41Z</time>
      </trkpt>
      <trkpt lat="43.12733" lon="5.85082">
        <ele>40.03</ele>
        <time>2012-05-27T06:16:45Z</time>
      </trkpt>
      <trkpt lat="43.12742" lon="5.85182">
        <ele>40.99</ele>
        <time>2012-05-27T06:16:59Z</time>
      </trkpt>
      <trkpt lat="43.12753" lon="5.85292">
        <ele>43.4</ele>
        <time>2012-05-27T06:17:15Z</time>
      </trkpt>
      <trkpt lat="43.12765" lon="5.85396">
        <ele>44.84</ele>
        <time>2012-05-27T06:17:31Z</time>
      </trkpt>
      <trkpt lat="43.12769" lon="5.85432">
        <ele>45.32</ele>
        <time>2012-05-27T06:17:36Z</time>
      </trkpt>
      <trkpt lat="43.12769" lon="5.85439">
        <ele>45.32</ele>
        <time>2012-05-27T06:17:37Z</time>
      </trkpt>
      <trkpt lat="43.1277" lon="5.85502">
        <ele>47.24</ele>
        <time>2012-05-27T06:17:47Z</time>
      </trkpt>
      <trkpt lat="43.12762" lon="5.8561">
        <ele>48.68</ele>
        <time>2012-05-27T06:18:04Z</time>
      </trkpt>
      <trkpt lat="43.12754" lon="5.85718">
        <ele>50.13</ele>
        <time>2012-05-27T06:18:20Z</time>
      </trkpt>
      <trkpt lat="43.12758" lon="5.85819">
        <ele>51.57</ele>
        <time>2012-05-27T06:18:35Z</time>
      </trkpt>
      <trkpt lat="43.1276" lon="5.85935">
        <ele>53.97</ele>
        <time>2012-05-27T06:18:52Z</time>
      </trkpt>
      <trkpt lat="43.12759" lon="5.85953">
        <ele>53.97</ele>
        <time>2012-05-27T06:18:55Z</time>
      </trkpt>
      <trkpt lat="43.12757" lon="5.86075">
        <ele>53.97</ele>
        <time>2012-05-27T06:19:13Z</time>
      </trkpt>
      <trkpt lat="43.1274" lon="5.8617">
        <ele>51.57</ele>
        <time>2012-05-27T06:19:25Z</time>
      </trkpt>
      <trkpt lat="43.12718" lon="5.86244">
        <ele>48.68</ele>
        <time>2012-05-27T06:19:33Z</time>
      </trkpt>
      <trkpt lat="43.12675" lon="5.86382">
        <ele>45.32</ele>
        <time>2012-05-27T06:19:47Z</time>
      </trkpt>
      <trkpt lat="43.12659" lon="5.86517">
        <ele>41.95</ele>
        <time>2012-05-27T06:19:59Z</time>
      </trkpt>
      <trkpt lat="43.12667" lon="5.86668">
        <ele>38.59</ele>
        <time>2012-05-27T06:20:12Z</time>
      </trkpt>
      <trkpt lat="43.12673" lon="5.86794">
        <ele>35.71</ele>
        <time>2012-05-27T06:20:23Z</time>
      </trkpt>
      <trkpt lat="43.12681" lon="5.87006">
        <ele>32.82</ele>
        <time>2012-05-27T06:20:41Z</time>
      </trkpt>
      <trkpt lat="43.12694" lon="5.87163">
        <ele>30.42</ele>
        <time>2012-05-27T06:20:56Z</time>
      </trkpt>
      <trkpt lat="43.12714" lon="5.87345">
        <ele>28.98</ele>
        <time>2012-05-27T06:21:15Z</time>
      </trkpt>
      <trkpt lat="43.1274" lon="5.87455">
        <ele>28.5</ele>
        <time>2012-05-27T06:21:28Z</time>
      </trkpt>
      <trkpt lat="43.12751" lon="5.87488">
        <ele>28.02</ele>
        <time>2012-05-27T06:21:32Z</time>
      </trkpt>
      <trkpt lat="43.12751" lon="5.87497">
        <ele>28.02</ele>
        <time>2012-05-27T06:21:33Z</time>
      </trkpt>
      <trkpt lat="43.12751" lon="5.87506">
        <ele>27.53</ele>
        <time>2012-05-27T06:21:34Z</time>
      </trkpt>
      <trkpt lat="43.12733" lon="5.87643">
        <ele>28.02</ele>
        <time>2012-05-27T06:21:50Z</time>
      </trkpt>
      <trkpt lat="43.12721" lon="5.87697">
        <ele>27.53</ele>
        <time>2012-05-27T06:21:57Z</time>
      </trkpt>
      <trkpt lat="43.12718" lon="5.87703">
        <ele>27.53</ele>
        <time>2012-05-27T06:21:58Z</time>
      </trkpt>
      <trkpt lat="43.12715" lon="5.8771">
        <ele>27.53</ele>
        <time>2012-05-27T06:21:59Z</time>
      </trkpt>
      <trkpt lat="43.12712" lon="5.87715">
        <ele>27.53</ele>
        <time>2012-05-27T06:22:00Z</time>
      </trkpt>
      <trkpt lat="43.12707" lon="5.87719">
        <ele>28.02</ele>
        <time>2012-05-27T06:22:01Z</time>
      </trkpt>
      <trkpt lat="43.12703" lon="5.87723">
        <ele>28.02</ele>
        <time>2012-05-27T06:22:02Z</time>
      </trkpt>
      <trkpt lat="43.12698" lon="5.87727">
        <ele>28.02</ele>
        <time>2012-05-27T06:22:03Z</time>
      </trkpt>
      <trkpt lat="43.12694" lon="5.87733">
        <ele>28.02</ele>
        <time>2012-05-27T06:22:04Z</time>
      </trkpt>
      <trkpt lat="43.12691" lon="5.8774">
        <ele>28.02</ele>
        <time>2012-05-27T06:22:05Z</time>
      </trkpt>
      <trkpt lat="43.12684" lon="5.87762">
        <ele>28.5</ele>
        <time>2012-05-27T06:22:08Z</time>
      </trkpt>
      <trkpt lat="43.12685" lon="5.8777">
        <ele>28.02</ele>
        <time>2012-05-27T06:22:09Z</time>
      </trkpt>
      <trkpt lat="43.12687" lon="5.87777">
        <ele>28.02</ele>
        <time>2012-05-27T06:22:10Z</time>
      </trkpt>
      <trkpt lat="43.12691" lon="5.87783">
        <ele>28.5</ele>
        <time>2012-05-27T06:22:11Z</time>
      </trkpt>
      <trkpt lat="43.12695" lon="5.87788">
        <ele>28.02</ele>
        <time>2012-05-27T06:22:12Z</time>
      </trkpt>
      <trkpt lat="43.127" lon="5.87792">
        <ele>28.02</ele>
        <time>2012-05-27T06:22:13Z</time>
      </trkpt>
      <trkpt lat="43.12706" lon="5.87796">
        <ele>28.02</ele>
        <time>2012-05-27T06:22:14Z</time>
      </trkpt>
      <trkpt lat="43.12711" lon="5.878">
        <ele>28.02</ele>
        <time>2012-05-27T06:22:15Z</time>
      </trkpt>
      <trkpt lat="43.12721" lon="5.87809">
        <ele>28.5</ele>
        <time>2012-05-27T06:22:17Z</time>
      </trkpt>
      <trkpt lat="43.12724" lon="5.87814">
        <ele>28.5</ele>
        <time>2012-05-27T06:22:18Z</time>
      </trkpt>
      <trkpt lat="43.12727" lon="5.8782">
        <ele>28.02</ele>
        <time>2012-05-27T06:22:19Z</time>
      </trkpt>
      <trkpt lat="43.1273" lon="5.87826">
        <ele>28.5</ele>
        <time>2012-05-27T06:22:20Z</time>
      </trkpt>
      <trkpt lat="43.12733" lon="5.87832">
        <ele>28.5</ele>
        <time>2012-05-27T06:22:21Z</time>
      </trkpt>
      <trkpt lat="43.1276" lon="5.87908">
        <ele>28.98</ele>
        <time>2012-05-27T06:22:32Z</time>
      </trkpt>
      <trkpt lat="43.12764" lon="5.87922">
        <ele>28.98</ele>
        <time>2012-05-27T06:22:34Z</time>
      </trkpt>
      <trkpt lat="43.12784" lon="5.88026">
        <ele>28.98</ele>
        <time>2012-05-27T06:22:48Z</time>
      </trkpt>
      <trkpt lat="43.12794" lon="5.88071">
        <ele>28.98</ele>
        <time>2012-05-27T06:22:55Z</time>
      </trkpt>
      <trkpt lat="43.12796" lon="5.88077">
        <ele>29.94</ele>
        <time>2012-05-27T06:22:56Z</time>
      </trkpt>
      <trkpt lat="43.12799" lon="5.88082">
        <ele>29.94</ele>
        <time>2012-05-27T06:22:57Z</time>
      </trkpt>
      <trkpt lat="43.12801" lon="5.88088">
        <ele>29.94</ele>
        <time>2012-05-27T06:22:58Z</time>
      </trkpt>
      <trkpt lat="43.12804" lon="5.88094">
        <ele>28.98</ele>
        <time>2012-05-27T06:22:59Z</time>
      </trkpt>
      <trkpt lat="43.12806" lon="5.881">
        <ele>29.94</ele>
        <time>2012-05-27T06:23:00Z</time>
      </trkpt>
      <trkpt lat="43.12807" lon="5.88106">
        <ele>29.46</ele>
        <time>2012-05-27T06:23:01Z</time>
      </trkpt>
      <trkpt lat="43.12808" lon="5.88112">
        <ele>29.46</ele>
        <time>2012-05-27T06:23:02Z</time>
      </trkpt>
      <trkpt lat="43.12812" lon="5.88197">
        <ele>28.02</ele>
        <time>2012-05-27T06:23:12Z</time>
      </trkpt>
      <trkpt lat="43.12814" lon="5.88206">
        <ele>28.02</ele>
        <time>2012-05-27T06:23:13Z</time>
      </trkpt>
      <trkpt lat="43.12816" lon="5.88213">
        <ele>28.02</ele>
        <time>2012-05-27T06:23:14Z</time>
      </trkpt>
      <trkpt lat="43.12824" lon="5.88233">
        <ele>27.53</ele>
        <time>2012-05-27T06:23:17Z</time>
      </trkpt>
      <trkpt lat="43.12826" lon="5.88241">
        <ele>27.05</ele>
        <time>2012-05-27T06:23:18Z</time>
      </trkpt>
      <trkpt lat="43.12827" lon="5.8825">
        <ele>27.05</ele>
        <time>2012-05-27T06:23:19Z</time>
      </trkpt>
      <trkpt lat="43.1283" lon="5.88354">
        <ele>26.57</ele>
        <time>2012-05-27T06:23:31Z</time>
      </trkpt>
      <trkpt lat="43.12827" lon="5.88362">
        <ele>26.09</ele>
        <time>2012-05-27T06:23:32Z</time>
      </trkpt>
      <trkpt lat="43.12824" lon="5.8837">
        <ele>26.09</ele>
        <time>2012-05-27T06:23:33Z</time>
      </trkpt>
      <trkpt lat="43.12822" lon="5.88378">
        <ele>26.09</ele>
        <time>2012-05-27T06:23:34Z</time>
      </trkpt>
      <trkpt lat="43.1282" lon="5.88387">
        <ele>26.09</ele>
        <time>2012-05-27T06:23:35Z</time>
      </trkpt>
      <trkpt lat="43.1282" lon="5.88396">
        <ele>26.57</ele>
        <time>2012-05-27T06:23:36Z</time>
      </trkpt>
      <trkpt lat="43.1282" lon="5.88406">
        <ele>26.09</ele>
        <time>2012-05-27T06:23:37Z</time>
      </trkpt>
      <trkpt lat="43.12825" lon="5.88531">
        <ele>26.09</ele>
        <time>2012-05-27T06:23:51Z</time>
      </trkpt>
      <trkpt lat="43.12837" lon="5.88615">
        <ele>25.61</ele>
        <time>2012-05-27T06:24:04Z</time>
      </trkpt>
      <trkpt lat="43.12848" lon="5.8867">
        <ele>25.13</ele>
        <time>2012-05-27T06:24:15Z</time>
      </trkpt>
      <trkpt lat="43.12864" lon="5.88777">
        <ele>25.61</ele>
        <time>2012-05-27T06:24:28Z</time>
      </trkpt>
      <trkpt lat="43.1287" lon="5.88899">
        <ele>26.09</ele>
        <time>2012-05-27T06:24:43Z</time>
      </trkpt>
      <trkpt lat="43.12872" lon="5.88968">
        <ele>28.02</ele>
        <time>2012-05-27T06:24:57Z</time>
      </trkpt>
      <trkpt lat="43.12871" lon="5.88983">
        <ele>28.5</ele>
        <time>2012-05-27T06:25:04Z</time>
      </trkpt>
      <trkpt lat="43.12871" lon="5.88984">
        <ele>28.5</ele>
        <time>2012-05-27T06:25:05Z</time>
      </trkpt>
      <trkpt lat="43.12871" lon="5.88985">
        <ele>28.5</ele>
        <time>2012-05-27T06:25:17Z</time>
      </trkpt>
      <trkpt lat="43.12871" lon="5.88985">
        <ele>28.5</ele>
        <time>2012-05-27T06:25:30Z</time>
      </trkpt>
      <trkpt lat="43.1287" lon="5.88989">
        <ele>28.5</ele>
        <time>2012-05-27T06:25:32Z</time>
      </trkpt>
      <trkpt lat="43.12856" lon="5.89045">
        <ele>29.94</ele>
        <time>2012-05-27T06:25:46Z</time>
      </trkpt>
      <trkpt lat="43.12844" lon="5.89086">
        <ele>29.46</ele>
        <time>2012-05-27T06:25:57Z</time>
      </trkpt>
      <trkpt lat="43.12844" lon="5.89088">
        <ele>29.94</ele>
        <time>2012-05-27T06:26:10Z</time>
      </trkpt>
      <trkpt lat="43.12843" lon="5.89091">
        <ele>29.46</ele>
        <time>2012-05-27T06:26:11Z</time>
      </trkpt>
      <trkpt lat="43.12843" lon="5.89095">
        <ele>29.46</ele>
        <time>2012-05-27T06:26:12Z</time>
      </trkpt>
      <trkpt lat="43.12842" lon="5.891">
        <ele>28.98</ele>
        <time>2012-05-27T06:26:13Z</time>
      </trkpt>
      <trkpt lat="43.12841" lon="5.89104">
        <ele>28.98</ele>
        <time>2012-05-27T06:26:14Z</time>
      </trkpt>
      <trkpt lat="43.12841" lon="5.8911">
        <ele>28.5</ele>
        <time>2012-05-27T06:26:15Z</time>
      </trkpt>
      <trkpt lat="43.1284" lon="5.89116">
        <ele>28.5</ele>
        <time>2012-05-27T06:26:16Z</time>
      </trkpt>
      <trkpt lat="43.1284" lon="5.89122">
        <ele>28.02</ele>
        <time>2012-05-27T06:26:17Z</time>
      </trkpt>
      <trkpt lat="43.12841" lon="5.89128">
        <ele>28.02</ele>
        <time>2012-05-27T06:26:18Z</time>
      </trkpt>
      <trkpt lat="43.12842" lon="5.89135">
        <ele>28.02</ele>
        <time>2012-05-27T06:26:19Z</time>
      </trkpt>
      <trkpt lat="43.12844" lon="5.89142">
        <ele>28.02</ele>
        <time>2012-05-27T06:26:20Z</time>
      </trkpt>
      <trkpt lat="43.12846" lon="5.89155">
        <ele>27.53</ele>
        <time>2012-05-27T06:26:22Z</time>
      </trkpt>
      <trkpt lat="43.12847" lon="5.89169">
        <ele>27.05</ele>
        <time>2012-05-27T06:26:24Z</time>
      </trkpt>
      <trkpt lat="43.12847" lon="5.89177">
        <ele>27.05</ele>
        <time>2012-05-27T06:26:25Z</time>
      </trkpt>
      <trkpt lat="43.12846" lon="5.89183">
        <ele>26.09</ele>
        <time>2012-05-27T06:26:26Z</time>
      </trkpt>
      <trkpt lat="43.12844" lon="5.8919">
        <ele>26.57</ele>
        <time>2012-05-27T06:26:27Z</time>
      </trkpt>
      <trkpt lat="43.12841" lon="5.89197">
        <ele>26.09</ele>
        <time>2012-05-27T06:26:28Z</time>
      </trkpt>
      <trkpt lat="43.12816" lon="5.89256">
        <ele>25.13</ele>
        <time>2012-05-27T06:26:36Z</time>
      </trkpt>
      <trkpt lat="43.12746" lon="5.89381">
        <ele>22.73</ele>
        <time>2012-05-27T06:26:52Z</time>
      </trkpt>
      <trkpt lat="43.12686" lon="5.89481">
        <ele>21.29</ele>
        <time>2012-05-27T06:27:05Z</time>
      </trkpt>
      <trkpt lat="43.12682" lon="5.8949">
        <ele>21.29</ele>
        <time>2012-05-27T06:27:06Z</time>
      </trkpt>
      <trkpt lat="43.12679" lon="5.89499">
        <ele>20.81</ele>
        <time>2012-05-27T06:27:07Z</time>
      </trkpt>
      <trkpt lat="43.12636" lon="5.89672">
        <ele>18.4</ele>
        <time>2012-05-27T06:27:25Z</time>
      </trkpt>
      <trkpt lat="43.12626" lon="5.89708">
        <ele>18.4</ele>
        <time>2012-05-27T06:27:32Z</time>
      </trkpt>
      <trkpt lat="43.12616" lon="5.89717">
        <ele>18.4</ele>
        <time>2012-05-27T06:27:35Z</time>
      </trkpt>
      <trkpt lat="43.12611" lon="5.89719">
        <ele>17.92</ele>
        <time>2012-05-27T06:27:36Z</time>
      </trkpt>
      <trkpt lat="43.12588" lon="5.89724">
        <ele>17.44</ele>
        <time>2012-05-27T06:27:40Z</time>
      </trkpt>
      <trkpt lat="43.12572" lon="5.89721">
        <ele>17.44</ele>
        <time>2012-05-27T06:27:42Z</time>
      </trkpt>
      <trkpt lat="43.12564" lon="5.89717">
        <ele>16.96</ele>
        <time>2012-05-27T06:27:43Z</time>
      </trkpt>
      <trkpt lat="43.1256" lon="5.89706">
        <ele>16.96</ele>
        <time>2012-05-27T06:27:44Z</time>
      </trkpt>
      <trkpt lat="43.12517" lon="5.89661">
        <ele>16</ele>
        <time>2012-05-27T06:27:52Z</time>
      </trkpt>
      <trkpt lat="43.12511" lon="5.89656">
        <ele>16.48</ele>
        <time>2012-05-27T06:27:53Z</time>
      </trkpt>
      <trkpt lat="43.12481" lon="5.89638">
        <ele>16</ele>
        <time>2012-05-27T06:28:01Z</time>
      </trkpt>
      <trkpt lat="43.12481" lon="5.89638">
        <ele>16</ele>
        <time>2012-05-27T06:28:21Z</time>
      </trkpt>
      <trkpt lat="43.12481" lon="5.89637">
        <ele>15.52</ele>
        <time>2012-05-27T06:28:42Z</time>
      </trkpt>
      <trkpt lat="43.12481" lon="5.89637">
        <ele>15.52</ele>
        <time>2012-05-27T06:28:52Z</time>
      </trkpt>
      <trkpt lat="43.1248" lon="5.89639">
        <ele>15.52</ele>
        <time>2012-05-27T06:28:53Z</time>
      </trkpt>
      <trkpt lat="43.12479" lon="5.89641">
        <ele>15.52</ele>
        <time>2012-05-27T06:28:54Z</time>
      </trkpt>
      <trkpt lat="43.12478" lon="5.89644">
        <ele>16</ele>
        <time>2012-05-27T06:28:55Z</time>
      </trkpt>
      <trkpt lat="43.12477" lon="5.89647">
        <ele>16</ele>
        <time>2012-05-27T06:28:56Z</time>
      </trkpt>
      <trkpt lat="43.12477" lon="5.89651">
        <ele>15.52</ele>
        <time>2012-05-27T06:28:57Z</time>
      </trkpt>
      <trkpt lat="43.12478" lon="5.89654">
        <ele>15.52</ele>
        <time>2012-05-27T06:28:58Z</time>
      </trkpt>
      <trkpt lat="43.12479" lon="5.89657">
        <ele>15.52</ele>
        <time>2012-05-27T06:28:59Z</time>
      </trkpt>
      <trkpt lat="43.12481" lon="5.89659">
        <ele>15.52</ele>
        <time>2012-05-27T06:29:00Z</time>
      </trkpt>
      <trkpt lat="43.12484" lon="5.89662">
        <ele>16</ele>
        <time>2012-05-27T06:29:01Z</time>
      </trkpt>
      <trkpt lat="43.12508" lon="5.89693">
        <ele>16.96</ele>
        <time>2012-05-27T06:29:08Z</time>
      </trkpt>
      <trkpt lat="43.12516" lon="5.89709">
        <ele>17.44</ele>
        <time>2012-05-27T06:29:11Z</time>
      </trkpt>
      <trkpt lat="43.12525" lon="5.89738">
        <ele>17.44</ele>
        <time>2012-05-27T06:29:16Z</time>
      </trkpt>
      <trkpt lat="43.12528" lon="5.8975">
        <ele>17.92</ele>
        <time>2012-05-27T06:29:18Z</time>
      </trkpt>
      <trkpt lat="43.12531" lon="5.89787">
        <ele>19.36</ele>
        <time>2012-05-27T06:29:24Z</time>
      </trkpt>
      <trkpt lat="43.12532" lon="5.89793">
        <ele>19.36</ele>
        <time>2012-05-27T06:29:25Z</time>
      </trkpt>
      <trkpt lat="43.1253" lon="5.89817">
        <ele>19.84</ele>
        <time>2012-05-27T06:29:29Z</time>
      </trkpt>
      <trkpt lat="43.12529" lon="5.89824">
        <ele>19.84</ele>
        <time>2012-05-27T06:29:30Z</time>
      </trkpt>
      <trkpt lat="43.12508" lon="5.89905">
        <ele>20.81</ele>
        <time>2012-05-27T06:29:43Z</time>
      </trkpt>
      <trkpt lat="43.12486" lon="5.89973">
        <ele>21.29</ele>
        <time>2012-05-27T06:29:54Z</time>
      </trkpt>
      <trkpt lat="43.12452" lon="5.90083">
        <ele>21.29</ele>
        <time>2012-05-27T06:30:09Z</time>
      </trkpt>
      <trkpt lat="43.12431" lon="5.90156">
        <ele>19.36</ele>
        <time>2012-05-27T06:30:19Z</time>
      </trkpt>
      <trkpt lat="43.12425" lon="5.90171">
        <ele>18.88</ele>
        <time>2012-05-27T06:30:21Z</time>
      </trkpt>
      <trkpt lat="43.12421" lon="5.90178">
        <ele>18.88</ele>
        <time>2012-05-27T06:30:22Z</time>
      </trkpt>
      <trkpt lat="43.12401" lon="5.90207">
        <ele>16.96</ele>
        <time>2012-05-27T06:30:26Z</time>
      </trkpt>
      <trkpt lat="43.12396" lon="5.90216">
        <ele>16.48</ele>
        <time>2012-05-27T06:30:27Z</time>
      </trkpt>
      <trkpt lat="43.12391" lon="5.90225">
        <ele>15.52</ele>
        <time>2012-05-27T06:30:28Z</time>
      </trkpt>
      <trkpt lat="43.12388" lon="5.90236">
        <ele>15.04</ele>
        <time>2012-05-27T06:30:29Z</time>
      </trkpt>
      <trkpt lat="43.12385" lon="5.90247">
        <ele>15.04</ele>
        <time>2012-05-27T06:30:30Z</time>
      </trkpt>
      <trkpt lat="43.12383" lon="5.90258">
        <ele>14.08</ele>
        <time>2012-05-27T06:30:31Z</time>
      </trkpt>
      <trkpt lat="43.12382" lon="5.90269">
        <ele>14.08</ele>
        <time>2012-05-27T06:30:32Z</time>
      </trkpt>
      <trkpt lat="43.1238" lon="5.90287">
        <ele>12.63</ele>
        <time>2012-05-27T06:30:34Z</time>
      </trkpt>
      <trkpt lat="43.12377" lon="5.90294">
        <ele>13.12</ele>
        <time>2012-05-27T06:30:35Z</time>
      </trkpt>
      <trkpt lat="43.12373" lon="5.903">
        <ele>12.63</ele>
        <time>2012-05-27T06:30:36Z</time>
      </trkpt>
      <trkpt lat="43.12369" lon="5.90303">
        <ele>12.63</ele>
        <time>2012-05-27T06:30:37Z</time>
      </trkpt>
      <trkpt lat="43.12365" lon="5.90305">
        <ele>12.15</ele>
        <time>2012-05-27T06:30:38Z</time>
      </trkpt>
      <trkpt lat="43.12361" lon="5.90307">
        <ele>12.15</ele>
        <time>2012-05-27T06:30:39Z</time>
      </trkpt>
      <trkpt lat="43.12357" lon="5.90313">
        <ele>12.15</ele>
        <time>2012-05-27T06:30:41Z</time>
      </trkpt>
      <trkpt lat="43.12356" lon="5.90318">
        <ele>12.15</ele>
        <time>2012-05-27T06:30:42Z</time>
      </trkpt>
      <trkpt lat="43.12355" lon="5.90323">
        <ele>12.63</ele>
        <time>2012-05-27T06:30:43Z</time>
      </trkpt>
      <trkpt lat="43.12351" lon="5.90343">
        <ele>12.15</ele>
        <time>2012-05-27T06:30:46Z</time>
      </trkpt>
      <trkpt lat="43.12351" lon="5.90351">
        <ele>12.15</ele>
        <time>2012-05-27T06:30:47Z</time>
      </trkpt>
      <trkpt lat="43.12352" lon="5.90358">
        <ele>12.15</ele>
        <time>2012-05-27T06:30:48Z</time>
      </trkpt>
      <trkpt lat="43.12355" lon="5.90365">
        <ele>12.15</ele>
        <time>2012-05-27T06:30:49Z</time>
      </trkpt>
      <trkpt lat="43.12359" lon="5.9037">
        <ele>11.67</ele>
        <time>2012-05-27T06:30:50Z</time>
      </trkpt>
      <trkpt lat="43.12364" lon="5.90374">
        <ele>12.15</ele>
        <time>2012-05-27T06:30:51Z</time>
      </trkpt>
      <trkpt lat="43.12369" lon="5.90376">
        <ele>11.67</ele>
        <time>2012-05-27T06:30:52Z</time>
      </trkpt>
      <trkpt lat="43.12374" lon="5.90378">
        <ele>12.15</ele>
        <time>2012-05-27T06:30:53Z</time>
      </trkpt>
      <trkpt lat="43.12378" lon="5.9038">
        <ele>12.15</ele>
        <time>2012-05-27T06:30:54Z</time>
      </trkpt>
      <trkpt lat="43.12381" lon="5.90384">
        <ele>11.67</ele>
        <time>2012-05-27T06:30:55Z</time>
      </trkpt>
      <trkpt lat="43.12384" lon="5.90388">
        <ele>12.15</ele>
        <time>2012-05-27T06:30:56Z</time>
      </trkpt>
      <trkpt lat="43.12391" lon="5.90398">
        <ele>12.15</ele>
        <time>2012-05-27T06:30:58Z</time>
      </trkpt>
      <trkpt lat="43.12437" lon="5.90472">
        <ele>9.27</ele>
        <time>2012-05-27T06:31:08Z</time>
      </trkpt>
      <trkpt lat="43.12449" lon="5.90497">
        <ele>9.75</ele>
        <time>2012-05-27T06:31:11Z</time>
      </trkpt>
      <trkpt lat="43.1245" lon="5.90507">
        <ele>9.27</ele>
        <time>2012-05-27T06:31:12Z</time>
      </trkpt>
      <trkpt lat="43.12461" lon="5.90645">
        <ele>10.23</ele>
        <time>2012-05-27T06:31:27Z</time>
      </trkpt>
      <trkpt lat="43.12457" lon="5.9068">
        <ele>10.71</ele>
        <time>2012-05-27T06:31:31Z</time>
      </trkpt>
      <trkpt lat="43.12457" lon="5.90689">
        <ele>10.23</ele>
        <time>2012-05-27T06:31:32Z</time>
      </trkpt>
      <trkpt lat="43.12458" lon="5.90697">
        <ele>10.23</ele>
        <time>2012-05-27T06:31:33Z</time>
      </trkpt>
      <trkpt lat="43.1246" lon="5.90706">
        <ele>10.23</ele>
        <time>2012-05-27T06:31:34Z</time>
      </trkpt>
      <trkpt lat="43.12462" lon="5.90714">
        <ele>10.71</ele>
        <time>2012-05-27T06:31:35Z</time>
      </trkpt>
      <trkpt lat="43.12465" lon="5.90721">
        <ele>10.23</ele>
        <time>2012-05-27T06:31:36Z</time>
      </trkpt>
      <trkpt lat="43.12469" lon="5.90728">
        <ele>10.23</ele>
        <time>2012-05-27T06:31:37Z</time>
      </trkpt>
      <trkpt lat="43.12473" lon="5.90735">
        <ele>10.23</ele>
        <time>2012-05-27T06:31:38Z</time>
      </trkpt>
      <trkpt lat="43.12534" lon="5.90844">
        <ele>12.63</ele>
        <time>2012-05-27T06:31:54Z</time>
      </trkpt>
      <trkpt lat="43.12583" lon="5.90944">
        <ele>11.67</ele>
        <time>2012-05-27T06:32:08Z</time>
      </trkpt>
      <trkpt lat="43.1259" lon="5.90962">
        <ele>10.71</ele>
        <time>2012-05-27T06:32:10Z</time>
      </trkpt>
      <trkpt lat="43.12627" lon="5.91093">
        <ele>11.19</ele>
        <time>2012-05-27T06:32:25Z</time>
      </trkpt>
      <trkpt lat="43.12647" lon="5.91236">
        <ele>9.75</ele>
        <time>2012-05-27T06:32:41Z</time>
      </trkpt>
      <trkpt lat="43.12649" lon="5.91293">
        <ele>10.23</ele>
        <time>2012-05-27T06:32:48Z</time>
      </trkpt>
      <trkpt lat="43.12653" lon="5.9136">
        <ele>10.23</ele>
        <time>2012-05-27T06:32:57Z</time>
      </trkpt>
      <trkpt lat="43.12653" lon="5.91442">
        <ele>10.23</ele>
        <time>2012-05-27T06:33:07Z</time>
      </trkpt>
      <trkpt lat="43.12654" lon="5.9145">
        <ele>9.75</ele>
        <time>2012-05-27T06:33:08Z</time>
      </trkpt>
      <trkpt lat="43.12654" lon="5.91459">
        <ele>9.75</ele>
        <time>2012-05-27T06:33:09Z</time>
      </trkpt>
      <trkpt lat="43.12652" lon="5.91477">
        <ele>10.23</ele>
        <time>2012-05-27T06:33:11Z</time>
      </trkpt>
      <trkpt lat="43.1265" lon="5.91486">
        <ele>9.75</ele>
        <time>2012-05-27T06:33:12Z</time>
      </trkpt>
      <trkpt lat="43.12643" lon="5.91531">
        <ele>9.75</ele>
        <time>2012-05-27T06:33:17Z</time>
      </trkpt>
      <trkpt lat="43.12641" lon="5.9154">
        <ele>9.75</ele>
        <time>2012-05-27T06:33:18Z</time>
      </trkpt>
      <trkpt lat="43.12641" lon="5.91549">
        <ele>9.75</ele>
        <time>2012-05-27T06:33:19Z</time>
      </trkpt>
      <trkpt lat="43.12641" lon="5.91558">
        <ele>9.75</ele>
        <time>2012-05-27T06:33:20Z</time>
      </trkpt>
      <trkpt lat="43.12642" lon="5.91567">
        <ele>9.75</ele>
        <time>2012-05-27T06:33:21Z</time>
      </trkpt>
      <trkpt lat="43.12643" lon="5.91576">
        <ele>9.75</ele>
        <time>2012-05-27T06:33:22Z</time>
      </trkpt>
      <trkpt lat="43.12644" lon="5.91585">
        <ele>9.75</ele>
        <time>2012-05-27T06:33:23Z</time>
      </trkpt>
      <trkpt lat="43.12642" lon="5.91629">
        <ele>9.75</ele>
        <time>2012-05-27T06:33:28Z</time>
      </trkpt>
      <trkpt lat="43.1264" lon="5.91636">
        <ele>9.75</ele>
        <time>2012-05-27T06:33:29Z</time>
      </trkpt>
      <trkpt lat="43.12635" lon="5.91642">
        <ele>9.75</ele>
        <time>2012-05-27T06:33:30Z</time>
      </trkpt>
      <trkpt lat="43.12631" lon="5.91648">
        <ele>9.75</ele>
        <time>2012-05-27T06:33:31Z</time>
      </trkpt>
      <trkpt lat="43.12628" lon="5.91655">
        <ele>10.23</ele>
        <time>2012-05-27T06:33:32Z</time>
      </trkpt>
      <trkpt lat="43.12628" lon="5.91663">
        <ele>10.23</ele>
        <time>2012-05-27T06:33:33Z</time>
      </trkpt>
      <trkpt lat="43.1263" lon="5.9167">
        <ele>9.75</ele>
        <time>2012-05-27T06:33:34Z</time>
      </trkpt>
      <trkpt lat="43.12634" lon="5.91675">
        <ele>10.23</ele>
        <time>2012-05-27T06:33:35Z</time>
      </trkpt>
      <trkpt lat="43.12638" lon="5.9168">
        <ele>10.23</ele>
        <time>2012-05-27T06:33:36Z</time>
      </trkpt>
      <trkpt lat="43.12642" lon="5.91686">
        <ele>9.75</ele>
        <time>2012-05-27T06:33:37Z</time>
      </trkpt>
      <trkpt lat="43.12644" lon="5.91694">
        <ele>9.75</ele>
        <time>2012-05-27T06:33:38Z</time>
      </trkpt>
      <trkpt lat="43.12646" lon="5.91702">
        <ele>9.27</ele>
        <time>2012-05-27T06:33:39Z</time>
      </trkpt>
      <trkpt lat="43.12653" lon="5.91745">
        <ele>9.27</ele>
        <time>2012-05-27T06:33:44Z</time>
      </trkpt>
      <trkpt lat="43.12659" lon="5.91761">
        <ele>8.79</ele>
        <time>2012-05-27T06:33:46Z</time>
      </trkpt>
      <trkpt lat="43.12662" lon="5.91769">
        <ele>9.27</ele>
        <time>2012-05-27T06:33:47Z</time>
      </trkpt>
      <trkpt lat="43.12669" lon="5.91785">
        <ele>9.27</ele>
        <time>2012-05-27T06:33:49Z</time>
      </trkpt>
      <trkpt lat="43.12671" lon="5.91794">
        <ele>9.27</ele>
        <time>2012-05-27T06:33:50Z</time>
      </trkpt>
      <trkpt lat="43.12673" lon="5.91802">
        <ele>9.27</ele>
        <time>2012-05-27T06:33:51Z</time>
      </trkpt>
      <trkpt lat="43.12676" lon="5.91811">
        <ele>9.27</ele>
        <time>2012-05-27T06:33:52Z</time>
      </trkpt>
      <trkpt lat="43.12678" lon="5.91819">
        <ele>9.27</ele>
        <time>2012-05-27T06:33:53Z</time>
      </trkpt>
      <trkpt lat="43.12699" lon="5.91897">
        <ele>9.75</ele>
        <time>2012-05-27T06:34:03Z</time>
      </trkpt>
      <trkpt lat="43.127" lon="5.91906">
        <ele>10.23</ele>
        <time>2012-05-27T06:34:04Z</time>
      </trkpt>
      <trkpt lat="43.127" lon="5.91942">
        <ele>10.23</ele>
        <time>2012-05-27T06:34:08Z</time>
      </trkpt>
      <trkpt lat="43.12667" lon="5.92045">
        <ele>9.27</ele>
        <time>2012-05-27T06:34:20Z</time>
      </trkpt>
      <trkpt lat="43.12616" lon="5.92171">
        <ele>8.79</ele>
        <time>2012-05-27T06:34:35Z</time>
      </trkpt>
      <trkpt lat="43.12596" lon="5.92219">
        <ele>9.27</ele>
        <time>2012-05-27T06:34:42Z</time>
      </trkpt>
      <trkpt lat="43.12595" lon="5.92227">
        <ele>9.27</ele>
        <time>2012-05-27T06:34:43Z</time>
      </trkpt>
      <trkpt lat="43.12596" lon="5.92233">
        <ele>9.27</ele>
        <time>2012-05-27T06:34:44Z</time>
      </trkpt>
      <trkpt lat="43.12596" lon="5.9224">
        <ele>9.27</ele>
        <time>2012-05-27T06:34:45Z</time>
      </trkpt>
      <trkpt lat="43.12595" lon="5.92246">
        <ele>8.79</ele>
        <time>2012-05-27T06:34:46Z</time>
      </trkpt>
      <trkpt lat="43.12592" lon="5.92252">
        <ele>9.27</ele>
        <time>2012-05-27T06:34:47Z</time>
      </trkpt>
      <trkpt lat="43.12587" lon="5.92262">
        <ele>9.27</ele>
        <time>2012-05-27T06:34:49Z</time>
      </trkpt>
      <trkpt lat="43.12584" lon="5.92267">
        <ele>9.27</ele>
        <time>2012-05-27T06:34:50Z</time>
      </trkpt>
      <trkpt lat="43.12581" lon="5.92276">
        <ele>9.27</ele>
        <time>2012-05-27T06:34:52Z</time>
      </trkpt>
      <trkpt lat="43.1258" lon="5.92281">
        <ele>9.27</ele>
        <time>2012-05-27T06:34:53Z</time>
      </trkpt>
      <trkpt lat="43.12578" lon="5.92286">
        <ele>9.27</ele>
        <time>2012-05-27T06:34:54Z</time>
      </trkpt>
      <trkpt lat="43.12541" lon="5.92369">
        <ele>9.27</ele>
        <time>2012-05-27T06:35:06Z</time>
      </trkpt>
      <trkpt lat="43.12504" lon="5.92457">
        <ele>8.31</ele>
        <time>2012-05-27T06:35:17Z</time>
      </trkpt>
      <trkpt lat="43.12486" lon="5.92497">
        <ele>7.83</ele>
        <time>2012-05-27T06:35:22Z</time>
      </trkpt>
      <trkpt lat="43.12483" lon="5.92505">
        <ele>7.83</ele>
        <time>2012-05-27T06:35:23Z</time>
      </trkpt>
      <trkpt lat="43.12455" lon="5.92572">
        <ele>7.83</ele>
        <time>2012-05-27T06:35:32Z</time>
      </trkpt>
      <trkpt lat="43.12451" lon="5.92578">
        <ele>7.83</ele>
        <time>2012-05-27T06:35:33Z</time>
      </trkpt>
      <trkpt lat="43.12445" lon="5.92592">
        <ele>7.35</ele>
        <time>2012-05-27T06:35:35Z</time>
      </trkpt>
      <trkpt lat="43.12407" lon="5.92684">
        <ele>8.31</ele>
        <time>2012-05-27T06:35:47Z</time>
      </trkpt>
      <trkpt lat="43.12381" lon="5.92741">
        <ele>7.35</ele>
        <time>2012-05-27T06:35:55Z</time>
      </trkpt>
      <trkpt lat="43.12346" lon="5.92825">
        <ele>7.83</ele>
        <time>2012-05-27T06:36:08Z</time>
      </trkpt>
      <trkpt lat="43.1231" lon="5.92906">
        <ele>8.79</ele>
        <time>2012-05-27T06:36:21Z</time>
      </trkpt>
      <trkpt lat="43.123" lon="5.92917">
        <ele>8.79</ele>
        <time>2012-05-27T06:36:30Z</time>
      </trkpt>
      <trkpt lat="43.123" lon="5.92917">
        <ele>8.31</ele>
        <time>2012-05-27T06:36:46Z</time>
      </trkpt>
      <trkpt lat="43.12298" lon="5.92918">
        <ele>8.31</ele>
        <time>2012-05-27T06:36:47Z</time>
      </trkpt>
      <trkpt lat="43.12295" lon="5.92919">
        <ele>8.31</ele>
        <time>2012-05-27T06:36:48Z</time>
      </trkpt>
      <trkpt lat="43.12293" lon="5.9292">
        <ele>8.31</ele>
        <time>2012-05-27T06:36:49Z</time>
      </trkpt>
      <trkpt lat="43.12291" lon="5.9292">
        <ele>8.31</ele>
        <time>2012-05-27T06:36:50Z</time>
      </trkpt>
      <trkpt lat="43.1226" lon="5.92904">
        <ele>7.83</ele>
        <time>2012-05-27T06:36:59Z</time>
      </trkpt>
      <trkpt lat="43.12225" lon="5.92884">
        <ele>7.83</ele>
        <time>2012-05-27T06:37:07Z</time>
      </trkpt>
      <trkpt lat="43.1222" lon="5.92883">
        <ele>7.83</ele>
        <time>2012-05-27T06:37:08Z</time>
      </trkpt>
      <trkpt lat="43.1221" lon="5.92884">
        <ele>7.35</ele>
        <time>2012-05-27T06:37:10Z</time>
      </trkpt>
      <trkpt lat="43.12204" lon="5.92886">
        <ele>6.87</ele>
        <time>2012-05-27T06:37:11Z</time>
      </trkpt>
      <trkpt lat="43.12199" lon="5.92888">
        <ele>7.35</ele>
        <time>2012-05-27T06:37:12Z</time>
      </trkpt>
      <trkpt lat="43.12194" lon="5.92892">
        <ele>7.35</ele>
        <time>2012-05-27T06:37:13Z</time>
      </trkpt>
      <trkpt lat="43.1219" lon="5.92897">
        <ele>6.87</ele>
        <time>2012-05-27T06:37:14Z</time>
      </trkpt>
      <trkpt lat="43.12186" lon="5.92902">
        <ele>6.87</ele>
        <time>2012-05-27T06:37:15Z</time>
      </trkpt>
      <trkpt lat="43.12182" lon="5.92908">
        <ele>7.35</ele>
        <time>2012-05-27T06:37:16Z</time>
      </trkpt>
      <trkpt lat="43.12179" lon="5.92914">
        <ele>7.35</ele>
        <time>2012-05-27T06:37:17Z</time>
      </trkpt>
      <trkpt lat="43.12135" lon="5.92997">
        <ele>6.87</ele>
        <time>2012-05-27T06:37:31Z</time>
      </trkpt>
      <trkpt lat="43.12126" lon="5.93014">
        <ele>6.87</ele>
        <time>2012-05-27T06:37:42Z</time>
      </trkpt>
      <trkpt lat="43.12126" lon="5.93014">
        <ele>6.87</ele>
        <time>2012-05-27T06:37:59Z</time>
      </trkpt>
      <trkpt lat="43.12126" lon="5.93016">
        <ele>6.87</ele>
        <time>2012-05-27T06:38:00Z</time>
      </trkpt>
      <trkpt lat="43.12125" lon="5.93019">
        <ele>6.87</ele>
        <time>2012-05-27T06:38:01Z</time>
      </trkpt>
      <trkpt lat="43.12125" lon="5.93022">
        <ele>6.87</ele>
        <time>2012-05-27T06:38:02Z</time>
      </trkpt>
      <trkpt lat="43.12124" lon="5.93025">
        <ele>6.87</ele>
        <time>2012-05-27T06:38:03Z</time>
      </trkpt>
      <trkpt lat="43.12122" lon="5.93028">
        <ele>6.87</ele>
        <time>2012-05-27T06:38:04Z</time>
      </trkpt>
      <trkpt lat="43.1212" lon="5.93032">
        <ele>6.87</ele>
        <time>2012-05-27T06:38:05Z</time>
      </trkpt>
      <trkpt lat="43.12119" lon="5.93037">
        <ele>6.39</ele>
        <time>2012-05-27T06:38:06Z</time>
      </trkpt>
      <trkpt lat="43.1211" lon="5.93055">
        <ele>6.39</ele>
        <time>2012-05-27T06:38:10Z</time>
      </trkpt>
      <trkpt lat="43.12108" lon="5.9306">
        <ele>6.87</ele>
        <time>2012-05-27T06:38:11Z</time>
      </trkpt>
      <trkpt lat="43.12094" lon="5.93085">
        <ele>6.39</ele>
        <time>2012-05-27T06:38:16Z</time>
      </trkpt>
      <trkpt lat="43.12091" lon="5.9309">
        <ele>6.39</ele>
        <time>2012-05-27T06:38:17Z</time>
      </trkpt>
      <trkpt lat="43.12061" lon="5.93147">
        <ele>6.87</ele>
        <time>2012-05-27T06:38:28Z</time>
      </trkpt>
      <trkpt lat="43.12058" lon="5.93152">
        <ele>6.39</ele>
        <time>2012-05-27T06:38:29Z</time>
      </trkpt>
      <trkpt lat="43.12055" lon="5.93158">
        <ele>6.87</ele>
        <time>2012-05-27T06:38:30Z</time>
      </trkpt>
      <trkpt lat="43.12047" lon="5.93174">
        <ele>6.39</ele>
        <time>2012-05-27T06:38:33Z</time>
      </trkpt>
      <trkpt lat="43.12043" lon="5.93179">
        <ele>6.87</ele>
        <time>2012-05-27T06:38:34Z</time>
      </trkpt>
      <trkpt lat="43.12037" lon="5.9319">
        <ele>6.39</ele>
        <time>2012-05-27T06:38:36Z</time>
      </trkpt>
      <trkpt lat="43.12024" lon="5.93205">
        <ele>6.87</ele>
        <time>2012-05-27T06:38:39Z</time>
      </trkpt>
      <trkpt lat="43.12022" lon="5.9321">
        <ele>6.39</ele>
        <time>2012-05-27T06:38:40Z</time>
      </trkpt>
      <trkpt lat="43.12017" lon="5.93222">
        <ele>6.39</ele>
        <time>2012-05-27T06:38:42Z</time>
      </trkpt>
      <trkpt lat="43.12014" lon="5.93227">
        <ele>6.87</ele>
        <time>2012-05-27T06:38:43Z</time>
      </trkpt>
      <trkpt lat="43.11978" lon="5.93303">
        <ele>6.39</ele>
        <time>2012-05-27T06:38:56Z</time>
      </trkpt>
      <trkpt lat="43.11975" lon="5.93308">
        <ele>6.39</ele>
        <time>2012-05-27T06:38:57Z</time>
      </trkpt>
      <trkpt lat="43.11964" lon="5.93334">
        <ele>6.87</ele>
        <time>2012-05-27T06:39:07Z</time>
      </trkpt>
      <trkpt lat="43.11963" lon="5.93336">
        <ele>6.87</ele>
        <time>2012-05-27T06:39:22Z</time>
      </trkpt>
      <trkpt lat="43.11963" lon="5.93338">
        <ele>6.87</ele>
        <time>2012-05-27T06:39:23Z</time>
      </trkpt>
      <trkpt lat="43.11961" lon="5.93339">
        <ele>6.87</ele>
        <time>2012-05-27T06:39:24Z</time>
      </trkpt>
      <trkpt lat="43.1196" lon="5.93341">
        <ele>6.39</ele>
        <time>2012-05-27T06:39:25Z</time>
      </trkpt>
      <trkpt lat="43.11959" lon="5.93343">
        <ele>6.87</ele>
        <time>2012-05-27T06:39:26Z</time>
      </trkpt>
      <trkpt lat="43.11957" lon="5.93346">
        <ele>7.35</ele>
        <time>2012-05-27T06:39:27Z</time>
      </trkpt>
      <trkpt lat="43.11956" lon="5.93349">
        <ele>6.87</ele>
        <time>2012-05-27T06:39:28Z</time>
      </trkpt>
      <trkpt lat="43.11954" lon="5.93353">
        <ele>6.87</ele>
        <time>2012-05-27T06:39:29Z</time>
      </trkpt>
      <trkpt lat="43.11935" lon="5.93392">
        <ele>6.39</ele>
        <time>2012-05-27T06:39:37Z</time>
      </trkpt>
      <trkpt lat="43.11926" lon="5.93407">
        <ele>6.39</ele>
        <time>2012-05-27T06:39:40Z</time>
      </trkpt>
      <trkpt lat="43.11924" lon="5.93413">
        <ele>6.39</ele>
        <time>2012-05-27T06:39:41Z</time>
      </trkpt>
      <trkpt lat="43.11921" lon="5.93418">
        <ele>6.87</ele>
        <time>2012-05-27T06:39:42Z</time>
      </trkpt>
      <trkpt lat="43.1188" lon="5.935">
        <ele>5.91</ele>
        <time>2012-05-27T06:39:56Z</time>
      </trkpt>
      <trkpt lat="43.11867" lon="5.93516">
        <ele>6.87</ele>
        <time>2012-05-27T06:39:59Z</time>
      </trkpt>
      <trkpt lat="43.1182" lon="5.93575">
        <ele>6.87</ele>
        <time>2012-05-27T06:40:10Z</time>
      </trkpt>
      <trkpt lat="43.11815" lon="5.93578">
        <ele>6.87</ele>
        <time>2012-05-27T06:40:11Z</time>
      </trkpt>
      <trkpt lat="43.1181" lon="5.93581">
        <ele>6.87</ele>
        <time>2012-05-27T06:40:12Z</time>
      </trkpt>
      <trkpt lat="43.11804" lon="5.93582">
        <ele>6.87</ele>
        <time>2012-05-27T06:40:13Z</time>
      </trkpt>
      <trkpt lat="43.11799" lon="5.93582">
        <ele>6.87</ele>
        <time>2012-05-27T06:40:14Z</time>
      </trkpt>
      <trkpt lat="43.11793" lon="5.93581">
        <ele>7.35</ele>
        <time>2012-05-27T06:40:15Z</time>
      </trkpt>
      <trkpt lat="43.11787" lon="5.9358">
        <ele>6.87</ele>
        <time>2012-05-27T06:40:16Z</time>
      </trkpt>
      <trkpt lat="43.1178" lon="5.93577">
        <ele>6.87</ele>
        <time>2012-05-27T06:40:17Z</time>
      </trkpt>
      <trkpt lat="43.11774" lon="5.93573">
        <ele>7.35</ele>
        <time>2012-05-27T06:40:18Z</time>
      </trkpt>
      <trkpt lat="43.11768" lon="5.93569">
        <ele>6.87</ele>
        <time>2012-05-27T06:40:19Z</time>
      </trkpt>
      <trkpt lat="43.11746" lon="5.93556">
        <ele>6.87</ele>
        <time>2012-05-27T06:40:23Z</time>
      </trkpt>
      <trkpt lat="43.11728" lon="5.93548">
        <ele>6.87</ele>
        <time>2012-05-27T06:40:26Z</time>
      </trkpt>
      <trkpt lat="43.11648" lon="5.93538">
        <ele>6.39</ele>
        <time>2012-05-27T06:40:38Z</time>
      </trkpt>
      <trkpt lat="43.11547" lon="5.93525">
        <ele>6.39</ele>
        <time>2012-05-27T06:40:53Z</time>
      </trkpt>
      <trkpt lat="43.11454" lon="5.93515">
        <ele>5.91</ele>
        <time>2012-05-27T06:41:07Z</time>
      </trkpt>
      <trkpt lat="43.1136" lon="5.93495">
        <ele>7.35</ele>
        <time>2012-05-27T06:41:22Z</time>
      </trkpt>
      <trkpt lat="43.11354" lon="5.93492">
        <ele>7.35</ele>
        <time>2012-05-27T06:41:23Z</time>
      </trkpt>
      <trkpt lat="43.11299" lon="5.93434">
        <ele>7.35</ele>
        <time>2012-05-27T06:41:35Z</time>
      </trkpt>
      <trkpt lat="43.11296" lon="5.93428">
        <ele>7.35</ele>
        <time>2012-05-27T06:41:36Z</time>
      </trkpt>
      <trkpt lat="43.11294" lon="5.93424">
        <ele>7.83</ele>
        <time>2012-05-27T06:41:37Z</time>
      </trkpt>
      <trkpt lat="43.11284" lon="5.93399">
        <ele>8.79</ele>
        <time>2012-05-27T06:41:47Z</time>
      </trkpt>
      <trkpt lat="43.11282" lon="5.93391">
        <ele>8.31</ele>
        <time>2012-05-27T06:41:58Z</time>
      </trkpt>
      <trkpt lat="43.11282" lon="5.9339">
        <ele>8.31</ele>
        <time>2012-05-27T06:42:02Z</time>
      </trkpt>
      <trkpt lat="43.11281" lon="5.93387">
        <ele>8.79</ele>
        <time>2012-05-27T06:42:03Z</time>
      </trkpt>
      <trkpt lat="43.1128" lon="5.93384">
        <ele>8.79</ele>
        <time>2012-05-27T06:42:04Z</time>
      </trkpt>
      <trkpt lat="43.11269" lon="5.93359">
        <ele>9.75</ele>
        <time>2012-05-27T06:42:10Z</time>
      </trkpt>
      <trkpt lat="43.11263" lon="5.93348">
        <ele>9.27</ele>
        <time>2012-05-27T06:42:12Z</time>
      </trkpt>
      <trkpt lat="43.11259" lon="5.93343">
        <ele>9.27</ele>
        <time>2012-05-27T06:42:13Z</time>
      </trkpt>
      <trkpt lat="43.11241" lon="5.93324">
        <ele>9.27</ele>
        <time>2012-05-27T06:42:17Z</time>
      </trkpt>
      <trkpt lat="43.1123" lon="5.93317">
        <ele>9.27</ele>
        <time>2012-05-27T06:42:19Z</time>
      </trkpt>
      <trkpt lat="43.11224" lon="5.93314">
        <ele>8.79</ele>
        <time>2012-05-27T06:42:20Z</time>
      </trkpt>
      <trkpt lat="43.11147" lon="5.93273">
        <ele>8.79</ele>
        <time>2012-05-27T06:42:34Z</time>
      </trkpt>
      <trkpt lat="43.11044" lon="5.93207">
        <ele>8.31</ele>
        <time>2012-05-27T06:42:51Z</time>
      </trkpt>
      <trkpt lat="43.10958" lon="5.9315">
        <ele>8.79</ele>
        <time>2012-05-27T06:43:05Z</time>
      </trkpt>
      <trkpt lat="43.10873" lon="5.93097">
        <ele>8.79</ele>
        <time>2012-05-27T06:43:19Z</time>
      </trkpt>
      <trkpt lat="43.10854" lon="5.93087">
        <ele>8.79</ele>
        <time>2012-05-27T06:43:22Z</time>
      </trkpt>
      <trkpt lat="43.10848" lon="5.93086">
        <ele>8.79</ele>
        <time>2012-05-27T06:43:23Z</time>
      </trkpt>
      <trkpt lat="43.10841" lon="5.93087">
        <ele>8.79</ele>
        <time>2012-05-27T06:43:24Z</time>
      </trkpt>
      <trkpt lat="43.10835" lon="5.93089">
        <ele>8.79</ele>
        <time>2012-05-27T06:43:25Z</time>
      </trkpt>
      <trkpt lat="43.10829" lon="5.93092">
        <ele>8.79</ele>
        <time>2012-05-27T06:43:26Z</time>
      </trkpt>
      <trkpt lat="43.10824" lon="5.93096">
        <ele>9.27</ele>
        <time>2012-05-27T06:43:27Z</time>
      </trkpt>
      <trkpt lat="43.10818" lon="5.93099">
        <ele>9.27</ele>
        <time>2012-05-27T06:43:28Z</time>
      </trkpt>
      <trkpt lat="43.10813" lon="5.93103">
        <ele>9.27</ele>
        <time>2012-05-27T06:43:29Z</time>
      </trkpt>
      <trkpt lat="43.10809" lon="5.93109">
        <ele>8.79</ele>
        <time>2012-05-27T06:43:30Z</time>
      </trkpt>
      <trkpt lat="43.10807" lon="5.93117">
        <ele>8.79</ele>
        <time>2012-05-27T06:43:31Z</time>
      </trkpt>
      <trkpt lat="43.10775" lon="5.9323">
        <ele>8.31</ele>
        <time>2012-05-27T06:43:45Z</time>
      </trkpt>
      <trkpt lat="43.10746" lon="5.93329">
        <ele>9.27</ele>
        <time>2012-05-27T06:43:58Z</time>
      </trkpt>
      <trkpt lat="43.10712" lon="5.93456">
        <ele>8.31</ele>
        <time>2012-05-27T06:44:14Z</time>
      </trkpt>
      <trkpt lat="43.10687" lon="5.93542">
        <ele>7.83</ele>
        <time>2012-05-27T06:44:25Z</time>
      </trkpt>
      <trkpt lat="43.10686" lon="5.9355">
        <ele>7.83</ele>
        <time>2012-05-27T06:44:26Z</time>
      </trkpt>
      <trkpt lat="43.10687" lon="5.93559">
        <ele>7.83</ele>
        <time>2012-05-27T06:44:27Z</time>
      </trkpt>
      <trkpt lat="43.10688" lon="5.93568">
        <ele>8.31</ele>
        <time>2012-05-27T06:44:28Z</time>
      </trkpt>
      <trkpt lat="43.10691" lon="5.93577">
        <ele>8.31</ele>
        <time>2012-05-27T06:44:29Z</time>
      </trkpt>
      <trkpt lat="43.10694" lon="5.93585">
        <ele>7.83</ele>
        <time>2012-05-27T06:44:30Z</time>
      </trkpt>
      <trkpt lat="43.10698" lon="5.93593">
        <ele>7.83</ele>
        <time>2012-05-27T06:44:31Z</time>
      </trkpt>
      <trkpt lat="43.10737" lon="5.93728">
        <ele>9.27</ele>
        <time>2012-05-27T06:44:47Z</time>
      </trkpt>
      <trkpt lat="43.10738" lon="5.93737">
        <ele>9.27</ele>
        <time>2012-05-27T06:44:48Z</time>
      </trkpt>
      <trkpt lat="43.10737" lon="5.93745">
        <ele>9.27</ele>
        <time>2012-05-27T06:44:49Z</time>
      </trkpt>
      <trkpt lat="43.10735" lon="5.93754">
        <ele>8.79</ele>
        <time>2012-05-27T06:44:50Z</time>
      </trkpt>
      <trkpt lat="43.10732" lon="5.93763">
        <ele>8.79</ele>
        <time>2012-05-27T06:44:51Z</time>
      </trkpt>
      <trkpt lat="43.10728" lon="5.93771">
        <ele>8.79</ele>
        <time>2012-05-27T06:44:52Z</time>
      </trkpt>
      <trkpt lat="43.10724" lon="5.93779">
        <ele>8.79</ele>
        <time>2012-05-27T06:44:53Z</time>
      </trkpt>
      <trkpt lat="43.1072" lon="5.93787">
        <ele>8.79</ele>
        <time>2012-05-27T06:44:54Z</time>
      </trkpt>
      <trkpt lat="43.10717" lon="5.93796">
        <ele>9.27</ele>
        <time>2012-05-27T06:44:55Z</time>
      </trkpt>
      <trkpt lat="43.10715" lon="5.93805">
        <ele>8.79</ele>
        <time>2012-05-27T06:44:56Z</time>
      </trkpt>
      <trkpt lat="43.10715" lon="5.93815">
        <ele>8.79</ele>
        <time>2012-05-27T06:44:57Z</time>
      </trkpt>
      <trkpt lat="43.10716" lon="5.93824">
        <ele>8.31</ele>
        <time>2012-05-27T06:44:58Z</time>
      </trkpt>
      <trkpt lat="43.10719" lon="5.93834">
        <ele>7.83</ele>
        <time>2012-05-27T06:44:59Z</time>
      </trkpt>
      <trkpt lat="43.10722" lon="5.93843">
        <ele>8.31</ele>
        <time>2012-05-27T06:45:00Z</time>
      </trkpt>
      <trkpt lat="43.10768" lon="5.93965">
        <ele>8.31</ele>
        <time>2012-05-27T06:45:14Z</time>
      </trkpt>
      <trkpt lat="43.10773" lon="5.93971">
        <ele>8.31</ele>
        <time>2012-05-27T06:45:15Z</time>
      </trkpt>
      <trkpt lat="43.108" lon="5.93999">
        <ele>9.27</ele>
        <time>2012-05-27T06:45:20Z</time>
      </trkpt>
      <trkpt lat="43.10804" lon="5.94006">
        <ele>9.75</ele>
        <time>2012-05-27T06:45:21Z</time>
      </trkpt>
      <trkpt lat="43.10848" lon="5.94106">
        <ele>12.15</ele>
        <time>2012-05-27T06:45:35Z</time>
      </trkpt>
      <trkpt lat="43.1085" lon="5.94114">
        <ele>12.15</ele>
        <time>2012-05-27T06:45:36Z</time>
      </trkpt>
      <trkpt lat="43.10851" lon="5.94122">
        <ele>12.63</ele>
        <time>2012-05-27T06:45:37Z</time>
      </trkpt>
      <trkpt lat="43.10851" lon="5.94131">
        <ele>12.63</ele>
        <time>2012-05-27T06:45:38Z</time>
      </trkpt>
      <trkpt lat="43.10851" lon="5.94139">
        <ele>12.15</ele>
        <time>2012-05-27T06:45:39Z</time>
      </trkpt>
      <trkpt lat="43.10854" lon="5.94294">
        <ele>13.6</ele>
        <time>2012-05-27T06:45:57Z</time>
      </trkpt>
      <trkpt lat="43.10859" lon="5.94336">
        <ele>14.08</ele>
        <time>2012-05-27T06:46:02Z</time>
      </trkpt>
      <trkpt lat="43.10869" lon="5.94373">
        <ele>15.04</ele>
        <time>2012-05-27T06:46:07Z</time>
      </trkpt>
      <trkpt lat="43.1087" lon="5.94381">
        <ele>15.04</ele>
        <time>2012-05-27T06:46:08Z</time>
      </trkpt>
      <trkpt lat="43.1087" lon="5.94389">
        <ele>15.04</ele>
        <time>2012-05-27T06:46:09Z</time>
      </trkpt>
      <trkpt lat="43.1087" lon="5.94397">
        <ele>15.52</ele>
        <time>2012-05-27T06:46:10Z</time>
      </trkpt>
      <trkpt lat="43.10869" lon="5.94405">
        <ele>16</ele>
        <time>2012-05-27T06:46:11Z</time>
      </trkpt>
      <trkpt lat="43.10868" lon="5.94413">
        <ele>15.52</ele>
        <time>2012-05-27T06:46:12Z</time>
      </trkpt>
      <trkpt lat="43.10864" lon="5.94461">
        <ele>16.96</ele>
        <time>2012-05-27T06:46:18Z</time>
      </trkpt>
      <trkpt lat="43.10863" lon="5.94501">
        <ele>17.44</ele>
        <time>2012-05-27T06:46:23Z</time>
      </trkpt>
      <trkpt lat="43.10861" lon="5.94509">
        <ele>16.96</ele>
        <time>2012-05-27T06:46:24Z</time>
      </trkpt>
      <trkpt lat="43.10838" lon="5.9463">
        <ele>18.88</ele>
        <time>2012-05-27T06:46:39Z</time>
      </trkpt>
      <trkpt lat="43.10851" lon="5.9474">
        <ele>19.84</ele>
        <time>2012-05-27T06:46:52Z</time>
      </trkpt>
      <trkpt lat="43.10861" lon="5.94787">
        <ele>21.29</ele>
        <time>2012-05-27T06:46:58Z</time>
      </trkpt>
      <trkpt lat="43.10861" lon="5.94794">
        <ele>20.81</ele>
        <time>2012-05-27T06:46:59Z</time>
      </trkpt>
      <trkpt lat="43.1086" lon="5.9493">
        <ele>19.84</ele>
        <time>2012-05-27T06:47:15Z</time>
      </trkpt>
      <trkpt lat="43.10869" lon="5.95065">
        <ele>20.81</ele>
        <time>2012-05-27T06:47:30Z</time>
      </trkpt>
      <trkpt lat="43.10869" lon="5.95074">
        <ele>21.29</ele>
        <time>2012-05-27T06:47:31Z</time>
      </trkpt>
      <trkpt lat="43.10867" lon="5.95082">
        <ele>21.29</ele>
        <time>2012-05-27T06:47:32Z</time>
      </trkpt>
      <trkpt lat="43.10864" lon="5.9509">
        <ele>21.77</ele>
        <time>2012-05-27T06:47:33Z</time>
      </trkpt>
      <trkpt lat="43.10861" lon="5.95097">
        <ele>22.25</ele>
        <time>2012-05-27T06:47:34Z</time>
      </trkpt>
      <trkpt lat="43.10858" lon="5.95103">
        <ele>22.25</ele>
        <time>2012-05-27T06:47:35Z</time>
      </trkpt>
      <trkpt lat="43.10848" lon="5.95129">
        <ele>22.73</ele>
        <time>2012-05-27T06:47:39Z</time>
      </trkpt>
      <trkpt lat="43.10847" lon="5.95136">
        <ele>22.73</ele>
        <time>2012-05-27T06:47:40Z</time>
      </trkpt>
      <trkpt lat="43.10847" lon="5.9515">
        <ele>22.73</ele>
        <time>2012-05-27T06:47:42Z</time>
      </trkpt>
      <trkpt lat="43.10845" lon="5.95213">
        <ele>20.32</ele>
        <time>2012-05-27T06:47:50Z</time>
      </trkpt>
      <trkpt lat="43.10843" lon="5.95221">
        <ele>20.32</ele>
        <time>2012-05-27T06:47:51Z</time>
      </trkpt>
      <trkpt lat="43.10838" lon="5.95227">
        <ele>20.32</ele>
        <time>2012-05-27T06:47:52Z</time>
      </trkpt>
      <trkpt lat="43.10833" lon="5.95232">
        <ele>19.36</ele>
        <time>2012-05-27T06:47:53Z</time>
      </trkpt>
      <trkpt lat="43.10828" lon="5.95237">
        <ele>18.88</ele>
        <time>2012-05-27T06:47:54Z</time>
      </trkpt>
      <trkpt lat="43.10823" lon="5.95245">
        <ele>18.4</ele>
        <time>2012-05-27T06:47:55Z</time>
      </trkpt>
      <trkpt lat="43.10822" lon="5.95255">
        <ele>17.92</ele>
        <time>2012-05-27T06:47:56Z</time>
      </trkpt>
      <trkpt lat="43.10824" lon="5.95264">
        <ele>18.4</ele>
        <time>2012-05-27T06:47:57Z</time>
      </trkpt>
      <trkpt lat="43.10829" lon="5.95271">
        <ele>18.4</ele>
        <time>2012-05-27T06:47:58Z</time>
      </trkpt>
      <trkpt lat="43.10833" lon="5.95275">
        <ele>18.88</ele>
        <time>2012-05-27T06:47:59Z</time>
      </trkpt>
      <trkpt lat="43.10838" lon="5.9528">
        <ele>19.36</ele>
        <time>2012-05-27T06:48:00Z</time>
      </trkpt>
      <trkpt lat="43.10842" lon="5.95285">
        <ele>19.84</ele>
        <time>2012-05-27T06:48:01Z</time>
      </trkpt>
      <trkpt lat="43.10846" lon="5.95291">
        <ele>19.84</ele>
        <time>2012-05-27T06:48:02Z</time>
      </trkpt>
      <trkpt lat="43.10849" lon="5.95299">
        <ele>19.84</ele>
        <time>2012-05-27T06:48:03Z</time>
      </trkpt>
      <trkpt lat="43.10851" lon="5.95306">
        <ele>19.84</ele>
        <time>2012-05-27T06:48:04Z</time>
      </trkpt>
      <trkpt lat="43.10852" lon="5.95315">
        <ele>19.84</ele>
        <time>2012-05-27T06:48:05Z</time>
      </trkpt>
      <trkpt lat="43.10854" lon="5.95323">
        <ele>19.84</ele>
        <time>2012-05-27T06:48:06Z</time>
      </trkpt>
      <trkpt lat="43.10859" lon="5.95399">
        <ele>23.21</ele>
        <time>2012-05-27T06:48:17Z</time>
      </trkpt>
      <trkpt lat="43.1086" lon="5.9541">
        <ele>23.69</ele>
        <time>2012-05-27T06:48:19Z</time>
      </trkpt>
      <trkpt lat="43.10862" lon="5.95447">
        <ele>26.57</ele>
        <time>2012-05-27T06:48:26Z</time>
      </trkpt>
      <trkpt lat="43.10869" lon="5.95489">
        <ele>29.94</ele>
        <time>2012-05-27T06:48:35Z</time>
      </trkpt>
      <trkpt lat="43.10876" lon="5.95533">
        <ele>33.3</ele>
        <time>2012-05-27T06:48:44Z</time>
      </trkpt>
      <trkpt lat="43.10885" lon="5.95575">
        <ele>36.67</ele>
        <time>2012-05-27T06:48:53Z</time>
      </trkpt>
      <trkpt lat="43.10896" lon="5.95625">
        <ele>40.03</ele>
        <time>2012-05-27T06:49:04Z</time>
      </trkpt>
      <trkpt lat="43.10908" lon="5.95666">
        <ele>42.92</ele>
        <time>2012-05-27T06:49:13Z</time>
      </trkpt>
      <trkpt lat="43.1092" lon="5.95717">
        <ele>46.28</ele>
        <time>2012-05-27T06:49:24Z</time>
      </trkpt>
      <trkpt lat="43.10923" lon="5.95792">
        <ele>46.28</ele>
        <time>2012-05-27T06:49:37Z</time>
      </trkpt>
      <trkpt lat="43.10917" lon="5.95854">
        <ele>43.4</ele>
        <time>2012-05-27T06:49:44Z</time>
      </trkpt>
      <trkpt lat="43.10914" lon="5.95864">
        <ele>43.88</ele>
        <time>2012-05-27T06:49:45Z</time>
      </trkpt>
      <trkpt lat="43.10887" lon="5.95917">
        <ele>47.24</ele>
        <time>2012-05-27T06:49:53Z</time>
      </trkpt>
      <trkpt lat="43.10884" lon="5.95922">
        <ele>46.76</ele>
        <time>2012-05-27T06:49:54Z</time>
      </trkpt>
      <trkpt lat="43.10855" lon="5.95962">
        <ele>49.65</ele>
        <time>2012-05-27T06:50:03Z</time>
      </trkpt>
      <trkpt lat="43.10841" lon="5.9599">
        <ele>51.09</ele>
        <time>2012-05-27T06:50:09Z</time>
      </trkpt>
      <trkpt lat="43.10831" lon="5.9603">
        <ele>52.53</ele>
        <time>2012-05-27T06:50:16Z</time>
      </trkpt>
      <trkpt lat="43.10824" lon="5.96128">
        <ele>52.53</ele>
        <time>2012-05-27T06:50:30Z</time>
      </trkpt>
      <trkpt lat="43.10829" lon="5.96219">
        <ele>52.05</ele>
        <time>2012-05-27T06:50:41Z</time>
      </trkpt>
      <trkpt lat="43.1083" lon="5.96228">
        <ele>52.05</ele>
        <time>2012-05-27T06:50:42Z</time>
      </trkpt>
      <trkpt lat="43.10838" lon="5.96302">
        <ele>55.41</ele>
        <time>2012-05-27T06:50:53Z</time>
      </trkpt>
      <trkpt lat="43.10851" lon="5.96373">
        <ele>58.78</ele>
        <time>2012-05-27T06:51:05Z</time>
      </trkpt>
      <trkpt lat="43.10875" lon="5.96435">
        <ele>61.66</ele>
        <time>2012-05-27T06:51:17Z</time>
      </trkpt>
      <trkpt lat="43.10878" lon="5.96439">
        <ele>62.14</ele>
        <time>2012-05-27T06:51:18Z</time>
      </trkpt>
      <trkpt lat="43.10903" lon="5.96468">
        <ele>63.58</ele>
        <time>2012-05-27T06:51:25Z</time>
      </trkpt>
      <trkpt lat="43.10906" lon="5.96472">
        <ele>64.07</ele>
        <time>2012-05-27T06:51:26Z</time>
      </trkpt>
      <trkpt lat="43.10932" lon="5.96504">
        <ele>66.95</ele>
        <time>2012-05-27T06:51:35Z</time>
      </trkpt>
      <trkpt lat="43.1094" lon="5.96554">
        <ele>70.31</ele>
        <time>2012-05-27T06:51:46Z</time>
      </trkpt>
      <trkpt lat="43.1092" lon="5.96603">
        <ele>72.72</ele>
        <time>2012-05-27T06:51:57Z</time>
      </trkpt>
      <trkpt lat="43.10907" lon="5.96656">
        <ele>72.24</ele>
        <time>2012-05-27T06:52:05Z</time>
      </trkpt>
      <trkpt lat="43.10908" lon="5.96664">
        <ele>71.76</ele>
        <time>2012-05-27T06:52:06Z</time>
      </trkpt>
      <trkpt lat="43.10908" lon="5.96673">
        <ele>72.24</ele>
        <time>2012-05-27T06:52:07Z</time>
      </trkpt>
      <trkpt lat="43.1091" lon="5.96682">
        <ele>71.76</ele>
        <time>2012-05-27T06:52:08Z</time>
      </trkpt>
      <trkpt lat="43.10912" lon="5.96691">
        <ele>71.27</ele>
        <time>2012-05-27T06:52:09Z</time>
      </trkpt>
      <trkpt lat="43.10914" lon="5.96699">
        <ele>71.27</ele>
        <time>2012-05-27T06:52:10Z</time>
      </trkpt>
      <trkpt lat="43.10917" lon="5.96707">
        <ele>71.27</ele>
        <time>2012-05-27T06:52:11Z</time>
      </trkpt>
      <trkpt lat="43.10921" lon="5.96714">
        <ele>70.79</ele>
        <time>2012-05-27T06:52:12Z</time>
      </trkpt>
      <trkpt lat="43.10943" lon="5.96752">
        <ele>69.35</ele>
        <time>2012-05-27T06:52:17Z</time>
      </trkpt>
      <trkpt lat="43.10999" lon="5.96849">
        <ele>66.47</ele>
        <time>2012-05-27T06:52:28Z</time>
      </trkpt>
      <trkpt lat="43.11003" lon="5.9686">
        <ele>65.99</ele>
        <time>2012-05-27T06:52:29Z</time>
      </trkpt>
      <trkpt lat="43.11006" lon="5.96872">
        <ele>65.51</ele>
        <time>2012-05-27T06:52:30Z</time>
      </trkpt>
      <trkpt lat="43.11008" lon="5.96884">
        <ele>65.51</ele>
        <time>2012-05-27T06:52:31Z</time>
      </trkpt>
      <trkpt lat="43.1101" lon="5.96895">
        <ele>65.51</ele>
        <time>2012-05-27T06:52:32Z</time>
      </trkpt>
      <trkpt lat="43.11023" lon="5.97013">
        <ele>62.62</ele>
        <time>2012-05-27T06:52:42Z</time>
      </trkpt>
      <trkpt lat="43.11034" lon="5.97062">
        <ele>60.7</ele>
        <time>2012-05-27T06:52:46Z</time>
      </trkpt>
      <trkpt lat="43.11041" lon="5.97101">
        <ele>59.26</ele>
        <time>2012-05-27T06:52:49Z</time>
      </trkpt>
      <trkpt lat="43.11043" lon="5.97194">
        <ele>56.37</ele>
        <time>2012-05-27T06:52:56Z</time>
      </trkpt>
      <trkpt lat="43.11029" lon="5.97289">
        <ele>53.49</ele>
        <time>2012-05-27T06:53:03Z</time>
      </trkpt>
      <trkpt lat="43.11019" lon="5.97362">
        <ele>50.13</ele>
        <time>2012-05-27T06:53:08Z</time>
      </trkpt>
      <trkpt lat="43.1102" lon="5.97392">
        <ele>49.16</ele>
        <time>2012-05-27T06:53:10Z</time>
      </trkpt>
      <trkpt lat="43.11025" lon="5.97452">
        <ele>47.24</ele>
        <time>2012-05-27T06:53:14Z</time>
      </trkpt>
      <trkpt lat="43.11026" lon="5.97495">
        <ele>47.24</ele>
        <time>2012-05-27T06:53:17Z</time>
      </trkpt>
      <trkpt lat="43.11025" lon="5.97508">
        <ele>46.76</ele>
        <time>2012-05-27T06:53:18Z</time>
      </trkpt>
      <trkpt lat="43.11023" lon="5.97521">
        <ele>47.72</ele>
        <time>2012-05-27T06:53:19Z</time>
      </trkpt>
      <trkpt lat="43.1102" lon="5.97533">
        <ele>47.72</ele>
        <time>2012-05-27T06:53:20Z</time>
      </trkpt>
      <trkpt lat="43.11017" lon="5.97544">
        <ele>48.2</ele>
        <time>2012-05-27T06:53:21Z</time>
      </trkpt>
      <trkpt lat="43.11006" lon="5.97586">
        <ele>50.61</ele>
        <time>2012-05-27T06:53:25Z</time>
      </trkpt>
      <trkpt lat="43.11" lon="5.97635">
        <ele>52.05</ele>
        <time>2012-05-27T06:53:30Z</time>
      </trkpt>
      <trkpt lat="43.11001" lon="5.97645">
        <ele>52.05</ele>
        <time>2012-05-27T06:53:31Z</time>
      </trkpt>
      <trkpt lat="43.11002" lon="5.97655">
        <ele>52.05</ele>
        <time>2012-05-27T06:53:32Z</time>
      </trkpt>
      <trkpt lat="43.11015" lon="5.97804">
        <ele>51.09</ele>
        <time>2012-05-27T06:53:46Z</time>
      </trkpt>
      <trkpt lat="43.11014" lon="5.97867">
        <ele>49.16</ele>
        <time>2012-05-27T06:53:51Z</time>
      </trkpt>
      <trkpt lat="43.11012" lon="5.97879">
        <ele>49.16</ele>
        <time>2012-05-27T06:53:52Z</time>
      </trkpt>
      <trkpt lat="43.1101" lon="5.97891">
        <ele>48.68</ele>
        <time>2012-05-27T06:53:53Z</time>
      </trkpt>
      <trkpt lat="43.11006" lon="5.97903">
        <ele>48.2</ele>
        <time>2012-05-27T06:53:54Z</time>
      </trkpt>
      <trkpt lat="43.11002" lon="5.97914">
        <ele>48.2</ele>
        <time>2012-05-27T06:53:55Z</time>
      </trkpt>
      <trkpt lat="43.10963" lon="5.98009">
        <ele>48.2</ele>
        <time>2012-05-27T06:54:05Z</time>
      </trkpt>
      <trkpt lat="43.10948" lon="5.98045">
        <ele>49.16</ele>
        <time>2012-05-27T06:54:15Z</time>
      </trkpt>
      <trkpt lat="43.10948" lon="5.98053">
        <ele>48.68</ele>
        <time>2012-05-27T06:54:30Z</time>
      </trkpt>
      <trkpt lat="43.10948" lon="5.98053">
        <ele>48.68</ele>
        <time>2012-05-27T06:54:56Z</time>
      </trkpt>
      <trkpt lat="43.10949" lon="5.98055">
        <ele>48.68</ele>
        <time>2012-05-27T06:55:22Z</time>
      </trkpt>
      <trkpt lat="43.1095" lon="5.98059">
        <ele>48.2</ele>
        <time>2012-05-27T06:55:25Z</time>
      </trkpt>
      <trkpt lat="43.10951" lon="5.9806">
        <ele>48.2</ele>
        <time>2012-05-27T06:55:26Z</time>
      </trkpt>
      <trkpt lat="43.10951" lon="5.98062">
        <ele>48.2</ele>
        <time>2012-05-27T06:55:27Z</time>
      </trkpt>
      <trkpt lat="43.10951" lon="5.98064">
        <ele>48.2</ele>
        <time>2012-05-27T06:55:28Z</time>
      </trkpt>
      <trkpt lat="43.10951" lon="5.98066">
        <ele>48.2</ele>
        <time>2012-05-27T06:55:29Z</time>
      </trkpt>
      <trkpt lat="43.10932" lon="5.98107">
        <ele>46.76</ele>
        <time>2012-05-27T06:55:40Z</time>
      </trkpt>
      <trkpt lat="43.10873" lon="5.98203">
        <ele>44.36</ele>
        <time>2012-05-27T06:55:54Z</time>
      </trkpt>
      <trkpt lat="43.10824" lon="5.98285">
        <ele>43.88</ele>
        <time>2012-05-27T06:56:06Z</time>
      </trkpt>
      <trkpt lat="43.10809" lon="5.98314">
        <ele>44.36</ele>
        <time>2012-05-27T06:56:10Z</time>
      </trkpt>
      <trkpt lat="43.10789" lon="5.98432">
        <ele>41.47</ele>
        <time>2012-05-27T06:56:23Z</time>
      </trkpt>
      <trkpt lat="43.10773" lon="5.98509">
        <ele>38.11</ele>
        <time>2012-05-27T06:56:30Z</time>
      </trkpt>
      <trkpt lat="43.10759" lon="5.98578">
        <ele>38.59</ele>
        <time>2012-05-27T06:56:36Z</time>
      </trkpt>
      <trkpt lat="43.10756" lon="5.9873">
        <ele>38.59</ele>
        <time>2012-05-27T06:56:51Z</time>
      </trkpt>
      <trkpt lat="43.10755" lon="5.98886">
        <ele>36.67</ele>
        <time>2012-05-27T06:57:07Z</time>
      </trkpt>
      <trkpt lat="43.10754" lon="5.98909">
        <ele>35.71</ele>
        <time>2012-05-27T06:57:09Z</time>
      </trkpt>
      <trkpt lat="43.10755" lon="5.98921">
        <ele>35.23</ele>
        <time>2012-05-27T06:57:10Z</time>
      </trkpt>
      <trkpt lat="43.10755" lon="5.98946">
        <ele>34.26</ele>
        <time>2012-05-27T06:57:12Z</time>
      </trkpt>
      <trkpt lat="43.10754" lon="5.98958">
        <ele>33.78</ele>
        <time>2012-05-27T06:57:13Z</time>
      </trkpt>
      <trkpt lat="43.1075" lon="5.99008">
        <ele>33.78</ele>
        <time>2012-05-27T06:57:17Z</time>
      </trkpt>
      <trkpt lat="43.10747" lon="5.99019">
        <ele>33.78</ele>
        <time>2012-05-27T06:57:18Z</time>
      </trkpt>
      <trkpt lat="43.10745" lon="5.99028">
        <ele>33.78</ele>
        <time>2012-05-27T06:57:19Z</time>
      </trkpt>
      <trkpt lat="43.10733" lon="5.99058">
        <ele>35.71</ele>
        <time>2012-05-27T06:57:26Z</time>
      </trkpt>
      <trkpt lat="43.10733" lon="5.9906">
        <ele>35.71</ele>
        <time>2012-05-27T06:57:27Z</time>
      </trkpt>
      <trkpt lat="43.10732" lon="5.99065">
        <ele>36.19</ele>
        <time>2012-05-27T06:57:32Z</time>
      </trkpt>
      <trkpt lat="43.10731" lon="5.99066">
        <ele>36.19</ele>
        <time>2012-05-27T06:57:33Z</time>
      </trkpt>
      <trkpt lat="43.10731" lon="5.99068">
        <ele>35.71</ele>
        <time>2012-05-27T06:57:34Z</time>
      </trkpt>
      <trkpt lat="43.1073" lon="5.9907">
        <ele>35.71</ele>
        <time>2012-05-27T06:57:35Z</time>
      </trkpt>
      <trkpt lat="43.10729" lon="5.99072">
        <ele>35.71</ele>
        <time>2012-05-27T06:57:36Z</time>
      </trkpt>
      <trkpt lat="43.10729" lon="5.99074">
        <ele>36.19</ele>
        <time>2012-05-27T06:57:37Z</time>
      </trkpt>
      <trkpt lat="43.10728" lon="5.99077">
        <ele>36.67</ele>
        <time>2012-05-27T06:57:38Z</time>
      </trkpt>
      <trkpt lat="43.10727" lon="5.9908">
        <ele>36.19</ele>
        <time>2012-05-27T06:57:39Z</time>
      </trkpt>
      <trkpt lat="43.10726" lon="5.99084">
        <ele>36.19</ele>
        <time>2012-05-27T06:57:40Z</time>
      </trkpt>
      <trkpt lat="43.10724" lon="5.99087">
        <ele>36.67</ele>
        <time>2012-05-27T06:57:41Z</time>
      </trkpt>
      <trkpt lat="43.10723" lon="5.99091">
        <ele>36.19</ele>
        <time>2012-05-27T06:57:42Z</time>
      </trkpt>
      <trkpt lat="43.10721" lon="5.99095">
        <ele>36.67</ele>
        <time>2012-05-27T06:57:43Z</time>
      </trkpt>
      <trkpt lat="43.1072" lon="5.99099">
        <ele>37.15</ele>
        <time>2012-05-27T06:57:44Z</time>
      </trkpt>
      <trkpt lat="43.10705" lon="5.99144">
        <ele>38.11</ele>
        <time>2012-05-27T06:57:54Z</time>
      </trkpt>
      <trkpt lat="43.10697" lon="5.99167">
        <ele>39.07</ele>
        <time>2012-05-27T06:57:58Z</time>
      </trkpt>
      <trkpt lat="43.10695" lon="5.99173">
        <ele>39.55</ele>
        <time>2012-05-27T06:57:59Z</time>
      </trkpt>
      <trkpt lat="43.10686" lon="5.99197">
        <ele>40.03</ele>
        <time>2012-05-27T06:58:03Z</time>
      </trkpt>
      <trkpt lat="43.10683" lon="5.99202">
        <ele>40.51</ele>
        <time>2012-05-27T06:58:04Z</time>
      </trkpt>
      <trkpt lat="43.1068" lon="5.99214">
        <ele>40.99</ele>
        <time>2012-05-27T06:58:06Z</time>
      </trkpt>
      <trkpt lat="43.10678" lon="5.99221">
        <ele>40.99</ele>
        <time>2012-05-27T06:58:07Z</time>
      </trkpt>
      <trkpt lat="43.10677" lon="5.99228">
        <ele>41.47</ele>
        <time>2012-05-27T06:58:08Z</time>
      </trkpt>
      <trkpt lat="43.10674" lon="5.99241">
        <ele>41.47</ele>
        <time>2012-05-27T06:58:10Z</time>
      </trkpt>
      <trkpt lat="43.10654" lon="5.99302">
        <ele>40.99</ele>
        <time>2012-05-27T06:58:18Z</time>
      </trkpt>
      <trkpt lat="43.10652" lon="5.99311">
        <ele>40.99</ele>
        <time>2012-05-27T06:58:19Z</time>
      </trkpt>
      <trkpt lat="43.10652" lon="5.99321">
        <ele>40.99</ele>
        <time>2012-05-27T06:58:20Z</time>
      </trkpt>
      <trkpt lat="43.10652" lon="5.9933">
        <ele>40.99</ele>
        <time>2012-05-27T06:58:21Z</time>
      </trkpt>
      <trkpt lat="43.10653" lon="5.99339">
        <ele>40.99</ele>
        <time>2012-05-27T06:58:22Z</time>
      </trkpt>
      <trkpt lat="43.10654" lon="5.99348">
        <ele>40.99</ele>
        <time>2012-05-27T06:58:23Z</time>
      </trkpt>
      <trkpt lat="43.10671" lon="5.99484">
        <ele>40.99</ele>
        <time>2012-05-27T06:58:38Z</time>
      </trkpt>
      <trkpt lat="43.10693" lon="5.99617">
        <ele>42.44</ele>
        <time>2012-05-27T06:58:53Z</time>
      </trkpt>
      <trkpt lat="43.10734" lon="5.99726">
        <ele>40.99</ele>
        <time>2012-05-27T06:59:07Z</time>
      </trkpt>
      <trkpt lat="43.10773" lon="5.99801">
        <ele>40.51</ele>
        <time>2012-05-27T06:59:16Z</time>
      </trkpt>
      <trkpt lat="43.10784" lon="5.99814">
        <ele>40.03</ele>
        <time>2012-05-27T06:59:18Z</time>
      </trkpt>
      <trkpt lat="43.1079" lon="5.9982">
        <ele>40.03</ele>
        <time>2012-05-27T06:59:19Z</time>
      </trkpt>
      <trkpt lat="43.10893" lon="5.99907">
        <ele>38.11</ele>
        <time>2012-05-27T06:59:35Z</time>
      </trkpt>
      <trkpt lat="43.10899" lon="5.99912">
        <ele>37.63</ele>
        <time>2012-05-27T06:59:36Z</time>
      </trkpt>
      <trkpt lat="43.10925" lon="5.99927">
        <ele>35.23</ele>
        <time>2012-05-27T06:59:40Z</time>
      </trkpt>
      <trkpt lat="43.10931" lon="5.99933">
        <ele>34.26</ele>
        <time>2012-05-27T06:59:41Z</time>
      </trkpt>
      <trkpt lat="43.10935" lon="5.99942">
        <ele>33.3</ele>
        <time>2012-05-27T06:59:42Z</time>
      </trkpt>
      <trkpt lat="43.10937" lon="5.99952">
        <ele>31.86</ele>
        <time>2012-05-27T06:59:43Z</time>
      </trkpt>
      <trkpt lat="43.10937" lon="5.99963">
        <ele>31.38</ele>
        <time>2012-05-27T06:59:44Z</time>
      </trkpt>
      <trkpt lat="43.10935" lon="5.99974">
        <ele>31.38</ele>
        <time>2012-05-27T06:59:45Z</time>
      </trkpt>
      <trkpt lat="43.10931" lon="6.00069">
        <ele>28.98</ele>
        <time>2012-05-27T06:59:54Z</time>
      </trkpt>
      <trkpt lat="43.10935" lon="6.00151">
        <ele>28.98</ele>
        <time>2012-05-27T07:00:03Z</time>
      </trkpt>
      <trkpt lat="43.10937" lon="6.00157">
        <ele>28.5</ele>
        <time>2012-05-27T07:00:04Z</time>
      </trkpt>
      <trkpt lat="43.1094" lon="6.00166">
        <ele>28.98</ele>
        <time>2012-05-27T07:00:06Z</time>
      </trkpt>
      <trkpt lat="43.1094" lon="6.00173">
        <ele>28.98</ele>
        <time>2012-05-27T07:00:07Z</time>
      </trkpt>
      <trkpt lat="43.10938" lon="6.00187">
        <ele>28.5</ele>
        <time>2012-05-27T07:00:09Z</time>
      </trkpt>
      <trkpt lat="43.10936" lon="6.00195">
        <ele>28.5</ele>
        <time>2012-05-27T07:00:10Z</time>
      </trkpt>
      <trkpt lat="43.10929" lon="6.00237">
        <ele>28.5</ele>
        <time>2012-05-27T07:00:15Z</time>
      </trkpt>
      <trkpt lat="43.10927" lon="6.00246">
        <ele>28.5</ele>
        <time>2012-05-27T07:00:16Z</time>
      </trkpt>
      <trkpt lat="43.10895" lon="6.00392">
        <ele>28.98</ele>
        <time>2012-05-27T07:00:33Z</time>
      </trkpt>
      <trkpt lat="43.1088" lon="6.00514">
        <ele>29.94</ele>
        <time>2012-05-27T07:00:46Z</time>
      </trkpt>
      <trkpt lat="43.10863" lon="6.00682">
        <ele>30.42</ele>
        <time>2012-05-27T07:01:03Z</time>
      </trkpt>
      <trkpt lat="43.10858" lon="6.00868">
        <ele>31.38</ele>
        <time>2012-05-27T07:01:23Z</time>
      </trkpt>
      <trkpt lat="43.10858" lon="6.01032">
        <ele>31.38</ele>
        <time>2012-05-27T07:01:41Z</time>
      </trkpt>
      <trkpt lat="43.10861" lon="6.01162">
        <ele>31.86</ele>
        <time>2012-05-27T07:01:55Z</time>
      </trkpt>
      <trkpt lat="43.10876" lon="6.01237">
        <ele>31.86</ele>
        <time>2012-05-27T07:02:06Z</time>
      </trkpt>
      <trkpt lat="43.10905" lon="6.01303">
        <ele>30.42</ele>
        <time>2012-05-27T07:02:16Z</time>
      </trkpt>
      <trkpt lat="43.10971" lon="6.01431">
        <ele>28.98</ele>
        <time>2012-05-27T07:02:32Z</time>
      </trkpt>
      <trkpt lat="43.11056" lon="6.01605">
        <ele>28.02</ele>
        <time>2012-05-27T07:02:52Z</time>
      </trkpt>
      <trkpt lat="43.11063" lon="6.01633">
        <ele>28.02</ele>
        <time>2012-05-27T07:02:55Z</time>
      </trkpt>
      <trkpt lat="43.11065" lon="6.01669">
        <ele>28.02</ele>
        <time>2012-05-27T07:02:59Z</time>
      </trkpt>
      <trkpt lat="43.11068" lon="6.01678">
        <ele>28.5</ele>
        <time>2012-05-27T07:03:00Z</time>
      </trkpt>
      <trkpt lat="43.1107" lon="6.01687">
        <ele>27.53</ele>
        <time>2012-05-27T07:03:01Z</time>
      </trkpt>
      <trkpt lat="43.11071" lon="6.01697">
        <ele>27.53</ele>
        <time>2012-05-27T07:03:02Z</time>
      </trkpt>
      <trkpt lat="43.11071" lon="6.01707">
        <ele>27.53</ele>
        <time>2012-05-27T07:03:03Z</time>
      </trkpt>
      <trkpt lat="43.11071" lon="6.01717">
        <ele>28.02</ele>
        <time>2012-05-27T07:03:04Z</time>
      </trkpt>
      <trkpt lat="43.11053" lon="6.01859">
        <ele>27.53</ele>
        <time>2012-05-27T07:03:18Z</time>
      </trkpt>
      <trkpt lat="43.11033" lon="6.02024">
        <ele>28.02</ele>
        <time>2012-05-27T07:03:34Z</time>
      </trkpt>
      <trkpt lat="43.11012" lon="6.02175">
        <ele>28.5</ele>
        <time>2012-05-27T07:03:49Z</time>
      </trkpt>
      <trkpt lat="43.1099" lon="6.02269">
        <ele>29.46</ele>
        <time>2012-05-27T07:03:59Z</time>
      </trkpt>
      <trkpt lat="43.1097" lon="6.02323">
        <ele>29.94</ele>
        <time>2012-05-27T07:04:06Z</time>
      </trkpt>
      <trkpt lat="43.10946" lon="6.02366">
        <ele>30.9</ele>
        <time>2012-05-27T07:04:12Z</time>
      </trkpt>
      <trkpt lat="43.10897" lon="6.02426">
        <ele>31.86</ele>
        <time>2012-05-27T07:04:22Z</time>
      </trkpt>
      <trkpt lat="43.10892" lon="6.0243">
        <ele>31.86</ele>
        <time>2012-05-27T07:04:23Z</time>
      </trkpt>
      <trkpt lat="43.10886" lon="6.02434">
        <ele>31.86</ele>
        <time>2012-05-27T07:04:24Z</time>
      </trkpt>
      <trkpt lat="43.10859" lon="6.02448">
        <ele>32.82</ele>
        <time>2012-05-27T07:04:29Z</time>
      </trkpt>
      <trkpt lat="43.1083" lon="6.02456">
        <ele>33.3</ele>
        <time>2012-05-27T07:04:34Z</time>
      </trkpt>
      <trkpt lat="43.10747" lon="6.02474">
        <ele>34.74</ele>
        <time>2012-05-27T07:04:49Z</time>
      </trkpt>
      <trkpt lat="43.10725" lon="6.0248">
        <ele>34.74</ele>
        <time>2012-05-27T07:04:54Z</time>
      </trkpt>
      <trkpt lat="43.10709" lon="6.02489">
        <ele>35.23</ele>
        <time>2012-05-27T07:05:02Z</time>
      </trkpt>
      <trkpt lat="43.10677" lon="6.02517">
        <ele>36.67</ele>
        <time>2012-05-27T07:05:13Z</time>
      </trkpt>
      <trkpt lat="43.1067" lon="6.02544">
        <ele>36.67</ele>
        <time>2012-05-27T07:05:20Z</time>
      </trkpt>
      <trkpt lat="43.10671" lon="6.02549">
        <ele>36.67</ele>
        <time>2012-05-27T07:05:21Z</time>
      </trkpt>
      <trkpt lat="43.10672" lon="6.02562">
        <ele>36.67</ele>
        <time>2012-05-27T07:05:23Z</time>
      </trkpt>
      <trkpt lat="43.10675" lon="6.02584">
        <ele>36.67</ele>
        <time>2012-05-27T07:05:26Z</time>
      </trkpt>
      <trkpt lat="43.10675" lon="6.02607">
        <ele>36.67</ele>
        <time>2012-05-27T07:05:29Z</time>
      </trkpt>
      <trkpt lat="43.10696" lon="6.0273">
        <ele>36.67</ele>
        <time>2012-05-27T07:05:43Z</time>
      </trkpt>
      <trkpt lat="43.10725" lon="6.02868">
        <ele>36.67</ele>
        <time>2012-05-27T07:05:58Z</time>
      </trkpt>
      <trkpt lat="43.10738" lon="6.02906">
        <ele>36.67</ele>
        <time>2012-05-27T07:06:03Z</time>
      </trkpt>
      <trkpt lat="43.10741" lon="6.02913">
        <ele>36.67</ele>
        <time>2012-05-27T07:06:04Z</time>
      </trkpt>
      <trkpt lat="43.10745" lon="6.02921">
        <ele>36.67</ele>
        <time>2012-05-27T07:06:05Z</time>
      </trkpt>
      <trkpt lat="43.10748" lon="6.02929">
        <ele>36.19</ele>
        <time>2012-05-27T07:06:06Z</time>
      </trkpt>
      <trkpt lat="43.10751" lon="6.02938">
        <ele>36.67</ele>
        <time>2012-05-27T07:06:07Z</time>
      </trkpt>
      <trkpt lat="43.10753" lon="6.02948">
        <ele>36.19</ele>
        <time>2012-05-27T07:06:08Z</time>
      </trkpt>
      <trkpt lat="43.1077" lon="6.03052">
        <ele>36.19</ele>
        <time>2012-05-27T07:06:21Z</time>
      </trkpt>
      <trkpt lat="43.10771" lon="6.03059">
        <ele>36.19</ele>
        <time>2012-05-27T07:06:22Z</time>
      </trkpt>
      <trkpt lat="43.1077" lon="6.03066">
        <ele>36.19</ele>
        <time>2012-05-27T07:06:23Z</time>
      </trkpt>
      <trkpt lat="43.10768" lon="6.03072">
        <ele>36.19</ele>
        <time>2012-05-27T07:06:24Z</time>
      </trkpt>
      <trkpt lat="43.10766" lon="6.03078">
        <ele>35.71</ele>
        <time>2012-05-27T07:06:25Z</time>
      </trkpt>
      <trkpt lat="43.10762" lon="6.03085">
        <ele>35.71</ele>
        <time>2012-05-27T07:06:26Z</time>
      </trkpt>
      <trkpt lat="43.10759" lon="6.03092">
        <ele>36.19</ele>
        <time>2012-05-27T07:06:27Z</time>
      </trkpt>
      <trkpt lat="43.10757" lon="6.031">
        <ele>36.67</ele>
        <time>2012-05-27T07:06:28Z</time>
      </trkpt>
      <trkpt lat="43.10757" lon="6.03108">
        <ele>36.67</ele>
        <time>2012-05-27T07:06:29Z</time>
      </trkpt>
      <trkpt lat="43.10757" lon="6.03114">
        <ele>36.67</ele>
        <time>2012-05-27T07:06:30Z</time>
      </trkpt>
      <trkpt lat="43.10759" lon="6.03121">
        <ele>36.67</ele>
        <time>2012-05-27T07:06:31Z</time>
      </trkpt>
      <trkpt lat="43.10763" lon="6.03126">
        <ele>36.67</ele>
        <time>2012-05-27T07:06:32Z</time>
      </trkpt>
      <trkpt lat="43.10767" lon="6.03131">
        <ele>36.67</ele>
        <time>2012-05-27T07:06:33Z</time>
      </trkpt>
      <trkpt lat="43.10771" lon="6.03136">
        <ele>36.67</ele>
        <time>2012-05-27T07:06:34Z</time>
      </trkpt>
      <trkpt lat="43.1078" lon="6.03146">
        <ele>36.19</ele>
        <time>2012-05-27T07:06:36Z</time>
      </trkpt>
      <trkpt lat="43.10784" lon="6.03152">
        <ele>36.19</ele>
        <time>2012-05-27T07:06:37Z</time>
      </trkpt>
      <trkpt lat="43.10786" lon="6.03159">
        <ele>36.67</ele>
        <time>2012-05-27T07:06:38Z</time>
      </trkpt>
      <trkpt lat="43.10787" lon="6.03167">
        <ele>36.67</ele>
        <time>2012-05-27T07:06:39Z</time>
      </trkpt>
      <trkpt lat="43.10789" lon="6.03175">
        <ele>36.19</ele>
        <time>2012-05-27T07:06:40Z</time>
      </trkpt>
      <trkpt lat="43.10798" lon="6.03236">
        <ele>36.67</ele>
        <time>2012-05-27T07:06:49Z</time>
      </trkpt>
      <trkpt lat="43.10799" lon="6.03243">
        <ele>36.67</ele>
        <time>2012-05-27T07:06:50Z</time>
      </trkpt>
      <trkpt lat="43.10814" lon="6.03341">
        <ele>37.63</ele>
        <time>2012-05-27T07:07:05Z</time>
      </trkpt>
      <trkpt lat="43.10817" lon="6.03373">
        <ele>38.11</ele>
        <time>2012-05-27T07:07:09Z</time>
      </trkpt>
      <trkpt lat="43.10856" lon="6.03481">
        <ele>38.11</ele>
        <time>2012-05-27T07:07:21Z</time>
      </trkpt>
      <trkpt lat="43.10887" lon="6.03619">
        <ele>37.15</ele>
        <time>2012-05-27T07:07:34Z</time>
      </trkpt>
      <trkpt lat="43.10908" lon="6.03752">
        <ele>37.63</ele>
        <time>2012-05-27T07:07:47Z</time>
      </trkpt>
      <trkpt lat="43.10908" lon="6.03761">
        <ele>37.63</ele>
        <time>2012-05-27T07:07:48Z</time>
      </trkpt>
      <trkpt lat="43.10907" lon="6.0377">
        <ele>37.63</ele>
        <time>2012-05-27T07:07:49Z</time>
      </trkpt>
      <trkpt lat="43.10903" lon="6.03817">
        <ele>37.63</ele>
        <time>2012-05-27T07:07:54Z</time>
      </trkpt>
      <trkpt lat="43.10901" lon="6.03826">
        <ele>37.63</ele>
        <time>2012-05-27T07:07:55Z</time>
      </trkpt>
      <trkpt lat="43.10891" lon="6.03861">
        <ele>38.59</ele>
        <time>2012-05-27T07:07:59Z</time>
      </trkpt>
      <trkpt lat="43.10887" lon="6.03868">
        <ele>38.59</ele>
        <time>2012-05-27T07:08:00Z</time>
      </trkpt>
      <trkpt lat="43.1088" lon="6.0388">
        <ele>39.07</ele>
        <time>2012-05-27T07:08:02Z</time>
      </trkpt>
      <trkpt lat="43.10877" lon="6.03887">
        <ele>39.07</ele>
        <time>2012-05-27T07:08:03Z</time>
      </trkpt>
      <trkpt lat="43.10876" lon="6.03894">
        <ele>39.55</ele>
        <time>2012-05-27T07:08:04Z</time>
      </trkpt>
      <trkpt lat="43.10877" lon="6.03902">
        <ele>39.07</ele>
        <time>2012-05-27T07:08:05Z</time>
      </trkpt>
      <trkpt lat="43.1088" lon="6.03909">
        <ele>39.07</ele>
        <time>2012-05-27T07:08:06Z</time>
      </trkpt>
      <trkpt lat="43.10884" lon="6.03916">
        <ele>39.07</ele>
        <time>2012-05-27T07:08:07Z</time>
      </trkpt>
      <trkpt lat="43.10887" lon="6.03923">
        <ele>38.59</ele>
        <time>2012-05-27T07:08:08Z</time>
      </trkpt>
      <trkpt lat="43.10891" lon="6.03932">
        <ele>38.11</ele>
        <time>2012-05-27T07:08:09Z</time>
      </trkpt>
      <trkpt lat="43.10897" lon="6.03949">
        <ele>38.11</ele>
        <time>2012-05-27T07:08:11Z</time>
      </trkpt>
      <trkpt lat="43.10898" lon="6.03958">
        <ele>38.11</ele>
        <time>2012-05-27T07:08:12Z</time>
      </trkpt>
      <trkpt lat="43.10898" lon="6.03968">
        <ele>38.11</ele>
        <time>2012-05-27T07:08:13Z</time>
      </trkpt>
      <trkpt lat="43.10897" lon="6.03996">
        <ele>38.11</ele>
        <time>2012-05-27T07:08:16Z</time>
      </trkpt>
      <trkpt lat="43.10878" lon="6.0411">
        <ele>38.59</ele>
        <time>2012-05-27T07:08:27Z</time>
      </trkpt>
      <trkpt lat="43.10882" lon="6.04238">
        <ele>39.07</ele>
        <time>2012-05-27T07:08:39Z</time>
      </trkpt>
      <trkpt lat="43.10897" lon="6.04302">
        <ele>39.07</ele>
        <time>2012-05-27T07:08:45Z</time>
      </trkpt>
      <trkpt lat="43.109" lon="6.04311">
        <ele>39.07</ele>
        <time>2012-05-27T07:08:46Z</time>
      </trkpt>
      <trkpt lat="43.10904" lon="6.0432">
        <ele>39.07</ele>
        <time>2012-05-27T07:08:47Z</time>
      </trkpt>
      <trkpt lat="43.10908" lon="6.0433">
        <ele>39.07</ele>
        <time>2012-05-27T07:08:48Z</time>
      </trkpt>
      <trkpt lat="43.10911" lon="6.0434">
        <ele>39.07</ele>
        <time>2012-05-27T07:08:49Z</time>
      </trkpt>
      <trkpt lat="43.10913" lon="6.04351">
        <ele>38.59</ele>
        <time>2012-05-27T07:08:50Z</time>
      </trkpt>
      <trkpt lat="43.10915" lon="6.04361">
        <ele>38.59</ele>
        <time>2012-05-27T07:08:51Z</time>
      </trkpt>
      <trkpt lat="43.10916" lon="6.04373">
        <ele>38.59</ele>
        <time>2012-05-27T07:08:52Z</time>
      </trkpt>
      <trkpt lat="43.10916" lon="6.04384">
        <ele>38.59</ele>
        <time>2012-05-27T07:08:53Z</time>
      </trkpt>
      <trkpt lat="43.10915" lon="6.04395">
        <ele>38.59</ele>
        <time>2012-05-27T07:08:54Z</time>
      </trkpt>
      <trkpt lat="43.10914" lon="6.04405">
        <ele>38.59</ele>
        <time>2012-05-27T07:08:55Z</time>
      </trkpt>
      <trkpt lat="43.10913" lon="6.04416">
        <ele>39.07</ele>
        <time>2012-05-27T07:08:56Z</time>
      </trkpt>
      <trkpt lat="43.10889" lon="6.04561">
        <ele>38.59</ele>
        <time>2012-05-27T07:09:09Z</time>
      </trkpt>
      <trkpt lat="43.10878" lon="6.04657">
        <ele>38.59</ele>
        <time>2012-05-27T07:09:18Z</time>
      </trkpt>
      <trkpt lat="43.10875" lon="6.04667">
        <ele>38.59</ele>
        <time>2012-05-27T07:09:19Z</time>
      </trkpt>
      <trkpt lat="43.10871" lon="6.04676">
        <ele>38.59</ele>
        <time>2012-05-27T07:09:20Z</time>
      </trkpt>
      <trkpt lat="43.10865" lon="6.04684">
        <ele>38.59</ele>
        <time>2012-05-27T07:09:21Z</time>
      </trkpt>
      <trkpt lat="43.10859" lon="6.0469">
        <ele>39.07</ele>
        <time>2012-05-27T07:09:22Z</time>
      </trkpt>
      <trkpt lat="43.10852" lon="6.04695">
        <ele>38.59</ele>
        <time>2012-05-27T07:09:23Z</time>
      </trkpt>
      <trkpt lat="43.10846" lon="6.047">
        <ele>39.07</ele>
        <time>2012-05-27T07:09:24Z</time>
      </trkpt>
      <trkpt lat="43.1084" lon="6.04707">
        <ele>39.07</ele>
        <time>2012-05-27T07:09:25Z</time>
      </trkpt>
      <trkpt lat="43.10837" lon="6.04716">
        <ele>39.07</ele>
        <time>2012-05-27T07:09:26Z</time>
      </trkpt>
      <trkpt lat="43.10835" lon="6.04725">
        <ele>39.07</ele>
        <time>2012-05-27T07:09:27Z</time>
      </trkpt>
      <trkpt lat="43.10835" lon="6.04735">
        <ele>39.07</ele>
        <time>2012-05-27T07:09:28Z</time>
      </trkpt>
      <trkpt lat="43.10835" lon="6.04745">
        <ele>39.55</ele>
        <time>2012-05-27T07:09:29Z</time>
      </trkpt>
      <trkpt lat="43.10835" lon="6.04754">
        <ele>38.59</ele>
        <time>2012-05-27T07:09:30Z</time>
      </trkpt>
      <trkpt lat="43.10833" lon="6.04763">
        <ele>38.59</ele>
        <time>2012-05-27T07:09:31Z</time>
      </trkpt>
      <trkpt lat="43.10829" lon="6.04771">
        <ele>38.11</ele>
        <time>2012-05-27T07:09:32Z</time>
      </trkpt>
      <trkpt lat="43.10762" lon="6.04929">
        <ele>39.55</ele>
        <time>2012-05-27T07:09:50Z</time>
      </trkpt>
      <trkpt lat="43.10695" lon="6.05062">
        <ele>40.51</ele>
        <time>2012-05-27T07:10:07Z</time>
      </trkpt>
      <trkpt lat="43.10658" lon="6.05129">
        <ele>40.51</ele>
        <time>2012-05-27T07:10:16Z</time>
      </trkpt>
      <trkpt lat="43.10616" lon="6.05174">
        <ele>40.99</ele>
        <time>2012-05-27T07:10:24Z</time>
      </trkpt>
      <trkpt lat="43.10611" lon="6.05179">
        <ele>40.99</ele>
        <time>2012-05-27T07:10:25Z</time>
      </trkpt>
      <trkpt lat="43.10606" lon="6.05184">
        <ele>40.51</ele>
        <time>2012-05-27T07:10:26Z</time>
      </trkpt>
      <trkpt lat="43.10563" lon="6.05227">
        <ele>40.99</ele>
        <time>2012-05-27T07:10:34Z</time>
      </trkpt>
      <trkpt lat="43.10506" lon="6.05301">
        <ele>40.99</ele>
        <time>2012-05-27T07:10:47Z</time>
      </trkpt>
      <trkpt lat="43.10493" lon="6.05318">
        <ele>40.51</ele>
        <time>2012-05-27T07:10:50Z</time>
      </trkpt>
      <trkpt lat="43.10488" lon="6.05323">
        <ele>40.51</ele>
        <time>2012-05-27T07:10:51Z</time>
      </trkpt>
      <trkpt lat="43.10483" lon="6.05328">
        <ele>41.47</ele>
        <time>2012-05-27T07:10:52Z</time>
      </trkpt>
      <trkpt lat="43.10399" lon="6.05437">
        <ele>41.47</ele>
        <time>2012-05-27T07:11:08Z</time>
      </trkpt>
      <trkpt lat="43.10341" lon="6.05524">
        <ele>42.44</ele>
        <time>2012-05-27T07:11:19Z</time>
      </trkpt>
      <trkpt lat="43.10264" lon="6.05625">
        <ele>43.88</ele>
        <time>2012-05-27T07:11:33Z</time>
      </trkpt>
      <trkpt lat="43.10236" lon="6.05654">
        <ele>44.36</ele>
        <time>2012-05-27T07:11:38Z</time>
      </trkpt>
      <trkpt lat="43.10231" lon="6.0566">
        <ele>44.36</ele>
        <time>2012-05-27T07:11:39Z</time>
      </trkpt>
      <trkpt lat="43.10226" lon="6.05668">
        <ele>44.36</ele>
        <time>2012-05-27T07:11:40Z</time>
      </trkpt>
      <trkpt lat="43.10218" lon="6.05683">
        <ele>44.36</ele>
        <time>2012-05-27T07:11:42Z</time>
      </trkpt>
      <trkpt lat="43.10214" lon="6.0569">
        <ele>44.36</ele>
        <time>2012-05-27T07:11:43Z</time>
      </trkpt>
      <trkpt lat="43.10209" lon="6.05696">
        <ele>44.84</ele>
        <time>2012-05-27T07:11:44Z</time>
      </trkpt>
      <trkpt lat="43.10205" lon="6.05703">
        <ele>44.36</ele>
        <time>2012-05-27T07:11:45Z</time>
      </trkpt>
      <trkpt lat="43.10201" lon="6.05711">
        <ele>44.36</ele>
        <time>2012-05-27T07:11:46Z</time>
      </trkpt>
      <trkpt lat="43.10198" lon="6.0572">
        <ele>44.84</ele>
        <time>2012-05-27T07:11:47Z</time>
      </trkpt>
      <trkpt lat="43.10195" lon="6.05729">
        <ele>44.84</ele>
        <time>2012-05-27T07:11:48Z</time>
      </trkpt>
      <trkpt lat="43.10191" lon="6.05737">
        <ele>44.84</ele>
        <time>2012-05-27T07:11:49Z</time>
      </trkpt>
      <trkpt lat="43.10187" lon="6.05745">
        <ele>44.84</ele>
        <time>2012-05-27T07:11:50Z</time>
      </trkpt>
      <trkpt lat="43.10182" lon="6.05753">
        <ele>45.32</ele>
        <time>2012-05-27T07:11:51Z</time>
      </trkpt>
      <trkpt lat="43.10133" lon="6.05862">
        <ele>46.76</ele>
        <time>2012-05-27T07:12:04Z</time>
      </trkpt>
      <trkpt lat="43.10086" lon="6.0598">
        <ele>49.16</ele>
        <time>2012-05-27T07:12:19Z</time>
      </trkpt>
      <trkpt lat="43.10032" lon="6.06113">
        <ele>49.65</ele>
        <time>2012-05-27T07:12:37Z</time>
      </trkpt>
      <trkpt lat="43.09981" lon="6.06237">
        <ele>48.2</ele>
        <time>2012-05-27T07:12:53Z</time>
      </trkpt>
      <trkpt lat="43.0994" lon="6.06357">
        <ele>46.28</ele>
        <time>2012-05-27T07:13:06Z</time>
      </trkpt>
      <trkpt lat="43.0988" lon="6.06493">
        <ele>45.32</ele>
        <time>2012-05-27T07:13:21Z</time>
      </trkpt>
      <trkpt lat="43.09805" lon="6.06628">
        <ele>41.95</ele>
        <time>2012-05-27T07:13:37Z</time>
      </trkpt>
      <trkpt lat="43.09732" lon="6.06761">
        <ele>39.55</ele>
        <time>2012-05-27T07:13:52Z</time>
      </trkpt>
      <trkpt lat="43.09662" lon="6.0685">
        <ele>37.15</ele>
        <time>2012-05-27T07:14:06Z</time>
      </trkpt>
      <trkpt lat="43.09606" lon="6.06907">
        <ele>35.23</ele>
        <time>2012-05-27T07:14:17Z</time>
      </trkpt>
      <trkpt lat="43.096" lon="6.0691">
        <ele>35.23</ele>
        <time>2012-05-27T07:14:18Z</time>
      </trkpt>
      <trkpt lat="43.09595" lon="6.06912">
        <ele>34.74</ele>
        <time>2012-05-27T07:14:19Z</time>
      </trkpt>
      <trkpt lat="43.09589" lon="6.06913">
        <ele>34.74</ele>
        <time>2012-05-27T07:14:20Z</time>
      </trkpt>
      <trkpt lat="43.09584" lon="6.06913">
        <ele>34.74</ele>
        <time>2012-05-27T07:14:21Z</time>
      </trkpt>
      <trkpt lat="43.09579" lon="6.06913">
        <ele>34.74</ele>
        <time>2012-05-27T07:14:22Z</time>
      </trkpt>
      <trkpt lat="43.0957" lon="6.06917">
        <ele>34.74</ele>
        <time>2012-05-27T07:14:25Z</time>
      </trkpt>
      <trkpt lat="43.09567" lon="6.06921">
        <ele>34.74</ele>
        <time>2012-05-27T07:14:26Z</time>
      </trkpt>
      <trkpt lat="43.09556" lon="6.06942">
        <ele>33.78</ele>
        <time>2012-05-27T07:14:30Z</time>
      </trkpt>
      <trkpt lat="43.09553" lon="6.06949">
        <ele>33.78</ele>
        <time>2012-05-27T07:14:31Z</time>
      </trkpt>
      <trkpt lat="43.09546" lon="6.06963">
        <ele>33.3</ele>
        <time>2012-05-27T07:14:33Z</time>
      </trkpt>
      <trkpt lat="43.09542" lon="6.06971">
        <ele>32.82</ele>
        <time>2012-05-27T07:14:34Z</time>
      </trkpt>
      <trkpt lat="43.09536" lon="6.06977">
        <ele>32.82</ele>
        <time>2012-05-27T07:14:35Z</time>
      </trkpt>
      <trkpt lat="43.09454" lon="6.07061">
        <ele>29.46</ele>
        <time>2012-05-27T07:14:48Z</time>
      </trkpt>
      <trkpt lat="43.09421" lon="6.07092">
        <ele>29.46</ele>
        <time>2012-05-27T07:14:56Z</time>
      </trkpt>
      <trkpt lat="43.0941" lon="6.07102">
        <ele>29.46</ele>
        <time>2012-05-27T07:15:08Z</time>
      </trkpt>
      <trkpt lat="43.09408" lon="6.07105">
        <ele>29.46</ele>
        <time>2012-05-27T07:15:22Z</time>
      </trkpt>
      <trkpt lat="43.09406" lon="6.07107">
        <ele>29.46</ele>
        <time>2012-05-27T07:15:34Z</time>
      </trkpt>
      <trkpt lat="43.09404" lon="6.07108">
        <ele>29.46</ele>
        <time>2012-05-27T07:15:49Z</time>
      </trkpt>
      <trkpt lat="43.09403" lon="6.07111">
        <ele>28.98</ele>
        <time>2012-05-27T07:16:01Z</time>
      </trkpt>
      <trkpt lat="43.09395" lon="6.07121">
        <ele>29.46</ele>
        <time>2012-05-27T07:16:15Z</time>
      </trkpt>
      <trkpt lat="43.09389" lon="6.07125">
        <ele>29.46</ele>
        <time>2012-05-27T07:16:29Z</time>
      </trkpt>
      <trkpt lat="43.09388" lon="6.07127">
        <ele>29.46</ele>
        <time>2012-05-27T07:16:30Z</time>
      </trkpt>
      <trkpt lat="43.09387" lon="6.07128">
        <ele>29.46</ele>
        <time>2012-05-27T07:16:45Z</time>
      </trkpt>
      <trkpt lat="43.09387" lon="6.07129">
        <ele>28.98</ele>
        <time>2012-05-27T07:16:46Z</time>
      </trkpt>
      <trkpt lat="43.09385" lon="6.0713">
        <ele>28.98</ele>
        <time>2012-05-27T07:16:47Z</time>
      </trkpt>
      <trkpt lat="43.09384" lon="6.07131">
        <ele>29.46</ele>
        <time>2012-05-27T07:16:48Z</time>
      </trkpt>
      <trkpt lat="43.09383" lon="6.07133">
        <ele>29.46</ele>
        <time>2012-05-27T07:16:49Z</time>
      </trkpt>
      <trkpt lat="43.09378" lon="6.07138">
        <ele>29.46</ele>
        <time>2012-05-27T07:16:52Z</time>
      </trkpt>
      <trkpt lat="43.09352" lon="6.0717">
        <ele>28.5</ele>
        <time>2012-05-27T07:17:01Z</time>
      </trkpt>
      <trkpt lat="43.09344" lon="6.07179">
        <ele>28.5</ele>
        <time>2012-05-27T07:17:03Z</time>
      </trkpt>
      <trkpt lat="43.0934" lon="6.07185">
        <ele>28.02</ele>
        <time>2012-05-27T07:17:04Z</time>
      </trkpt>
      <trkpt lat="43.09336" lon="6.07192">
        <ele>27.53</ele>
        <time>2012-05-27T07:17:05Z</time>
      </trkpt>
      <trkpt lat="43.09294" lon="6.07305">
        <ele>24.65</ele>
        <time>2012-05-27T07:17:18Z</time>
      </trkpt>
      <trkpt lat="43.09276" lon="6.0738">
        <ele>26.09</ele>
        <time>2012-05-27T07:17:26Z</time>
      </trkpt>
      <trkpt lat="43.09276" lon="6.07388">
        <ele>26.57</ele>
        <time>2012-05-27T07:17:27Z</time>
      </trkpt>
      <trkpt lat="43.09275" lon="6.07402">
        <ele>26.57</ele>
        <time>2012-05-27T07:17:29Z</time>
      </trkpt>
      <trkpt lat="43.09273" lon="6.07409">
        <ele>26.57</ele>
        <time>2012-05-27T07:17:30Z</time>
      </trkpt>
      <trkpt lat="43.09272" lon="6.07417">
        <ele>26.57</ele>
        <time>2012-05-27T07:17:31Z</time>
      </trkpt>
      <trkpt lat="43.09258" lon="6.07528">
        <ele>24.65</ele>
        <time>2012-05-27T07:17:43Z</time>
      </trkpt>
      <trkpt lat="43.09251" lon="6.0758">
        <ele>24.65</ele>
        <time>2012-05-27T07:17:49Z</time>
      </trkpt>
      <trkpt lat="43.0925" lon="6.07588">
        <ele>24.65</ele>
        <time>2012-05-27T07:17:50Z</time>
      </trkpt>
      <trkpt lat="43.09246" lon="6.07612">
        <ele>24.17</ele>
        <time>2012-05-27T07:17:53Z</time>
      </trkpt>
      <trkpt lat="43.09243" lon="6.07619">
        <ele>23.69</ele>
        <time>2012-05-27T07:17:54Z</time>
      </trkpt>
      <trkpt lat="43.0924" lon="6.07626">
        <ele>24.17</ele>
        <time>2012-05-27T07:17:55Z</time>
      </trkpt>
      <trkpt lat="43.09235" lon="6.07641">
        <ele>23.69</ele>
        <time>2012-05-27T07:17:57Z</time>
      </trkpt>
      <trkpt lat="43.09232" lon="6.07647">
        <ele>23.69</ele>
        <time>2012-05-27T07:17:58Z</time>
      </trkpt>
      <trkpt lat="43.09228" lon="6.07652">
        <ele>23.69</ele>
        <time>2012-05-27T07:17:59Z</time>
      </trkpt>
      <trkpt lat="43.09224" lon="6.07657">
        <ele>24.17</ele>
        <time>2012-05-27T07:18:00Z</time>
      </trkpt>
      <trkpt lat="43.09221" lon="6.07661">
        <ele>24.65</ele>
        <time>2012-05-27T07:18:01Z</time>
      </trkpt>
      <trkpt lat="43.0922" lon="6.07663">
        <ele>25.13</ele>
        <time>2012-05-27T07:18:02Z</time>
      </trkpt>
      <trkpt lat="43.09219" lon="6.07666">
        <ele>24.65</ele>
        <time>2012-05-27T07:18:03Z</time>
      </trkpt>
      <trkpt lat="43.09219" lon="6.07669">
        <ele>24.65</ele>
        <time>2012-05-27T07:18:04Z</time>
      </trkpt>
      <trkpt lat="43.09219" lon="6.07672">
        <ele>25.13</ele>
        <time>2012-05-27T07:18:05Z</time>
      </trkpt>
      <trkpt lat="43.0922" lon="6.07677">
        <ele>25.13</ele>
        <time>2012-05-27T07:18:06Z</time>
      </trkpt>
      <trkpt lat="43.09221" lon="6.07681">
        <ele>25.13</ele>
        <time>2012-05-27T07:18:07Z</time>
      </trkpt>
      <trkpt lat="43.09221" lon="6.07687">
        <ele>25.13</ele>
        <time>2012-05-27T07:18:08Z</time>
      </trkpt>
      <trkpt lat="43.09221" lon="6.07699">
        <ele>25.13</ele>
        <time>2012-05-27T07:18:10Z</time>
      </trkpt>
      <trkpt lat="43.09222" lon="6.07706">
        <ele>24.65</ele>
        <time>2012-05-27T07:18:11Z</time>
      </trkpt>
      <trkpt lat="43.09222" lon="6.07713">
        <ele>24.65</ele>
        <time>2012-05-27T07:18:12Z</time>
      </trkpt>
      <trkpt lat="43.09221" lon="6.07719">
        <ele>25.13</ele>
        <time>2012-05-27T07:18:13Z</time>
      </trkpt>
      <trkpt lat="43.0922" lon="6.07726">
        <ele>24.65</ele>
        <time>2012-05-27T07:18:14Z</time>
      </trkpt>
      <trkpt lat="43.09218" lon="6.07732">
        <ele>24.65</ele>
        <time>2012-05-27T07:18:15Z</time>
      </trkpt>
      <trkpt lat="43.09187" lon="6.07827">
        <ele>22.73</ele>
        <time>2012-05-27T07:18:29Z</time>
      </trkpt>
      <trkpt lat="43.09165" lon="6.07892">
        <ele>22.25</ele>
        <time>2012-05-27T07:18:38Z</time>
      </trkpt>
      <trkpt lat="43.09163" lon="6.07899">
        <ele>22.25</ele>
        <time>2012-05-27T07:18:39Z</time>
      </trkpt>
      <trkpt lat="43.09132" lon="6.07997">
        <ele>22.73</ele>
        <time>2012-05-27T07:18:54Z</time>
      </trkpt>
      <trkpt lat="43.0913" lon="6.08002">
        <ele>22.25</ele>
        <time>2012-05-27T07:18:55Z</time>
      </trkpt>
      <trkpt lat="43.09128" lon="6.08008">
        <ele>22.73</ele>
        <time>2012-05-27T07:18:56Z</time>
      </trkpt>
      <trkpt lat="43.09125" lon="6.08012">
        <ele>22.25</ele>
        <time>2012-05-27T07:18:57Z</time>
      </trkpt>
      <trkpt lat="43.09122" lon="6.08016">
        <ele>22.73</ele>
        <time>2012-05-27T07:18:58Z</time>
      </trkpt>
      <trkpt lat="43.0912" lon="6.08019">
        <ele>21.77</ele>
        <time>2012-05-27T07:18:59Z</time>
      </trkpt>
      <trkpt lat="43.09118" lon="6.08023">
        <ele>21.77</ele>
        <time>2012-05-27T07:19:00Z</time>
      </trkpt>
      <trkpt lat="43.09116" lon="6.08027">
        <ele>21.77</ele>
        <time>2012-05-27T07:19:01Z</time>
      </trkpt>
      <trkpt lat="43.09115" lon="6.08032">
        <ele>22.25</ele>
        <time>2012-05-27T07:19:02Z</time>
      </trkpt>
      <trkpt lat="43.09114" lon="6.08037">
        <ele>21.77</ele>
        <time>2012-05-27T07:19:03Z</time>
      </trkpt>
      <trkpt lat="43.09114" lon="6.08043">
        <ele>21.77</ele>
        <time>2012-05-27T07:19:04Z</time>
      </trkpt>
      <trkpt lat="43.09114" lon="6.08055">
        <ele>22.25</ele>
        <time>2012-05-27T07:19:06Z</time>
      </trkpt>
      <trkpt lat="43.09114" lon="6.08062">
        <ele>22.25</ele>
        <time>2012-05-27T07:19:07Z</time>
      </trkpt>
      <trkpt lat="43.09112" lon="6.08069">
        <ele>22.25</ele>
        <time>2012-05-27T07:19:08Z</time>
      </trkpt>
      <trkpt lat="43.09071" lon="6.08204">
        <ele>20.81</ele>
        <time>2012-05-27T07:19:23Z</time>
      </trkpt>
      <trkpt lat="43.0903" lon="6.08339">
        <ele>21.77</ele>
        <time>2012-05-27T07:19:38Z</time>
      </trkpt>
      <trkpt lat="43.09006" lon="6.08414">
        <ele>22.25</ele>
        <time>2012-05-27T07:19:47Z</time>
      </trkpt>
      <trkpt lat="43.09002" lon="6.08422">
        <ele>22.73</ele>
        <time>2012-05-27T07:19:49Z</time>
      </trkpt>
      <trkpt lat="43.09002" lon="6.08425">
        <ele>22.73</ele>
        <time>2012-05-27T07:19:50Z</time>
      </trkpt>
      <trkpt lat="43.09002" lon="6.0843">
        <ele>22.73</ele>
        <time>2012-05-27T07:19:51Z</time>
      </trkpt>
      <trkpt lat="43.09001" lon="6.08435">
        <ele>22.73</ele>
        <time>2012-05-27T07:19:52Z</time>
      </trkpt>
      <trkpt lat="43.09001" lon="6.08441">
        <ele>22.73</ele>
        <time>2012-05-27T07:19:53Z</time>
      </trkpt>
      <trkpt lat="43.09002" lon="6.08448">
        <ele>22.25</ele>
        <time>2012-05-27T07:19:54Z</time>
      </trkpt>
      <trkpt lat="43.09003" lon="6.08455">
        <ele>21.77</ele>
        <time>2012-05-27T07:19:55Z</time>
      </trkpt>
      <trkpt lat="43.09003" lon="6.08463">
        <ele>22.25</ele>
        <time>2012-05-27T07:19:56Z</time>
      </trkpt>
      <trkpt lat="43.09" lon="6.08592">
        <ele>20.81</ele>
        <time>2012-05-27T07:20:09Z</time>
      </trkpt>
      <trkpt lat="43.08967" lon="6.08745">
        <ele>23.69</ele>
        <time>2012-05-27T07:20:26Z</time>
      </trkpt>
      <trkpt lat="43.08924" lon="6.08897">
        <ele>24.65</ele>
        <time>2012-05-27T07:20:44Z</time>
      </trkpt>
      <trkpt lat="43.08869" lon="6.09072">
        <ele>25.13</ele>
        <time>2012-05-27T07:21:04Z</time>
      </trkpt>
      <trkpt lat="43.08808" lon="6.0922">
        <ele>25.61</ele>
        <time>2012-05-27T07:21:21Z</time>
      </trkpt>
      <trkpt lat="43.08726" lon="6.0935">
        <ele>25.61</ele>
        <time>2012-05-27T07:21:38Z</time>
      </trkpt>
      <trkpt lat="43.08645" lon="6.09484">
        <ele>22.25</ele>
        <time>2012-05-27T07:21:54Z</time>
      </trkpt>
      <trkpt lat="43.08627" lon="6.09522">
        <ele>22.25</ele>
        <time>2012-05-27T07:21:58Z</time>
      </trkpt>
      <trkpt lat="43.08564" lon="6.09704">
        <ele>20.81</ele>
        <time>2012-05-27T07:22:15Z</time>
      </trkpt>
      <trkpt lat="43.08531" lon="6.09868">
        <ele>22.25</ele>
        <time>2012-05-27T07:22:30Z</time>
      </trkpt>
      <trkpt lat="43.0852" lon="6.10004">
        <ele>25.13</ele>
        <time>2012-05-27T07:22:43Z</time>
      </trkpt>
      <trkpt lat="43.08519" lon="6.10128">
        <ele>27.05</ele>
        <time>2012-05-27T07:22:55Z</time>
      </trkpt>
      <trkpt lat="43.08518" lon="6.10138">
        <ele>28.02</ele>
        <time>2012-05-27T07:22:56Z</time>
      </trkpt>
      <trkpt lat="43.08501" lon="6.10267">
        <ele>29.46</ele>
        <time>2012-05-27T07:23:09Z</time>
      </trkpt>
      <trkpt lat="43.08491" lon="6.10424">
        <ele>29.46</ele>
        <time>2012-05-27T07:23:24Z</time>
      </trkpt>
      <trkpt lat="43.08473" lon="6.10582">
        <ele>30.9</ele>
        <time>2012-05-27T07:23:39Z</time>
      </trkpt>
      <trkpt lat="43.08486" lon="6.10695">
        <ele>33.3</ele>
        <time>2012-05-27T07:23:51Z</time>
      </trkpt>
      <trkpt lat="43.08492" lon="6.10829">
        <ele>36.19</ele>
        <time>2012-05-27T07:24:06Z</time>
      </trkpt>
      <trkpt lat="43.08492" lon="6.10838">
        <ele>35.71</ele>
        <time>2012-05-27T07:24:07Z</time>
      </trkpt>
      <trkpt lat="43.08489" lon="6.10855">
        <ele>35.71</ele>
        <time>2012-05-27T07:24:09Z</time>
      </trkpt>
      <trkpt lat="43.08486" lon="6.10863">
        <ele>35.23</ele>
        <time>2012-05-27T07:24:10Z</time>
      </trkpt>
      <trkpt lat="43.08484" lon="6.10872">
        <ele>35.23</ele>
        <time>2012-05-27T07:24:11Z</time>
      </trkpt>
      <trkpt lat="43.08482" lon="6.10881">
        <ele>35.23</ele>
        <time>2012-05-27T07:24:12Z</time>
      </trkpt>
      <trkpt lat="43.08482" lon="6.1089">
        <ele>35.23</ele>
        <time>2012-05-27T07:24:13Z</time>
      </trkpt>
      <trkpt lat="43.08481" lon="6.10899">
        <ele>35.23</ele>
        <time>2012-05-27T07:24:14Z</time>
      </trkpt>
      <trkpt lat="43.08479" lon="6.10907">
        <ele>35.23</ele>
        <time>2012-05-27T07:24:15Z</time>
      </trkpt>
      <trkpt lat="43.08477" lon="6.10915">
        <ele>34.74</ele>
        <time>2012-05-27T07:24:16Z</time>
      </trkpt>
      <trkpt lat="43.08477" lon="6.10924">
        <ele>33.78</ele>
        <time>2012-05-27T07:24:17Z</time>
      </trkpt>
      <trkpt lat="43.08476" lon="6.10933">
        <ele>34.74</ele>
        <time>2012-05-27T07:24:18Z</time>
      </trkpt>
      <trkpt lat="43.08469" lon="6.11008">
        <ele>30.9</ele>
        <time>2012-05-27T07:24:25Z</time>
      </trkpt>
      <trkpt lat="43.08467" lon="6.1102">
        <ele>30.9</ele>
        <time>2012-05-27T07:24:26Z</time>
      </trkpt>
      <trkpt lat="43.0846" lon="6.11059">
        <ele>28.5</ele>
        <time>2012-05-27T07:24:29Z</time>
      </trkpt>
      <trkpt lat="43.08447" lon="6.11154">
        <ele>25.61</ele>
        <time>2012-05-27T07:24:36Z</time>
      </trkpt>
      <trkpt lat="43.08441" lon="6.11179">
        <ele>26.09</ele>
        <time>2012-05-27T07:24:38Z</time>
      </trkpt>
      <trkpt lat="43.08438" lon="6.11191">
        <ele>25.61</ele>
        <time>2012-05-27T07:24:39Z</time>
      </trkpt>
      <trkpt lat="43.08433" lon="6.11202">
        <ele>24.65</ele>
        <time>2012-05-27T07:24:40Z</time>
      </trkpt>
      <trkpt lat="43.08429" lon="6.11214">
        <ele>24.65</ele>
        <time>2012-05-27T07:24:41Z</time>
      </trkpt>
      <trkpt lat="43.08417" lon="6.11249">
        <ele>23.21</ele>
        <time>2012-05-27T07:24:44Z</time>
      </trkpt>
      <trkpt lat="43.08414" lon="6.11261">
        <ele>22.73</ele>
        <time>2012-05-27T07:24:45Z</time>
      </trkpt>
      <trkpt lat="43.08398" lon="6.11388">
        <ele>19.84</ele>
        <time>2012-05-27T07:24:55Z</time>
      </trkpt>
      <trkpt lat="43.08373" lon="6.11506">
        <ele>16</ele>
        <time>2012-05-27T07:25:04Z</time>
      </trkpt>
      <trkpt lat="43.08369" lon="6.11519">
        <ele>16</ele>
        <time>2012-05-27T07:25:05Z</time>
      </trkpt>
      <trkpt lat="43.08361" lon="6.11545">
        <ele>15.04</ele>
        <time>2012-05-27T07:25:07Z</time>
      </trkpt>
      <trkpt lat="43.08306" lon="6.11681">
        <ele>11.67</ele>
        <time>2012-05-27T07:25:18Z</time>
      </trkpt>
      <trkpt lat="43.08241" lon="6.11813">
        <ele>11.19</ele>
        <time>2012-05-27T07:25:31Z</time>
      </trkpt>
      <trkpt lat="43.08222" lon="6.11838">
        <ele>10.23</ele>
        <time>2012-05-27T07:25:34Z</time>
      </trkpt>
      <trkpt lat="43.08215" lon="6.11846">
        <ele>9.75</ele>
        <time>2012-05-27T07:25:35Z</time>
      </trkpt>
      <trkpt lat="43.08208" lon="6.11853">
        <ele>9.27</ele>
        <time>2012-05-27T07:25:36Z</time>
      </trkpt>
      <trkpt lat="43.082" lon="6.11859">
        <ele>9.27</ele>
        <time>2012-05-27T07:25:37Z</time>
      </trkpt>
      <trkpt lat="43.08191" lon="6.11863">
        <ele>9.75</ele>
        <time>2012-05-27T07:25:38Z</time>
      </trkpt>
      <trkpt lat="43.08182" lon="6.11867">
        <ele>9.27</ele>
        <time>2012-05-27T07:25:39Z</time>
      </trkpt>
      <trkpt lat="43.0814" lon="6.11893">
        <ele>8.31</ele>
        <time>2012-05-27T07:25:44Z</time>
      </trkpt>
      <trkpt lat="43.08133" lon="6.11901">
        <ele>8.79</ele>
        <time>2012-05-27T07:25:45Z</time>
      </trkpt>
      <trkpt lat="43.08126" lon="6.1191">
        <ele>8.31</ele>
        <time>2012-05-27T07:25:46Z</time>
      </trkpt>
      <trkpt lat="43.0812" lon="6.1192">
        <ele>8.31</ele>
        <time>2012-05-27T07:25:47Z</time>
      </trkpt>
      <trkpt lat="43.08115" lon="6.1193">
        <ele>7.83</ele>
        <time>2012-05-27T07:25:48Z</time>
      </trkpt>
      <trkpt lat="43.08083" lon="6.12038">
        <ele>8.31</ele>
        <time>2012-05-27T07:25:58Z</time>
      </trkpt>
      <trkpt lat="43.08064" lon="6.12168">
        <ele>8.31</ele>
        <time>2012-05-27T07:26:09Z</time>
      </trkpt>
      <trkpt lat="43.08013" lon="6.12319">
        <ele>7.35</ele>
        <time>2012-05-27T07:26:23Z</time>
      </trkpt>
      <trkpt lat="43.07987" lon="6.12433">
        <ele>5.42</ele>
        <time>2012-05-27T07:26:33Z</time>
      </trkpt>
      <trkpt lat="43.07986" lon="6.12445">
        <ele>5.91</ele>
        <time>2012-05-27T07:26:34Z</time>
      </trkpt>
      <trkpt lat="43.08002" lon="6.1259">
        <ele>4.94</ele>
        <time>2012-05-27T07:26:46Z</time>
      </trkpt>
      <trkpt lat="43.08003" lon="6.12623">
        <ele>4.94</ele>
        <time>2012-05-27T07:26:49Z</time>
      </trkpt>
      <trkpt lat="43.08002" lon="6.12633">
        <ele>4.94</ele>
        <time>2012-05-27T07:26:50Z</time>
      </trkpt>
      <trkpt lat="43.08" lon="6.12642">
        <ele>5.42</ele>
        <time>2012-05-27T07:26:51Z</time>
      </trkpt>
      <trkpt lat="43.07996" lon="6.1265">
        <ele>4.94</ele>
        <time>2012-05-27T07:26:52Z</time>
      </trkpt>
      <trkpt lat="43.07991" lon="6.12656">
        <ele>4.94</ele>
        <time>2012-05-27T07:26:53Z</time>
      </trkpt>
      <trkpt lat="43.07985" lon="6.1266">
        <ele>4.94</ele>
        <time>2012-05-27T07:26:54Z</time>
      </trkpt>
      <trkpt lat="43.07978" lon="6.12661">
        <ele>4.94</ele>
        <time>2012-05-27T07:26:55Z</time>
      </trkpt>
      <trkpt lat="43.07971" lon="6.12661">
        <ele>4.94</ele>
        <time>2012-05-27T07:26:56Z</time>
      </trkpt>
      <trkpt lat="43.07951" lon="6.12659">
        <ele>4.46</ele>
        <time>2012-05-27T07:26:59Z</time>
      </trkpt>
      <trkpt lat="43.07939" lon="6.12654">
        <ele>4.94</ele>
        <time>2012-05-27T07:27:01Z</time>
      </trkpt>
      <trkpt lat="43.07933" lon="6.12656">
        <ele>4.46</ele>
        <time>2012-05-27T07:27:02Z</time>
      </trkpt>
      <trkpt lat="43.07927" lon="6.12659">
        <ele>4.94</ele>
        <time>2012-05-27T07:27:03Z</time>
      </trkpt>
      <trkpt lat="43.0792" lon="6.1266">
        <ele>4.46</ele>
        <time>2012-05-27T07:27:04Z</time>
      </trkpt>
      <trkpt lat="43.07913" lon="6.1266">
        <ele>4.46</ele>
        <time>2012-05-27T07:27:05Z</time>
      </trkpt>
      <trkpt lat="43.07906" lon="6.12659">
        <ele>4.46</ele>
        <time>2012-05-27T07:27:06Z</time>
      </trkpt>
      <trkpt lat="43.07898" lon="6.12658">
        <ele>4.46</ele>
        <time>2012-05-27T07:27:07Z</time>
      </trkpt>
      <trkpt lat="43.07775" lon="6.12663">
        <ele>4.46</ele>
        <time>2012-05-27T07:27:23Z</time>
      </trkpt>
      <trkpt lat="43.07647" lon="6.12709">
        <ele>3.5</ele>
        <time>2012-05-27T07:27:40Z</time>
      </trkpt>
      <trkpt lat="43.07548" lon="6.12751">
        <ele>3.98</ele>
        <time>2012-05-27T07:27:53Z</time>
      </trkpt>
      <trkpt lat="43.07428" lon="6.12796">
        <ele>3.98</ele>
        <time>2012-05-27T07:28:09Z</time>
      </trkpt>
      <trkpt lat="43.07328" lon="6.12829">
        <ele>3.98</ele>
        <time>2012-05-27T07:28:23Z</time>
      </trkpt>
      <trkpt lat="43.07206" lon="6.12869">
        <ele>3.98</ele>
        <time>2012-05-27T07:28:40Z</time>
      </trkpt>
      <trkpt lat="43.07103" lon="6.12907">
        <ele>4.46</ele>
        <time>2012-05-27T07:28:54Z</time>
      </trkpt>
      <trkpt lat="43.06971" lon="6.12973">
        <ele>4.46</ele>
        <time>2012-05-27T07:29:12Z</time>
      </trkpt>
      <trkpt lat="43.06841" lon="6.13026">
        <ele>3.5</ele>
        <time>2012-05-27T07:29:29Z</time>
      </trkpt>
      <trkpt lat="43.06705" lon="6.13058">
        <ele>3.98</ele>
        <time>2012-05-27T07:29:46Z</time>
      </trkpt>
      <trkpt lat="43.06593" lon="6.13082">
        <ele>3.98</ele>
        <time>2012-05-27T07:30:00Z</time>
      </trkpt>
      <trkpt lat="43.06481" lon="6.13112">
        <ele>3.98</ele>
        <time>2012-05-27T07:30:14Z</time>
      </trkpt>
      <trkpt lat="43.06347" lon="6.13148">
        <ele>3.5</ele>
        <time>2012-05-27T07:30:30Z</time>
      </trkpt>
      <trkpt lat="43.06227" lon="6.1319">
        <ele>3.98</ele>
        <time>2012-05-27T07:30:45Z</time>
      </trkpt>
      <trkpt lat="43.06088" lon="6.13234">
        <ele>3.5</ele>
        <time>2012-05-27T07:31:02Z</time>
      </trkpt>
      <trkpt lat="43.05956" lon="6.13273">
        <ele>3.02</ele>
        <time>2012-05-27T07:31:18Z</time>
      </trkpt>
      <trkpt lat="43.05807" lon="6.13323">
        <ele>3.02</ele>
        <time>2012-05-27T07:31:37Z</time>
      </trkpt>
      <trkpt lat="43.0569" lon="6.13353">
        <ele>3.02</ele>
        <time>2012-05-27T07:31:52Z</time>
      </trkpt>
      <trkpt lat="43.05563" lon="6.13365">
        <ele>3.5</ele>
        <time>2012-05-27T07:32:08Z</time>
      </trkpt>
      <trkpt lat="43.05417" lon="6.13361">
        <ele>3.5</ele>
        <time>2012-05-27T07:32:26Z</time>
      </trkpt>
      <trkpt lat="43.05303" lon="6.13338">
        <ele>3.5</ele>
        <time>2012-05-27T07:32:40Z</time>
      </trkpt>
      <trkpt lat="43.05188" lon="6.13339">
        <ele>2.54</ele>
        <time>2012-05-27T07:32:53Z</time>
      </trkpt>
      <trkpt lat="43.05073" lon="6.13311">
        <ele>3.02</ele>
        <time>2012-05-27T07:33:06Z</time>
      </trkpt>
      <trkpt lat="43.0495" lon="6.13298">
        <ele>3.02</ele>
        <time>2012-05-27T07:33:20Z</time>
      </trkpt>
      <trkpt lat="43.04837" lon="6.13319">
        <ele>2.06</ele>
        <time>2012-05-27T07:33:33Z</time>
      </trkpt>
      <trkpt lat="43.04708" lon="6.13357">
        <ele>2.06</ele>
        <time>2012-05-27T07:33:49Z</time>
      </trkpt>
      <trkpt lat="43.04574" lon="6.13405">
        <ele>2.06</ele>
        <time>2012-05-27T07:34:06Z</time>
      </trkpt>
      <trkpt lat="43.04472" lon="6.13459">
        <ele>2.54</ele>
        <time>2012-05-27T07:34:20Z</time>
      </trkpt>
      <trkpt lat="43.04467" lon="6.13467">
        <ele>3.02</ele>
        <time>2012-05-27T07:34:21Z</time>
      </trkpt>
      <trkpt lat="43.04464" lon="6.13476">
        <ele>3.5</ele>
        <time>2012-05-27T07:34:22Z</time>
      </trkpt>
      <trkpt lat="43.04461" lon="6.13484">
        <ele>3.02</ele>
        <time>2012-05-27T07:34:23Z</time>
      </trkpt>
      <trkpt lat="43.0446" lon="6.13492">
        <ele>3.5</ele>
        <time>2012-05-27T07:34:24Z</time>
      </trkpt>
      <trkpt lat="43.0446" lon="6.13499">
        <ele>3.98</ele>
        <time>2012-05-27T07:34:25Z</time>
      </trkpt>
      <trkpt lat="43.04459" lon="6.13504">
        <ele>3.98</ele>
        <time>2012-05-27T07:34:26Z</time>
      </trkpt>
      <trkpt lat="43.04457" lon="6.13507">
        <ele>4.46</ele>
        <time>2012-05-27T07:34:27Z</time>
      </trkpt>
      <trkpt lat="43.04455" lon="6.1351">
        <ele>4.46</ele>
        <time>2012-05-27T07:34:28Z</time>
      </trkpt>
      <trkpt lat="43.04454" lon="6.13515">
        <ele>4.94</ele>
        <time>2012-05-27T07:34:29Z</time>
      </trkpt>
      <trkpt lat="43.04454" lon="6.1352">
        <ele>4.46</ele>
        <time>2012-05-27T07:34:30Z</time>
      </trkpt>
      <trkpt lat="43.04455" lon="6.13526">
        <ele>3.98</ele>
        <time>2012-05-27T07:34:31Z</time>
      </trkpt>
      <trkpt lat="43.04457" lon="6.13533">
        <ele>3.5</ele>
        <time>2012-05-27T07:34:32Z</time>
      </trkpt>
      <trkpt lat="43.04459" lon="6.1354">
        <ele>4.46</ele>
        <time>2012-05-27T07:34:33Z</time>
      </trkpt>
      <trkpt lat="43.04461" lon="6.13547">
        <ele>4.46</ele>
        <time>2012-05-27T07:34:34Z</time>
      </trkpt>
      <trkpt lat="43.04462" lon="6.13555">
        <ele>3.5</ele>
        <time>2012-05-27T07:34:35Z</time>
      </trkpt>
      <trkpt lat="43.04463" lon="6.13564">
        <ele>3.98</ele>
        <time>2012-05-27T07:34:36Z</time>
      </trkpt>
      <trkpt lat="43.04463" lon="6.13573">
        <ele>3.98</ele>
        <time>2012-05-27T07:34:37Z</time>
      </trkpt>
      <trkpt lat="43.04463" lon="6.13582">
        <ele>4.46</ele>
        <time>2012-05-27T07:34:38Z</time>
      </trkpt>
      <trkpt lat="43.04462" lon="6.1359">
        <ele>4.94</ele>
        <time>2012-05-27T07:34:39Z</time>
      </trkpt>
      <trkpt lat="43.0446" lon="6.13599">
        <ele>3.98</ele>
        <time>2012-05-27T07:34:40Z</time>
      </trkpt>
      <trkpt lat="43.04457" lon="6.13607">
        <ele>4.46</ele>
        <time>2012-05-27T07:34:41Z</time>
      </trkpt>
      <trkpt lat="43.04431" lon="6.13716">
        <ele>3.98</ele>
        <time>2012-05-27T07:34:53Z</time>
      </trkpt>
      <trkpt lat="43.04429" lon="6.13726">
        <ele>4.46</ele>
        <time>2012-05-27T07:34:54Z</time>
      </trkpt>
      <trkpt lat="43.04399" lon="6.1383">
        <ele>6.39</ele>
        <time>2012-05-27T07:35:06Z</time>
      </trkpt>
      <trkpt lat="43.04367" lon="6.13894">
        <ele>5.42</ele>
        <time>2012-05-27T07:35:14Z</time>
      </trkpt>
      <trkpt lat="43.04362" lon="6.13901">
        <ele>5.42</ele>
        <time>2012-05-27T07:35:15Z</time>
      </trkpt>
      <trkpt lat="43.04356" lon="6.13908">
        <ele>4.94</ele>
        <time>2012-05-27T07:35:16Z</time>
      </trkpt>
      <trkpt lat="43.04259" lon="6.14006">
        <ele>3.5</ele>
        <time>2012-05-27T07:35:31Z</time>
      </trkpt>
      <trkpt lat="43.04203" lon="6.1411">
        <ele>3.5</ele>
        <time>2012-05-27T07:35:43Z</time>
      </trkpt>
      <trkpt lat="43.04132" lon="6.14279">
        <ele>4.46</ele>
        <time>2012-05-27T07:36:01Z</time>
      </trkpt>
      <trkpt lat="43.04088" lon="6.14393">
        <ele>3.5</ele>
        <time>2012-05-27T07:36:12Z</time>
      </trkpt>
      <trkpt lat="43.04087" lon="6.14404">
        <ele>3.5</ele>
        <time>2012-05-27T07:36:13Z</time>
      </trkpt>
      <trkpt lat="43.04086" lon="6.14415">
        <ele>3.5</ele>
        <time>2012-05-27T07:36:14Z</time>
      </trkpt>
      <trkpt lat="43.04087" lon="6.14426">
        <ele>3.5</ele>
        <time>2012-05-27T07:36:15Z</time>
      </trkpt>
      <trkpt lat="43.04088" lon="6.14436">
        <ele>3.02</ele>
        <time>2012-05-27T07:36:16Z</time>
      </trkpt>
      <trkpt lat="43.04088" lon="6.14457">
        <ele>3.5</ele>
        <time>2012-05-27T07:36:18Z</time>
      </trkpt>
      <trkpt lat="43.04087" lon="6.14467">
        <ele>3.98</ele>
        <time>2012-05-27T07:36:19Z</time>
      </trkpt>
      <trkpt lat="43.04085" lon="6.14475">
        <ele>3.98</ele>
        <time>2012-05-27T07:36:20Z</time>
      </trkpt>
      <trkpt lat="43.04081" lon="6.1449">
        <ele>4.46</ele>
        <time>2012-05-27T07:36:22Z</time>
      </trkpt>
      <trkpt lat="43.04072" lon="6.14511">
        <ele>4.46</ele>
        <time>2012-05-27T07:36:25Z</time>
      </trkpt>
      <trkpt lat="43.04072" lon="6.14519">
        <ele>4.94</ele>
        <time>2012-05-27T07:36:26Z</time>
      </trkpt>
      <trkpt lat="43.04073" lon="6.14526">
        <ele>4.46</ele>
        <time>2012-05-27T07:36:27Z</time>
      </trkpt>
      <trkpt lat="43.04077" lon="6.14531">
        <ele>4.46</ele>
        <time>2012-05-27T07:36:28Z</time>
      </trkpt>
      <trkpt lat="43.04082" lon="6.14535">
        <ele>4.46</ele>
        <time>2012-05-27T07:36:29Z</time>
      </trkpt>
      <trkpt lat="43.04087" lon="6.14537">
        <ele>4.46</ele>
        <time>2012-05-27T07:36:30Z</time>
      </trkpt>
      <trkpt lat="43.04093" lon="6.14537">
        <ele>3.98</ele>
        <time>2012-05-27T07:36:31Z</time>
      </trkpt>
      <trkpt lat="43.04099" lon="6.14537">
        <ele>3.5</ele>
        <time>2012-05-27T07:36:32Z</time>
      </trkpt>
      <trkpt lat="43.04106" lon="6.14537">
        <ele>3.98</ele>
        <time>2012-05-27T07:36:33Z</time>
      </trkpt>
      <trkpt lat="43.04112" lon="6.14539">
        <ele>3.5</ele>
        <time>2012-05-27T07:36:34Z</time>
      </trkpt>
      <trkpt lat="43.04217" lon="6.14565">
        <ele>3.02</ele>
        <time>2012-05-27T07:36:49Z</time>
      </trkpt>
      <trkpt lat="43.04367" lon="6.14586">
        <ele>2.54</ele>
        <time>2012-05-27T07:37:08Z</time>
      </trkpt>
      <trkpt lat="43.04498" lon="6.14606">
        <ele>3.02</ele>
        <time>2012-05-27T07:37:24Z</time>
      </trkpt>
      <trkpt lat="43.04621" lon="6.14624">
        <ele>3.02</ele>
        <time>2012-05-27T07:37:39Z</time>
      </trkpt>
      <trkpt lat="43.04727" lon="6.14645">
        <ele>2.06</ele>
        <time>2012-05-27T07:37:53Z</time>
      </trkpt>
      <trkpt lat="43.0474" lon="6.14653">
        <ele>3.02</ele>
        <time>2012-05-27T07:37:55Z</time>
      </trkpt>
      <trkpt lat="43.04745" lon="6.14659">
        <ele>2.54</ele>
        <time>2012-05-27T07:37:56Z</time>
      </trkpt>
      <trkpt lat="43.04756" lon="6.14672">
        <ele>2.54</ele>
        <time>2012-05-27T07:37:58Z</time>
      </trkpt>
      <trkpt lat="43.04762" lon="6.14675">
        <ele>3.02</ele>
        <time>2012-05-27T07:37:59Z</time>
      </trkpt>
      <trkpt lat="43.04769" lon="6.14674">
        <ele>3.02</ele>
        <time>2012-05-27T07:38:00Z</time>
      </trkpt>
      <trkpt lat="43.04775" lon="6.14669">
        <ele>3.02</ele>
        <time>2012-05-27T07:38:01Z</time>
      </trkpt>
      <trkpt lat="43.04781" lon="6.14663">
        <ele>3.02</ele>
        <time>2012-05-27T07:38:02Z</time>
      </trkpt>
      <trkpt lat="43.04788" lon="6.1466">
        <ele>3.02</ele>
        <time>2012-05-27T07:38:03Z</time>
      </trkpt>
      <trkpt lat="43.04795" lon="6.14658">
        <ele>3.02</ele>
        <time>2012-05-27T07:38:04Z</time>
      </trkpt>
      <trkpt lat="43.04802" lon="6.14658">
        <ele>3.02</ele>
        <time>2012-05-27T07:38:05Z</time>
      </trkpt>
      <trkpt lat="43.04809" lon="6.14658">
        <ele>3.02</ele>
        <time>2012-05-27T07:38:06Z</time>
      </trkpt>
      <trkpt lat="43.0492" lon="6.14667">
        <ele>3.5</ele>
        <time>2012-05-27T07:38:21Z</time>
      </trkpt>
      <trkpt lat="43.05028" lon="6.14676">
        <ele>3.98</ele>
        <time>2012-05-27T07:38:35Z</time>
      </trkpt>
      <trkpt lat="43.05148" lon="6.14687">
        <ele>3.5</ele>
        <time>2012-05-27T07:38:51Z</time>
      </trkpt>
      <trkpt lat="43.05251" lon="6.14696">
        <ele>3.02</ele>
        <time>2012-05-27T07:39:05Z</time>
      </trkpt>
      <trkpt lat="43.05266" lon="6.14697">
        <ele>3.02</ele>
        <time>2012-05-27T07:39:07Z</time>
      </trkpt>
      <trkpt lat="43.05369" lon="6.14711">
        <ele>2.54</ele>
        <time>2012-05-27T07:39:21Z</time>
      </trkpt>
      <trkpt lat="43.0548" lon="6.1472">
        <ele>3.02</ele>
        <time>2012-05-27T07:39:36Z</time>
      </trkpt>
      <trkpt lat="43.05585" lon="6.14716">
        <ele>2.54</ele>
        <time>2012-05-27T07:39:50Z</time>
      </trkpt>
      <trkpt lat="43.05592" lon="6.14717">
        <ele>2.54</ele>
        <time>2012-05-27T07:39:51Z</time>
      </trkpt>
      <trkpt lat="43.05599" lon="6.14719">
        <ele>3.02</ele>
        <time>2012-05-27T07:39:52Z</time>
      </trkpt>
      <trkpt lat="43.05613" lon="6.14723">
        <ele>2.54</ele>
        <time>2012-05-27T07:39:54Z</time>
      </trkpt>
      <trkpt lat="43.0562" lon="6.14721">
        <ele>2.54</ele>
        <time>2012-05-27T07:39:55Z</time>
      </trkpt>
      <trkpt lat="43.05627" lon="6.14717">
        <ele>2.54</ele>
        <time>2012-05-27T07:39:56Z</time>
      </trkpt>
      <trkpt lat="43.05648" lon="6.14704">
        <ele>3.02</ele>
        <time>2012-05-27T07:39:59Z</time>
      </trkpt>
      <trkpt lat="43.05685" lon="6.14692">
        <ele>3.02</ele>
        <time>2012-05-27T07:40:04Z</time>
      </trkpt>
      <trkpt lat="43.05777" lon="6.14697">
        <ele>2.54</ele>
        <time>2012-05-27T07:40:16Z</time>
      </trkpt>
      <trkpt lat="43.05891" lon="6.14701">
        <ele>2.54</ele>
        <time>2012-05-27T07:40:31Z</time>
      </trkpt>
      <trkpt lat="43.05899" lon="6.14701">
        <ele>2.54</ele>
        <time>2012-05-27T07:40:32Z</time>
      </trkpt>
      <trkpt lat="43.05906" lon="6.14701">
        <ele>2.54</ele>
        <time>2012-05-27T07:40:33Z</time>
      </trkpt>
      <trkpt lat="43.06012" lon="6.14709">
        <ele>2.54</ele>
        <time>2012-05-27T07:40:47Z</time>
      </trkpt>
      <trkpt lat="43.06122" lon="6.14717">
        <ele>2.54</ele>
        <time>2012-05-27T07:41:02Z</time>
      </trkpt>
      <trkpt lat="43.06205" lon="6.14723">
        <ele>2.06</ele>
        <time>2012-05-27T07:41:13Z</time>
      </trkpt>
      <trkpt lat="43.06293" lon="6.14729">
        <ele>2.54</ele>
        <time>2012-05-27T07:41:25Z</time>
      </trkpt>
      <trkpt lat="43.06395" lon="6.14736">
        <ele>2.54</ele>
        <time>2012-05-27T07:41:39Z</time>
      </trkpt>
      <trkpt lat="43.06509" lon="6.14732">
        <ele>3.02</ele>
        <time>2012-05-27T07:41:54Z</time>
      </trkpt>
      <trkpt lat="43.06592" lon="6.14721">
        <ele>2.54</ele>
        <time>2012-05-27T07:42:05Z</time>
      </trkpt>
      <trkpt lat="43.06687" lon="6.14724">
        <ele>2.06</ele>
        <time>2012-05-27T07:42:17Z</time>
      </trkpt>
      <trkpt lat="43.0679" lon="6.14727">
        <ele>2.06</ele>
        <time>2012-05-27T07:42:30Z</time>
      </trkpt>
      <trkpt lat="43.06924" lon="6.14735">
        <ele>2.54</ele>
        <time>2012-05-27T07:42:47Z</time>
      </trkpt>
      <trkpt lat="43.07039" lon="6.14752">
        <ele>2.54</ele>
        <time>2012-05-27T07:43:02Z</time>
      </trkpt>
      <trkpt lat="43.07147" lon="6.14769">
        <ele>2.54</ele>
        <time>2012-05-27T07:43:16Z</time>
      </trkpt>
      <trkpt lat="43.07253" lon="6.14798">
        <ele>2.06</ele>
        <time>2012-05-27T07:43:30Z</time>
      </trkpt>
      <trkpt lat="43.07338" lon="6.14847">
        <ele>2.06</ele>
        <time>2012-05-27T07:43:42Z</time>
      </trkpt>
      <trkpt lat="43.07442" lon="6.14879">
        <ele>2.06</ele>
        <time>2012-05-27T07:43:56Z</time>
      </trkpt>
      <trkpt lat="43.07558" lon="6.14903">
        <ele>2.06</ele>
        <time>2012-05-27T07:44:11Z</time>
      </trkpt>
      <trkpt lat="43.07644" lon="6.14916">
        <ele>2.06</ele>
        <time>2012-05-27T07:44:22Z</time>
      </trkpt>
      <trkpt lat="43.07755" lon="6.14936">
        <ele>1.58</ele>
        <time>2012-05-27T07:44:36Z</time>
      </trkpt>
      <trkpt lat="43.07891" lon="6.14961">
        <ele>1.58</ele>
        <time>2012-05-27T07:44:53Z</time>
      </trkpt>
      <trkpt lat="43.07984" lon="6.14978">
        <ele>1.58</ele>
        <time>2012-05-27T07:45:05Z</time>
      </trkpt>
      <trkpt lat="43.07991" lon="6.14977">
        <ele>2.06</ele>
        <time>2012-05-27T07:45:06Z</time>
      </trkpt>
      <trkpt lat="43.08003" lon="6.14974">
        <ele>2.06</ele>
        <time>2012-05-27T07:45:08Z</time>
      </trkpt>
      <trkpt lat="43.08009" lon="6.14974">
        <ele>2.06</ele>
        <time>2012-05-27T07:45:09Z</time>
      </trkpt>
      <trkpt lat="43.08015" lon="6.14976">
        <ele>2.06</ele>
        <time>2012-05-27T07:45:10Z</time>
      </trkpt>
      <trkpt lat="43.0802" lon="6.14979">
        <ele>2.06</ele>
        <time>2012-05-27T07:45:11Z</time>
      </trkpt>
      <trkpt lat="43.08024" lon="6.14982">
        <ele>2.54</ele>
        <time>2012-05-27T07:45:12Z</time>
      </trkpt>
      <trkpt lat="43.08029" lon="6.14985">
        <ele>2.06</ele>
        <time>2012-05-27T07:45:13Z</time>
      </trkpt>
      <trkpt lat="43.08034" lon="6.14987">
        <ele>2.06</ele>
        <time>2012-05-27T07:45:14Z</time>
      </trkpt>
      <trkpt lat="43.0804" lon="6.14986">
        <ele>2.54</ele>
        <time>2012-05-27T07:45:15Z</time>
      </trkpt>
      <trkpt lat="43.08045" lon="6.14984">
        <ele>2.06</ele>
        <time>2012-05-27T07:45:16Z</time>
      </trkpt>
      <trkpt lat="43.08049" lon="6.14979">
        <ele>2.06</ele>
        <time>2012-05-27T07:45:17Z</time>
      </trkpt>
      <trkpt lat="43.08052" lon="6.14972">
        <ele>2.06</ele>
        <time>2012-05-27T07:45:18Z</time>
      </trkpt>
      <trkpt lat="43.08055" lon="6.14965">
        <ele>2.06</ele>
        <time>2012-05-27T07:45:19Z</time>
      </trkpt>
      <trkpt lat="43.08059" lon="6.14961">
        <ele>1.58</ele>
        <time>2012-05-27T07:45:20Z</time>
      </trkpt>
      <trkpt lat="43.08061" lon="6.14959">
        <ele>2.06</ele>
        <time>2012-05-27T07:45:21Z</time>
      </trkpt>
      <trkpt lat="43.08062" lon="6.14955">
        <ele>2.06</ele>
        <time>2012-05-27T07:45:22Z</time>
      </trkpt>
      <trkpt lat="43.08061" lon="6.1495">
        <ele>2.54</ele>
        <time>2012-05-27T07:45:23Z</time>
      </trkpt>
      <trkpt lat="43.08061" lon="6.14945">
        <ele>2.06</ele>
        <time>2012-05-27T07:45:24Z</time>
      </trkpt>
      <trkpt lat="43.0806" lon="6.14939">
        <ele>2.06</ele>
        <time>2012-05-27T07:45:25Z</time>
      </trkpt>
      <trkpt lat="43.0806" lon="6.14933">
        <ele>1.58</ele>
        <time>2012-05-27T07:45:26Z</time>
      </trkpt>
      <trkpt lat="43.08061" lon="6.14926">
        <ele>1.58</ele>
        <time>2012-05-27T07:45:27Z</time>
      </trkpt>
      <trkpt lat="43.08063" lon="6.1492">
        <ele>2.06</ele>
        <time>2012-05-27T07:45:28Z</time>
      </trkpt>
      <trkpt lat="43.08067" lon="6.14914">
        <ele>1.58</ele>
        <time>2012-05-27T07:45:29Z</time>
      </trkpt>
      <trkpt lat="43.08072" lon="6.14909">
        <ele>1.58</ele>
        <time>2012-05-27T07:45:30Z</time>
      </trkpt>
      <trkpt lat="43.08078" lon="6.14904">
        <ele>1.58</ele>
        <time>2012-05-27T07:45:31Z</time>
      </trkpt>
      <trkpt lat="43.08083" lon="6.149">
        <ele>1.58</ele>
        <time>2012-05-27T07:45:32Z</time>
      </trkpt>
      <trkpt lat="43.08089" lon="6.14895">
        <ele>1.1</ele>
        <time>2012-05-27T07:45:33Z</time>
      </trkpt>
      <trkpt lat="43.08114" lon="6.14866">
        <ele>1.1</ele>
        <time>2012-05-27T07:45:38Z</time>
      </trkpt>
      <trkpt lat="43.08118" lon="6.14858">
        <ele>1.58</ele>
        <time>2012-05-27T07:45:39Z</time>
      </trkpt>
      <trkpt lat="43.08122" lon="6.1485">
        <ele>1.58</ele>
        <time>2012-05-27T07:45:40Z</time>
      </trkpt>
      <trkpt lat="43.0813" lon="6.14824">
        <ele>1.58</ele>
        <time>2012-05-27T07:45:43Z</time>
      </trkpt>
      <trkpt lat="43.08132" lon="6.14814">
        <ele>1.1</ele>
        <time>2012-05-27T07:45:44Z</time>
      </trkpt>
      <trkpt lat="43.08168" lon="6.14631">
        <ele>1.1</ele>
        <time>2012-05-27T07:46:03Z</time>
      </trkpt>
      <trkpt lat="43.08205" lon="6.1446">
        <ele>1.58</ele>
        <time>2012-05-27T07:46:21Z</time>
      </trkpt>
      <trkpt lat="43.08218" lon="6.14348">
        <ele>2.06</ele>
        <time>2012-05-27T07:46:34Z</time>
      </trkpt>
      <trkpt lat="43.08205" lon="6.14232">
        <ele>1.58</ele>
        <time>2012-05-27T07:46:48Z</time>
      </trkpt>
      <trkpt lat="43.08204" lon="6.14216">
        <ele>1.58</ele>
        <time>2012-05-27T07:46:50Z</time>
      </trkpt>
      <trkpt lat="43.08202" lon="6.1421">
        <ele>2.06</ele>
        <time>2012-05-27T07:46:51Z</time>
      </trkpt>
      <trkpt lat="43.08199" lon="6.14197">
        <ele>1.58</ele>
        <time>2012-05-27T07:46:53Z</time>
      </trkpt>
      <trkpt lat="43.08187" lon="6.14094">
        <ele>1.58</ele>
        <time>2012-05-27T07:47:06Z</time>
      </trkpt>
      <trkpt lat="43.08167" lon="6.13973">
        <ele>1.58</ele>
        <time>2012-05-27T07:47:20Z</time>
      </trkpt>
      <trkpt lat="43.08147" lon="6.13832">
        <ele>2.06</ele>
        <time>2012-05-27T07:47:36Z</time>
      </trkpt>
      <trkpt lat="43.08146" lon="6.13823">
        <ele>2.06</ele>
        <time>2012-05-27T07:47:37Z</time>
      </trkpt>
      <trkpt lat="43.08145" lon="6.13815">
        <ele>1.58</ele>
        <time>2012-05-27T07:47:38Z</time>
      </trkpt>
      <trkpt lat="43.08132" lon="6.13717">
        <ele>1.1</ele>
        <time>2012-05-27T07:47:50Z</time>
      </trkpt>
      <trkpt lat="43.08121" lon="6.13614">
        <ele>2.06</ele>
        <time>2012-05-27T07:48:02Z</time>
      </trkpt>
      <trkpt lat="43.08114" lon="6.13538">
        <ele>2.06</ele>
        <time>2012-05-27T07:48:11Z</time>
      </trkpt>
      <trkpt lat="43.08112" lon="6.13531">
        <ele>2.06</ele>
        <time>2012-05-27T07:48:12Z</time>
      </trkpt>
      <trkpt lat="43.08111" lon="6.13524">
        <ele>2.06</ele>
        <time>2012-05-27T07:48:13Z</time>
      </trkpt>
      <trkpt lat="43.08095" lon="6.13396">
        <ele>1.58</ele>
        <time>2012-05-27T07:48:28Z</time>
      </trkpt>
      <trkpt lat="43.08078" lon="6.13271">
        <ele>2.06</ele>
        <time>2012-05-27T07:48:42Z</time>
      </trkpt>
      <trkpt lat="43.08052" lon="6.13087">
        <ele>2.06</ele>
        <time>2012-05-27T07:49:01Z</time>
      </trkpt>
      <trkpt lat="43.08024" lon="6.12887">
        <ele>1.58</ele>
        <time>2012-05-27T07:49:21Z</time>
      </trkpt>
      <trkpt lat="43.0801" lon="6.1278">
        <ele>2.06</ele>
        <time>2012-05-27T07:49:32Z</time>
      </trkpt>
      <trkpt lat="43.0801" lon="6.12771">
        <ele>2.06</ele>
        <time>2012-05-27T07:49:33Z</time>
      </trkpt>
      <trkpt lat="43.08011" lon="6.12763">
        <ele>2.54</ele>
        <time>2012-05-27T07:49:34Z</time>
      </trkpt>
      <trkpt lat="43.08017" lon="6.12733">
        <ele>2.54</ele>
        <time>2012-05-27T07:49:38Z</time>
      </trkpt>
      <trkpt lat="43.08021" lon="6.12713">
        <ele>3.02</ele>
        <time>2012-05-27T07:49:42Z</time>
      </trkpt>
      <trkpt lat="43.08024" lon="6.12709">
        <ele>3.02</ele>
        <time>2012-05-27T07:49:43Z</time>
      </trkpt>
      <trkpt lat="43.08027" lon="6.12704">
        <ele>3.02</ele>
        <time>2012-05-27T07:49:44Z</time>
      </trkpt>
      <trkpt lat="43.0803" lon="6.12698">
        <ele>3.02</ele>
        <time>2012-05-27T07:49:45Z</time>
      </trkpt>
      <trkpt lat="43.08032" lon="6.12691">
        <ele>3.02</ele>
        <time>2012-05-27T07:49:46Z</time>
      </trkpt>
      <trkpt lat="43.08033" lon="6.12683">
        <ele>3.02</ele>
        <time>2012-05-27T07:49:47Z</time>
      </trkpt>
      <trkpt lat="43.08032" lon="6.12674">
        <ele>3.02</ele>
        <time>2012-05-27T07:49:48Z</time>
      </trkpt>
      <trkpt lat="43.0803" lon="6.12666">
        <ele>3.5</ele>
        <time>2012-05-27T07:49:49Z</time>
      </trkpt>
      <trkpt lat="43.08027" lon="6.12658">
        <ele>3.5</ele>
        <time>2012-05-27T07:49:50Z</time>
      </trkpt>
      <trkpt lat="43.08024" lon="6.1265">
        <ele>2.54</ele>
        <time>2012-05-27T07:49:51Z</time>
      </trkpt>
      <trkpt lat="43.0802" lon="6.12642">
        <ele>3.02</ele>
        <time>2012-05-27T07:49:52Z</time>
      </trkpt>
      <trkpt lat="43.08018" lon="6.12633">
        <ele>2.54</ele>
        <time>2012-05-27T07:49:53Z</time>
      </trkpt>
      <trkpt lat="43.08016" lon="6.12624">
        <ele>2.54</ele>
        <time>2012-05-27T07:49:54Z</time>
      </trkpt>
      <trkpt lat="43.08014" lon="6.12614">
        <ele>2.06</ele>
        <time>2012-05-27T07:49:55Z</time>
      </trkpt>
      <trkpt lat="43.07992" lon="6.12441">
        <ele>3.02</ele>
        <time>2012-05-27T07:50:13Z</time>
      </trkpt>
      <trkpt lat="43.08015" lon="6.12327">
        <ele>4.46</ele>
        <time>2012-05-27T07:50:26Z</time>
      </trkpt>
      <trkpt lat="43.08058" lon="6.12202">
        <ele>5.91</ele>
        <time>2012-05-27T07:50:42Z</time>
      </trkpt>
      <trkpt lat="43.08074" lon="6.12145">
        <ele>6.87</ele>
        <time>2012-05-27T07:50:49Z</time>
      </trkpt>
      <trkpt lat="43.08078" lon="6.12121">
        <ele>6.39</ele>
        <time>2012-05-27T07:50:53Z</time>
      </trkpt>
      <trkpt lat="43.08079" lon="6.12115">
        <ele>6.87</ele>
        <time>2012-05-27T07:50:54Z</time>
      </trkpt>
      <trkpt lat="43.0808" lon="6.12108">
        <ele>6.87</ele>
        <time>2012-05-27T07:50:55Z</time>
      </trkpt>
      <trkpt lat="43.08081" lon="6.121">
        <ele>6.39</ele>
        <time>2012-05-27T07:50:56Z</time>
      </trkpt>
      <trkpt lat="43.08082" lon="6.12092">
        <ele>6.39</ele>
        <time>2012-05-27T07:50:57Z</time>
      </trkpt>
      <trkpt lat="43.08098" lon="6.11979">
        <ele>6.39</ele>
        <time>2012-05-27T07:51:10Z</time>
      </trkpt>
      <trkpt lat="43.08104" lon="6.11962">
        <ele>6.39</ele>
        <time>2012-05-27T07:51:12Z</time>
      </trkpt>
      <trkpt lat="43.08107" lon="6.11954">
        <ele>6.87</ele>
        <time>2012-05-27T07:51:13Z</time>
      </trkpt>
      <trkpt lat="43.08123" lon="6.11922">
        <ele>6.39</ele>
        <time>2012-05-27T07:51:17Z</time>
      </trkpt>
      <trkpt lat="43.08142" lon="6.11896">
        <ele>6.39</ele>
        <time>2012-05-27T07:51:21Z</time>
      </trkpt>
      <trkpt lat="43.08208" lon="6.11856">
        <ele>7.83</ele>
        <time>2012-05-27T07:51:32Z</time>
      </trkpt>
      <trkpt lat="43.08213" lon="6.11851">
        <ele>7.35</ele>
        <time>2012-05-27T07:51:33Z</time>
      </trkpt>
      <trkpt lat="43.08226" lon="6.11833">
        <ele>7.83</ele>
        <time>2012-05-27T07:51:36Z</time>
      </trkpt>
      <trkpt lat="43.0823" lon="6.11828">
        <ele>8.31</ele>
        <time>2012-05-27T07:51:37Z</time>
      </trkpt>
      <trkpt lat="43.08238" lon="6.11818">
        <ele>8.31</ele>
        <time>2012-05-27T07:51:39Z</time>
      </trkpt>
      <trkpt lat="43.08242" lon="6.11812">
        <ele>9.27</ele>
        <time>2012-05-27T07:51:40Z</time>
      </trkpt>
      <trkpt lat="43.08286" lon="6.11724">
        <ele>9.27</ele>
        <time>2012-05-27T07:51:53Z</time>
      </trkpt>
      <trkpt lat="43.08341" lon="6.11601">
        <ele>11.67</ele>
        <time>2012-05-27T07:52:10Z</time>
      </trkpt>
      <trkpt lat="43.08375" lon="6.115">
        <ele>14.08</ele>
        <time>2012-05-27T07:52:24Z</time>
      </trkpt>
      <trkpt lat="43.08397" lon="6.1141">
        <ele>16.96</ele>
        <time>2012-05-27T07:52:37Z</time>
      </trkpt>
      <trkpt lat="43.08411" lon="6.11301">
        <ele>19.36</ele>
        <time>2012-05-27T07:52:53Z</time>
      </trkpt>
      <trkpt lat="43.08423" lon="6.11233">
        <ele>21.29</ele>
        <time>2012-05-27T07:53:03Z</time>
      </trkpt>
      <trkpt lat="43.08425" lon="6.11227">
        <ele>21.29</ele>
        <time>2012-05-27T07:53:04Z</time>
      </trkpt>
      <trkpt lat="43.08446" lon="6.11175">
        <ele>22.73</ele>
        <time>2012-05-27T07:53:13Z</time>
      </trkpt>
      <trkpt lat="43.08455" lon="6.11103">
        <ele>23.69</ele>
        <time>2012-05-27T07:53:24Z</time>
      </trkpt>
      <trkpt lat="43.08456" lon="6.11097">
        <ele>24.65</ele>
        <time>2012-05-27T07:53:25Z</time>
      </trkpt>
      <trkpt lat="43.08457" lon="6.1109">
        <ele>24.65</ele>
        <time>2012-05-27T07:53:26Z</time>
      </trkpt>
      <trkpt lat="43.08467" lon="6.11042">
        <ele>27.05</ele>
        <time>2012-05-27T07:53:34Z</time>
      </trkpt>
      <trkpt lat="43.0848" lon="6.10978">
        <ele>30.42</ele>
        <time>2012-05-27T07:53:45Z</time>
      </trkpt>
      <trkpt lat="43.08481" lon="6.10943">
        <ele>31.38</ele>
        <time>2012-05-27T07:53:51Z</time>
      </trkpt>
      <trkpt lat="43.0848" lon="6.1092">
        <ele>31.86</ele>
        <time>2012-05-27T07:53:56Z</time>
      </trkpt>
      <trkpt lat="43.08482" lon="6.10919">
        <ele>31.86</ele>
        <time>2012-05-27T07:53:57Z</time>
      </trkpt>
      <trkpt lat="43.08483" lon="6.10919">
        <ele>32.34</ele>
        <time>2012-05-27T07:53:58Z</time>
      </trkpt>
      <trkpt lat="43.08484" lon="6.10919">
        <ele>31.86</ele>
        <time>2012-05-27T07:53:59Z</time>
      </trkpt>
      <trkpt lat="43.08486" lon="6.10919">
        <ele>32.82</ele>
        <time>2012-05-27T07:54:00Z</time>
      </trkpt>
      <trkpt lat="43.08488" lon="6.1092">
        <ele>32.34</ele>
        <time>2012-05-27T07:54:01Z</time>
      </trkpt>
      <trkpt lat="43.0849" lon="6.1092">
        <ele>32.82</ele>
        <time>2012-05-27T07:54:02Z</time>
      </trkpt>
      <trkpt lat="43.08492" lon="6.10921">
        <ele>32.82</ele>
        <time>2012-05-27T07:54:03Z</time>
      </trkpt>
      <trkpt lat="43.08495" lon="6.10922">
        <ele>32.34</ele>
        <time>2012-05-27T07:54:04Z</time>
      </trkpt>
      <trkpt lat="43.08498" lon="6.10922">
        <ele>32.82</ele>
        <time>2012-05-27T07:54:05Z</time>
      </trkpt>
      <trkpt lat="43.085" lon="6.10921">
        <ele>32.82</ele>
        <time>2012-05-27T07:54:06Z</time>
      </trkpt>
      <trkpt lat="43.08502" lon="6.10918">
        <ele>32.82</ele>
        <time>2012-05-27T07:54:07Z</time>
      </trkpt>
      <trkpt lat="43.08503" lon="6.10914">
        <ele>33.3</ele>
        <time>2012-05-27T07:54:08Z</time>
      </trkpt>
      <trkpt lat="43.08504" lon="6.10911">
        <ele>32.82</ele>
        <time>2012-05-27T07:54:09Z</time>
      </trkpt>
      <trkpt lat="43.08505" lon="6.10907">
        <ele>33.3</ele>
        <time>2012-05-27T07:54:10Z</time>
      </trkpt>
      <trkpt lat="43.08506" lon="6.10905">
        <ele>33.78</ele>
        <time>2012-05-27T07:54:11Z</time>
      </trkpt>
      <trkpt lat="43.08506" lon="6.10887">
        <ele>34.74</ele>
        <time>2012-05-27T07:54:18Z</time>
      </trkpt>
      <trkpt lat="43.08507" lon="6.10885">
        <ele>34.74</ele>
        <time>2012-05-27T07:54:19Z</time>
      </trkpt>
      <trkpt lat="43.08512" lon="6.10843">
        <ele>36.19</ele>
        <time>2012-05-27T07:54:31Z</time>
      </trkpt>
      <trkpt lat="43.08532" lon="6.10787">
        <ele>38.59</ele>
        <time>2012-05-27T07:54:44Z</time>
      </trkpt>
      <trkpt lat="43.08554" lon="6.10731">
        <ele>41.47</ele>
        <time>2012-05-27T07:54:57Z</time>
      </trkpt>
      <trkpt lat="43.08573" lon="6.10666">
        <ele>43.88</ele>
        <time>2012-05-27T07:55:11Z</time>
      </trkpt>
      <trkpt lat="43.08588" lon="6.10643">
        <ele>45.32</ele>
        <time>2012-05-27T07:55:18Z</time>
      </trkpt>
      <trkpt lat="43.0859" lon="6.10643">
        <ele>45.8</ele>
        <time>2012-05-27T07:55:19Z</time>
      </trkpt>
      <trkpt lat="43.08592" lon="6.10646">
        <ele>45.8</ele>
        <time>2012-05-27T07:55:20Z</time>
      </trkpt>
      <trkpt lat="43.08594" lon="6.1065">
        <ele>46.28</ele>
        <time>2012-05-27T07:55:21Z</time>
      </trkpt>
      <trkpt lat="43.08595" lon="6.10654">
        <ele>46.76</ele>
        <time>2012-05-27T07:55:22Z</time>
      </trkpt>
      <trkpt lat="43.08595" lon="6.10658">
        <ele>46.76</ele>
        <time>2012-05-27T07:55:23Z</time>
      </trkpt>
      <trkpt lat="43.08595" lon="6.10663">
        <ele>47.24</ele>
        <time>2012-05-27T07:55:24Z</time>
      </trkpt>
      <trkpt lat="43.08593" lon="6.10673">
        <ele>47.24</ele>
        <time>2012-05-27T07:55:26Z</time>
      </trkpt>
      <trkpt lat="43.08591" lon="6.10678">
        <ele>47.72</ele>
        <time>2012-05-27T07:55:27Z</time>
      </trkpt>
      <trkpt lat="43.0859" lon="6.10683">
        <ele>47.72</ele>
        <time>2012-05-27T07:55:28Z</time>
      </trkpt>
      <trkpt lat="43.0859" lon="6.10687">
        <ele>48.2</ele>
        <time>2012-05-27T07:55:29Z</time>
      </trkpt>
      <trkpt lat="43.08589" lon="6.10692">
        <ele>48.2</ele>
        <time>2012-05-27T07:55:30Z</time>
      </trkpt>
      <trkpt lat="43.08588" lon="6.10697">
        <ele>48.2</ele>
        <time>2012-05-27T07:55:31Z</time>
      </trkpt>
      <trkpt lat="43.08587" lon="6.10702">
        <ele>48.2</ele>
        <time>2012-05-27T07:55:32Z</time>
      </trkpt>
      <trkpt lat="43.0858" lon="6.10747">
        <ele>50.61</ele>
        <time>2012-05-27T07:55:42Z</time>
      </trkpt>
      <trkpt lat="43.08576" lon="6.10811">
        <ele>53.01</ele>
        <time>2012-05-27T07:55:54Z</time>
      </trkpt>
      <trkpt lat="43.08586" lon="6.10877">
        <ele>55.89</ele>
        <time>2012-05-27T07:56:08Z</time>
      </trkpt>
      <trkpt lat="43.08595" lon="6.1091">
        <ele>57.82</ele>
        <time>2012-05-27T07:56:16Z</time>
      </trkpt>
      <trkpt lat="43.08599" lon="6.10911">
        <ele>58.3</ele>
        <time>2012-05-27T07:56:17Z</time>
      </trkpt>
      <trkpt lat="43.08602" lon="6.1091">
        <ele>58.3</ele>
        <time>2012-05-27T07:56:18Z</time>
      </trkpt>
      <trkpt lat="43.08604" lon="6.10907">
        <ele>58.3</ele>
        <time>2012-05-27T07:56:19Z</time>
      </trkpt>
      <trkpt lat="43.08605" lon="6.10903">
        <ele>58.3</ele>
        <time>2012-05-27T07:56:20Z</time>
      </trkpt>
      <trkpt lat="43.08605" lon="6.10898">
        <ele>58.78</ele>
        <time>2012-05-27T07:56:21Z</time>
      </trkpt>
      <trkpt lat="43.08604" lon="6.10894">
        <ele>58.78</ele>
        <time>2012-05-27T07:56:22Z</time>
      </trkpt>
      <trkpt lat="43.08602" lon="6.10889">
        <ele>58.78</ele>
        <time>2012-05-27T07:56:23Z</time>
      </trkpt>
      <trkpt lat="43.086" lon="6.10884">
        <ele>58.78</ele>
        <time>2012-05-27T07:56:24Z</time>
      </trkpt>
      <trkpt lat="43.08598" lon="6.1088">
        <ele>59.26</ele>
        <time>2012-05-27T07:56:25Z</time>
      </trkpt>
      <trkpt lat="43.08597" lon="6.10838">
        <ele>61.18</ele>
        <time>2012-05-27T07:56:34Z</time>
      </trkpt>
      <trkpt lat="43.08598" lon="6.10834">
        <ele>61.18</ele>
        <time>2012-05-27T07:56:35Z</time>
      </trkpt>
      <trkpt lat="43.086" lon="6.1083">
        <ele>61.18</ele>
        <time>2012-05-27T07:56:36Z</time>
      </trkpt>
      <trkpt lat="43.08619" lon="6.10764">
        <ele>64.07</ele>
        <time>2012-05-27T07:56:50Z</time>
      </trkpt>
      <trkpt lat="43.08639" lon="6.10707">
        <ele>65.99</ele>
        <time>2012-05-27T07:57:03Z</time>
      </trkpt>
      <trkpt lat="43.08638" lon="6.10681">
        <ele>66.47</ele>
        <time>2012-05-27T07:57:08Z</time>
      </trkpt>
      <trkpt lat="43.0864" lon="6.10678">
        <ele>66.95</ele>
        <time>2012-05-27T07:57:09Z</time>
      </trkpt>
      <trkpt lat="43.08649" lon="6.10691">
        <ele>68.39</ele>
        <time>2012-05-27T07:57:14Z</time>
      </trkpt>
      <trkpt lat="43.08648" lon="6.107">
        <ele>69.35</ele>
        <time>2012-05-27T07:57:16Z</time>
      </trkpt>
      <trkpt lat="43.08644" lon="6.10753">
        <ele>71.27</ele>
        <time>2012-05-27T07:57:28Z</time>
      </trkpt>
      <trkpt lat="43.08638" lon="6.10809">
        <ele>74.16</ele>
        <time>2012-05-27T07:57:40Z</time>
      </trkpt>
      <trkpt lat="43.08648" lon="6.10867">
        <ele>76.56</ele>
        <time>2012-05-27T07:57:54Z</time>
      </trkpt>
      <trkpt lat="43.08678" lon="6.10915">
        <ele>78.48</ele>
        <time>2012-05-27T07:58:07Z</time>
      </trkpt>
      <trkpt lat="43.08708" lon="6.10929">
        <ele>79.45</ele>
        <time>2012-05-27T07:58:15Z</time>
      </trkpt>
      <trkpt lat="43.08712" lon="6.10932">
        <ele>79.93</ele>
        <time>2012-05-27T07:58:16Z</time>
      </trkpt>
      <trkpt lat="43.08715" lon="6.10935">
        <ele>79.45</ele>
        <time>2012-05-27T07:58:17Z</time>
      </trkpt>
      <trkpt lat="43.08745" lon="6.10967">
        <ele>79.45</ele>
        <time>2012-05-27T07:58:25Z</time>
      </trkpt>
      <trkpt lat="43.08748" lon="6.10971">
        <ele>79.45</ele>
        <time>2012-05-27T07:58:26Z</time>
      </trkpt>
      <trkpt lat="43.08808" lon="6.10994">
        <ele>81.85</ele>
        <time>2012-05-27T07:58:40Z</time>
      </trkpt>
      <trkpt lat="43.08833" lon="6.11002">
        <ele>82.33</ele>
        <time>2012-05-27T07:58:46Z</time>
      </trkpt>
      <trkpt lat="43.08836" lon="6.11005">
        <ele>82.81</ele>
        <time>2012-05-27T07:58:47Z</time>
      </trkpt>
      <trkpt lat="43.08839" lon="6.11009">
        <ele>82.81</ele>
        <time>2012-05-27T07:58:48Z</time>
      </trkpt>
      <trkpt lat="43.08841" lon="6.11014">
        <ele>82.81</ele>
        <time>2012-05-27T07:58:49Z</time>
      </trkpt>
      <trkpt lat="43.08841" lon="6.1102">
        <ele>83.29</ele>
        <time>2012-05-27T07:58:50Z</time>
      </trkpt>
      <trkpt lat="43.08841" lon="6.11026">
        <ele>83.77</ele>
        <time>2012-05-27T07:58:51Z</time>
      </trkpt>
      <trkpt lat="43.0884" lon="6.11031">
        <ele>83.77</ele>
        <time>2012-05-27T07:58:52Z</time>
      </trkpt>
      <trkpt lat="43.08838" lon="6.11036">
        <ele>84.25</ele>
        <time>2012-05-27T07:58:53Z</time>
      </trkpt>
      <trkpt lat="43.08837" lon="6.11041">
        <ele>84.73</ele>
        <time>2012-05-27T07:58:54Z</time>
      </trkpt>
      <trkpt lat="43.0881" lon="6.11112">
        <ele>87.14</ele>
        <time>2012-05-27T07:59:08Z</time>
      </trkpt>
      <trkpt lat="43.0879" lon="6.11172">
        <ele>89.06</ele>
        <time>2012-05-27T07:59:20Z</time>
      </trkpt>
      <trkpt lat="43.08774" lon="6.11234">
        <ele>91.46</ele>
        <time>2012-05-27T07:59:32Z</time>
      </trkpt>
      <trkpt lat="43.08763" lon="6.11301">
        <ele>93.87</ele>
        <time>2012-05-27T07:59:45Z</time>
      </trkpt>
      <trkpt lat="43.08776" lon="6.11355">
        <ele>95.79</ele>
        <time>2012-05-27T07:59:56Z</time>
      </trkpt>
      <trkpt lat="43.08797" lon="6.11382">
        <ele>96.75</ele>
        <time>2012-05-27T08:00:03Z</time>
      </trkpt>
      <trkpt lat="43.08815" lon="6.11395">
        <ele>97.71</ele>
        <time>2012-05-27T08:00:08Z</time>
      </trkpt>
      <trkpt lat="43.08819" lon="6.11396">
        <ele>97.71</ele>
        <time>2012-05-27T08:00:09Z</time>
      </trkpt>
      <trkpt lat="43.08823" lon="6.11397">
        <ele>97.71</ele>
        <time>2012-05-27T08:00:10Z</time>
      </trkpt>
      <trkpt lat="43.08827" lon="6.11397">
        <ele>98.19</ele>
        <time>2012-05-27T08:00:11Z</time>
      </trkpt>
      <trkpt lat="43.08831" lon="6.11396">
        <ele>98.19</ele>
        <time>2012-05-27T08:00:12Z</time>
      </trkpt>
      <trkpt lat="43.08835" lon="6.11394">
        <ele>98.19</ele>
        <time>2012-05-27T08:00:13Z</time>
      </trkpt>
      <trkpt lat="43.08839" lon="6.11392">
        <ele>98.67</ele>
        <time>2012-05-27T08:00:14Z</time>
      </trkpt>
      <trkpt lat="43.08843" lon="6.11389">
        <ele>98.67</ele>
        <time>2012-05-27T08:00:15Z</time>
      </trkpt>
      <trkpt lat="43.08846" lon="6.11385">
        <ele>98.67</ele>
        <time>2012-05-27T08:00:16Z</time>
      </trkpt>
      <trkpt lat="43.08849" lon="6.1138">
        <ele>99.15</ele>
        <time>2012-05-27T08:00:17Z</time>
      </trkpt>
      <trkpt lat="43.08852" lon="6.11375">
        <ele>99.15</ele>
        <time>2012-05-27T08:00:18Z</time>
      </trkpt>
      <trkpt lat="43.08854" lon="6.1137">
        <ele>99.15</ele>
        <time>2012-05-27T08:00:19Z</time>
      </trkpt>
      <trkpt lat="43.08855" lon="6.11365">
        <ele>99.15</ele>
        <time>2012-05-27T08:00:20Z</time>
      </trkpt>
      <trkpt lat="43.08856" lon="6.11359">
        <ele>99.15</ele>
        <time>2012-05-27T08:00:21Z</time>
      </trkpt>
      <trkpt lat="43.08852" lon="6.11304">
        <ele>100.11</ele>
        <time>2012-05-27T08:00:30Z</time>
      </trkpt>
      <trkpt lat="43.08853" lon="6.11272">
        <ele>100.6</ele>
        <time>2012-05-27T08:00:35Z</time>
      </trkpt>
      <trkpt lat="43.08855" lon="6.1126">
        <ele>101.08</ele>
        <time>2012-05-27T08:00:37Z</time>
      </trkpt>
      <trkpt lat="43.08856" lon="6.11255">
        <ele>101.08</ele>
        <time>2012-05-27T08:00:38Z</time>
      </trkpt>
      <trkpt lat="43.08875" lon="6.11193">
        <ele>102.52</ele>
        <time>2012-05-27T08:00:49Z</time>
      </trkpt>
      <trkpt lat="43.08878" lon="6.11189">
        <ele>103</ele>
        <time>2012-05-27T08:00:50Z</time>
      </trkpt>
      <trkpt lat="43.08881" lon="6.11185">
        <ele>103</ele>
        <time>2012-05-27T08:00:51Z</time>
      </trkpt>
      <trkpt lat="43.08886" lon="6.11183">
        <ele>103.48</ele>
        <time>2012-05-27T08:00:52Z</time>
      </trkpt>
      <trkpt lat="43.0889" lon="6.11181">
        <ele>103</ele>
        <time>2012-05-27T08:00:53Z</time>
      </trkpt>
      <trkpt lat="43.08904" lon="6.11174">
        <ele>103</ele>
        <time>2012-05-27T08:00:56Z</time>
      </trkpt>
      <trkpt lat="43.08908" lon="6.11171">
        <ele>103</ele>
        <time>2012-05-27T08:00:57Z</time>
      </trkpt>
      <trkpt lat="43.08913" lon="6.11167">
        <ele>103</ele>
        <time>2012-05-27T08:00:58Z</time>
      </trkpt>
      <trkpt lat="43.08971" lon="6.111">
        <ele>104.44</ele>
        <time>2012-05-27T08:01:13Z</time>
      </trkpt>
      <trkpt lat="43.0899" lon="6.11062">
        <ele>104.92</ele>
        <time>2012-05-27T08:01:20Z</time>
      </trkpt>
      <trkpt lat="43.08993" lon="6.11058">
        <ele>104.92</ele>
        <time>2012-05-27T08:01:21Z</time>
      </trkpt>
      <trkpt lat="43.09008" lon="6.11041">
        <ele>104.92</ele>
        <time>2012-05-27T08:01:25Z</time>
      </trkpt>
      <trkpt lat="43.09013" lon="6.11038">
        <ele>104.92</ele>
        <time>2012-05-27T08:01:26Z</time>
      </trkpt>
      <trkpt lat="43.09039" lon="6.11028">
        <ele>104.92</ele>
        <time>2012-05-27T08:01:31Z</time>
      </trkpt>
      <trkpt lat="43.09068" lon="6.11013">
        <ele>104.44</ele>
        <time>2012-05-27T08:01:37Z</time>
      </trkpt>
      <trkpt lat="43.09119" lon="6.10988">
        <ele>103.96</ele>
        <time>2012-05-27T08:01:46Z</time>
      </trkpt>
      <trkpt lat="43.09124" lon="6.10987">
        <ele>103.96</ele>
        <time>2012-05-27T08:01:47Z</time>
      </trkpt>
      <trkpt lat="43.0913" lon="6.10988">
        <ele>104.44</ele>
        <time>2012-05-27T08:01:48Z</time>
      </trkpt>
      <trkpt lat="43.09136" lon="6.1099">
        <ele>103.96</ele>
        <time>2012-05-27T08:01:49Z</time>
      </trkpt>
      <trkpt lat="43.09141" lon="6.10992">
        <ele>103.96</ele>
        <time>2012-05-27T08:01:50Z</time>
      </trkpt>
      <trkpt lat="43.09146" lon="6.10996">
        <ele>103.96</ele>
        <time>2012-05-27T08:01:51Z</time>
      </trkpt>
      <trkpt lat="43.09149" lon="6.11003">
        <ele>103.96</ele>
        <time>2012-05-27T08:01:52Z</time>
      </trkpt>
      <trkpt lat="43.09148" lon="6.11008">
        <ele>104.44</ele>
        <time>2012-05-27T08:01:53Z</time>
      </trkpt>
      <trkpt lat="43.09146" lon="6.11013">
        <ele>104.92</ele>
        <time>2012-05-27T08:01:54Z</time>
      </trkpt>
      <trkpt lat="43.09142" lon="6.11016">
        <ele>105.4</ele>
        <time>2012-05-27T08:01:55Z</time>
      </trkpt>
      <trkpt lat="43.09138" lon="6.11018">
        <ele>105.4</ele>
        <time>2012-05-27T08:01:56Z</time>
      </trkpt>
      <trkpt lat="43.09134" lon="6.11021">
        <ele>105.4</ele>
        <time>2012-05-27T08:01:57Z</time>
      </trkpt>
      <trkpt lat="43.09124" lon="6.11031">
        <ele>106.36</ele>
        <time>2012-05-27T08:02:00Z</time>
      </trkpt>
      <trkpt lat="43.0912" lon="6.11036">
        <ele>106.36</ele>
        <time>2012-05-27T08:02:01Z</time>
      </trkpt>
      <trkpt lat="43.09117" lon="6.11041">
        <ele>106.84</ele>
        <time>2012-05-27T08:02:02Z</time>
      </trkpt>
      <trkpt lat="43.09096" lon="6.11089">
        <ele>108.77</ele>
        <time>2012-05-27T08:02:12Z</time>
      </trkpt>
      <trkpt lat="43.09094" lon="6.11106">
        <ele>109.25</ele>
        <time>2012-05-27T08:02:15Z</time>
      </trkpt>
      <trkpt lat="43.09093" lon="6.11112">
        <ele>109.25</ele>
        <time>2012-05-27T08:02:16Z</time>
      </trkpt>
      <trkpt lat="43.09091" lon="6.11124">
        <ele>109.73</ele>
        <time>2012-05-27T08:02:18Z</time>
      </trkpt>
      <trkpt lat="43.09086" lon="6.11165">
        <ele>111.17</ele>
        <time>2012-05-27T08:02:25Z</time>
      </trkpt>
      <trkpt lat="43.09086" lon="6.11171">
        <ele>111.65</ele>
        <time>2012-05-27T08:02:26Z</time>
      </trkpt>
      <trkpt lat="43.09088" lon="6.11205">
        <ele>113.09</ele>
        <time>2012-05-27T08:02:32Z</time>
      </trkpt>
      <trkpt lat="43.09098" lon="6.11225">
        <ele>113.57</ele>
        <time>2012-05-27T08:02:36Z</time>
      </trkpt>
      <trkpt lat="43.09102" lon="6.11228">
        <ele>114.05</ele>
        <time>2012-05-27T08:02:37Z</time>
      </trkpt>
      <trkpt lat="43.09105" lon="6.11231">
        <ele>114.05</ele>
        <time>2012-05-27T08:02:38Z</time>
      </trkpt>
      <trkpt lat="43.09108" lon="6.11233">
        <ele>114.53</ele>
        <time>2012-05-27T08:02:39Z</time>
      </trkpt>
      <trkpt lat="43.09111" lon="6.11235">
        <ele>114.53</ele>
        <time>2012-05-27T08:02:40Z</time>
      </trkpt>
      <trkpt lat="43.09115" lon="6.11237">
        <ele>115.01</ele>
        <time>2012-05-27T08:02:41Z</time>
      </trkpt>
      <trkpt lat="43.09119" lon="6.11239">
        <ele>115.01</ele>
        <time>2012-05-27T08:02:42Z</time>
      </trkpt>
      <trkpt lat="43.09152" lon="6.11255">
        <ele>117.42</ele>
        <time>2012-05-27T08:02:52Z</time>
      </trkpt>
      <trkpt lat="43.09192" lon="6.11266">
        <ele>119.34</ele>
        <time>2012-05-27T08:03:03Z</time>
      </trkpt>
      <trkpt lat="43.09197" lon="6.1126">
        <ele>119.82</ele>
        <time>2012-05-27T08:03:05Z</time>
      </trkpt>
      <trkpt lat="43.09198" lon="6.11255">
        <ele>119.82</ele>
        <time>2012-05-27T08:03:06Z</time>
      </trkpt>
      <trkpt lat="43.09197" lon="6.11251">
        <ele>120.3</ele>
        <time>2012-05-27T08:03:07Z</time>
      </trkpt>
      <trkpt lat="43.09194" lon="6.11247">
        <ele>119.82</ele>
        <time>2012-05-27T08:03:08Z</time>
      </trkpt>
      <trkpt lat="43.09191" lon="6.11245">
        <ele>120.3</ele>
        <time>2012-05-27T08:03:09Z</time>
      </trkpt>
      <trkpt lat="43.09179" lon="6.11241">
        <ele>120.3</ele>
        <time>2012-05-27T08:03:12Z</time>
      </trkpt>
      <trkpt lat="43.09175" lon="6.11241">
        <ele>120.78</ele>
        <time>2012-05-27T08:03:13Z</time>
      </trkpt>
      <trkpt lat="43.0917" lon="6.11241">
        <ele>121.26</ele>
        <time>2012-05-27T08:03:14Z</time>
      </trkpt>
      <trkpt lat="43.09166" lon="6.11239">
        <ele>121.26</ele>
        <time>2012-05-27T08:03:15Z</time>
      </trkpt>
      <trkpt lat="43.09162" lon="6.11236">
        <ele>120.78</ele>
        <time>2012-05-27T08:03:16Z</time>
      </trkpt>
      <trkpt lat="43.09159" lon="6.11233">
        <ele>121.74</ele>
        <time>2012-05-27T08:03:17Z</time>
      </trkpt>
      <trkpt lat="43.09156" lon="6.11229">
        <ele>121.74</ele>
        <time>2012-05-27T08:03:18Z</time>
      </trkpt>
      <trkpt lat="43.09154" lon="6.11225">
        <ele>121.74</ele>
        <time>2012-05-27T08:03:19Z</time>
      </trkpt>
      <trkpt lat="43.09136" lon="6.11172">
        <ele>123.67</ele>
        <time>2012-05-27T08:03:30Z</time>
      </trkpt>
      <trkpt lat="43.09148" lon="6.1113">
        <ele>125.59</ele>
        <time>2012-05-27T08:03:39Z</time>
      </trkpt>
      <trkpt lat="43.0915" lon="6.11127">
        <ele>126.07</ele>
        <time>2012-05-27T08:03:40Z</time>
      </trkpt>
      <trkpt lat="43.09153" lon="6.11124">
        <ele>126.07</ele>
        <time>2012-05-27T08:03:41Z</time>
      </trkpt>
      <trkpt lat="43.09156" lon="6.11121">
        <ele>126.55</ele>
        <time>2012-05-27T08:03:42Z</time>
      </trkpt>
      <trkpt lat="43.09159" lon="6.11118">
        <ele>126.07</ele>
        <time>2012-05-27T08:03:43Z</time>
      </trkpt>
      <trkpt lat="43.09161" lon="6.11114">
        <ele>126.55</ele>
        <time>2012-05-27T08:03:44Z</time>
      </trkpt>
      <trkpt lat="43.09164" lon="6.11111">
        <ele>127.03</ele>
        <time>2012-05-27T08:03:45Z</time>
      </trkpt>
      <trkpt lat="43.09202" lon="6.1108">
        <ele>129.92</ele>
        <time>2012-05-27T08:03:57Z</time>
      </trkpt>
      <trkpt lat="43.09249" lon="6.11055">
        <ele>132.32</ele>
        <time>2012-05-27T08:04:11Z</time>
      </trkpt>
      <trkpt lat="43.09292" lon="6.11025">
        <ele>134.24</ele>
        <time>2012-05-27T08:04:23Z</time>
      </trkpt>
      <trkpt lat="43.09308" lon="6.11011">
        <ele>133.76</ele>
        <time>2012-05-27T08:04:27Z</time>
      </trkpt>
      <trkpt lat="43.09312" lon="6.11006">
        <ele>133.28</ele>
        <time>2012-05-27T08:04:28Z</time>
      </trkpt>
      <trkpt lat="43.09316" lon="6.11">
        <ele>133.28</ele>
        <time>2012-05-27T08:04:29Z</time>
      </trkpt>
      <trkpt lat="43.09319" lon="6.10994">
        <ele>133.28</ele>
        <time>2012-05-27T08:04:30Z</time>
      </trkpt>
      <trkpt lat="43.09322" lon="6.10988">
        <ele>133.28</ele>
        <time>2012-05-27T08:04:31Z</time>
      </trkpt>
      <trkpt lat="43.09324" lon="6.10981">
        <ele>133.28</ele>
        <time>2012-05-27T08:04:32Z</time>
      </trkpt>
      <trkpt lat="43.09325" lon="6.10974">
        <ele>133.28</ele>
        <time>2012-05-27T08:04:33Z</time>
      </trkpt>
      <trkpt lat="43.09324" lon="6.10967">
        <ele>133.28</ele>
        <time>2012-05-27T08:04:34Z</time>
      </trkpt>
      <trkpt lat="43.09323" lon="6.1096">
        <ele>133.76</ele>
        <time>2012-05-27T08:04:35Z</time>
      </trkpt>
      <trkpt lat="43.09321" lon="6.10955">
        <ele>133.76</ele>
        <time>2012-05-27T08:04:36Z</time>
      </trkpt>
      <trkpt lat="43.09318" lon="6.10951">
        <ele>134.24</ele>
        <time>2012-05-27T08:04:37Z</time>
      </trkpt>
      <trkpt lat="43.09315" lon="6.10948">
        <ele>134.72</ele>
        <time>2012-05-27T08:04:38Z</time>
      </trkpt>
      <trkpt lat="43.09312" lon="6.10945">
        <ele>135.2</ele>
        <time>2012-05-27T08:04:39Z</time>
      </trkpt>
      <trkpt lat="43.09283" lon="6.10918">
        <ele>138.09</ele>
        <time>2012-05-27T08:04:50Z</time>
      </trkpt>
      <trkpt lat="43.09244" lon="6.10893">
        <ele>140.49</ele>
        <time>2012-05-27T08:05:03Z</time>
      </trkpt>
      <trkpt lat="43.09186" lon="6.10876">
        <ele>142.41</ele>
        <time>2012-05-27T08:05:19Z</time>
      </trkpt>
      <trkpt lat="43.0917" lon="6.10872">
        <ele>142.41</ele>
        <time>2012-05-27T08:05:23Z</time>
      </trkpt>
      <trkpt lat="43.09166" lon="6.10871">
        <ele>142.89</ele>
        <time>2012-05-27T08:05:24Z</time>
      </trkpt>
      <trkpt lat="43.09134" lon="6.10858">
        <ele>142.89</ele>
        <time>2012-05-27T08:05:32Z</time>
      </trkpt>
      <trkpt lat="43.09098" lon="6.10854">
        <ele>146.26</ele>
        <time>2012-05-27T08:05:42Z</time>
      </trkpt>
      <trkpt lat="43.09068" lon="6.10852">
        <ele>149.14</ele>
        <time>2012-05-27T08:05:51Z</time>
      </trkpt>
      <trkpt lat="43.09036" lon="6.10827">
        <ele>152.51</ele>
        <time>2012-05-27T08:06:03Z</time>
      </trkpt>
      <trkpt lat="43.09027" lon="6.10774">
        <ele>155.39</ele>
        <time>2012-05-27T08:06:16Z</time>
      </trkpt>
      <trkpt lat="43.09005" lon="6.10732">
        <ele>158.27</ele>
        <time>2012-05-27T08:06:28Z</time>
      </trkpt>
      <trkpt lat="43.0897" lon="6.10739">
        <ele>160.68</ele>
        <time>2012-05-27T08:06:40Z</time>
      </trkpt>
      <trkpt lat="43.08964" lon="6.10738">
        <ele>161.64</ele>
        <time>2012-05-27T08:06:42Z</time>
      </trkpt>
      <trkpt lat="43.08962" lon="6.10736">
        <ele>161.64</ele>
        <time>2012-05-27T08:06:43Z</time>
      </trkpt>
      <trkpt lat="43.08961" lon="6.10733">
        <ele>162.12</ele>
        <time>2012-05-27T08:06:44Z</time>
      </trkpt>
      <trkpt lat="43.08962" lon="6.1073">
        <ele>162.12</ele>
        <time>2012-05-27T08:06:45Z</time>
      </trkpt>
      <trkpt lat="43.08963" lon="6.10727">
        <ele>162.6</ele>
        <time>2012-05-27T08:06:46Z</time>
      </trkpt>
      <trkpt lat="43.08964" lon="6.10726">
        <ele>162.6</ele>
        <time>2012-05-27T08:06:47Z</time>
      </trkpt>
      <trkpt lat="43.08965" lon="6.10725">
        <ele>163.56</ele>
        <time>2012-05-27T08:06:48Z</time>
      </trkpt>
      <trkpt lat="43.08967" lon="6.10724">
        <ele>163.56</ele>
        <time>2012-05-27T08:06:49Z</time>
      </trkpt>
      <trkpt lat="43.08968" lon="6.10724">
        <ele>164.04</ele>
        <time>2012-05-27T08:06:50Z</time>
      </trkpt>
      <trkpt lat="43.0897" lon="6.10722">
        <ele>165</ele>
        <time>2012-05-27T08:06:51Z</time>
      </trkpt>
      <trkpt lat="43.08972" lon="6.10721">
        <ele>164.52</ele>
        <time>2012-05-27T08:06:52Z</time>
      </trkpt>
      <trkpt lat="43.08983" lon="6.10708">
        <ele>166.93</ele>
        <time>2012-05-27T08:06:59Z</time>
      </trkpt>
      <trkpt lat="43.08985" lon="6.10707">
        <ele>167.41</ele>
        <time>2012-05-27T08:07:00Z</time>
      </trkpt>
      <trkpt lat="43.08987" lon="6.10707">
        <ele>167.89</ele>
        <time>2012-05-27T08:07:01Z</time>
      </trkpt>
      <trkpt lat="43.08989" lon="6.10706">
        <ele>167.89</ele>
        <time>2012-05-27T08:07:02Z</time>
      </trkpt>
      <trkpt lat="43.0901" lon="6.10695">
        <ele>171.25</ele>
        <time>2012-05-27T08:07:13Z</time>
      </trkpt>
      <trkpt lat="43.09031" lon="6.10687">
        <ele>174.14</ele>
        <time>2012-05-27T08:07:25Z</time>
      </trkpt>
      <trkpt lat="43.09055" lon="6.10696">
        <ele>176.54</ele>
        <time>2012-05-27T08:07:37Z</time>
      </trkpt>
      <trkpt lat="43.09071" lon="6.10738">
        <ele>177.98</ele>
        <time>2012-05-27T08:07:49Z</time>
      </trkpt>
      <trkpt lat="43.09096" lon="6.10754">
        <ele>177.98</ele>
        <time>2012-05-27T08:07:58Z</time>
      </trkpt>
      <trkpt lat="43.09132" lon="6.1075">
        <ele>180.38</ele>
        <time>2012-05-27T08:08:10Z</time>
      </trkpt>
      <trkpt lat="43.09167" lon="6.10749">
        <ele>182.31</ele>
        <time>2012-05-27T08:08:21Z</time>
      </trkpt>
      <trkpt lat="43.0921" lon="6.10752">
        <ele>184.23</ele>
        <time>2012-05-27T08:08:34Z</time>
      </trkpt>
      <trkpt lat="43.0925" lon="6.10768">
        <ele>184.71</ele>
        <time>2012-05-27T08:08:46Z</time>
      </trkpt>
      <trkpt lat="43.09315" lon="6.10793">
        <ele>182.79</ele>
        <time>2012-05-27T08:08:58Z</time>
      </trkpt>
      <trkpt lat="43.09321" lon="6.10794">
        <ele>182.31</ele>
        <time>2012-05-27T08:08:59Z</time>
      </trkpt>
      <trkpt lat="43.09328" lon="6.10794">
        <ele>181.83</ele>
        <time>2012-05-27T08:09:00Z</time>
      </trkpt>
      <trkpt lat="43.09408" lon="6.1078">
        <ele>184.23</ele>
        <time>2012-05-27T08:09:14Z</time>
      </trkpt>
      <trkpt lat="43.09426" lon="6.10775">
        <ele>185.67</ele>
        <time>2012-05-27T08:09:18Z</time>
      </trkpt>
      <trkpt lat="43.09474" lon="6.10782">
        <ele>187.59</ele>
        <time>2012-05-27T08:09:30Z</time>
      </trkpt>
      <trkpt lat="43.09507" lon="6.10811">
        <ele>190.96</ele>
        <time>2012-05-27T08:09:41Z</time>
      </trkpt>
      <trkpt lat="43.0951" lon="6.10819">
        <ele>191.92</ele>
        <time>2012-05-27T08:09:43Z</time>
      </trkpt>
      <trkpt lat="43.09517" lon="6.10862">
        <ele>194.8</ele>
        <time>2012-05-27T08:09:54Z</time>
      </trkpt>
      <trkpt lat="43.09521" lon="6.10888">
        <ele>197.21</ele>
        <time>2012-05-27T08:10:01Z</time>
      </trkpt>
      <trkpt lat="43.09532" lon="6.10916">
        <ele>199.13</ele>
        <time>2012-05-27T08:10:12Z</time>
      </trkpt>
      <trkpt lat="43.09532" lon="6.10917">
        <ele>199.13</ele>
        <time>2012-05-27T08:10:13Z</time>
      </trkpt>
      <trkpt lat="43.09532" lon="6.10919">
        <ele>199.13</ele>
        <time>2012-05-27T08:10:24Z</time>
      </trkpt>
      <trkpt lat="43.09532" lon="6.10919">
        <ele>199.61</ele>
        <time>2012-05-27T08:10:47Z</time>
      </trkpt>
      <trkpt lat="43.09532" lon="6.10919">
        <ele>199.13</ele>
        <time>2012-05-27T08:11:16Z</time>
      </trkpt>
      <trkpt lat="43.09533" lon="6.10916">
        <ele>199.61</ele>
        <time>2012-05-27T08:11:29Z</time>
      </trkpt>
      <trkpt lat="43.09534" lon="6.10915">
        <ele>200.09</ele>
        <time>2012-05-27T08:11:44Z</time>
      </trkpt>
      <trkpt lat="43.09534" lon="6.10915">
        <ele>200.57</ele>
        <time>2012-05-27T08:12:03Z</time>
      </trkpt>
      <trkpt lat="43.09534" lon="6.10915">
        <ele>200.09</ele>
        <time>2012-05-27T08:12:20Z</time>
      </trkpt>
      <trkpt lat="43.09534" lon="6.10913">
        <ele>200.57</ele>
        <time>2012-05-27T08:12:32Z</time>
      </trkpt>
      <trkpt lat="43.09534" lon="6.10913">
        <ele>200.57</ele>
        <time>2012-05-27T08:12:56Z</time>
      </trkpt>
      <trkpt lat="43.09533" lon="6.10914">
        <ele>201.05</ele>
        <time>2012-05-27T08:13:11Z</time>
      </trkpt>
      <trkpt lat="43.09529" lon="6.10913">
        <ele>200.57</ele>
        <time>2012-05-27T08:13:25Z</time>
      </trkpt>
      <trkpt lat="43.09529" lon="6.10913">
        <ele>201.05</ele>
        <time>2012-05-27T08:13:43Z</time>
      </trkpt>
      <trkpt lat="43.09529" lon="6.10913">
        <ele>201.05</ele>
        <time>2012-05-27T08:14:01Z</time>
      </trkpt>
      <trkpt lat="43.09531" lon="6.10913">
        <ele>200.57</ele>
        <time>2012-05-27T08:14:24Z</time>
      </trkpt>
      <trkpt lat="43.09533" lon="6.10919">
        <ele>201.05</ele>
        <time>2012-05-27T08:14:32Z</time>
      </trkpt>
      <trkpt lat="43.09534" lon="6.10922">
        <ele>200.57</ele>
        <time>2012-05-27T08:14:33Z</time>
      </trkpt>
      <trkpt lat="43.09535" lon="6.10925">
        <ele>200.57</ele>
        <time>2012-05-27T08:14:34Z</time>
      </trkpt>
      <trkpt lat="43.0955" lon="6.10957">
        <ele>197.69</ele>
        <time>2012-05-27T08:14:40Z</time>
      </trkpt>
      <trkpt lat="43.09554" lon="6.10964">
        <ele>196.73</ele>
        <time>2012-05-27T08:14:41Z</time>
      </trkpt>
      <trkpt lat="43.09559" lon="6.10971">
        <ele>195.77</ele>
        <time>2012-05-27T08:14:42Z</time>
      </trkpt>
      <trkpt lat="43.0958" lon="6.10992">
        <ele>191.92</ele>
        <time>2012-05-27T08:14:45Z</time>
      </trkpt>
      <trkpt lat="43.09587" lon="6.10999">
        <ele>192.4</ele>
        <time>2012-05-27T08:14:46Z</time>
      </trkpt>
      <trkpt lat="43.09613" lon="6.11021">
        <ele>189.04</ele>
        <time>2012-05-27T08:14:49Z</time>
      </trkpt>
      <trkpt lat="43.0964" lon="6.11047">
        <ele>185.67</ele>
        <time>2012-05-27T08:14:52Z</time>
      </trkpt>
      <trkpt lat="43.09648" lon="6.11058">
        <ele>185.19</ele>
        <time>2012-05-27T08:14:53Z</time>
      </trkpt>
      <trkpt lat="43.09654" lon="6.1107">
        <ele>184.71</ele>
        <time>2012-05-27T08:14:54Z</time>
      </trkpt>
      <trkpt lat="43.09659" lon="6.11081">
        <ele>184.71</ele>
        <time>2012-05-27T08:14:55Z</time>
      </trkpt>
      <trkpt lat="43.09663" lon="6.1109">
        <ele>183.75</ele>
        <time>2012-05-27T08:14:56Z</time>
      </trkpt>
      <trkpt lat="43.09667" lon="6.11096">
        <ele>184.23</ele>
        <time>2012-05-27T08:14:57Z</time>
      </trkpt>
      <trkpt lat="43.09672" lon="6.11099">
        <ele>183.27</ele>
        <time>2012-05-27T08:14:58Z</time>
      </trkpt>
      <trkpt lat="43.09676" lon="6.11091">
        <ele>182.31</ele>
        <time>2012-05-27T08:15:00Z</time>
      </trkpt>
      <trkpt lat="43.09675" lon="6.11081">
        <ele>181.35</ele>
        <time>2012-05-27T08:15:01Z</time>
      </trkpt>
      <trkpt lat="43.09661" lon="6.11037">
        <ele>177.5</ele>
        <time>2012-05-27T08:15:05Z</time>
      </trkpt>
      <trkpt lat="43.09647" lon="6.10997">
        <ele>173.66</ele>
        <time>2012-05-27T08:15:08Z</time>
      </trkpt>
      <trkpt lat="43.09643" lon="6.10982">
        <ele>172.21</ele>
        <time>2012-05-27T08:15:09Z</time>
      </trkpt>
      <trkpt lat="43.0964" lon="6.10966">
        <ele>171.25</ele>
        <time>2012-05-27T08:15:10Z</time>
      </trkpt>
      <trkpt lat="43.0964" lon="6.10949">
        <ele>170.29</ele>
        <time>2012-05-27T08:15:11Z</time>
      </trkpt>
      <trkpt lat="43.09643" lon="6.10933">
        <ele>169.33</ele>
        <time>2012-05-27T08:15:12Z</time>
      </trkpt>
      <trkpt lat="43.09649" lon="6.1092">
        <ele>168.85</ele>
        <time>2012-05-27T08:15:13Z</time>
      </trkpt>
      <trkpt lat="43.09657" lon="6.10911">
        <ele>169.81</ele>
        <time>2012-05-27T08:15:14Z</time>
      </trkpt>
      <trkpt lat="43.09665" lon="6.10904">
        <ele>170.29</ele>
        <time>2012-05-27T08:15:15Z</time>
      </trkpt>
      <trkpt lat="43.09674" lon="6.10899">
        <ele>170.77</ele>
        <time>2012-05-27T08:15:16Z</time>
      </trkpt>
      <trkpt lat="43.09683" lon="6.10895">
        <ele>171.25</ele>
        <time>2012-05-27T08:15:17Z</time>
      </trkpt>
      <trkpt lat="43.09746" lon="6.1086">
        <ele>172.69</ele>
        <time>2012-05-27T08:15:25Z</time>
      </trkpt>
      <trkpt lat="43.09754" lon="6.10859">
        <ele>172.69</ele>
        <time>2012-05-27T08:15:26Z</time>
      </trkpt>
      <trkpt lat="43.09762" lon="6.1086">
        <ele>172.69</ele>
        <time>2012-05-27T08:15:27Z</time>
      </trkpt>
      <trkpt lat="43.09789" lon="6.1086">
        <ele>170.77</ele>
        <time>2012-05-27T08:15:30Z</time>
      </trkpt>
      <trkpt lat="43.09798" lon="6.10857">
        <ele>169.81</ele>
        <time>2012-05-27T08:15:31Z</time>
      </trkpt>
      <trkpt lat="43.09808" lon="6.10853">
        <ele>168.85</ele>
        <time>2012-05-27T08:15:32Z</time>
      </trkpt>
      <trkpt lat="43.09818" lon="6.10848">
        <ele>167.41</ele>
        <time>2012-05-27T08:15:33Z</time>
      </trkpt>
      <trkpt lat="43.09827" lon="6.1084">
        <ele>166.45</ele>
        <time>2012-05-27T08:15:34Z</time>
      </trkpt>
      <trkpt lat="43.09835" lon="6.10831">
        <ele>165.96</ele>
        <time>2012-05-27T08:15:35Z</time>
      </trkpt>
      <trkpt lat="43.09843" lon="6.10821">
        <ele>165.96</ele>
        <time>2012-05-27T08:15:36Z</time>
      </trkpt>
      <trkpt lat="43.0988" lon="6.1078">
        <ele>166.45</ele>
        <time>2012-05-27T08:15:41Z</time>
      </trkpt>
      <trkpt lat="43.09889" lon="6.10776">
        <ele>166.45</ele>
        <time>2012-05-27T08:15:42Z</time>
      </trkpt>
      <trkpt lat="43.09897" lon="6.10775">
        <ele>166.93</ele>
        <time>2012-05-27T08:15:43Z</time>
      </trkpt>
      <trkpt lat="43.09905" lon="6.10777">
        <ele>167.41</ele>
        <time>2012-05-27T08:15:44Z</time>
      </trkpt>
      <trkpt lat="43.09913" lon="6.1078">
        <ele>167.41</ele>
        <time>2012-05-27T08:15:45Z</time>
      </trkpt>
      <trkpt lat="43.09921" lon="6.10784">
        <ele>167.89</ele>
        <time>2012-05-27T08:15:46Z</time>
      </trkpt>
      <trkpt lat="43.09928" lon="6.10789">
        <ele>167.89</ele>
        <time>2012-05-27T08:15:47Z</time>
      </trkpt>
      <trkpt lat="43.09935" lon="6.10795">
        <ele>168.37</ele>
        <time>2012-05-27T08:15:48Z</time>
      </trkpt>
      <trkpt lat="43.09942" lon="6.10801">
        <ele>168.37</ele>
        <time>2012-05-27T08:15:49Z</time>
      </trkpt>
      <trkpt lat="43.09989" lon="6.10843">
        <ele>168.37</ele>
        <time>2012-05-27T08:15:56Z</time>
      </trkpt>
      <trkpt lat="43.09992" lon="6.10849">
        <ele>168.37</ele>
        <time>2012-05-27T08:15:57Z</time>
      </trkpt>
      <trkpt lat="43.09992" lon="6.10856">
        <ele>167.41</ele>
        <time>2012-05-27T08:15:58Z</time>
      </trkpt>
      <trkpt lat="43.0999" lon="6.1086">
        <ele>166.93</ele>
        <time>2012-05-27T08:15:59Z</time>
      </trkpt>
      <trkpt lat="43.09984" lon="6.10861">
        <ele>165.48</ele>
        <time>2012-05-27T08:16:00Z</time>
      </trkpt>
      <trkpt lat="43.09977" lon="6.10859">
        <ele>164.52</ele>
        <time>2012-05-27T08:16:01Z</time>
      </trkpt>
      <trkpt lat="43.09969" lon="6.10854">
        <ele>163.56</ele>
        <time>2012-05-27T08:16:02Z</time>
      </trkpt>
      <trkpt lat="43.09962" lon="6.10848">
        <ele>162.6</ele>
        <time>2012-05-27T08:16:03Z</time>
      </trkpt>
      <trkpt lat="43.09954" lon="6.10842">
        <ele>161.16</ele>
        <time>2012-05-27T08:16:04Z</time>
      </trkpt>
      <trkpt lat="43.09945" lon="6.10837">
        <ele>160.68</ele>
        <time>2012-05-27T08:16:05Z</time>
      </trkpt>
      <trkpt lat="43.09935" lon="6.10833">
        <ele>159.24</ele>
        <time>2012-05-27T08:16:06Z</time>
      </trkpt>
      <trkpt lat="43.09925" lon="6.10831">
        <ele>157.31</ele>
        <time>2012-05-27T08:16:07Z</time>
      </trkpt>
      <trkpt lat="43.09915" lon="6.10832">
        <ele>155.87</ele>
        <time>2012-05-27T08:16:08Z</time>
      </trkpt>
      <trkpt lat="43.09906" lon="6.10836">
        <ele>152.99</ele>
        <time>2012-05-27T08:16:09Z</time>
      </trkpt>
      <trkpt lat="43.09898" lon="6.10844">
        <ele>151.54</ele>
        <time>2012-05-27T08:16:10Z</time>
      </trkpt>
      <trkpt lat="43.09891" lon="6.10856">
        <ele>150.1</ele>
        <time>2012-05-27T08:16:11Z</time>
      </trkpt>
      <trkpt lat="43.09885" lon="6.1087">
        <ele>148.66</ele>
        <time>2012-05-27T08:16:12Z</time>
      </trkpt>
      <trkpt lat="43.09878" lon="6.10886">
        <ele>147.7</ele>
        <time>2012-05-27T08:16:13Z</time>
      </trkpt>
      <trkpt lat="43.09863" lon="6.10917">
        <ele>145.78</ele>
        <time>2012-05-27T08:16:15Z</time>
      </trkpt>
      <trkpt lat="43.09853" lon="6.10929">
        <ele>144.82</ele>
        <time>2012-05-27T08:16:16Z</time>
      </trkpt>
      <trkpt lat="43.09842" lon="6.10939">
        <ele>144.82</ele>
        <time>2012-05-27T08:16:17Z</time>
      </trkpt>
      <trkpt lat="43.09775" lon="6.10977">
        <ele>142.89</ele>
        <time>2012-05-27T08:16:23Z</time>
      </trkpt>
      <trkpt lat="43.09767" lon="6.10983">
        <ele>142.89</ele>
        <time>2012-05-27T08:16:24Z</time>
      </trkpt>
      <trkpt lat="43.09761" lon="6.10991">
        <ele>142.41</ele>
        <time>2012-05-27T08:16:25Z</time>
      </trkpt>
      <trkpt lat="43.09758" lon="6.11002">
        <ele>142.41</ele>
        <time>2012-05-27T08:16:26Z</time>
      </trkpt>
      <trkpt lat="43.09758" lon="6.11013">
        <ele>141.93</ele>
        <time>2012-05-27T08:16:27Z</time>
      </trkpt>
      <trkpt lat="43.0976" lon="6.11024">
        <ele>140.49</ele>
        <time>2012-05-27T08:16:28Z</time>
      </trkpt>
      <trkpt lat="43.09763" lon="6.11031">
        <ele>139.53</ele>
        <time>2012-05-27T08:16:29Z</time>
      </trkpt>
      <trkpt lat="43.09767" lon="6.11036">
        <ele>138.09</ele>
        <time>2012-05-27T08:16:30Z</time>
      </trkpt>
      <trkpt lat="43.09773" lon="6.11038">
        <ele>137.13</ele>
        <time>2012-05-27T08:16:31Z</time>
      </trkpt>
      <trkpt lat="43.09779" lon="6.11039">
        <ele>136.16</ele>
        <time>2012-05-27T08:16:32Z</time>
      </trkpt>
      <trkpt lat="43.0979" lon="6.11034">
        <ele>135.68</ele>
        <time>2012-05-27T08:16:33Z</time>
      </trkpt>
      <trkpt lat="43.09801" lon="6.11032">
        <ele>134.72</ele>
        <time>2012-05-27T08:16:34Z</time>
      </trkpt>
      <trkpt lat="43.09813" lon="6.11033">
        <ele>133.76</ele>
        <time>2012-05-27T08:16:35Z</time>
      </trkpt>
      <trkpt lat="43.09841" lon="6.11034">
        <ele>129.92</ele>
        <time>2012-05-27T08:16:37Z</time>
      </trkpt>
      <trkpt lat="43.09887" lon="6.11036">
        <ele>126.07</ele>
        <time>2012-05-27T08:16:40Z</time>
      </trkpt>
      <trkpt lat="43.09928" lon="6.11058">
        <ele>121.26</ele>
        <time>2012-05-27T08:16:43Z</time>
      </trkpt>
      <trkpt lat="43.09955" lon="6.11076">
        <ele>117.9</ele>
        <time>2012-05-27T08:16:45Z</time>
      </trkpt>
      <trkpt lat="43.09982" lon="6.11094">
        <ele>114.53</ele>
        <time>2012-05-27T08:16:47Z</time>
      </trkpt>
      <trkpt lat="43.10007" lon="6.11113">
        <ele>109.73</ele>
        <time>2012-05-27T08:16:49Z</time>
      </trkpt>
      <trkpt lat="43.10018" lon="6.11123">
        <ele>108.77</ele>
        <time>2012-05-27T08:16:50Z</time>
      </trkpt>
      <trkpt lat="43.10028" lon="6.11134">
        <ele>106.84</ele>
        <time>2012-05-27T08:16:51Z</time>
      </trkpt>
      <trkpt lat="43.10036" lon="6.11148">
        <ele>105.88</ele>
        <time>2012-05-27T08:16:52Z</time>
      </trkpt>
      <trkpt lat="43.10043" lon="6.11162">
        <ele>104.44</ele>
        <time>2012-05-27T08:16:53Z</time>
      </trkpt>
      <trkpt lat="43.10049" lon="6.11178">
        <ele>103.96</ele>
        <time>2012-05-27T08:16:54Z</time>
      </trkpt>
      <trkpt lat="43.10055" lon="6.11195">
        <ele>103</ele>
        <time>2012-05-27T08:16:55Z</time>
      </trkpt>
      <trkpt lat="43.1006" lon="6.11212">
        <ele>101.56</ele>
        <time>2012-05-27T08:16:56Z</time>
      </trkpt>
      <trkpt lat="43.10071" lon="6.11265">
        <ele>97.71</ele>
        <time>2012-05-27T08:16:59Z</time>
      </trkpt>
      <trkpt lat="43.10083" lon="6.11316">
        <ele>93.87</ele>
        <time>2012-05-27T08:17:02Z</time>
      </trkpt>
      <trkpt lat="43.10089" lon="6.11344">
        <ele>93.39</ele>
        <time>2012-05-27T08:17:04Z</time>
      </trkpt>
      <trkpt lat="43.10091" lon="6.11356">
        <ele>91.94</ele>
        <time>2012-05-27T08:17:05Z</time>
      </trkpt>
      <trkpt lat="43.1009" lon="6.11368">
        <ele>91.46</ele>
        <time>2012-05-27T08:17:06Z</time>
      </trkpt>
      <trkpt lat="43.1009" lon="6.11392">
        <ele>90.98</ele>
        <time>2012-05-27T08:17:08Z</time>
      </trkpt>
      <trkpt lat="43.10092" lon="6.11403">
        <ele>90.02</ele>
        <time>2012-05-27T08:17:09Z</time>
      </trkpt>
      <trkpt lat="43.10096" lon="6.11412">
        <ele>90.02</ele>
        <time>2012-05-27T08:17:10Z</time>
      </trkpt>
      <trkpt lat="43.10102" lon="6.1142">
        <ele>89.54</ele>
        <time>2012-05-27T08:17:11Z</time>
      </trkpt>
      <trkpt lat="43.10108" lon="6.11429">
        <ele>89.54</ele>
        <time>2012-05-27T08:17:12Z</time>
      </trkpt>
      <trkpt lat="43.10111" lon="6.11439">
        <ele>89.06</ele>
        <time>2012-05-27T08:17:13Z</time>
      </trkpt>
      <trkpt lat="43.10114" lon="6.1145">
        <ele>88.58</ele>
        <time>2012-05-27T08:17:14Z</time>
      </trkpt>
      <trkpt lat="43.10117" lon="6.11462">
        <ele>88.1</ele>
        <time>2012-05-27T08:17:15Z</time>
      </trkpt>
      <trkpt lat="43.10141" lon="6.11566">
        <ele>91.94</ele>
        <time>2012-05-27T08:17:25Z</time>
      </trkpt>
      <trkpt lat="43.10151" lon="6.1161">
        <ele>95.31</ele>
        <time>2012-05-27T08:17:31Z</time>
      </trkpt>
      <trkpt lat="43.10157" lon="6.11637">
        <ele>98.67</ele>
        <time>2012-05-27T08:17:36Z</time>
      </trkpt>
      <trkpt lat="43.1016" lon="6.11652">
        <ele>99.63</ele>
        <time>2012-05-27T08:17:39Z</time>
      </trkpt>
      <trkpt lat="43.10169" lon="6.11706">
        <ele>96.27</ele>
        <time>2012-05-27T08:17:46Z</time>
      </trkpt>
      <trkpt lat="43.10172" lon="6.1174">
        <ele>93.39</ele>
        <time>2012-05-27T08:17:49Z</time>
      </trkpt>
      <trkpt lat="43.10173" lon="6.11768">
        <ele>90.02</ele>
        <time>2012-05-27T08:17:51Z</time>
      </trkpt>
      <trkpt lat="43.10177" lon="6.11801">
        <ele>86.18</ele>
        <time>2012-05-27T08:17:53Z</time>
      </trkpt>
      <trkpt lat="43.10181" lon="6.11835">
        <ele>82.33</ele>
        <time>2012-05-27T08:17:55Z</time>
      </trkpt>
      <trkpt lat="43.10188" lon="6.11872">
        <ele>77.52</ele>
        <time>2012-05-27T08:17:57Z</time>
      </trkpt>
      <trkpt lat="43.10193" lon="6.1189">
        <ele>75.12</ele>
        <time>2012-05-27T08:17:58Z</time>
      </trkpt>
      <trkpt lat="43.102" lon="6.11907">
        <ele>72.24</ele>
        <time>2012-05-27T08:17:59Z</time>
      </trkpt>
      <trkpt lat="43.10208" lon="6.11924">
        <ele>70.79</ele>
        <time>2012-05-27T08:18:00Z</time>
      </trkpt>
      <trkpt lat="43.10228" lon="6.11955">
        <ele>65.99</ele>
        <time>2012-05-27T08:18:02Z</time>
      </trkpt>
      <trkpt lat="43.10248" lon="6.11988">
        <ele>62.14</ele>
        <time>2012-05-27T08:18:04Z</time>
      </trkpt>
      <trkpt lat="43.10265" lon="6.12023">
        <ele>59.26</ele>
        <time>2012-05-27T08:18:06Z</time>
      </trkpt>
      <trkpt lat="43.1029" lon="6.12073">
        <ele>57.34</ele>
        <time>2012-05-27T08:18:09Z</time>
      </trkpt>
      <trkpt lat="43.10308" lon="6.12105">
        <ele>56.37</ele>
        <time>2012-05-27T08:18:12Z</time>
      </trkpt>
      <trkpt lat="43.10311" lon="6.12114">
        <ele>55.89</ele>
        <time>2012-05-27T08:18:13Z</time>
      </trkpt>
      <trkpt lat="43.10311" lon="6.12123">
        <ele>54.93</ele>
        <time>2012-05-27T08:18:14Z</time>
      </trkpt>
      <trkpt lat="43.1031" lon="6.12133">
        <ele>54.93</ele>
        <time>2012-05-27T08:18:15Z</time>
      </trkpt>
      <trkpt lat="43.10311" lon="6.12142">
        <ele>53.97</ele>
        <time>2012-05-27T08:18:16Z</time>
      </trkpt>
      <trkpt lat="43.10315" lon="6.12149">
        <ele>53.97</ele>
        <time>2012-05-27T08:18:17Z</time>
      </trkpt>
      <trkpt lat="43.10321" lon="6.12154">
        <ele>53.97</ele>
        <time>2012-05-27T08:18:18Z</time>
      </trkpt>
      <trkpt lat="43.10326" lon="6.12158">
        <ele>53.97</ele>
        <time>2012-05-27T08:18:19Z</time>
      </trkpt>
      <trkpt lat="43.10331" lon="6.1216">
        <ele>53.97</ele>
        <time>2012-05-27T08:18:20Z</time>
      </trkpt>
      <trkpt lat="43.10337" lon="6.12162">
        <ele>53.97</ele>
        <time>2012-05-27T08:18:21Z</time>
      </trkpt>
      <trkpt lat="43.10344" lon="6.12163">
        <ele>53.49</ele>
        <time>2012-05-27T08:18:22Z</time>
      </trkpt>
      <trkpt lat="43.1043" lon="6.12165">
        <ele>50.13</ele>
        <time>2012-05-27T08:18:32Z</time>
      </trkpt>
      <trkpt lat="43.10514" lon="6.12173">
        <ele>46.28</ele>
        <time>2012-05-27T08:18:41Z</time>
      </trkpt>
      <trkpt lat="43.10524" lon="6.12174">
        <ele>46.28</ele>
        <time>2012-05-27T08:18:42Z</time>
      </trkpt>
      <trkpt lat="43.10587" lon="6.12173">
        <ele>42.92</ele>
        <time>2012-05-27T08:18:48Z</time>
      </trkpt>
      <trkpt lat="43.10621" lon="6.12164">
        <ele>40.99</ele>
        <time>2012-05-27T08:18:51Z</time>
      </trkpt>
      <trkpt lat="43.10656" lon="6.12153">
        <ele>37.15</ele>
        <time>2012-05-27T08:18:54Z</time>
      </trkpt>
      <trkpt lat="43.10691" lon="6.12145">
        <ele>35.23</ele>
        <time>2012-05-27T08:18:57Z</time>
      </trkpt>
      <trkpt lat="43.10702" lon="6.12145">
        <ele>34.26</ele>
        <time>2012-05-27T08:18:58Z</time>
      </trkpt>
      <trkpt lat="43.10735" lon="6.12149">
        <ele>30.9</ele>
        <time>2012-05-27T08:19:01Z</time>
      </trkpt>
      <trkpt lat="43.10768" lon="6.12158">
        <ele>28.98</ele>
        <time>2012-05-27T08:19:05Z</time>
      </trkpt>
      <trkpt lat="43.10773" lon="6.12162">
        <ele>28.5</ele>
        <time>2012-05-27T08:19:06Z</time>
      </trkpt>
      <trkpt lat="43.10783" lon="6.12172">
        <ele>27.53</ele>
        <time>2012-05-27T08:19:08Z</time>
      </trkpt>
      <trkpt lat="43.10788" lon="6.12172">
        <ele>27.05</ele>
        <time>2012-05-27T08:19:09Z</time>
      </trkpt>
      <trkpt lat="43.10791" lon="6.12169">
        <ele>27.53</ele>
        <time>2012-05-27T08:19:10Z</time>
      </trkpt>
      <trkpt lat="43.10793" lon="6.12165">
        <ele>27.53</ele>
        <time>2012-05-27T08:19:11Z</time>
      </trkpt>
      <trkpt lat="43.10794" lon="6.12161">
        <ele>27.53</ele>
        <time>2012-05-27T08:19:12Z</time>
      </trkpt>
      <trkpt lat="43.10793" lon="6.12157">
        <ele>27.53</ele>
        <time>2012-05-27T08:19:13Z</time>
      </trkpt>
      <trkpt lat="43.10791" lon="6.12153">
        <ele>28.02</ele>
        <time>2012-05-27T08:19:14Z</time>
      </trkpt>
      <trkpt lat="43.1079" lon="6.1215">
        <ele>27.05</ele>
        <time>2012-05-27T08:19:15Z</time>
      </trkpt>
      <trkpt lat="43.10789" lon="6.12146">
        <ele>28.02</ele>
        <time>2012-05-27T08:19:16Z</time>
      </trkpt>
      <trkpt lat="43.10788" lon="6.12142">
        <ele>27.53</ele>
        <time>2012-05-27T08:19:17Z</time>
      </trkpt>
      <trkpt lat="43.10788" lon="6.12136">
        <ele>28.02</ele>
        <time>2012-05-27T08:19:18Z</time>
      </trkpt>
      <trkpt lat="43.10788" lon="6.1213">
        <ele>28.02</ele>
        <time>2012-05-27T08:19:19Z</time>
      </trkpt>
      <trkpt lat="43.10788" lon="6.12124">
        <ele>27.53</ele>
        <time>2012-05-27T08:19:20Z</time>
      </trkpt>
      <trkpt lat="43.10787" lon="6.12007">
        <ele>28.98</ele>
        <time>2012-05-27T08:19:38Z</time>
      </trkpt>
      <trkpt lat="43.10785" lon="6.11995">
        <ele>28.98</ele>
        <time>2012-05-27T08:19:40Z</time>
      </trkpt>
      <trkpt lat="43.10785" lon="6.1199">
        <ele>28.98</ele>
        <time>2012-05-27T08:19:41Z</time>
      </trkpt>
      <trkpt lat="43.10784" lon="6.11979">
        <ele>29.46</ele>
        <time>2012-05-27T08:19:43Z</time>
      </trkpt>
      <trkpt lat="43.10783" lon="6.11968">
        <ele>29.46</ele>
        <time>2012-05-27T08:19:45Z</time>
      </trkpt>
      <trkpt lat="43.10781" lon="6.11941">
        <ele>29.94</ele>
        <time>2012-05-27T08:19:50Z</time>
      </trkpt>
      <trkpt lat="43.10781" lon="6.11891">
        <ele>30.42</ele>
        <time>2012-05-27T08:19:59Z</time>
      </trkpt>
      <trkpt lat="43.10782" lon="6.11885">
        <ele>30.42</ele>
        <time>2012-05-27T08:20:00Z</time>
      </trkpt>
      <trkpt lat="43.1081" lon="6.11821">
        <ele>30.9</ele>
        <time>2012-05-27T08:20:12Z</time>
      </trkpt>
      <trkpt lat="43.10813" lon="6.11817">
        <ele>30.9</ele>
        <time>2012-05-27T08:20:13Z</time>
      </trkpt>
      <trkpt lat="43.10817" lon="6.11813">
        <ele>30.9</ele>
        <time>2012-05-27T08:20:14Z</time>
      </trkpt>
      <trkpt lat="43.10832" lon="6.11794">
        <ele>29.94</ele>
        <time>2012-05-27T08:20:18Z</time>
      </trkpt>
      <trkpt lat="43.10835" lon="6.11787">
        <ele>29.94</ele>
        <time>2012-05-27T08:20:19Z</time>
      </trkpt>
      <trkpt lat="43.10846" lon="6.1176">
        <ele>29.46</ele>
        <time>2012-05-27T08:20:23Z</time>
      </trkpt>
      <trkpt lat="43.10883" lon="6.11663">
        <ele>30.42</ele>
        <time>2012-05-27T08:20:37Z</time>
      </trkpt>
      <trkpt lat="43.10894" lon="6.11638">
        <ele>29.94</ele>
        <time>2012-05-27T08:20:41Z</time>
      </trkpt>
      <trkpt lat="43.10944" lon="6.11521">
        <ele>29.46</ele>
        <time>2012-05-27T08:20:58Z</time>
      </trkpt>
      <trkpt lat="43.10971" lon="6.11461">
        <ele>28.5</ele>
        <time>2012-05-27T08:21:06Z</time>
      </trkpt>
      <trkpt lat="43.10976" lon="6.11455">
        <ele>28.5</ele>
        <time>2012-05-27T08:21:07Z</time>
      </trkpt>
      <trkpt lat="43.11054" lon="6.11383">
        <ele>28.02</ele>
        <time>2012-05-27T08:21:21Z</time>
      </trkpt>
      <trkpt lat="43.11085" lon="6.11352">
        <ele>27.05</ele>
        <time>2012-05-27T08:21:27Z</time>
      </trkpt>
      <trkpt lat="43.1109" lon="6.11348">
        <ele>27.05</ele>
        <time>2012-05-27T08:21:28Z</time>
      </trkpt>
      <trkpt lat="43.11096" lon="6.11346">
        <ele>27.05</ele>
        <time>2012-05-27T08:21:29Z</time>
      </trkpt>
      <trkpt lat="43.11115" lon="6.11342">
        <ele>27.05</ele>
        <time>2012-05-27T08:21:32Z</time>
      </trkpt>
      <trkpt lat="43.11122" lon="6.11342">
        <ele>27.05</ele>
        <time>2012-05-27T08:21:33Z</time>
      </trkpt>
      <trkpt lat="43.11128" lon="6.11343">
        <ele>26.57</ele>
        <time>2012-05-27T08:21:34Z</time>
      </trkpt>
      <trkpt lat="43.11135" lon="6.11346">
        <ele>26.57</ele>
        <time>2012-05-27T08:21:35Z</time>
      </trkpt>
      <trkpt lat="43.11141" lon="6.11349">
        <ele>26.57</ele>
        <time>2012-05-27T08:21:36Z</time>
      </trkpt>
      <trkpt lat="43.11147" lon="6.11351">
        <ele>26.57</ele>
        <time>2012-05-27T08:21:37Z</time>
      </trkpt>
      <trkpt lat="43.11154" lon="6.11352">
        <ele>26.57</ele>
        <time>2012-05-27T08:21:38Z</time>
      </trkpt>
      <trkpt lat="43.1116" lon="6.11354">
        <ele>26.09</ele>
        <time>2012-05-27T08:21:39Z</time>
      </trkpt>
      <trkpt lat="43.11177" lon="6.11361">
        <ele>26.09</ele>
        <time>2012-05-27T08:21:42Z</time>
      </trkpt>
      <trkpt lat="43.1118" lon="6.11364">
        <ele>25.61</ele>
        <time>2012-05-27T08:21:43Z</time>
      </trkpt>
      <trkpt lat="43.11182" lon="6.11367">
        <ele>25.61</ele>
        <time>2012-05-27T08:21:44Z</time>
      </trkpt>
      <trkpt lat="43.11184" lon="6.11368">
        <ele>25.61</ele>
        <time>2012-05-27T08:21:45Z</time>
      </trkpt>
      <trkpt lat="43.11185" lon="6.11368">
        <ele>25.61</ele>
        <time>2012-05-27T08:21:57Z</time>
      </trkpt>
      <trkpt lat="43.11185" lon="6.11368">
        <ele>26.09</ele>
        <time>2012-05-27T08:22:17Z</time>
      </trkpt>
      <trkpt lat="43.11187" lon="6.1137">
        <ele>26.09</ele>
        <time>2012-05-27T08:22:36Z</time>
      </trkpt>
      <trkpt lat="43.11192" lon="6.11369">
        <ele>26.09</ele>
        <time>2012-05-27T08:22:38Z</time>
      </trkpt>
      <trkpt lat="43.11194" lon="6.11368">
        <ele>25.61</ele>
        <time>2012-05-27T08:22:39Z</time>
      </trkpt>
      <trkpt lat="43.11197" lon="6.11365">
        <ele>26.09</ele>
        <time>2012-05-27T08:22:40Z</time>
      </trkpt>
      <trkpt lat="43.112" lon="6.11361">
        <ele>26.09</ele>
        <time>2012-05-27T08:22:41Z</time>
      </trkpt>
      <trkpt lat="43.11202" lon="6.11356">
        <ele>25.61</ele>
        <time>2012-05-27T08:22:42Z</time>
      </trkpt>
      <trkpt lat="43.11245" lon="6.11266">
        <ele>26.57</ele>
        <time>2012-05-27T08:22:55Z</time>
      </trkpt>
      <trkpt lat="43.11303" lon="6.11144">
        <ele>27.05</ele>
        <time>2012-05-27T08:23:11Z</time>
      </trkpt>
      <trkpt lat="43.11365" lon="6.11012">
        <ele>28.02</ele>
        <time>2012-05-27T08:23:27Z</time>
      </trkpt>
      <trkpt lat="43.11367" lon="6.11002">
        <ele>27.53</ele>
        <time>2012-05-27T08:23:28Z</time>
      </trkpt>
      <trkpt lat="43.11369" lon="6.10992">
        <ele>27.53</ele>
        <time>2012-05-27T08:23:29Z</time>
      </trkpt>
      <trkpt lat="43.1137" lon="6.10981">
        <ele>27.53</ele>
        <time>2012-05-27T08:23:30Z</time>
      </trkpt>
      <trkpt lat="43.1137" lon="6.1097">
        <ele>26.09</ele>
        <time>2012-05-27T08:23:31Z</time>
      </trkpt>
      <trkpt lat="43.11372" lon="6.10959">
        <ele>26.09</ele>
        <time>2012-05-27T08:23:32Z</time>
      </trkpt>
      <trkpt lat="43.11376" lon="6.10949">
        <ele>26.09</ele>
        <time>2012-05-27T08:23:33Z</time>
      </trkpt>
      <trkpt lat="43.1138" lon="6.10939">
        <ele>25.61</ele>
        <time>2012-05-27T08:23:34Z</time>
      </trkpt>
      <trkpt lat="43.11384" lon="6.10929">
        <ele>25.61</ele>
        <time>2012-05-27T08:23:35Z</time>
      </trkpt>
      <trkpt lat="43.11386" lon="6.10919">
        <ele>25.61</ele>
        <time>2012-05-27T08:23:36Z</time>
      </trkpt>
      <trkpt lat="43.11385" lon="6.10908">
        <ele>26.09</ele>
        <time>2012-05-27T08:23:37Z</time>
      </trkpt>
      <trkpt lat="43.11382" lon="6.10898">
        <ele>26.57</ele>
        <time>2012-05-27T08:23:38Z</time>
      </trkpt>
      <trkpt lat="43.11379" lon="6.10889">
        <ele>26.57</ele>
        <time>2012-05-27T08:23:39Z</time>
      </trkpt>
      <trkpt lat="43.11374" lon="6.1087">
        <ele>27.05</ele>
        <time>2012-05-27T08:23:41Z</time>
      </trkpt>
      <trkpt lat="43.11368" lon="6.10842">
        <ele>27.53</ele>
        <time>2012-05-27T08:23:44Z</time>
      </trkpt>
      <trkpt lat="43.11325" lon="6.10712">
        <ele>29.94</ele>
        <time>2012-05-27T08:24:00Z</time>
      </trkpt>
      <trkpt lat="43.11301" lon="6.1061">
        <ele>31.38</ele>
        <time>2012-05-27T08:24:13Z</time>
      </trkpt>
      <trkpt lat="43.113" lon="6.10577">
        <ele>31.86</ele>
        <time>2012-05-27T08:24:17Z</time>
      </trkpt>
      <trkpt lat="43.113" lon="6.10569">
        <ele>31.86</ele>
        <time>2012-05-27T08:24:18Z</time>
      </trkpt>
      <trkpt lat="43.11323" lon="6.10445">
        <ele>32.82</ele>
        <time>2012-05-27T08:24:33Z</time>
      </trkpt>
      <trkpt lat="43.11335" lon="6.10277">
        <ele>33.78</ele>
        <time>2012-05-27T08:24:52Z</time>
      </trkpt>
      <trkpt lat="43.11358" lon="6.1013">
        <ele>34.74</ele>
        <time>2012-05-27T08:25:09Z</time>
      </trkpt>
      <trkpt lat="43.1139" lon="6.09963">
        <ele>36.67</ele>
        <time>2012-05-27T08:25:28Z</time>
      </trkpt>
      <trkpt lat="43.11432" lon="6.09825">
        <ele>37.63</ele>
        <time>2012-05-27T08:25:44Z</time>
      </trkpt>
      <trkpt lat="43.11479" lon="6.09697">
        <ele>39.55</ele>
        <time>2012-05-27T08:25:59Z</time>
      </trkpt>
      <trkpt lat="43.11508" lon="6.0954">
        <ele>40.99</ele>
        <time>2012-05-27T08:26:16Z</time>
      </trkpt>
      <trkpt lat="43.11554" lon="6.09389">
        <ele>41.95</ele>
        <time>2012-05-27T08:26:33Z</time>
      </trkpt>
      <trkpt lat="43.11605" lon="6.09212">
        <ele>41.95</ele>
        <time>2012-05-27T08:26:52Z</time>
      </trkpt>
      <trkpt lat="43.11652" lon="6.09054">
        <ele>42.44</ele>
        <time>2012-05-27T08:27:08Z</time>
      </trkpt>
      <trkpt lat="43.11703" lon="6.08896">
        <ele>42.44</ele>
        <time>2012-05-27T08:27:24Z</time>
      </trkpt>
      <trkpt lat="43.1173" lon="6.08728">
        <ele>43.4</ele>
        <time>2012-05-27T08:27:40Z</time>
      </trkpt>
      <trkpt lat="43.11736" lon="6.08551">
        <ele>42.92</ele>
        <time>2012-05-27T08:27:56Z</time>
      </trkpt>
      <trkpt lat="43.11742" lon="6.0837">
        <ele>44.36</ele>
        <time>2012-05-27T08:28:13Z</time>
      </trkpt>
      <trkpt lat="43.11747" lon="6.08195">
        <ele>46.28</ele>
        <time>2012-05-27T08:28:30Z</time>
      </trkpt>
      <trkpt lat="43.11752" lon="6.08095">
        <ele>46.28</ele>
        <time>2012-05-27T08:28:40Z</time>
      </trkpt>
      <trkpt lat="43.11753" lon="6.08085">
        <ele>46.28</ele>
        <time>2012-05-27T08:28:41Z</time>
      </trkpt>
      <trkpt lat="43.11759" lon="6.08057">
        <ele>47.24</ele>
        <time>2012-05-27T08:28:44Z</time>
      </trkpt>
      <trkpt lat="43.11762" lon="6.08047">
        <ele>47.72</ele>
        <time>2012-05-27T08:28:45Z</time>
      </trkpt>
      <trkpt lat="43.11803" lon="6.07924">
        <ele>46.76</ele>
        <time>2012-05-27T08:28:58Z</time>
      </trkpt>
      <trkpt lat="43.11844" lon="6.07714">
        <ele>44.84</ele>
        <time>2012-05-27T08:29:16Z</time>
      </trkpt>
      <trkpt lat="43.11875" lon="6.07533">
        <ele>44.36</ele>
        <time>2012-05-27T08:29:31Z</time>
      </trkpt>
      <trkpt lat="43.11907" lon="6.07345">
        <ele>45.8</ele>
        <time>2012-05-27T08:29:48Z</time>
      </trkpt>
      <trkpt lat="43.11912" lon="6.07314">
        <ele>46.28</ele>
        <time>2012-05-27T08:29:55Z</time>
      </trkpt>
      <trkpt lat="43.11912" lon="6.07314">
        <ele>46.28</ele>
        <time>2012-05-27T08:30:16Z</time>
      </trkpt>
      <trkpt lat="43.11921" lon="6.073">
        <ele>45.8</ele>
        <time>2012-05-27T08:30:33Z</time>
      </trkpt>
      <trkpt lat="43.11924" lon="6.07299">
        <ele>44.84</ele>
        <time>2012-05-27T08:30:34Z</time>
      </trkpt>
      <trkpt lat="43.11929" lon="6.07299">
        <ele>44.84</ele>
        <time>2012-05-27T08:30:35Z</time>
      </trkpt>
      <trkpt lat="43.11934" lon="6.073">
        <ele>44.84</ele>
        <time>2012-05-27T08:30:36Z</time>
      </trkpt>
      <trkpt lat="43.11938" lon="6.07302">
        <ele>44.84</ele>
        <time>2012-05-27T08:30:37Z</time>
      </trkpt>
      <trkpt lat="43.12033" lon="6.07324">
        <ele>41.95</ele>
        <time>2012-05-27T08:30:53Z</time>
      </trkpt>
      <trkpt lat="43.12171" lon="6.0736">
        <ele>40.03</ele>
        <time>2012-05-27T08:31:13Z</time>
      </trkpt>
      <trkpt lat="43.12177" lon="6.07363">
        <ele>40.51</ele>
        <time>2012-05-27T08:31:14Z</time>
      </trkpt>
      <trkpt lat="43.12184" lon="6.07366">
        <ele>40.03</ele>
        <time>2012-05-27T08:31:15Z</time>
      </trkpt>
      <trkpt lat="43.12191" lon="6.07367">
        <ele>40.03</ele>
        <time>2012-05-27T08:31:16Z</time>
      </trkpt>
      <trkpt lat="43.12197" lon="6.07365">
        <ele>40.03</ele>
        <time>2012-05-27T08:31:17Z</time>
      </trkpt>
      <trkpt lat="43.12204" lon="6.07361">
        <ele>40.51</ele>
        <time>2012-05-27T08:31:18Z</time>
      </trkpt>
      <trkpt lat="43.1221" lon="6.07357">
        <ele>40.51</ele>
        <time>2012-05-27T08:31:19Z</time>
      </trkpt>
      <trkpt lat="43.12217" lon="6.07354">
        <ele>40.03</ele>
        <time>2012-05-27T08:31:20Z</time>
      </trkpt>
      <trkpt lat="43.12224" lon="6.07352">
        <ele>40.03</ele>
        <time>2012-05-27T08:31:21Z</time>
      </trkpt>
      <trkpt lat="43.12341" lon="6.07324">
        <ele>39.55</ele>
        <time>2012-05-27T08:31:37Z</time>
      </trkpt>
      <trkpt lat="43.12466" lon="6.07328">
        <ele>40.51</ele>
        <time>2012-05-27T08:31:55Z</time>
      </trkpt>
      <trkpt lat="43.12548" lon="6.07346">
        <ele>43.4</ele>
        <time>2012-05-27T08:32:08Z</time>
      </trkpt>
      <trkpt lat="43.12632" lon="6.07399">
        <ele>41.95</ele>
        <time>2012-05-27T08:32:22Z</time>
      </trkpt>
      <trkpt lat="43.12726" lon="6.07494">
        <ele>40.03</ele>
        <time>2012-05-27T08:32:36Z</time>
      </trkpt>
      <trkpt lat="43.12818" lon="6.07579">
        <ele>41.95</ele>
        <time>2012-05-27T08:32:50Z</time>
      </trkpt>
      <trkpt lat="43.12833" lon="6.07592">
        <ele>43.4</ele>
        <time>2012-05-27T08:32:53Z</time>
      </trkpt>
      <trkpt lat="43.12852" lon="6.07604">
        <ele>44.36</ele>
        <time>2012-05-27T08:32:57Z</time>
      </trkpt>
      <trkpt lat="43.12874" lon="6.07613">
        <ele>47.24</ele>
        <time>2012-05-27T08:33:02Z</time>
      </trkpt>
      <trkpt lat="43.12878" lon="6.07616">
        <ele>47.24</ele>
        <time>2012-05-27T08:33:03Z</time>
      </trkpt>
      <trkpt lat="43.1288" lon="6.0762">
        <ele>47.72</ele>
        <time>2012-05-27T08:33:04Z</time>
      </trkpt>
      <trkpt lat="43.12882" lon="6.07624">
        <ele>47.72</ele>
        <time>2012-05-27T08:33:05Z</time>
      </trkpt>
      <trkpt lat="43.12883" lon="6.0763">
        <ele>47.72</ele>
        <time>2012-05-27T08:33:06Z</time>
      </trkpt>
      <trkpt lat="43.12883" lon="6.07637">
        <ele>47.24</ele>
        <time>2012-05-27T08:33:07Z</time>
      </trkpt>
      <trkpt lat="43.12883" lon="6.07644">
        <ele>47.24</ele>
        <time>2012-05-27T08:33:08Z</time>
      </trkpt>
      <trkpt lat="43.12882" lon="6.07651">
        <ele>47.72</ele>
        <time>2012-05-27T08:33:09Z</time>
      </trkpt>
      <trkpt lat="43.12872" lon="6.07764">
        <ele>45.32</ele>
        <time>2012-05-27T08:33:23Z</time>
      </trkpt>
      <trkpt lat="43.12873" lon="6.07771">
        <ele>45.32</ele>
        <time>2012-05-27T08:33:24Z</time>
      </trkpt>
      <trkpt lat="43.12875" lon="6.07777">
        <ele>44.84</ele>
        <time>2012-05-27T08:33:25Z</time>
      </trkpt>
      <trkpt lat="43.1288" lon="6.0778">
        <ele>45.32</ele>
        <time>2012-05-27T08:33:26Z</time>
      </trkpt>
      <trkpt lat="43.12885" lon="6.07779">
        <ele>44.84</ele>
        <time>2012-05-27T08:33:27Z</time>
      </trkpt>
      <trkpt lat="43.1289" lon="6.07775">
        <ele>44.84</ele>
        <time>2012-05-27T08:33:28Z</time>
      </trkpt>
      <trkpt lat="43.12894" lon="6.07769">
        <ele>44.36</ele>
        <time>2012-05-27T08:33:29Z</time>
      </trkpt>
      <trkpt lat="43.12943" lon="6.07683">
        <ele>43.4</ele>
        <time>2012-05-27T08:33:40Z</time>
      </trkpt>
      <trkpt lat="43.12951" lon="6.0767">
        <ele>43.4</ele>
        <time>2012-05-27T08:33:42Z</time>
      </trkpt>
      <trkpt lat="43.12955" lon="6.07666">
        <ele>43.4</ele>
        <time>2012-05-27T08:33:43Z</time>
      </trkpt>
      <trkpt lat="43.12961" lon="6.07666">
        <ele>42.92</ele>
        <time>2012-05-27T08:33:44Z</time>
      </trkpt>
      <trkpt lat="43.12966" lon="6.07667">
        <ele>42.92</ele>
        <time>2012-05-27T08:33:45Z</time>
      </trkpt>
      <trkpt lat="43.12972" lon="6.0767">
        <ele>43.4</ele>
        <time>2012-05-27T08:33:46Z</time>
      </trkpt>
      <trkpt lat="43.13069" lon="6.07716">
        <ele>43.4</ele>
        <time>2012-05-27T08:34:00Z</time>
      </trkpt>
      <trkpt lat="43.13218" lon="6.07788">
        <ele>45.8</ele>
        <time>2012-05-27T08:34:20Z</time>
      </trkpt>
      <trkpt lat="43.13259" lon="6.078">
        <ele>46.76</ele>
        <time>2012-05-27T08:34:25Z</time>
      </trkpt>
      <trkpt lat="43.13267" lon="6.078">
        <ele>46.76</ele>
        <time>2012-05-27T08:34:26Z</time>
      </trkpt>
      <trkpt lat="43.13276" lon="6.078">
        <ele>47.24</ele>
        <time>2012-05-27T08:34:27Z</time>
      </trkpt>
      <trkpt lat="43.13284" lon="6.07798">
        <ele>47.72</ele>
        <time>2012-05-27T08:34:28Z</time>
      </trkpt>
      <trkpt lat="43.13291" lon="6.07795">
        <ele>47.72</ele>
        <time>2012-05-27T08:34:29Z</time>
      </trkpt>
      <trkpt lat="43.13299" lon="6.07792">
        <ele>47.72</ele>
        <time>2012-05-27T08:34:30Z</time>
      </trkpt>
      <trkpt lat="43.13305" lon="6.07787">
        <ele>47.72</ele>
        <time>2012-05-27T08:34:31Z</time>
      </trkpt>
      <trkpt lat="43.13312" lon="6.07782">
        <ele>48.2</ele>
        <time>2012-05-27T08:34:32Z</time>
      </trkpt>
      <trkpt lat="43.13318" lon="6.07776">
        <ele>48.2</ele>
        <time>2012-05-27T08:34:33Z</time>
      </trkpt>
      <trkpt lat="43.13324" lon="6.0777">
        <ele>48.68</ele>
        <time>2012-05-27T08:34:34Z</time>
      </trkpt>
      <trkpt lat="43.13329" lon="6.07763">
        <ele>48.68</ele>
        <time>2012-05-27T08:34:35Z</time>
      </trkpt>
      <trkpt lat="43.13334" lon="6.07755">
        <ele>49.16</ele>
        <time>2012-05-27T08:34:36Z</time>
      </trkpt>
      <trkpt lat="43.13389" lon="6.07655">
        <ele>50.61</ele>
        <time>2012-05-27T08:34:48Z</time>
      </trkpt>
      <trkpt lat="43.13396" lon="6.07649">
        <ele>51.09</ele>
        <time>2012-05-27T08:34:49Z</time>
      </trkpt>
      <trkpt lat="43.13402" lon="6.07645">
        <ele>51.09</ele>
        <time>2012-05-27T08:34:50Z</time>
      </trkpt>
      <trkpt lat="43.13409" lon="6.07641">
        <ele>51.57</ele>
        <time>2012-05-27T08:34:51Z</time>
      </trkpt>
      <trkpt lat="43.13416" lon="6.07638">
        <ele>51.57</ele>
        <time>2012-05-27T08:34:52Z</time>
      </trkpt>
      <trkpt lat="43.13431" lon="6.07634">
        <ele>52.05</ele>
        <time>2012-05-27T08:34:54Z</time>
      </trkpt>
      <trkpt lat="43.13438" lon="6.07634">
        <ele>51.57</ele>
        <time>2012-05-27T08:34:55Z</time>
      </trkpt>
      <trkpt lat="43.13446" lon="6.07635">
        <ele>51.57</ele>
        <time>2012-05-27T08:34:56Z</time>
      </trkpt>
      <trkpt lat="43.13453" lon="6.07636">
        <ele>52.05</ele>
        <time>2012-05-27T08:34:57Z</time>
      </trkpt>
      <trkpt lat="43.13461" lon="6.07638">
        <ele>52.05</ele>
        <time>2012-05-27T08:34:58Z</time>
      </trkpt>
      <trkpt lat="43.13558" lon="6.07692">
        <ele>53.01</ele>
        <time>2012-05-27T08:35:11Z</time>
      </trkpt>
      <trkpt lat="43.13635" lon="6.07784">
        <ele>53.01</ele>
        <time>2012-05-27T08:35:24Z</time>
      </trkpt>
      <trkpt lat="43.13641" lon="6.07792">
        <ele>53.01</ele>
        <time>2012-05-27T08:35:25Z</time>
      </trkpt>
      <trkpt lat="43.13654" lon="6.07818">
        <ele>53.01</ele>
        <time>2012-05-27T08:35:28Z</time>
      </trkpt>
      <trkpt lat="43.13657" lon="6.07827">
        <ele>53.49</ele>
        <time>2012-05-27T08:35:29Z</time>
      </trkpt>
      <trkpt lat="43.1366" lon="6.07836">
        <ele>53.97</ele>
        <time>2012-05-27T08:35:30Z</time>
      </trkpt>
      <trkpt lat="43.13661" lon="6.07845">
        <ele>53.97</ele>
        <time>2012-05-27T08:35:31Z</time>
      </trkpt>
      <trkpt lat="43.13662" lon="6.07853">
        <ele>54.45</ele>
        <time>2012-05-27T08:35:32Z</time>
      </trkpt>
      <trkpt lat="43.13663" lon="6.07861">
        <ele>54.45</ele>
        <time>2012-05-27T08:35:33Z</time>
      </trkpt>
      <trkpt lat="43.13663" lon="6.07869">
        <ele>54.93</ele>
        <time>2012-05-27T08:35:34Z</time>
      </trkpt>
      <trkpt lat="43.13663" lon="6.07919">
        <ele>56.37</ele>
        <time>2012-05-27T08:35:41Z</time>
      </trkpt>
      <trkpt lat="43.13661" lon="6.07932">
        <ele>57.34</ele>
        <time>2012-05-27T08:35:43Z</time>
      </trkpt>
      <trkpt lat="43.13658" lon="6.07953">
        <ele>58.78</ele>
        <time>2012-05-27T08:35:49Z</time>
      </trkpt>
      <trkpt lat="43.13659" lon="6.07955">
        <ele>58.78</ele>
        <time>2012-05-27T08:35:50Z</time>
      </trkpt>
      <trkpt lat="43.13659" lon="6.07956">
        <ele>59.26</ele>
        <time>2012-05-27T08:35:51Z</time>
      </trkpt>
      <trkpt lat="43.1366" lon="6.07958">
        <ele>59.26</ele>
        <time>2012-05-27T08:35:52Z</time>
      </trkpt>
      <trkpt lat="43.1366" lon="6.07959">
        <ele>59.26</ele>
        <time>2012-05-27T08:35:53Z</time>
      </trkpt>
      <trkpt lat="43.13661" lon="6.07961">
        <ele>59.26</ele>
        <time>2012-05-27T08:35:54Z</time>
      </trkpt>
      <trkpt lat="43.13663" lon="6.07963">
        <ele>58.78</ele>
        <time>2012-05-27T08:35:55Z</time>
      </trkpt>
      <trkpt lat="43.13665" lon="6.07964">
        <ele>59.26</ele>
        <time>2012-05-27T08:35:56Z</time>
      </trkpt>
      <trkpt lat="43.13668" lon="6.07965">
        <ele>59.26</ele>
        <time>2012-05-27T08:35:57Z</time>
      </trkpt>
      <trkpt lat="43.13672" lon="6.07965">
        <ele>58.3</ele>
        <time>2012-05-27T08:35:58Z</time>
      </trkpt>
      <trkpt lat="43.13675" lon="6.07965">
        <ele>58.78</ele>
        <time>2012-05-27T08:35:59Z</time>
      </trkpt>
      <trkpt lat="43.13679" lon="6.07965">
        <ele>58.3</ele>
        <time>2012-05-27T08:36:00Z</time>
      </trkpt>
      <trkpt lat="43.13683" lon="6.07964">
        <ele>58.3</ele>
        <time>2012-05-27T08:36:01Z</time>
      </trkpt>
      <trkpt lat="43.13688" lon="6.07964">
        <ele>58.3</ele>
        <time>2012-05-27T08:36:02Z</time>
      </trkpt>
      <trkpt lat="43.13705" lon="6.07964">
        <ele>56.86</ele>
        <time>2012-05-27T08:36:05Z</time>
      </trkpt>
      <trkpt lat="43.13777" lon="6.07966">
        <ele>53.49</ele>
        <time>2012-05-27T08:36:15Z</time>
      </trkpt>
      <trkpt lat="43.13848" lon="6.07969">
        <ele>50.61</ele>
        <time>2012-05-27T08:36:23Z</time>
      </trkpt>
      <trkpt lat="43.13858" lon="6.07971">
        <ele>50.13</ele>
        <time>2012-05-27T08:36:24Z</time>
      </trkpt>
      <trkpt lat="43.13989" lon="6.08028">
        <ele>47.72</ele>
        <time>2012-05-27T08:36:39Z</time>
      </trkpt>
      <trkpt lat="43.14055" lon="6.08053">
        <ele>46.76</ele>
        <time>2012-05-27T08:36:47Z</time>
      </trkpt>
      <trkpt lat="43.14064" lon="6.08053">
        <ele>46.28</ele>
        <time>2012-05-27T08:36:48Z</time>
      </trkpt>
      <trkpt lat="43.14072" lon="6.08053">
        <ele>46.28</ele>
        <time>2012-05-27T08:36:49Z</time>
      </trkpt>
      <trkpt lat="43.14081" lon="6.08052">
        <ele>45.8</ele>
        <time>2012-05-27T08:36:50Z</time>
      </trkpt>
      <trkpt lat="43.14089" lon="6.08049">
        <ele>45.8</ele>
        <time>2012-05-27T08:36:51Z</time>
      </trkpt>
      <trkpt lat="43.14097" lon="6.08046">
        <ele>46.28</ele>
        <time>2012-05-27T08:36:52Z</time>
      </trkpt>
      <trkpt lat="43.14214" lon="6.07999">
        <ele>42.92</ele>
        <time>2012-05-27T08:37:05Z</time>
      </trkpt>
      <trkpt lat="43.14367" lon="6.07953">
        <ele>41.47</ele>
        <time>2012-05-27T08:37:22Z</time>
      </trkpt>
      <trkpt lat="43.14382" lon="6.07951">
        <ele>40.99</ele>
        <time>2012-05-27T08:37:24Z</time>
      </trkpt>
      <trkpt lat="43.1439" lon="6.07953">
        <ele>41.47</ele>
        <time>2012-05-27T08:37:25Z</time>
      </trkpt>
      <trkpt lat="43.14396" lon="6.07957">
        <ele>40.99</ele>
        <time>2012-05-27T08:37:26Z</time>
      </trkpt>
      <trkpt lat="43.14403" lon="6.07963">
        <ele>40.99</ele>
        <time>2012-05-27T08:37:27Z</time>
      </trkpt>
      <trkpt lat="43.14409" lon="6.07967">
        <ele>41.47</ele>
        <time>2012-05-27T08:37:28Z</time>
      </trkpt>
      <trkpt lat="43.14416" lon="6.0797">
        <ele>40.99</ele>
        <time>2012-05-27T08:37:29Z</time>
      </trkpt>
      <trkpt lat="43.14424" lon="6.07969">
        <ele>41.47</ele>
        <time>2012-05-27T08:37:30Z</time>
      </trkpt>
      <trkpt lat="43.14431" lon="6.07966">
        <ele>40.99</ele>
        <time>2012-05-27T08:37:31Z</time>
      </trkpt>
      <trkpt lat="43.14436" lon="6.0796">
        <ele>40.99</ele>
        <time>2012-05-27T08:37:32Z</time>
      </trkpt>
      <trkpt lat="43.14441" lon="6.07952">
        <ele>40.99</ele>
        <time>2012-05-27T08:37:33Z</time>
      </trkpt>
      <trkpt lat="43.14445" lon="6.07944">
        <ele>40.99</ele>
        <time>2012-05-27T08:37:34Z</time>
      </trkpt>
      <trkpt lat="43.14448" lon="6.07935">
        <ele>40.51</ele>
        <time>2012-05-27T08:37:35Z</time>
      </trkpt>
      <trkpt lat="43.14452" lon="6.07927">
        <ele>40.99</ele>
        <time>2012-05-27T08:37:36Z</time>
      </trkpt>
      <trkpt lat="43.14457" lon="6.07919">
        <ele>40.99</ele>
        <time>2012-05-27T08:37:37Z</time>
      </trkpt>
      <trkpt lat="43.14463" lon="6.07913">
        <ele>40.51</ele>
        <time>2012-05-27T08:37:38Z</time>
      </trkpt>
      <trkpt lat="43.1447" lon="6.07909">
        <ele>40.51</ele>
        <time>2012-05-27T08:37:39Z</time>
      </trkpt>
      <trkpt lat="43.14477" lon="6.07904">
        <ele>40.99</ele>
        <time>2012-05-27T08:37:40Z</time>
      </trkpt>
      <trkpt lat="43.1457" lon="6.07847">
        <ele>40.51</ele>
        <time>2012-05-27T08:37:54Z</time>
      </trkpt>
      <trkpt lat="43.14606" lon="6.07823">
        <ele>40.99</ele>
        <time>2012-05-27T08:38:00Z</time>
      </trkpt>
      <trkpt lat="43.14612" lon="6.07821">
        <ele>41.47</ele>
        <time>2012-05-27T08:38:01Z</time>
      </trkpt>
      <trkpt lat="43.14618" lon="6.07821">
        <ele>40.99</ele>
        <time>2012-05-27T08:38:02Z</time>
      </trkpt>
      <trkpt lat="43.14624" lon="6.0782">
        <ele>40.51</ele>
        <time>2012-05-27T08:38:03Z</time>
      </trkpt>
      <trkpt lat="43.14629" lon="6.07817">
        <ele>40.99</ele>
        <time>2012-05-27T08:38:04Z</time>
      </trkpt>
      <trkpt lat="43.14632" lon="6.0781">
        <ele>40.99</ele>
        <time>2012-05-27T08:38:05Z</time>
      </trkpt>
      <trkpt lat="43.14634" lon="6.07802">
        <ele>40.99</ele>
        <time>2012-05-27T08:38:06Z</time>
      </trkpt>
      <trkpt lat="43.14636" lon="6.07794">
        <ele>40.99</ele>
        <time>2012-05-27T08:38:07Z</time>
      </trkpt>
      <trkpt lat="43.1464" lon="6.07787">
        <ele>40.51</ele>
        <time>2012-05-27T08:38:08Z</time>
      </trkpt>
      <trkpt lat="43.14644" lon="6.0778">
        <ele>40.51</ele>
        <time>2012-05-27T08:38:09Z</time>
      </trkpt>
      <trkpt lat="43.14652" lon="6.07764">
        <ele>40.51</ele>
        <time>2012-05-27T08:38:11Z</time>
      </trkpt>
      <trkpt lat="43.14699" lon="6.07688">
        <ele>41.47</ele>
        <time>2012-05-27T08:38:21Z</time>
      </trkpt>
      <trkpt lat="43.14771" lon="6.07585">
        <ele>41.95</ele>
        <time>2012-05-27T08:38:36Z</time>
      </trkpt>
      <trkpt lat="43.14846" lon="6.07506">
        <ele>42.92</ele>
        <time>2012-05-27T08:38:50Z</time>
      </trkpt>
      <trkpt lat="43.14909" lon="6.0744">
        <ele>43.88</ele>
        <time>2012-05-27T08:39:04Z</time>
      </trkpt>
      <trkpt lat="43.14913" lon="6.07436">
        <ele>43.88</ele>
        <time>2012-05-27T08:39:05Z</time>
      </trkpt>
      <trkpt lat="43.14918" lon="6.07432">
        <ele>43.88</ele>
        <time>2012-05-27T08:39:06Z</time>
      </trkpt>
      <trkpt lat="43.14926" lon="6.07426">
        <ele>43.88</ele>
        <time>2012-05-27T08:39:08Z</time>
      </trkpt>
      <trkpt lat="43.14947" lon="6.07411">
        <ele>44.36</ele>
        <time>2012-05-27T08:39:19Z</time>
      </trkpt>
      <trkpt lat="43.14957" lon="6.07403">
        <ele>44.36</ele>
        <time>2012-05-27T08:39:35Z</time>
      </trkpt>
      <trkpt lat="43.14974" lon="6.07387">
        <ele>44.36</ele>
        <time>2012-05-27T08:39:40Z</time>
      </trkpt>
      <trkpt lat="43.14984" lon="6.07381">
        <ele>44.36</ele>
        <time>2012-05-27T08:39:42Z</time>
      </trkpt>
      <trkpt lat="43.1499" lon="6.07378">
        <ele>44.36</ele>
        <time>2012-05-27T08:39:43Z</time>
      </trkpt>
      <trkpt lat="43.14995" lon="6.07374">
        <ele>44.36</ele>
        <time>2012-05-27T08:39:44Z</time>
      </trkpt>
      <trkpt lat="43.15074" lon="6.07326">
        <ele>44.84</ele>
        <time>2012-05-27T08:39:59Z</time>
      </trkpt>
      <trkpt lat="43.15123" lon="6.07309">
        <ele>45.32</ele>
        <time>2012-05-27T08:40:08Z</time>
      </trkpt>
      <trkpt lat="43.15129" lon="6.07305">
        <ele>45.8</ele>
        <time>2012-05-27T08:40:09Z</time>
      </trkpt>
      <trkpt lat="43.15134" lon="6.07302">
        <ele>45.32</ele>
        <time>2012-05-27T08:40:10Z</time>
      </trkpt>
      <trkpt lat="43.1514" lon="6.07299">
        <ele>45.8</ele>
        <time>2012-05-27T08:40:11Z</time>
      </trkpt>
      <trkpt lat="43.15146" lon="6.07297">
        <ele>45.8</ele>
        <time>2012-05-27T08:40:12Z</time>
      </trkpt>
      <trkpt lat="43.15153" lon="6.07295">
        <ele>45.8</ele>
        <time>2012-05-27T08:40:13Z</time>
      </trkpt>
      <trkpt lat="43.15159" lon="6.07293">
        <ele>45.8</ele>
        <time>2012-05-27T08:40:14Z</time>
      </trkpt>
      <trkpt lat="43.15165" lon="6.07291">
        <ele>45.8</ele>
        <time>2012-05-27T08:40:15Z</time>
      </trkpt>
      <trkpt lat="43.15233" lon="6.0725">
        <ele>45.8</ele>
        <time>2012-05-27T08:40:27Z</time>
      </trkpt>
      <trkpt lat="43.15239" lon="6.07247">
        <ele>45.8</ele>
        <time>2012-05-27T08:40:28Z</time>
      </trkpt>
      <trkpt lat="43.15244" lon="6.07244">
        <ele>45.8</ele>
        <time>2012-05-27T08:40:29Z</time>
      </trkpt>
      <trkpt lat="43.15249" lon="6.0724">
        <ele>46.28</ele>
        <time>2012-05-27T08:40:30Z</time>
      </trkpt>
      <trkpt lat="43.15254" lon="6.07234">
        <ele>46.28</ele>
        <time>2012-05-27T08:40:31Z</time>
      </trkpt>
      <trkpt lat="43.15259" lon="6.07228">
        <ele>46.28</ele>
        <time>2012-05-27T08:40:32Z</time>
      </trkpt>
      <trkpt lat="43.15338" lon="6.07131">
        <ele>47.24</ele>
        <time>2012-05-27T08:40:47Z</time>
      </trkpt>
      <trkpt lat="43.15359" lon="6.07107">
        <ele>47.72</ele>
        <time>2012-05-27T08:40:51Z</time>
      </trkpt>
      <trkpt lat="43.15387" lon="6.07084">
        <ele>47.72</ele>
        <time>2012-05-27T08:40:56Z</time>
      </trkpt>
      <trkpt lat="43.15399" lon="6.07078">
        <ele>47.72</ele>
        <time>2012-05-27T08:40:58Z</time>
      </trkpt>
      <trkpt lat="43.15405" lon="6.07072">
        <ele>47.72</ele>
        <time>2012-05-27T08:40:59Z</time>
      </trkpt>
      <trkpt lat="43.15409" lon="6.07065">
        <ele>47.72</ele>
        <time>2012-05-27T08:41:00Z</time>
      </trkpt>
      <trkpt lat="43.15413" lon="6.07057">
        <ele>47.72</ele>
        <time>2012-05-27T08:41:01Z</time>
      </trkpt>
      <trkpt lat="43.15416" lon="6.07048">
        <ele>48.2</ele>
        <time>2012-05-27T08:41:02Z</time>
      </trkpt>
      <trkpt lat="43.1542" lon="6.0704">
        <ele>47.72</ele>
        <time>2012-05-27T08:41:03Z</time>
      </trkpt>
      <trkpt lat="43.15425" lon="6.07034">
        <ele>47.72</ele>
        <time>2012-05-27T08:41:04Z</time>
      </trkpt>
      <trkpt lat="43.15457" lon="6.07003">
        <ele>48.68</ele>
        <time>2012-05-27T08:41:10Z</time>
      </trkpt>
      <trkpt lat="43.15462" lon="6.07">
        <ele>49.16</ele>
        <time>2012-05-27T08:41:11Z</time>
      </trkpt>
      <trkpt lat="43.15468" lon="6.06998">
        <ele>49.16</ele>
        <time>2012-05-27T08:41:12Z</time>
      </trkpt>
      <trkpt lat="43.15474" lon="6.06998">
        <ele>49.16</ele>
        <time>2012-05-27T08:41:13Z</time>
      </trkpt>
      <trkpt lat="43.15479" lon="6.07">
        <ele>49.65</ele>
        <time>2012-05-27T08:41:14Z</time>
      </trkpt>
      <trkpt lat="43.15484" lon="6.07003">
        <ele>48.68</ele>
        <time>2012-05-27T08:41:15Z</time>
      </trkpt>
      <trkpt lat="43.1549" lon="6.07003">
        <ele>49.16</ele>
        <time>2012-05-27T08:41:16Z</time>
      </trkpt>
      <trkpt lat="43.15496" lon="6.07002">
        <ele>49.16</ele>
        <time>2012-05-27T08:41:17Z</time>
      </trkpt>
      <trkpt lat="43.15501" lon="6.06997">
        <ele>49.16</ele>
        <time>2012-05-27T08:41:18Z</time>
      </trkpt>
      <trkpt lat="43.15505" lon="6.0699">
        <ele>48.68</ele>
        <time>2012-05-27T08:41:19Z</time>
      </trkpt>
      <trkpt lat="43.15506" lon="6.06981">
        <ele>48.68</ele>
        <time>2012-05-27T08:41:20Z</time>
      </trkpt>
      <trkpt lat="43.15507" lon="6.06971">
        <ele>49.16</ele>
        <time>2012-05-27T08:41:21Z</time>
      </trkpt>
      <trkpt lat="43.15507" lon="6.06962">
        <ele>48.68</ele>
        <time>2012-05-27T08:41:22Z</time>
      </trkpt>
      <trkpt lat="43.15509" lon="6.06953">
        <ele>49.16</ele>
        <time>2012-05-27T08:41:23Z</time>
      </trkpt>
      <trkpt lat="43.15511" lon="6.06943">
        <ele>49.16</ele>
        <time>2012-05-27T08:41:24Z</time>
      </trkpt>
      <trkpt lat="43.15514" lon="6.06935">
        <ele>48.68</ele>
        <time>2012-05-27T08:41:25Z</time>
      </trkpt>
      <trkpt lat="43.15518" lon="6.06926">
        <ele>49.16</ele>
        <time>2012-05-27T08:41:26Z</time>
      </trkpt>
      <trkpt lat="43.15523" lon="6.06918">
        <ele>49.16</ele>
        <time>2012-05-27T08:41:27Z</time>
      </trkpt>
      <trkpt lat="43.15528" lon="6.0691">
        <ele>49.16</ele>
        <time>2012-05-27T08:41:28Z</time>
      </trkpt>
      <trkpt lat="43.15534" lon="6.06903">
        <ele>49.16</ele>
        <time>2012-05-27T08:41:29Z</time>
      </trkpt>
      <trkpt lat="43.15539" lon="6.06896">
        <ele>49.16</ele>
        <time>2012-05-27T08:41:30Z</time>
      </trkpt>
      <trkpt lat="43.15653" lon="6.06771">
        <ele>49.65</ele>
        <time>2012-05-27T08:41:48Z</time>
      </trkpt>
      <trkpt lat="43.15741" lon="6.06664">
        <ele>50.61</ele>
        <time>2012-05-27T08:42:03Z</time>
      </trkpt>
      <trkpt lat="43.15838" lon="6.06541">
        <ele>52.53</ele>
        <time>2012-05-27T08:42:21Z</time>
      </trkpt>
      <trkpt lat="43.15933" lon="6.06391">
        <ele>53.01</ele>
        <time>2012-05-27T08:42:40Z</time>
      </trkpt>
      <trkpt lat="43.16018" lon="6.0622">
        <ele>54.45</ele>
        <time>2012-05-27T08:42:59Z</time>
      </trkpt>
      <trkpt lat="43.16101" lon="6.06045">
        <ele>54.93</ele>
        <time>2012-05-27T08:43:19Z</time>
      </trkpt>
      <trkpt lat="43.16108" lon="6.06032">
        <ele>54.45</ele>
        <time>2012-05-27T08:43:21Z</time>
      </trkpt>
      <trkpt lat="43.16112" lon="6.06026">
        <ele>54.93</ele>
        <time>2012-05-27T08:43:22Z</time>
      </trkpt>
      <trkpt lat="43.16116" lon="6.06021">
        <ele>54.93</ele>
        <time>2012-05-27T08:43:23Z</time>
      </trkpt>
      <trkpt lat="43.16119" lon="6.06014">
        <ele>55.41</ele>
        <time>2012-05-27T08:43:24Z</time>
      </trkpt>
      <trkpt lat="43.1612" lon="6.06008">
        <ele>54.93</ele>
        <time>2012-05-27T08:43:25Z</time>
      </trkpt>
      <trkpt lat="43.16121" lon="6.06001">
        <ele>55.41</ele>
        <time>2012-05-27T08:43:26Z</time>
      </trkpt>
      <trkpt lat="43.1612" lon="6.05996">
        <ele>55.41</ele>
        <time>2012-05-27T08:43:27Z</time>
      </trkpt>
      <trkpt lat="43.16118" lon="6.05991">
        <ele>54.93</ele>
        <time>2012-05-27T08:43:28Z</time>
      </trkpt>
      <trkpt lat="43.16116" lon="6.05986">
        <ele>55.41</ele>
        <time>2012-05-27T08:43:29Z</time>
      </trkpt>
      <trkpt lat="43.16115" lon="6.0598">
        <ele>54.93</ele>
        <time>2012-05-27T08:43:30Z</time>
      </trkpt>
      <trkpt lat="43.16094" lon="6.05892">
        <ele>55.41</ele>
        <time>2012-05-27T08:43:40Z</time>
      </trkpt>
      <trkpt lat="43.16045" lon="6.05706">
        <ele>55.41</ele>
        <time>2012-05-27T08:43:58Z</time>
      </trkpt>
      <trkpt lat="43.15998" lon="6.0553">
        <ele>54.93</ele>
        <time>2012-05-27T08:44:14Z</time>
      </trkpt>
      <trkpt lat="43.15967" lon="6.05416">
        <ele>53.97</ele>
        <time>2012-05-27T08:44:24Z</time>
      </trkpt>
      <trkpt lat="43.15939" lon="6.05308">
        <ele>54.93</ele>
        <time>2012-05-27T08:44:35Z</time>
      </trkpt>
      <trkpt lat="43.15899" lon="6.05159">
        <ele>57.82</ele>
        <time>2012-05-27T08:44:51Z</time>
      </trkpt>
      <trkpt lat="43.15874" lon="6.05055">
        <ele>59.74</ele>
        <time>2012-05-27T08:45:04Z</time>
      </trkpt>
      <trkpt lat="43.15874" lon="6.05047">
        <ele>59.74</ele>
        <time>2012-05-27T08:45:05Z</time>
      </trkpt>
      <trkpt lat="43.15874" lon="6.05038">
        <ele>59.74</ele>
        <time>2012-05-27T08:45:06Z</time>
      </trkpt>
      <trkpt lat="43.15873" lon="6.05029">
        <ele>59.74</ele>
        <time>2012-05-27T08:45:07Z</time>
      </trkpt>
      <trkpt lat="43.15872" lon="6.05021">
        <ele>60.22</ele>
        <time>2012-05-27T08:45:08Z</time>
      </trkpt>
      <trkpt lat="43.1587" lon="6.05013">
        <ele>59.74</ele>
        <time>2012-05-27T08:45:09Z</time>
      </trkpt>
      <trkpt lat="43.15867" lon="6.05005">
        <ele>59.74</ele>
        <time>2012-05-27T08:45:10Z</time>
      </trkpt>
      <trkpt lat="43.15862" lon="6.04998">
        <ele>59.74</ele>
        <time>2012-05-27T08:45:11Z</time>
      </trkpt>
      <trkpt lat="43.15858" lon="6.0499">
        <ele>60.22</ele>
        <time>2012-05-27T08:45:12Z</time>
      </trkpt>
      <trkpt lat="43.15855" lon="6.04982">
        <ele>60.7</ele>
        <time>2012-05-27T08:45:13Z</time>
      </trkpt>
      <trkpt lat="43.15853" lon="6.04973">
        <ele>60.7</ele>
        <time>2012-05-27T08:45:14Z</time>
      </trkpt>
      <trkpt lat="43.15821" lon="6.04857">
        <ele>63.58</ele>
        <time>2012-05-27T08:45:29Z</time>
      </trkpt>
      <trkpt lat="43.15794" lon="6.04752">
        <ele>66.95</ele>
        <time>2012-05-27T08:45:43Z</time>
      </trkpt>
      <trkpt lat="43.1579" lon="6.04706">
        <ele>67.91</ele>
        <time>2012-05-27T08:45:49Z</time>
      </trkpt>
      <trkpt lat="43.1579" lon="6.04698">
        <ele>67.91</ele>
        <time>2012-05-27T08:45:50Z</time>
      </trkpt>
      <trkpt lat="43.1579" lon="6.04671">
        <ele>69.35</ele>
        <time>2012-05-27T08:45:53Z</time>
      </trkpt>
      <trkpt lat="43.15791" lon="6.04662">
        <ele>69.35</ele>
        <time>2012-05-27T08:45:54Z</time>
      </trkpt>
      <trkpt lat="43.15792" lon="6.04654">
        <ele>69.35</ele>
        <time>2012-05-27T08:45:55Z</time>
      </trkpt>
      <trkpt lat="43.15795" lon="6.04645">
        <ele>69.83</ele>
        <time>2012-05-27T08:45:56Z</time>
      </trkpt>
      <trkpt lat="43.15797" lon="6.04637">
        <ele>69.83</ele>
        <time>2012-05-27T08:45:57Z</time>
      </trkpt>
      <trkpt lat="43.15842" lon="6.04515">
        <ele>70.79</ele>
        <time>2012-05-27T08:46:13Z</time>
      </trkpt>
      <trkpt lat="43.15846" lon="6.045">
        <ele>70.31</ele>
        <time>2012-05-27T08:46:15Z</time>
      </trkpt>
      <trkpt lat="43.15849" lon="6.04492">
        <ele>70.31</ele>
        <time>2012-05-27T08:46:16Z</time>
      </trkpt>
      <trkpt lat="43.15912" lon="6.04368">
        <ele>69.83</ele>
        <time>2012-05-27T08:46:31Z</time>
      </trkpt>
      <trkpt lat="43.15972" lon="6.04236">
        <ele>73.2</ele>
        <time>2012-05-27T08:46:48Z</time>
      </trkpt>
      <trkpt lat="43.15992" lon="6.04188">
        <ele>74.64</ele>
        <time>2012-05-27T08:46:55Z</time>
      </trkpt>
      <trkpt lat="43.16005" lon="6.04171">
        <ele>74.16</ele>
        <time>2012-05-27T08:46:58Z</time>
      </trkpt>
      <trkpt lat="43.16008" lon="6.04163">
        <ele>74.64</ele>
        <time>2012-05-27T08:46:59Z</time>
      </trkpt>
      <trkpt lat="43.16009" lon="6.04155">
        <ele>74.64</ele>
        <time>2012-05-27T08:47:00Z</time>
      </trkpt>
      <trkpt lat="43.16008" lon="6.04146">
        <ele>74.64</ele>
        <time>2012-05-27T08:47:01Z</time>
      </trkpt>
      <trkpt lat="43.16006" lon="6.04138">
        <ele>74.16</ele>
        <time>2012-05-27T08:47:02Z</time>
      </trkpt>
      <trkpt lat="43.16001" lon="6.04132">
        <ele>74.64</ele>
        <time>2012-05-27T08:47:03Z</time>
      </trkpt>
      <trkpt lat="43.15994" lon="6.04129">
        <ele>74.16</ele>
        <time>2012-05-27T08:47:04Z</time>
      </trkpt>
      <trkpt lat="43.15988" lon="6.04127">
        <ele>74.16</ele>
        <time>2012-05-27T08:47:05Z</time>
      </trkpt>
      <trkpt lat="43.15981" lon="6.04127">
        <ele>74.16</ele>
        <time>2012-05-27T08:47:06Z</time>
      </trkpt>
      <trkpt lat="43.15974" lon="6.04128">
        <ele>73.68</ele>
        <time>2012-05-27T08:47:07Z</time>
      </trkpt>
      <trkpt lat="43.15959" lon="6.04128">
        <ele>73.2</ele>
        <time>2012-05-27T08:47:09Z</time>
      </trkpt>
      <trkpt lat="43.15951" lon="6.04127">
        <ele>73.2</ele>
        <time>2012-05-27T08:47:10Z</time>
      </trkpt>
      <trkpt lat="43.15944" lon="6.04124">
        <ele>73.68</ele>
        <time>2012-05-27T08:47:11Z</time>
      </trkpt>
      <trkpt lat="43.15832" lon="6.04066">
        <ele>72.24</ele>
        <time>2012-05-27T08:47:27Z</time>
      </trkpt>
      <trkpt lat="43.15666" lon="6.0398">
        <ele>70.79</ele>
        <time>2012-05-27T08:47:48Z</time>
      </trkpt>
      <trkpt lat="43.15549" lon="6.03914">
        <ele>69.83</ele>
        <time>2012-05-27T08:48:02Z</time>
      </trkpt>
      <trkpt lat="43.15431" lon="6.03798">
        <ele>68.39</ele>
        <time>2012-05-27T08:48:17Z</time>
      </trkpt>
      <trkpt lat="43.15345" lon="6.03692">
        <ele>65.51</ele>
        <time>2012-05-27T08:48:29Z</time>
      </trkpt>
      <trkpt lat="43.15234" lon="6.03559">
        <ele>62.62</ele>
        <time>2012-05-27T08:48:44Z</time>
      </trkpt>
      <trkpt lat="43.15128" lon="6.03431">
        <ele>59.26</ele>
        <time>2012-05-27T08:48:59Z</time>
      </trkpt>
      <trkpt lat="43.14999" lon="6.03277">
        <ele>55.89</ele>
        <time>2012-05-27T08:49:17Z</time>
      </trkpt>
      <trkpt lat="43.14884" lon="6.03139">
        <ele>53.49</ele>
        <time>2012-05-27T08:49:33Z</time>
      </trkpt>
      <trkpt lat="43.14768" lon="6.02999">
        <ele>50.13</ele>
        <time>2012-05-27T08:49:49Z</time>
      </trkpt>
      <trkpt lat="43.14656" lon="6.02856">
        <ele>47.72</ele>
        <time>2012-05-27T08:50:06Z</time>
      </trkpt>
      <trkpt lat="43.14592" lon="6.0271">
        <ele>48.68</ele>
        <time>2012-05-27T08:50:19Z</time>
      </trkpt>
      <trkpt lat="43.14522" lon="6.02524">
        <ele>50.13</ele>
        <time>2012-05-27T08:50:36Z</time>
      </trkpt>
      <trkpt lat="43.14471" lon="6.02384">
        <ele>51.09</ele>
        <time>2012-05-27T08:50:50Z</time>
      </trkpt>
      <trkpt lat="43.14426" lon="6.02263">
        <ele>53.01</ele>
        <time>2012-05-27T08:51:02Z</time>
      </trkpt>
      <trkpt lat="43.14423" lon="6.02252">
        <ele>53.01</ele>
        <time>2012-05-27T08:51:03Z</time>
      </trkpt>
      <trkpt lat="43.14399" lon="6.02096">
        <ele>53.97</ele>
        <time>2012-05-27T08:51:17Z</time>
      </trkpt>
      <trkpt lat="43.14391" lon="6.01915">
        <ele>53.49</ele>
        <time>2012-05-27T08:51:32Z</time>
      </trkpt>
      <trkpt lat="43.14385" lon="6.01711">
        <ele>53.97</ele>
        <time>2012-05-27T08:51:48Z</time>
      </trkpt>
      <trkpt lat="43.14372" lon="6.0148">
        <ele>54.93</ele>
        <time>2012-05-27T08:52:07Z</time>
      </trkpt>
      <trkpt lat="43.14365" lon="6.01313">
        <ele>57.82</ele>
        <time>2012-05-27T08:52:21Z</time>
      </trkpt>
      <trkpt lat="43.14359" lon="6.01191">
        <ele>62.14</ele>
        <time>2012-05-27T08:52:33Z</time>
      </trkpt>
      <trkpt lat="43.14358" lon="6.01182">
        <ele>62.14</ele>
        <time>2012-05-27T08:52:34Z</time>
      </trkpt>
      <trkpt lat="43.14357" lon="6.01154">
        <ele>62.62</ele>
        <time>2012-05-27T08:52:37Z</time>
      </trkpt>
      <trkpt lat="43.14338" lon="6.01048">
        <ele>65.03</ele>
        <time>2012-05-27T08:52:49Z</time>
      </trkpt>
      <trkpt lat="43.1432" lon="6.00949">
        <ele>67.91</ele>
        <time>2012-05-27T08:53:01Z</time>
      </trkpt>
      <trkpt lat="43.1428" lon="6.00799">
        <ele>68.87</ele>
        <time>2012-05-27T08:53:19Z</time>
      </trkpt>
      <trkpt lat="43.14242" lon="6.00656">
        <ele>67.43</ele>
        <time>2012-05-27T08:53:34Z</time>
      </trkpt>
      <trkpt lat="43.14188" lon="6.0046">
        <ele>65.51</ele>
        <time>2012-05-27T08:53:52Z</time>
      </trkpt>
      <trkpt lat="43.14146" lon="6.00296">
        <ele>62.62</ele>
        <time>2012-05-27T08:54:06Z</time>
      </trkpt>
      <trkpt lat="43.14144" lon="6.00283">
        <ele>62.14</ele>
        <time>2012-05-27T08:54:07Z</time>
      </trkpt>
      <trkpt lat="43.14144" lon="6.00271">
        <ele>62.14</ele>
        <time>2012-05-27T08:54:08Z</time>
      </trkpt>
      <trkpt lat="43.14147" lon="6.0026">
        <ele>62.14</ele>
        <time>2012-05-27T08:54:09Z</time>
      </trkpt>
      <trkpt lat="43.14151" lon="6.0025">
        <ele>62.14</ele>
        <time>2012-05-27T08:54:10Z</time>
      </trkpt>
      <trkpt lat="43.14156" lon="6.00241">
        <ele>62.62</ele>
        <time>2012-05-27T08:54:11Z</time>
      </trkpt>
      <trkpt lat="43.14162" lon="6.00233">
        <ele>62.62</ele>
        <time>2012-05-27T08:54:12Z</time>
      </trkpt>
      <trkpt lat="43.14168" lon="6.00227">
        <ele>63.1</ele>
        <time>2012-05-27T08:54:13Z</time>
      </trkpt>
      <trkpt lat="43.14173" lon="6.0022">
        <ele>63.58</ele>
        <time>2012-05-27T08:54:14Z</time>
      </trkpt>
      <trkpt lat="43.14177" lon="6.00212">
        <ele>64.07</ele>
        <time>2012-05-27T08:54:15Z</time>
      </trkpt>
      <trkpt lat="43.1418" lon="6.00205">
        <ele>64.07</ele>
        <time>2012-05-27T08:54:16Z</time>
      </trkpt>
      <trkpt lat="43.14183" lon="6.00197">
        <ele>64.55</ele>
        <time>2012-05-27T08:54:17Z</time>
      </trkpt>
      <trkpt lat="43.14185" lon="6.00188">
        <ele>64.55</ele>
        <time>2012-05-27T08:54:18Z</time>
      </trkpt>
      <trkpt lat="43.14187" lon="6.00179">
        <ele>64.55</ele>
        <time>2012-05-27T08:54:19Z</time>
      </trkpt>
      <trkpt lat="43.14203" lon="6.00101">
        <ele>64.07</ele>
        <time>2012-05-27T08:54:27Z</time>
      </trkpt>
      <trkpt lat="43.14204" lon="6.00091">
        <ele>64.07</ele>
        <time>2012-05-27T08:54:28Z</time>
      </trkpt>
      <trkpt lat="43.14204" lon="6.0008">
        <ele>64.55</ele>
        <time>2012-05-27T08:54:29Z</time>
      </trkpt>
      <trkpt lat="43.14201" lon="6.00058">
        <ele>63.58</ele>
        <time>2012-05-27T08:54:31Z</time>
      </trkpt>
      <trkpt lat="43.14202" lon="6.00046">
        <ele>63.58</ele>
        <time>2012-05-27T08:54:32Z</time>
      </trkpt>
      <trkpt lat="43.14203" lon="6.00035">
        <ele>63.1</ele>
        <time>2012-05-27T08:54:33Z</time>
      </trkpt>
      <trkpt lat="43.14229" lon="5.99911">
        <ele>63.1</ele>
        <time>2012-05-27T08:54:44Z</time>
      </trkpt>
      <trkpt lat="43.14242" lon="5.99741">
        <ele>65.03</ele>
        <time>2012-05-27T08:55:00Z</time>
      </trkpt>
      <trkpt lat="43.14248" lon="5.99624">
        <ele>67.91</ele>
        <time>2012-05-27T08:55:23Z</time>
      </trkpt>
      <trkpt lat="43.14265" lon="5.99519">
        <ele>71.27</ele>
        <time>2012-05-27T08:55:36Z</time>
      </trkpt>
      <trkpt lat="43.14285" lon="5.99393">
        <ele>73.68</ele>
        <time>2012-05-27T08:55:52Z</time>
      </trkpt>
      <trkpt lat="43.14301" lon="5.99245">
        <ele>74.16</ele>
        <time>2012-05-27T08:56:09Z</time>
      </trkpt>
      <trkpt lat="43.1432" lon="5.99118">
        <ele>75.6</ele>
        <time>2012-05-27T08:56:24Z</time>
      </trkpt>
      <trkpt lat="43.14309" lon="5.98999">
        <ele>76.56</ele>
        <time>2012-05-27T08:56:38Z</time>
      </trkpt>
      <trkpt lat="43.14306" lon="5.9895">
        <ele>77.04</ele>
        <time>2012-05-27T08:56:44Z</time>
      </trkpt>
      <trkpt lat="43.14308" lon="5.98865">
        <ele>78.97</ele>
        <time>2012-05-27T08:56:57Z</time>
      </trkpt>
      <trkpt lat="43.14308" lon="5.98835">
        <ele>78.97</ele>
        <time>2012-05-27T08:57:08Z</time>
      </trkpt>
      <trkpt lat="43.14311" lon="5.98791">
        <ele>79.45</ele>
        <time>2012-05-27T08:57:18Z</time>
      </trkpt>
      <trkpt lat="43.14312" lon="5.98776">
        <ele>79.45</ele>
        <time>2012-05-27T08:57:20Z</time>
      </trkpt>
      <trkpt lat="43.14324" lon="5.98668">
        <ele>81.85</ele>
        <time>2012-05-27T08:57:36Z</time>
      </trkpt>
      <trkpt lat="43.14334" lon="5.98627">
        <ele>82.33</ele>
        <time>2012-05-27T08:57:42Z</time>
      </trkpt>
      <trkpt lat="43.14335" lon="5.98621">
        <ele>81.85</ele>
        <time>2012-05-27T08:57:43Z</time>
      </trkpt>
      <trkpt lat="43.14345" lon="5.98588">
        <ele>83.29</ele>
        <time>2012-05-27T08:57:48Z</time>
      </trkpt>
      <trkpt lat="43.14373" lon="5.98516">
        <ele>84.73</ele>
        <time>2012-05-27T08:57:59Z</time>
      </trkpt>
      <trkpt lat="43.14438" lon="5.9842">
        <ele>86.66</ele>
        <time>2012-05-27T08:58:17Z</time>
      </trkpt>
      <trkpt lat="43.14512" lon="5.98359">
        <ele>88.58</ele>
        <time>2012-05-27T08:58:34Z</time>
      </trkpt>
      <trkpt lat="43.14593" lon="5.98315">
        <ele>90.5</ele>
        <time>2012-05-27T08:58:50Z</time>
      </trkpt>
      <trkpt lat="43.1466" lon="5.98263">
        <ele>93.39</ele>
        <time>2012-05-27T08:59:05Z</time>
      </trkpt>
      <trkpt lat="43.14702" lon="5.98216">
        <ele>95.31</ele>
        <time>2012-05-27T08:59:16Z</time>
      </trkpt>
      <trkpt lat="43.14739" lon="5.98141">
        <ele>98.67</ele>
        <time>2012-05-27T08:59:29Z</time>
      </trkpt>
      <trkpt lat="43.1476" lon="5.98071">
        <ele>101.08</ele>
        <time>2012-05-27T08:59:41Z</time>
      </trkpt>
      <trkpt lat="43.14775" lon="5.97974">
        <ele>103.96</ele>
        <time>2012-05-27T08:59:56Z</time>
      </trkpt>
      <trkpt lat="43.14789" lon="5.97906">
        <ele>105.4</ele>
        <time>2012-05-27T09:00:07Z</time>
      </trkpt>
      <trkpt lat="43.14789" lon="5.979">
        <ele>104.92</ele>
        <time>2012-05-27T09:00:08Z</time>
      </trkpt>
      <trkpt lat="43.14789" lon="5.97893">
        <ele>105.4</ele>
        <time>2012-05-27T09:00:09Z</time>
      </trkpt>
      <trkpt lat="43.14788" lon="5.97887">
        <ele>105.88</ele>
        <time>2012-05-27T09:00:10Z</time>
      </trkpt>
      <trkpt lat="43.14786" lon="5.97881">
        <ele>105.88</ele>
        <time>2012-05-27T09:00:11Z</time>
      </trkpt>
      <trkpt lat="43.14784" lon="5.97875">
        <ele>105.88</ele>
        <time>2012-05-27T09:00:12Z</time>
      </trkpt>
      <trkpt lat="43.14783" lon="5.9787">
        <ele>106.36</ele>
        <time>2012-05-27T09:00:13Z</time>
      </trkpt>
      <trkpt lat="43.1478" lon="5.97865">
        <ele>106.84</ele>
        <time>2012-05-27T09:00:14Z</time>
      </trkpt>
      <trkpt lat="43.14778" lon="5.9786">
        <ele>107.32</ele>
        <time>2012-05-27T09:00:15Z</time>
      </trkpt>
      <trkpt lat="43.14776" lon="5.97855">
        <ele>107.32</ele>
        <time>2012-05-27T09:00:16Z</time>
      </trkpt>
      <trkpt lat="43.14774" lon="5.9785">
        <ele>107.32</ele>
        <time>2012-05-27T09:00:17Z</time>
      </trkpt>
      <trkpt lat="43.14773" lon="5.97845">
        <ele>108.29</ele>
        <time>2012-05-27T09:00:18Z</time>
      </trkpt>
      <trkpt lat="43.14772" lon="5.97839">
        <ele>108.29</ele>
        <time>2012-05-27T09:00:19Z</time>
      </trkpt>
      <trkpt lat="43.14772" lon="5.97832">
        <ele>108.77</ele>
        <time>2012-05-27T09:00:20Z</time>
      </trkpt>
      <trkpt lat="43.14773" lon="5.97812">
        <ele>109.25</ele>
        <time>2012-05-27T09:00:23Z</time>
      </trkpt>
      <trkpt lat="43.14774" lon="5.97806">
        <ele>109.25</ele>
        <time>2012-05-27T09:00:24Z</time>
      </trkpt>
      <trkpt lat="43.14776" lon="5.97799">
        <ele>109.25</ele>
        <time>2012-05-27T09:00:25Z</time>
      </trkpt>
      <trkpt lat="43.14814" lon="5.97687">
        <ele>113.09</ele>
        <time>2012-05-27T09:00:43Z</time>
      </trkpt>
      <trkpt lat="43.1483" lon="5.97642">
        <ele>116.46</ele>
        <time>2012-05-27T09:00:52Z</time>
      </trkpt>
      <trkpt lat="43.14848" lon="5.976">
        <ele>119.34</ele>
        <time>2012-05-27T09:01:01Z</time>
      </trkpt>
      <trkpt lat="43.14865" lon="5.9754">
        <ele>122.71</ele>
        <time>2012-05-27T09:01:14Z</time>
      </trkpt>
      <trkpt lat="43.14885" lon="5.97472">
        <ele>125.11</ele>
        <time>2012-05-27T09:01:29Z</time>
      </trkpt>
      <trkpt lat="43.14906" lon="5.97414">
        <ele>128.47</ele>
        <time>2012-05-27T09:01:42Z</time>
      </trkpt>
      <trkpt lat="43.14935" lon="5.97356">
        <ele>131.36</ele>
        <time>2012-05-27T09:01:57Z</time>
      </trkpt>
      <trkpt lat="43.1496" lon="5.97318">
        <ele>134.24</ele>
        <time>2012-05-27T09:02:09Z</time>
      </trkpt>
      <trkpt lat="43.14983" lon="5.9728">
        <ele>137.61</ele>
        <time>2012-05-27T09:02:22Z</time>
      </trkpt>
      <trkpt lat="43.14987" lon="5.97273">
        <ele>138.57</ele>
        <time>2012-05-27T09:02:24Z</time>
      </trkpt>
      <trkpt lat="43.15011" lon="5.97236">
        <ele>141.93</ele>
        <time>2012-05-27T09:02:36Z</time>
      </trkpt>
      <trkpt lat="43.15025" lon="5.972">
        <ele>144.82</ele>
        <time>2012-05-27T09:02:47Z</time>
      </trkpt>
      <trkpt lat="43.1505" lon="5.97133">
        <ele>148.18</ele>
        <time>2012-05-27T09:03:04Z</time>
      </trkpt>
      <trkpt lat="43.15082" lon="5.97053">
        <ele>150.1</ele>
        <time>2012-05-27T09:03:21Z</time>
      </trkpt>
      <trkpt lat="43.15114" lon="5.96968">
        <ele>152.99</ele>
        <time>2012-05-27T09:03:38Z</time>
      </trkpt>
      <trkpt lat="43.15152" lon="5.96895">
        <ele>155.87</ele>
        <time>2012-05-27T09:03:54Z</time>
      </trkpt>
      <trkpt lat="43.15207" lon="5.96811">
        <ele>156.83</ele>
        <time>2012-05-27T09:04:11Z</time>
      </trkpt>
      <trkpt lat="43.15244" lon="5.96715">
        <ele>159.72</ele>
        <time>2012-05-27T09:04:28Z</time>
      </trkpt>
      <trkpt lat="43.15248" lon="5.96687">
        <ele>160.68</ele>
        <time>2012-05-27T09:04:33Z</time>
      </trkpt>
      <trkpt lat="43.1525" lon="5.96672">
        <ele>162.6</ele>
        <time>2012-05-27T09:04:36Z</time>
      </trkpt>
      <trkpt lat="43.15257" lon="5.9663">
        <ele>165.48</ele>
        <time>2012-05-27T09:04:45Z</time>
      </trkpt>
      <trkpt lat="43.15262" lon="5.96606">
        <ele>166.93</ele>
        <time>2012-05-27T09:04:51Z</time>
      </trkpt>
      <trkpt lat="43.15262" lon="5.96602">
        <ele>167.41</ele>
        <time>2012-05-27T09:04:52Z</time>
      </trkpt>
      <trkpt lat="43.15262" lon="5.96598">
        <ele>167.41</ele>
        <time>2012-05-27T09:04:53Z</time>
      </trkpt>
      <trkpt lat="43.15262" lon="5.96594">
        <ele>167.89</ele>
        <time>2012-05-27T09:04:54Z</time>
      </trkpt>
      <trkpt lat="43.15263" lon="5.9659">
        <ele>168.37</ele>
        <time>2012-05-27T09:04:55Z</time>
      </trkpt>
      <trkpt lat="43.15264" lon="5.96586">
        <ele>168.37</ele>
        <time>2012-05-27T09:04:56Z</time>
      </trkpt>
      <trkpt lat="43.15265" lon="5.96582">
        <ele>168.85</ele>
        <time>2012-05-27T09:04:57Z</time>
      </trkpt>
      <trkpt lat="43.15273" lon="5.96536">
        <ele>172.21</ele>
        <time>2012-05-27T09:05:09Z</time>
      </trkpt>
      <trkpt lat="43.15281" lon="5.96482">
        <ele>175.1</ele>
        <time>2012-05-27T09:05:23Z</time>
      </trkpt>
      <trkpt lat="43.15291" lon="5.96432">
        <ele>178.46</ele>
        <time>2012-05-27T09:05:36Z</time>
      </trkpt>
      <trkpt lat="43.1531" lon="5.96394">
        <ele>180.87</ele>
        <time>2012-05-27T09:05:48Z</time>
      </trkpt>
      <trkpt lat="43.15313" lon="5.96387">
        <ele>181.35</ele>
        <time>2012-05-27T09:05:50Z</time>
      </trkpt>
      <trkpt lat="43.15314" lon="5.96383">
        <ele>181.83</ele>
        <time>2012-05-27T09:05:51Z</time>
      </trkpt>
      <trkpt lat="43.15316" lon="5.9638">
        <ele>181.83</ele>
        <time>2012-05-27T09:05:52Z</time>
      </trkpt>
      <trkpt lat="43.15334" lon="5.96339">
        <ele>184.71</ele>
        <time>2012-05-27T09:06:04Z</time>
      </trkpt>
      <trkpt lat="43.15352" lon="5.96297">
        <ele>187.59</ele>
        <time>2012-05-27T09:06:16Z</time>
      </trkpt>
      <trkpt lat="43.1538" lon="5.96245">
        <ele>190.48</ele>
        <time>2012-05-27T09:06:22Z</time>
      </trkpt>
      <trkpt lat="43.15401" lon="5.96201">
        <ele>193.36</ele>
        <time>2012-05-27T09:06:35Z</time>
      </trkpt>
      <trkpt lat="43.15434" lon="5.9615">
        <ele>197.21</ele>
        <time>2012-05-27T09:06:50Z</time>
      </trkpt>
      <trkpt lat="43.15474" lon="5.9615">
        <ele>199.61</ele>
        <time>2012-05-27T09:07:02Z</time>
      </trkpt>
      <trkpt lat="43.15495" lon="5.96162">
        <ele>202.01</ele>
        <time>2012-05-27T09:07:09Z</time>
      </trkpt>
      <trkpt lat="43.15532" lon="5.96179">
        <ele>204.42</ele>
        <time>2012-05-27T09:07:22Z</time>
      </trkpt>
      <trkpt lat="43.15549" lon="5.96195">
        <ele>205.38</ele>
        <time>2012-05-27T09:07:33Z</time>
      </trkpt>
      <trkpt lat="43.1555" lon="5.96195">
        <ele>205.38</ele>
        <time>2012-05-27T09:07:34Z</time>
      </trkpt>
      <trkpt lat="43.15551" lon="5.96193">
        <ele>205.86</ele>
        <time>2012-05-27T09:07:47Z</time>
      </trkpt>
      <trkpt lat="43.15551" lon="5.96193">
        <ele>205.38</ele>
        <time>2012-05-27T09:08:10Z</time>
      </trkpt>
      <trkpt lat="43.15551" lon="5.96194">
        <ele>204.9</ele>
        <time>2012-05-27T09:08:38Z</time>
      </trkpt>
      <trkpt lat="43.15553" lon="5.96191">
        <ele>205.38</ele>
        <time>2012-05-27T09:08:44Z</time>
      </trkpt>
      <trkpt lat="43.15555" lon="5.96186">
        <ele>205.38</ele>
        <time>2012-05-27T09:08:47Z</time>
      </trkpt>
      <trkpt lat="43.15555" lon="5.96183">
        <ele>204.9</ele>
        <time>2012-05-27T09:08:48Z</time>
      </trkpt>
      <trkpt lat="43.15555" lon="5.9618">
        <ele>204.42</ele>
        <time>2012-05-27T09:08:49Z</time>
      </trkpt>
      <trkpt lat="43.15555" lon="5.96176">
        <ele>204.42</ele>
        <time>2012-05-27T09:08:50Z</time>
      </trkpt>
      <trkpt lat="43.15555" lon="5.96172">
        <ele>203.94</ele>
        <time>2012-05-27T09:08:51Z</time>
      </trkpt>
      <trkpt lat="43.15556" lon="5.96168">
        <ele>203.94</ele>
        <time>2012-05-27T09:08:52Z</time>
      </trkpt>
      <trkpt lat="43.15558" lon="5.96164">
        <ele>203.94</ele>
        <time>2012-05-27T09:08:53Z</time>
      </trkpt>
      <trkpt lat="43.15564" lon="5.96139">
        <ele>202.01</ele>
        <time>2012-05-27T09:08:57Z</time>
      </trkpt>
      <trkpt lat="43.15568" lon="5.96112">
        <ele>200.57</ele>
        <time>2012-05-27T09:09:00Z</time>
      </trkpt>
      <trkpt lat="43.15577" lon="5.96059">
        <ele>197.69</ele>
        <time>2012-05-27T09:09:05Z</time>
      </trkpt>
      <trkpt lat="43.15582" lon="5.96047">
        <ele>196.73</ele>
        <time>2012-05-27T09:09:06Z</time>
      </trkpt>
      <trkpt lat="43.15587" lon="5.96037">
        <ele>195.28</ele>
        <time>2012-05-27T09:09:07Z</time>
      </trkpt>
      <trkpt lat="43.15593" lon="5.96027">
        <ele>195.28</ele>
        <time>2012-05-27T09:09:08Z</time>
      </trkpt>
      <trkpt lat="43.156" lon="5.96017">
        <ele>195.28</ele>
        <time>2012-05-27T09:09:09Z</time>
      </trkpt>
      <trkpt lat="43.15607" lon="5.96008">
        <ele>195.28</ele>
        <time>2012-05-27T09:09:10Z</time>
      </trkpt>
      <trkpt lat="43.15615" lon="5.95999">
        <ele>194.8</ele>
        <time>2012-05-27T09:09:11Z</time>
      </trkpt>
      <trkpt lat="43.15667" lon="5.95944">
        <ele>191.44</ele>
        <time>2012-05-27T09:09:18Z</time>
      </trkpt>
      <trkpt lat="43.15693" lon="5.95916">
        <ele>189.52</ele>
        <time>2012-05-27T09:09:21Z</time>
      </trkpt>
      <trkpt lat="43.15733" lon="5.95859">
        <ele>186.15</ele>
        <time>2012-05-27T09:09:26Z</time>
      </trkpt>
      <trkpt lat="43.15762" lon="5.95792">
        <ele>182.79</ele>
        <time>2012-05-27T09:09:31Z</time>
      </trkpt>
      <trkpt lat="43.15778" lon="5.95747">
        <ele>180.87</ele>
        <time>2012-05-27T09:09:34Z</time>
      </trkpt>
      <trkpt lat="43.15797" lon="5.95685">
        <ele>177.5</ele>
        <time>2012-05-27T09:09:38Z</time>
      </trkpt>
      <trkpt lat="43.15804" lon="5.95672">
        <ele>176.54</ele>
        <time>2012-05-27T09:09:39Z</time>
      </trkpt>
      <trkpt lat="43.15813" lon="5.9566">
        <ele>176.06</ele>
        <time>2012-05-27T09:09:40Z</time>
      </trkpt>
      <trkpt lat="43.15822" lon="5.95649">
        <ele>175.58</ele>
        <time>2012-05-27T09:09:41Z</time>
      </trkpt>
      <trkpt lat="43.15842" lon="5.95627">
        <ele>174.14</ele>
        <time>2012-05-27T09:09:43Z</time>
      </trkpt>
      <trkpt lat="43.15862" lon="5.95605">
        <ele>172.69</ele>
        <time>2012-05-27T09:09:45Z</time>
      </trkpt>
      <trkpt lat="43.1589" lon="5.9557">
        <ele>170.29</ele>
        <time>2012-05-27T09:09:48Z</time>
      </trkpt>
      <trkpt lat="43.15898" lon="5.95556">
        <ele>170.29</ele>
        <time>2012-05-27T09:09:49Z</time>
      </trkpt>
      <trkpt lat="43.15926" lon="5.95497">
        <ele>166.93</ele>
        <time>2012-05-27T09:09:53Z</time>
      </trkpt>
      <trkpt lat="43.15938" lon="5.95466">
        <ele>165.96</ele>
        <time>2012-05-27T09:09:55Z</time>
      </trkpt>
      <trkpt lat="43.1596" lon="5.95421">
        <ele>162.6</ele>
        <time>2012-05-27T09:09:58Z</time>
      </trkpt>
      <trkpt lat="43.16012" lon="5.95337">
        <ele>158.27</ele>
        <time>2012-05-27T09:10:04Z</time>
      </trkpt>
      <trkpt lat="43.16049" lon="5.9528">
        <ele>154.91</ele>
        <time>2012-05-27T09:10:08Z</time>
      </trkpt>
      <trkpt lat="43.16088" lon="5.95228">
        <ele>151.54</ele>
        <time>2012-05-27T09:10:12Z</time>
      </trkpt>
      <trkpt lat="43.16098" lon="5.95217">
        <ele>150.58</ele>
        <time>2012-05-27T09:10:13Z</time>
      </trkpt>
      <trkpt lat="43.1611" lon="5.95206">
        <ele>150.1</ele>
        <time>2012-05-27T09:10:14Z</time>
      </trkpt>
      <trkpt lat="43.16157" lon="5.95168">
        <ele>146.74</ele>
        <time>2012-05-27T09:10:18Z</time>
      </trkpt>
      <trkpt lat="43.16203" lon="5.95123">
        <ele>143.37</ele>
        <time>2012-05-27T09:10:22Z</time>
      </trkpt>
      <trkpt lat="43.16212" lon="5.95109">
        <ele>142.89</ele>
        <time>2012-05-27T09:10:23Z</time>
      </trkpt>
      <trkpt lat="43.1622" lon="5.95093">
        <ele>141.45</ele>
        <time>2012-05-27T09:10:24Z</time>
      </trkpt>
      <trkpt lat="43.16235" lon="5.95058">
        <ele>140.49</ele>
        <time>2012-05-27T09:10:26Z</time>
      </trkpt>
      <trkpt lat="43.1624" lon="5.9504">
        <ele>139.53</ele>
        <time>2012-05-27T09:10:27Z</time>
      </trkpt>
      <trkpt lat="43.16256" lon="5.94965">
        <ele>136.16</ele>
        <time>2012-05-27T09:10:31Z</time>
      </trkpt>
      <trkpt lat="43.16258" lon="5.94946">
        <ele>134.72</ele>
        <time>2012-05-27T09:10:32Z</time>
      </trkpt>
      <trkpt lat="43.16259" lon="5.94928">
        <ele>134.72</ele>
        <time>2012-05-27T09:10:33Z</time>
      </trkpt>
      <trkpt lat="43.16263" lon="5.9487">
        <ele>131.84</ele>
        <time>2012-05-27T09:10:36Z</time>
      </trkpt>
      <trkpt lat="43.16267" lon="5.9485">
        <ele>131.36</ele>
        <time>2012-05-27T09:10:37Z</time>
      </trkpt>
      <trkpt lat="43.16281" lon="5.94774">
        <ele>127.99</ele>
        <time>2012-05-27T09:10:41Z</time>
      </trkpt>
      <trkpt lat="43.16285" lon="5.94754">
        <ele>127.51</ele>
        <time>2012-05-27T09:10:42Z</time>
      </trkpt>
      <trkpt lat="43.16291" lon="5.94717">
        <ele>125.59</ele>
        <time>2012-05-27T09:10:44Z</time>
      </trkpt>
      <trkpt lat="43.16293" lon="5.94698">
        <ele>124.63</ele>
        <time>2012-05-27T09:10:45Z</time>
      </trkpt>
      <trkpt lat="43.16292" lon="5.94679">
        <ele>124.15</ele>
        <time>2012-05-27T09:10:46Z</time>
      </trkpt>
      <trkpt lat="43.16291" lon="5.94645">
        <ele>122.22</ele>
        <time>2012-05-27T09:10:48Z</time>
      </trkpt>
      <trkpt lat="43.16292" lon="5.94628">
        <ele>121.74</ele>
        <time>2012-05-27T09:10:49Z</time>
      </trkpt>
      <trkpt lat="43.16296" lon="5.94612">
        <ele>120.78</ele>
        <time>2012-05-27T09:10:50Z</time>
      </trkpt>
      <trkpt lat="43.16302" lon="5.94597">
        <ele>119.82</ele>
        <time>2012-05-27T09:10:51Z</time>
      </trkpt>
      <trkpt lat="43.1631" lon="5.94583">
        <ele>119.34</ele>
        <time>2012-05-27T09:10:52Z</time>
      </trkpt>
      <trkpt lat="43.16317" lon="5.94569">
        <ele>118.86</ele>
        <time>2012-05-27T09:10:53Z</time>
      </trkpt>
      <trkpt lat="43.16323" lon="5.94554">
        <ele>117.9</ele>
        <time>2012-05-27T09:10:54Z</time>
      </trkpt>
      <trkpt lat="43.16329" lon="5.94538">
        <ele>117.9</ele>
        <time>2012-05-27T09:10:55Z</time>
      </trkpt>
      <trkpt lat="43.16346" lon="5.9447">
        <ele>114.53</ele>
        <time>2012-05-27T09:10:59Z</time>
      </trkpt>
      <trkpt lat="43.16362" lon="5.94398">
        <ele>111.17</ele>
        <time>2012-05-27T09:11:03Z</time>
      </trkpt>
      <trkpt lat="43.1637" lon="5.94361">
        <ele>109.25</ele>
        <time>2012-05-27T09:11:05Z</time>
      </trkpt>
      <trkpt lat="43.16377" lon="5.94344">
        <ele>108.29</ele>
        <time>2012-05-27T09:11:06Z</time>
      </trkpt>
      <trkpt lat="43.16397" lon="5.94291">
        <ele>105.4</ele>
        <time>2012-05-27T09:11:09Z</time>
      </trkpt>
      <trkpt lat="43.16413" lon="5.94234">
        <ele>102.04</ele>
        <time>2012-05-27T09:11:12Z</time>
      </trkpt>
      <trkpt lat="43.16426" lon="5.94198">
        <ele>100.6</ele>
        <time>2012-05-27T09:11:14Z</time>
      </trkpt>
      <trkpt lat="43.16452" lon="5.94126">
        <ele>97.71</ele>
        <time>2012-05-27T09:11:18Z</time>
      </trkpt>
      <trkpt lat="43.16472" lon="5.94054">
        <ele>93.87</ele>
        <time>2012-05-27T09:11:22Z</time>
      </trkpt>
      <trkpt lat="43.16489" lon="5.94002">
        <ele>90.98</ele>
        <time>2012-05-27T09:11:25Z</time>
      </trkpt>
      <trkpt lat="43.16496" lon="5.93987">
        <ele>90.5</ele>
        <time>2012-05-27T09:11:26Z</time>
      </trkpt>
      <trkpt lat="43.16517" lon="5.93941">
        <ele>89.54</ele>
        <time>2012-05-27T09:11:29Z</time>
      </trkpt>
      <trkpt lat="43.16521" lon="5.93925">
        <ele>89.54</ele>
        <time>2012-05-27T09:11:30Z</time>
      </trkpt>
      <trkpt lat="43.16542" lon="5.93742">
        <ele>88.58</ele>
        <time>2012-05-27T09:11:42Z</time>
      </trkpt>
      <trkpt lat="43.16537" lon="5.93667">
        <ele>85.69</ele>
        <time>2012-05-27T09:11:47Z</time>
      </trkpt>
      <trkpt lat="43.16503" lon="5.93481">
        <ele>82.81</ele>
        <time>2012-05-27T09:12:00Z</time>
      </trkpt>
      <trkpt lat="43.16454" lon="5.93379">
        <ele>84.73</ele>
        <time>2012-05-27T09:12:12Z</time>
      </trkpt>
      <trkpt lat="43.16436" lon="5.93333">
        <ele>83.29</ele>
        <time>2012-05-27T09:12:17Z</time>
      </trkpt>
      <trkpt lat="43.16411" lon="5.93253">
        <ele>79.45</ele>
        <time>2012-05-27T09:12:24Z</time>
      </trkpt>
      <trkpt lat="43.16407" lon="5.9324">
        <ele>79.45</ele>
        <time>2012-05-27T09:12:25Z</time>
      </trkpt>
      <trkpt lat="43.16394" lon="5.93186">
        <ele>76.56</ele>
        <time>2012-05-27T09:12:29Z</time>
      </trkpt>
      <trkpt lat="43.1635" lon="5.93035">
        <ele>73.68</ele>
        <time>2012-05-27T09:12:40Z</time>
      </trkpt>
      <trkpt lat="43.16347" lon="5.93021">
        <ele>73.68</ele>
        <time>2012-05-27T09:12:41Z</time>
      </trkpt>
      <trkpt lat="43.16344" lon="5.93007">
        <ele>73.68</ele>
        <time>2012-05-27T09:12:42Z</time>
      </trkpt>
      <trkpt lat="43.16321" lon="5.92909">
        <ele>70.31</ele>
        <time>2012-05-27T09:12:49Z</time>
      </trkpt>
      <trkpt lat="43.16305" lon="5.92849">
        <ele>67.43</ele>
        <time>2012-05-27T09:12:53Z</time>
      </trkpt>
      <trkpt lat="43.16303" lon="5.92832">
        <ele>65.99</ele>
        <time>2012-05-27T09:12:54Z</time>
      </trkpt>
      <trkpt lat="43.16304" lon="5.92815">
        <ele>64.55</ele>
        <time>2012-05-27T09:12:55Z</time>
      </trkpt>
      <trkpt lat="43.16306" lon="5.92798">
        <ele>63.58</ele>
        <time>2012-05-27T09:12:56Z</time>
      </trkpt>
      <trkpt lat="43.16311" lon="5.92783">
        <ele>62.14</ele>
        <time>2012-05-27T09:12:57Z</time>
      </trkpt>
      <trkpt lat="43.16319" lon="5.92769">
        <ele>61.18</ele>
        <time>2012-05-27T09:12:58Z</time>
      </trkpt>
      <trkpt lat="43.16327" lon="5.92755">
        <ele>60.7</ele>
        <time>2012-05-27T09:12:59Z</time>
      </trkpt>
      <trkpt lat="43.16333" lon="5.92741">
        <ele>60.22</ele>
        <time>2012-05-27T09:13:00Z</time>
      </trkpt>
      <trkpt lat="43.16336" lon="5.92725">
        <ele>59.26</ele>
        <time>2012-05-27T09:13:01Z</time>
      </trkpt>
      <trkpt lat="43.16337" lon="5.92708">
        <ele>58.3</ele>
        <time>2012-05-27T09:13:02Z</time>
      </trkpt>
      <trkpt lat="43.16335" lon="5.92693">
        <ele>58.3</ele>
        <time>2012-05-27T09:13:03Z</time>
      </trkpt>
      <trkpt lat="43.1633" lon="5.92679">
        <ele>59.74</ele>
        <time>2012-05-27T09:13:04Z</time>
      </trkpt>
      <trkpt lat="43.16323" lon="5.92668">
        <ele>60.7</ele>
        <time>2012-05-27T09:13:05Z</time>
      </trkpt>
      <trkpt lat="43.16315" lon="5.92658">
        <ele>60.7</ele>
        <time>2012-05-27T09:13:06Z</time>
      </trkpt>
      <trkpt lat="43.16307" lon="5.92649">
        <ele>60.7</ele>
        <time>2012-05-27T09:13:07Z</time>
      </trkpt>
      <trkpt lat="43.16212" lon="5.92541">
        <ele>62.14</ele>
        <time>2012-05-27T09:13:20Z</time>
      </trkpt>
      <trkpt lat="43.16141" lon="5.92426">
        <ele>62.62</ele>
        <time>2012-05-27T09:13:32Z</time>
      </trkpt>
      <trkpt lat="43.16032" lon="5.92259">
        <ele>61.18</ele>
        <time>2012-05-27T09:13:49Z</time>
      </trkpt>
      <trkpt lat="43.15945" lon="5.92162">
        <ele>57.82</ele>
        <time>2012-05-27T09:14:00Z</time>
      </trkpt>
      <trkpt lat="43.15937" lon="5.92151">
        <ele>56.86</ele>
        <time>2012-05-27T09:14:01Z</time>
      </trkpt>
      <trkpt lat="43.15931" lon="5.92139">
        <ele>56.86</ele>
        <time>2012-05-27T09:14:02Z</time>
      </trkpt>
      <trkpt lat="43.15926" lon="5.92125">
        <ele>55.89</ele>
        <time>2012-05-27T09:14:03Z</time>
      </trkpt>
      <trkpt lat="43.15925" lon="5.9211">
        <ele>54.93</ele>
        <time>2012-05-27T09:14:04Z</time>
      </trkpt>
      <trkpt lat="43.15928" lon="5.92095">
        <ele>53.97</ele>
        <time>2012-05-27T09:14:05Z</time>
      </trkpt>
      <trkpt lat="43.15933" lon="5.92082">
        <ele>53.97</ele>
        <time>2012-05-27T09:14:06Z</time>
      </trkpt>
      <trkpt lat="43.1594" lon="5.9207">
        <ele>53.97</ele>
        <time>2012-05-27T09:14:07Z</time>
      </trkpt>
      <trkpt lat="43.15959" lon="5.92035">
        <ele>54.45</ele>
        <time>2012-05-27T09:14:10Z</time>
      </trkpt>
      <trkpt lat="43.15962" lon="5.92023">
        <ele>53.97</ele>
        <time>2012-05-27T09:14:11Z</time>
      </trkpt>
      <trkpt lat="43.15964" lon="5.92009">
        <ele>54.45</ele>
        <time>2012-05-27T09:14:12Z</time>
      </trkpt>
      <trkpt lat="43.15965" lon="5.91996">
        <ele>54.45</ele>
        <time>2012-05-27T09:14:13Z</time>
      </trkpt>
      <trkpt lat="43.15964" lon="5.91982">
        <ele>54.45</ele>
        <time>2012-05-27T09:14:14Z</time>
      </trkpt>
      <trkpt lat="43.15962" lon="5.91969">
        <ele>53.97</ele>
        <time>2012-05-27T09:14:15Z</time>
      </trkpt>
      <trkpt lat="43.15959" lon="5.91956">
        <ele>53.97</ele>
        <time>2012-05-27T09:14:16Z</time>
      </trkpt>
      <trkpt lat="43.15946" lon="5.91863">
        <ele>54.45</ele>
        <time>2012-05-27T09:14:23Z</time>
      </trkpt>
      <trkpt lat="43.15921" lon="5.91775">
        <ele>55.89</ele>
        <time>2012-05-27T09:14:31Z</time>
      </trkpt>
      <trkpt lat="43.15917" lon="5.91767">
        <ele>55.89</ele>
        <time>2012-05-27T09:14:32Z</time>
      </trkpt>
      <trkpt lat="43.15911" lon="5.91762">
        <ele>55.89</ele>
        <time>2012-05-27T09:14:33Z</time>
      </trkpt>
      <trkpt lat="43.15904" lon="5.91761">
        <ele>55.89</ele>
        <time>2012-05-27T09:14:34Z</time>
      </trkpt>
      <trkpt lat="43.15897" lon="5.91764">
        <ele>55.41</ele>
        <time>2012-05-27T09:14:35Z</time>
      </trkpt>
      <trkpt lat="43.15889" lon="5.91768">
        <ele>54.93</ele>
        <time>2012-05-27T09:14:36Z</time>
      </trkpt>
      <trkpt lat="43.15881" lon="5.91771">
        <ele>54.45</ele>
        <time>2012-05-27T09:14:37Z</time>
      </trkpt>
      <trkpt lat="43.15873" lon="5.91774">
        <ele>53.97</ele>
        <time>2012-05-27T09:14:38Z</time>
      </trkpt>
      <trkpt lat="43.15864" lon="5.91778">
        <ele>53.49</ele>
        <time>2012-05-27T09:14:39Z</time>
      </trkpt>
      <trkpt lat="43.15835" lon="5.91783">
        <ele>53.01</ele>
        <time>2012-05-27T09:14:42Z</time>
      </trkpt>
      <trkpt lat="43.15816" lon="5.9178">
        <ele>51.57</ele>
        <time>2012-05-27T09:14:44Z</time>
      </trkpt>
      <trkpt lat="43.15807" lon="5.91776">
        <ele>51.57</ele>
        <time>2012-05-27T09:14:45Z</time>
      </trkpt>
      <trkpt lat="43.15798" lon="5.9177">
        <ele>51.57</ele>
        <time>2012-05-27T09:14:46Z</time>
      </trkpt>
      <trkpt lat="43.1579" lon="5.91763">
        <ele>51.09</ele>
        <time>2012-05-27T09:14:47Z</time>
      </trkpt>
      <trkpt lat="43.15782" lon="5.91755">
        <ele>50.61</ele>
        <time>2012-05-27T09:14:48Z</time>
      </trkpt>
      <trkpt lat="43.15713" lon="5.91671">
        <ele>46.76</ele>
        <time>2012-05-27T09:14:57Z</time>
      </trkpt>
      <trkpt lat="43.15703" lon="5.91663">
        <ele>46.76</ele>
        <time>2012-05-27T09:14:58Z</time>
      </trkpt>
      <trkpt lat="43.15693" lon="5.91656">
        <ele>46.76</ele>
        <time>2012-05-27T09:14:59Z</time>
      </trkpt>
      <trkpt lat="43.15682" lon="5.91651">
        <ele>45.32</ele>
        <time>2012-05-27T09:15:00Z</time>
      </trkpt>
      <trkpt lat="43.15671" lon="5.91647">
        <ele>44.84</ele>
        <time>2012-05-27T09:15:01Z</time>
      </trkpt>
      <trkpt lat="43.15659" lon="5.91645">
        <ele>44.36</ele>
        <time>2012-05-27T09:15:02Z</time>
      </trkpt>
      <trkpt lat="43.15624" lon="5.91633">
        <ele>42.92</ele>
        <time>2012-05-27T09:15:05Z</time>
      </trkpt>
      <trkpt lat="43.15591" lon="5.91613">
        <ele>40.03</ele>
        <time>2012-05-27T09:15:08Z</time>
      </trkpt>
      <trkpt lat="43.15581" lon="5.91604">
        <ele>39.55</ele>
        <time>2012-05-27T09:15:09Z</time>
      </trkpt>
      <trkpt lat="43.15552" lon="5.91576">
        <ele>40.51</ele>
        <time>2012-05-27T09:15:12Z</time>
      </trkpt>
      <trkpt lat="43.15542" lon="5.91569">
        <ele>39.55</ele>
        <time>2012-05-27T09:15:13Z</time>
      </trkpt>
      <trkpt lat="43.15531" lon="5.91564">
        <ele>39.55</ele>
        <time>2012-05-27T09:15:14Z</time>
      </trkpt>
      <trkpt lat="43.1552" lon="5.91559">
        <ele>39.55</ele>
        <time>2012-05-27T09:15:15Z</time>
      </trkpt>
      <trkpt lat="43.1551" lon="5.91556">
        <ele>39.55</ele>
        <time>2012-05-27T09:15:16Z</time>
      </trkpt>
      <trkpt lat="43.155" lon="5.91553">
        <ele>38.59</ele>
        <time>2012-05-27T09:15:17Z</time>
      </trkpt>
      <trkpt lat="43.15374" lon="5.91509">
        <ele>36.19</ele>
        <time>2012-05-27T09:15:30Z</time>
      </trkpt>
      <trkpt lat="43.15327" lon="5.91496">
        <ele>34.74</ele>
        <time>2012-05-27T09:15:35Z</time>
      </trkpt>
      <trkpt lat="43.15318" lon="5.91496">
        <ele>34.26</ele>
        <time>2012-05-27T09:15:36Z</time>
      </trkpt>
      <trkpt lat="43.15309" lon="5.91499">
        <ele>35.23</ele>
        <time>2012-05-27T09:15:37Z</time>
      </trkpt>
      <trkpt lat="43.15283" lon="5.91508">
        <ele>35.23</ele>
        <time>2012-05-27T09:15:40Z</time>
      </trkpt>
      <trkpt lat="43.15274" lon="5.91509">
        <ele>35.71</ele>
        <time>2012-05-27T09:15:41Z</time>
      </trkpt>
      <trkpt lat="43.15205" lon="5.91508">
        <ele>33.78</ele>
        <time>2012-05-27T09:15:49Z</time>
      </trkpt>
      <trkpt lat="43.15133" lon="5.91475">
        <ele>30.42</ele>
        <time>2012-05-27T09:15:58Z</time>
      </trkpt>
      <trkpt lat="43.15115" lon="5.91463">
        <ele>30.42</ele>
        <time>2012-05-27T09:16:06Z</time>
      </trkpt>
      <trkpt lat="43.15113" lon="5.91462">
        <ele>29.94</ele>
        <time>2012-05-27T09:16:19Z</time>
      </trkpt>
      <trkpt lat="43.15092" lon="5.91457">
        <ele>29.94</ele>
        <time>2012-05-27T09:16:34Z</time>
      </trkpt>
      <trkpt lat="43.1507" lon="5.91452">
        <ele>29.46</ele>
        <time>2012-05-27T09:16:39Z</time>
      </trkpt>
      <trkpt lat="43.15036" lon="5.91444">
        <ele>29.94</ele>
        <time>2012-05-27T09:16:45Z</time>
      </trkpt>
      <trkpt lat="43.15031" lon="5.9144">
        <ele>30.42</ele>
        <time>2012-05-27T09:16:46Z</time>
      </trkpt>
      <trkpt lat="43.14996" lon="5.91414">
        <ele>31.38</ele>
        <time>2012-05-27T09:16:53Z</time>
      </trkpt>
      <trkpt lat="43.14956" lon="5.9139">
        <ele>30.42</ele>
        <time>2012-05-27T09:17:00Z</time>
      </trkpt>
      <trkpt lat="43.1495" lon="5.91387">
        <ele>30.9</ele>
        <time>2012-05-27T09:17:01Z</time>
      </trkpt>
      <trkpt lat="43.14943" lon="5.91384">
        <ele>31.38</ele>
        <time>2012-05-27T09:17:02Z</time>
      </trkpt>
      <trkpt lat="43.14864" lon="5.91371">
        <ele>31.38</ele>
        <time>2012-05-27T09:17:14Z</time>
      </trkpt>
      <trkpt lat="43.14818" lon="5.91368">
        <ele>31.38</ele>
        <time>2012-05-27T09:17:24Z</time>
      </trkpt>
      <trkpt lat="43.14787" lon="5.91367">
        <ele>30.42</ele>
        <time>2012-05-27T09:17:36Z</time>
      </trkpt>
      <trkpt lat="43.14768" lon="5.91364">
        <ele>28.98</ele>
        <time>2012-05-27T09:17:41Z</time>
      </trkpt>
      <trkpt lat="43.14763" lon="5.91363">
        <ele>28.98</ele>
        <time>2012-05-27T09:17:42Z</time>
      </trkpt>
      <trkpt lat="43.14758" lon="5.91362">
        <ele>28.5</ele>
        <time>2012-05-27T09:17:43Z</time>
      </trkpt>
      <trkpt lat="43.14743" lon="5.91354">
        <ele>28.02</ele>
        <time>2012-05-27T09:17:46Z</time>
      </trkpt>
      <trkpt lat="43.14738" lon="5.91351">
        <ele>28.5</ele>
        <time>2012-05-27T09:17:47Z</time>
      </trkpt>
      <trkpt lat="43.14726" lon="5.91341">
        <ele>27.05</ele>
        <time>2012-05-27T09:17:49Z</time>
      </trkpt>
      <trkpt lat="43.14694" lon="5.91311">
        <ele>25.13</ele>
        <time>2012-05-27T09:17:54Z</time>
      </trkpt>
      <trkpt lat="43.14614" lon="5.9125">
        <ele>23.69</ele>
        <time>2012-05-27T09:18:06Z</time>
      </trkpt>
      <trkpt lat="43.14532" lon="5.91197">
        <ele>21.77</ele>
        <time>2012-05-27T09:18:19Z</time>
      </trkpt>
      <trkpt lat="43.14514" lon="5.9119">
        <ele>21.77</ele>
        <time>2012-05-27T09:18:22Z</time>
      </trkpt>
      <trkpt lat="43.1451" lon="5.91185">
        <ele>21.29</ele>
        <time>2012-05-27T09:18:23Z</time>
      </trkpt>
      <trkpt lat="43.14509" lon="5.91179">
        <ele>21.29</ele>
        <time>2012-05-27T09:18:24Z</time>
      </trkpt>
      <trkpt lat="43.14509" lon="5.9117">
        <ele>20.81</ele>
        <time>2012-05-27T09:18:25Z</time>
      </trkpt>
      <trkpt lat="43.14508" lon="5.91162">
        <ele>20.32</ele>
        <time>2012-05-27T09:18:26Z</time>
      </trkpt>
      <trkpt lat="43.14505" lon="5.91156">
        <ele>19.84</ele>
        <time>2012-05-27T09:18:27Z</time>
      </trkpt>
      <trkpt lat="43.145" lon="5.91153">
        <ele>19.36</ele>
        <time>2012-05-27T09:18:28Z</time>
      </trkpt>
      <trkpt lat="43.14493" lon="5.9115">
        <ele>19.84</ele>
        <time>2012-05-27T09:18:29Z</time>
      </trkpt>
      <trkpt lat="43.14428" lon="5.91104">
        <ele>18.4</ele>
        <time>2012-05-27T09:18:39Z</time>
      </trkpt>
      <trkpt lat="43.14421" lon="5.911">
        <ele>18.4</ele>
        <time>2012-05-27T09:18:40Z</time>
      </trkpt>
      <trkpt lat="43.14414" lon="5.91098">
        <ele>17.92</ele>
        <time>2012-05-27T09:18:41Z</time>
      </trkpt>
      <trkpt lat="43.14307" lon="5.91092">
        <ele>17.92</ele>
        <time>2012-05-27T09:18:55Z</time>
      </trkpt>
      <trkpt lat="43.14226" lon="5.91082">
        <ele>15.52</ele>
        <time>2012-05-27T09:19:06Z</time>
      </trkpt>
      <trkpt lat="43.1422" lon="5.91078">
        <ele>15.52</ele>
        <time>2012-05-27T09:19:07Z</time>
      </trkpt>
      <trkpt lat="43.14215" lon="5.91074">
        <ele>15.52</ele>
        <time>2012-05-27T09:19:08Z</time>
      </trkpt>
      <trkpt lat="43.14211" lon="5.91069">
        <ele>16.48</ele>
        <time>2012-05-27T09:19:09Z</time>
      </trkpt>
      <trkpt lat="43.14208" lon="5.91064">
        <ele>16</ele>
        <time>2012-05-27T09:19:10Z</time>
      </trkpt>
      <trkpt lat="43.14207" lon="5.91059">
        <ele>15.52</ele>
        <time>2012-05-27T09:19:11Z</time>
      </trkpt>
      <trkpt lat="43.14206" lon="5.91053">
        <ele>16</ele>
        <time>2012-05-27T09:19:12Z</time>
      </trkpt>
      <trkpt lat="43.14206" lon="5.91047">
        <ele>16.48</ele>
        <time>2012-05-27T09:19:13Z</time>
      </trkpt>
      <trkpt lat="43.14204" lon="5.91041">
        <ele>16.48</ele>
        <time>2012-05-27T09:19:14Z</time>
      </trkpt>
      <trkpt lat="43.14201" lon="5.91035">
        <ele>16</ele>
        <time>2012-05-27T09:19:15Z</time>
      </trkpt>
      <trkpt lat="43.14196" lon="5.91031">
        <ele>16</ele>
        <time>2012-05-27T09:19:16Z</time>
      </trkpt>
      <trkpt lat="43.1419" lon="5.91029">
        <ele>15.52</ele>
        <time>2012-05-27T09:19:17Z</time>
      </trkpt>
      <trkpt lat="43.14183" lon="5.91028">
        <ele>15.52</ele>
        <time>2012-05-27T09:19:18Z</time>
      </trkpt>
      <trkpt lat="43.14176" lon="5.91028">
        <ele>16</ele>
        <time>2012-05-27T09:19:19Z</time>
      </trkpt>
      <trkpt lat="43.14169" lon="5.91028">
        <ele>16</ele>
        <time>2012-05-27T09:19:20Z</time>
      </trkpt>
      <trkpt lat="43.14139" lon="5.91034">
        <ele>15.52</ele>
        <time>2012-05-27T09:19:24Z</time>
      </trkpt>
      <trkpt lat="43.14131" lon="5.91033">
        <ele>15.52</ele>
        <time>2012-05-27T09:19:25Z</time>
      </trkpt>
      <trkpt lat="43.14067" lon="5.91029">
        <ele>15.52</ele>
        <time>2012-05-27T09:19:33Z</time>
      </trkpt>
      <trkpt lat="43.1403" lon="5.91016">
        <ele>15.52</ele>
        <time>2012-05-27T09:19:38Z</time>
      </trkpt>
      <trkpt lat="43.13927" lon="5.90941">
        <ele>15.04</ele>
        <time>2012-05-27T09:19:53Z</time>
      </trkpt>
      <trkpt lat="43.13836" lon="5.90877">
        <ele>15.04</ele>
        <time>2012-05-27T09:20:07Z</time>
      </trkpt>
      <trkpt lat="43.13754" lon="5.90816">
        <ele>14.56</ele>
        <time>2012-05-27T09:20:22Z</time>
      </trkpt>
      <trkpt lat="43.13728" lon="5.908">
        <ele>15.52</ele>
        <time>2012-05-27T09:20:27Z</time>
      </trkpt>
      <trkpt lat="43.13723" lon="5.90795">
        <ele>15.04</ele>
        <time>2012-05-27T09:20:28Z</time>
      </trkpt>
      <trkpt lat="43.13714" lon="5.90785">
        <ele>15.04</ele>
        <time>2012-05-27T09:20:30Z</time>
      </trkpt>
      <trkpt lat="43.13708" lon="5.90781">
        <ele>15.04</ele>
        <time>2012-05-27T09:20:31Z</time>
      </trkpt>
      <trkpt lat="43.13703" lon="5.90777">
        <ele>15.04</ele>
        <time>2012-05-27T09:20:32Z</time>
      </trkpt>
      <trkpt lat="43.13691" lon="5.90772">
        <ele>15.04</ele>
        <time>2012-05-27T09:20:34Z</time>
      </trkpt>
      <trkpt lat="43.13686" lon="5.90767">
        <ele>15.04</ele>
        <time>2012-05-27T09:20:35Z</time>
      </trkpt>
      <trkpt lat="43.13595" lon="5.907">
        <ele>15.04</ele>
        <time>2012-05-27T09:20:52Z</time>
      </trkpt>
      <trkpt lat="43.13499" lon="5.9063">
        <ele>14.08</ele>
        <time>2012-05-27T09:21:09Z</time>
      </trkpt>
      <trkpt lat="43.13394" lon="5.90555">
        <ele>14.08</ele>
        <time>2012-05-27T09:21:26Z</time>
      </trkpt>
      <trkpt lat="43.13299" lon="5.90487">
        <ele>12.63</ele>
        <time>2012-05-27T09:21:41Z</time>
      </trkpt>
      <trkpt lat="43.13229" lon="5.90433">
        <ele>12.63</ele>
        <time>2012-05-27T09:21:53Z</time>
      </trkpt>
      <trkpt lat="43.13224" lon="5.90427">
        <ele>12.63</ele>
        <time>2012-05-27T09:21:54Z</time>
      </trkpt>
      <trkpt lat="43.13219" lon="5.9042">
        <ele>12.63</ele>
        <time>2012-05-27T09:21:55Z</time>
      </trkpt>
      <trkpt lat="43.13213" lon="5.90415">
        <ele>12.15</ele>
        <time>2012-05-27T09:21:56Z</time>
      </trkpt>
      <trkpt lat="43.13206" lon="5.90412">
        <ele>12.15</ele>
        <time>2012-05-27T09:21:57Z</time>
      </trkpt>
      <trkpt lat="43.13199" lon="5.90409">
        <ele>12.15</ele>
        <time>2012-05-27T09:21:58Z</time>
      </trkpt>
      <trkpt lat="43.13192" lon="5.90406">
        <ele>12.15</ele>
        <time>2012-05-27T09:21:59Z</time>
      </trkpt>
      <trkpt lat="43.13185" lon="5.90403">
        <ele>12.15</ele>
        <time>2012-05-27T09:22:00Z</time>
      </trkpt>
      <trkpt lat="43.13179" lon="5.90398">
        <ele>12.15</ele>
        <time>2012-05-27T09:22:01Z</time>
      </trkpt>
      <trkpt lat="43.1306" lon="5.9031">
        <ele>11.19</ele>
        <time>2012-05-27T09:22:20Z</time>
      </trkpt>
      <trkpt lat="43.12972" lon="5.90243">
        <ele>10.23</ele>
        <time>2012-05-27T09:22:33Z</time>
      </trkpt>
      <trkpt lat="43.12943" lon="5.90207">
        <ele>12.63</ele>
        <time>2012-05-27T09:22:42Z</time>
      </trkpt>
      <trkpt lat="43.12934" lon="5.90192">
        <ele>14.56</ele>
        <time>2012-05-27T09:22:57Z</time>
      </trkpt>
      <trkpt lat="43.1293" lon="5.90189">
        <ele>14.08</ele>
        <time>2012-05-27T09:23:07Z</time>
      </trkpt>
      <trkpt lat="43.12925" lon="5.90182">
        <ele>14.56</ele>
        <time>2012-05-27T09:23:17Z</time>
      </trkpt>
      <trkpt lat="43.1292" lon="5.90155">
        <ele>15.04</ele>
        <time>2012-05-27T09:23:30Z</time>
      </trkpt>
      <trkpt lat="43.1292" lon="5.90154">
        <ele>14.56</ele>
        <time>2012-05-27T09:23:44Z</time>
      </trkpt>
      <trkpt lat="43.12921" lon="5.90152">
        <ele>14.56</ele>
        <time>2012-05-27T09:23:45Z</time>
      </trkpt>
      <trkpt lat="43.12922" lon="5.9015">
        <ele>14.56</ele>
        <time>2012-05-27T09:23:46Z</time>
      </trkpt>
      <trkpt lat="43.12922" lon="5.90148">
        <ele>14.56</ele>
        <time>2012-05-27T09:23:47Z</time>
      </trkpt>
      <trkpt lat="43.12922" lon="5.90144">
        <ele>14.56</ele>
        <time>2012-05-27T09:23:48Z</time>
      </trkpt>
      <trkpt lat="43.12923" lon="5.9014">
        <ele>14.56</ele>
        <time>2012-05-27T09:23:49Z</time>
      </trkpt>
      <trkpt lat="43.12931" lon="5.90106">
        <ele>14.08</ele>
        <time>2012-05-27T09:23:56Z</time>
      </trkpt>
      <trkpt lat="43.12931" lon="5.901">
        <ele>14.08</ele>
        <time>2012-05-27T09:23:57Z</time>
      </trkpt>
      <trkpt lat="43.1294" lon="5.90005">
        <ele>15.04</ele>
        <time>2012-05-27T09:24:09Z</time>
      </trkpt>
      <trkpt lat="43.12933" lon="5.8987">
        <ele>16.48</ele>
        <time>2012-05-27T09:24:26Z</time>
      </trkpt>
      <trkpt lat="43.12922" lon="5.89758">
        <ele>17.92</ele>
        <time>2012-05-27T09:24:41Z</time>
      </trkpt>
      <trkpt lat="43.12918" lon="5.89711">
        <ele>19.36</ele>
        <time>2012-05-27T09:24:52Z</time>
      </trkpt>
      <trkpt lat="43.12917" lon="5.89703">
        <ele>18.88</ele>
        <time>2012-05-27T09:25:03Z</time>
      </trkpt>
      <trkpt lat="43.12912" lon="5.89642">
        <ele>19.36</ele>
        <time>2012-05-27T09:25:16Z</time>
      </trkpt>
      <trkpt lat="43.12902" lon="5.89521">
        <ele>18.88</ele>
        <time>2012-05-27T09:25:31Z</time>
      </trkpt>
      <trkpt lat="43.12892" lon="5.89376">
        <ele>18.88</ele>
        <time>2012-05-27T09:25:46Z</time>
      </trkpt>
      <trkpt lat="43.12874" lon="5.89238">
        <ele>19.36</ele>
        <time>2012-05-27T09:25:59Z</time>
      </trkpt>
      <trkpt lat="43.12854" lon="5.89137">
        <ele>22.25</ele>
        <time>2012-05-27T09:26:10Z</time>
      </trkpt>
      <trkpt lat="43.12851" lon="5.89115">
        <ele>23.21</ele>
        <time>2012-05-27T09:26:13Z</time>
      </trkpt>
      <trkpt lat="43.12855" lon="5.89078">
        <ele>23.69</ele>
        <time>2012-05-27T09:26:24Z</time>
      </trkpt>
      <trkpt lat="43.12865" lon="5.89049">
        <ele>24.65</ele>
        <time>2012-05-27T09:26:39Z</time>
      </trkpt>
      <trkpt lat="43.12865" lon="5.89049">
        <ele>24.17</ele>
        <time>2012-05-27T09:26:57Z</time>
      </trkpt>
      <trkpt lat="43.12869" lon="5.89038">
        <ele>24.17</ele>
        <time>2012-05-27T09:27:15Z</time>
      </trkpt>
      <trkpt lat="43.12877" lon="5.89002">
        <ele>23.69</ele>
        <time>2012-05-27T09:27:22Z</time>
      </trkpt>
      <trkpt lat="43.1288" lon="5.88917">
        <ele>20.32</ele>
        <time>2012-05-27T09:27:31Z</time>
      </trkpt>
      <trkpt lat="43.12873" lon="5.88757">
        <ele>18.88</ele>
        <time>2012-05-27T09:27:45Z</time>
      </trkpt>
      <trkpt lat="43.12855" lon="5.88654">
        <ele>18.88</ele>
        <time>2012-05-27T09:27:55Z</time>
      </trkpt>
      <trkpt lat="43.1283" lon="5.8851">
        <ele>20.32</ele>
        <time>2012-05-27T09:28:09Z</time>
      </trkpt>
      <trkpt lat="43.12826" lon="5.88383">
        <ele>21.29</ele>
        <time>2012-05-27T09:28:21Z</time>
      </trkpt>
      <trkpt lat="43.12828" lon="5.88373">
        <ele>20.81</ele>
        <time>2012-05-27T09:28:22Z</time>
      </trkpt>
      <trkpt lat="43.12834" lon="5.88353">
        <ele>20.81</ele>
        <time>2012-05-27T09:28:24Z</time>
      </trkpt>
      <trkpt lat="43.12835" lon="5.88344">
        <ele>21.29</ele>
        <time>2012-05-27T09:28:25Z</time>
      </trkpt>
      <trkpt lat="43.12836" lon="5.88334">
        <ele>21.29</ele>
        <time>2012-05-27T09:28:26Z</time>
      </trkpt>
      <trkpt lat="43.12836" lon="5.88325">
        <ele>21.29</ele>
        <time>2012-05-27T09:28:27Z</time>
      </trkpt>
      <trkpt lat="43.12835" lon="5.88315">
        <ele>21.77</ele>
        <time>2012-05-27T09:28:28Z</time>
      </trkpt>
      <trkpt lat="43.1283" lon="5.88229">
        <ele>21.77</ele>
        <time>2012-05-27T09:28:37Z</time>
      </trkpt>
      <trkpt lat="43.12828" lon="5.8822">
        <ele>21.77</ele>
        <time>2012-05-27T09:28:38Z</time>
      </trkpt>
      <trkpt lat="43.12821" lon="5.88185">
        <ele>22.73</ele>
        <time>2012-05-27T09:28:42Z</time>
      </trkpt>
      <trkpt lat="43.1282" lon="5.88136">
        <ele>23.21</ele>
        <time>2012-05-27T09:28:48Z</time>
      </trkpt>
      <trkpt lat="43.12822" lon="5.88129">
        <ele>23.21</ele>
        <time>2012-05-27T09:28:49Z</time>
      </trkpt>
      <trkpt lat="43.12825" lon="5.88124">
        <ele>23.69</ele>
        <time>2012-05-27T09:28:50Z</time>
      </trkpt>
      <trkpt lat="43.12829" lon="5.8812">
        <ele>23.69</ele>
        <time>2012-05-27T09:28:51Z</time>
      </trkpt>
      <trkpt lat="43.12833" lon="5.88117">
        <ele>23.69</ele>
        <time>2012-05-27T09:28:52Z</time>
      </trkpt>
      <trkpt lat="43.12837" lon="5.88112">
        <ele>23.69</ele>
        <time>2012-05-27T09:28:53Z</time>
      </trkpt>
      <trkpt lat="43.12839" lon="5.88106">
        <ele>23.69</ele>
        <time>2012-05-27T09:28:54Z</time>
      </trkpt>
      <trkpt lat="43.1284" lon="5.881">
        <ele>23.69</ele>
        <time>2012-05-27T09:28:55Z</time>
      </trkpt>
      <trkpt lat="43.1284" lon="5.88093">
        <ele>23.21</ele>
        <time>2012-05-27T09:28:56Z</time>
      </trkpt>
      <trkpt lat="43.12838" lon="5.88086">
        <ele>23.69</ele>
        <time>2012-05-27T09:28:57Z</time>
      </trkpt>
      <trkpt lat="43.12835" lon="5.88081">
        <ele>23.69</ele>
        <time>2012-05-27T09:28:58Z</time>
      </trkpt>
      <trkpt lat="43.1283" lon="5.88077">
        <ele>24.17</ele>
        <time>2012-05-27T09:28:59Z</time>
      </trkpt>
      <trkpt lat="43.12826" lon="5.88075">
        <ele>23.69</ele>
        <time>2012-05-27T09:29:00Z</time>
      </trkpt>
      <trkpt lat="43.12821" lon="5.88073">
        <ele>23.69</ele>
        <time>2012-05-27T09:29:01Z</time>
      </trkpt>
      <trkpt lat="43.12816" lon="5.8807">
        <ele>23.69</ele>
        <time>2012-05-27T09:29:02Z</time>
      </trkpt>
      <trkpt lat="43.12811" lon="5.88067">
        <ele>23.21</ele>
        <time>2012-05-27T09:29:03Z</time>
      </trkpt>
      <trkpt lat="43.12802" lon="5.88059">
        <ele>23.69</ele>
        <time>2012-05-27T09:29:05Z</time>
      </trkpt>
      <trkpt lat="43.12799" lon="5.88053">
        <ele>23.21</ele>
        <time>2012-05-27T09:29:06Z</time>
      </trkpt>
      <trkpt lat="43.12795" lon="5.88046">
        <ele>23.69</ele>
        <time>2012-05-27T09:29:07Z</time>
      </trkpt>
      <trkpt lat="43.12793" lon="5.88039">
        <ele>23.69</ele>
        <time>2012-05-27T09:29:08Z</time>
      </trkpt>
      <trkpt lat="43.12792" lon="5.8803">
        <ele>23.21</ele>
        <time>2012-05-27T09:29:09Z</time>
      </trkpt>
      <trkpt lat="43.1279" lon="5.88021">
        <ele>23.21</ele>
        <time>2012-05-27T09:29:10Z</time>
      </trkpt>
      <trkpt lat="43.1276" lon="5.87884">
        <ele>23.69</ele>
        <time>2012-05-27T09:29:25Z</time>
      </trkpt>
      <trkpt lat="43.12726" lon="5.87791">
        <ele>22.25</ele>
        <time>2012-05-27T09:29:36Z</time>
      </trkpt>
      <trkpt lat="43.12725" lon="5.87782">
        <ele>22.73</ele>
        <time>2012-05-27T09:29:37Z</time>
      </trkpt>
      <trkpt lat="43.12725" lon="5.87771">
        <ele>22.25</ele>
        <time>2012-05-27T09:29:38Z</time>
      </trkpt>
      <trkpt lat="43.12727" lon="5.87751">
        <ele>21.77</ele>
        <time>2012-05-27T09:29:40Z</time>
      </trkpt>
      <trkpt lat="43.12729" lon="5.87729">
        <ele>21.77</ele>
        <time>2012-05-27T09:29:42Z</time>
      </trkpt>
      <trkpt lat="43.12753" lon="5.87558">
        <ele>21.77</ele>
        <time>2012-05-27T09:29:58Z</time>
      </trkpt>
      <trkpt lat="43.12758" lon="5.8748">
        <ele>22.73</ele>
        <time>2012-05-27T09:30:05Z</time>
      </trkpt>
      <trkpt lat="43.12756" lon="5.87458">
        <ele>22.73</ele>
        <time>2012-05-27T09:30:07Z</time>
      </trkpt>
      <trkpt lat="43.12753" lon="5.87448">
        <ele>23.21</ele>
        <time>2012-05-27T09:30:08Z</time>
      </trkpt>
      <trkpt lat="43.1275" lon="5.87438">
        <ele>22.73</ele>
        <time>2012-05-27T09:30:09Z</time>
      </trkpt>
      <trkpt lat="43.12733" lon="5.87392">
        <ele>22.73</ele>
        <time>2012-05-27T09:30:14Z</time>
      </trkpt>
      <trkpt lat="43.12711" lon="5.8724">
        <ele>24.17</ele>
        <time>2012-05-27T09:30:29Z</time>
      </trkpt>
      <trkpt lat="43.12693" lon="5.87076">
        <ele>26.57</ele>
        <time>2012-05-27T09:30:45Z</time>
      </trkpt>
      <trkpt lat="43.12685" lon="5.86908">
        <ele>28.5</ele>
        <time>2012-05-27T09:31:00Z</time>
      </trkpt>
      <trkpt lat="43.12678" lon="5.86735">
        <ele>31.38</ele>
        <time>2012-05-27T09:31:16Z</time>
      </trkpt>
      <trkpt lat="43.12671" lon="5.86603">
        <ele>33.78</ele>
        <time>2012-05-27T09:31:30Z</time>
      </trkpt>
      <trkpt lat="43.12668" lon="5.86488">
        <ele>37.15</ele>
        <time>2012-05-27T09:31:42Z</time>
      </trkpt>
      <trkpt lat="43.12685" lon="5.86376">
        <ele>40.03</ele>
        <time>2012-05-27T09:31:55Z</time>
      </trkpt>
      <trkpt lat="43.12723" lon="5.86256">
        <ele>42.44</ele>
        <time>2012-05-27T09:32:10Z</time>
      </trkpt>
      <trkpt lat="43.12748" lon="5.86172">
        <ele>45.8</ele>
        <time>2012-05-27T09:32:21Z</time>
      </trkpt>
      <trkpt lat="43.12767" lon="5.86073">
        <ele>47.72</ele>
        <time>2012-05-27T09:32:34Z</time>
      </trkpt>
      <trkpt lat="43.12767" lon="5.85923">
        <ele>48.2</ele>
        <time>2012-05-27T09:32:51Z</time>
      </trkpt>
      <trkpt lat="43.12763" lon="5.85759">
        <ele>45.32</ele>
        <time>2012-05-27T09:33:05Z</time>
      </trkpt>
      <trkpt lat="43.12763" lon="5.85733">
        <ele>44.84</ele>
        <time>2012-05-27T09:33:07Z</time>
      </trkpt>
      <trkpt lat="43.12773" lon="5.85561">
        <ele>42.44</ele>
        <time>2012-05-27T09:33:20Z</time>
      </trkpt>
      <trkpt lat="43.12778" lon="5.85452">
        <ele>39.07</ele>
        <time>2012-05-27T09:33:28Z</time>
      </trkpt>
      <trkpt lat="43.12756" lon="5.85238">
        <ele>35.71</ele>
        <time>2012-05-27T09:33:43Z</time>
      </trkpt>
      <trkpt lat="43.12754" lon="5.85223">
        <ele>35.71</ele>
        <time>2012-05-27T09:33:44Z</time>
      </trkpt>
      <trkpt lat="43.12736" lon="5.8504">
        <ele>32.82</ele>
        <time>2012-05-27T09:33:56Z</time>
      </trkpt>
      <trkpt lat="43.12736" lon="5.85024">
        <ele>32.82</ele>
        <time>2012-05-27T09:33:57Z</time>
      </trkpt>
      <trkpt lat="43.12735" lon="5.84944">
        <ele>31.86</ele>
        <time>2012-05-27T09:34:02Z</time>
      </trkpt>
      <trkpt lat="43.1275" lon="5.84786">
        <ele>30.42</ele>
        <time>2012-05-27T09:34:12Z</time>
      </trkpt>
      <trkpt lat="43.12729" lon="5.84629">
        <ele>29.46</ele>
        <time>2012-05-27T09:34:23Z</time>
      </trkpt>
      <trkpt lat="43.12724" lon="5.84591">
        <ele>28.5</ele>
        <time>2012-05-27T09:34:26Z</time>
      </trkpt>
      <trkpt lat="43.12725" lon="5.84579">
        <ele>28.5</ele>
        <time>2012-05-27T09:34:27Z</time>
      </trkpt>
      <trkpt lat="43.12727" lon="5.84567">
        <ele>28.98</ele>
        <time>2012-05-27T09:34:28Z</time>
      </trkpt>
      <trkpt lat="43.1273" lon="5.84556">
        <ele>29.94</ele>
        <time>2012-05-27T09:34:29Z</time>
      </trkpt>
      <trkpt lat="43.12736" lon="5.84547">
        <ele>29.94</ele>
        <time>2012-05-27T09:34:30Z</time>
      </trkpt>
      <trkpt lat="43.12742" lon="5.8454">
        <ele>29.46</ele>
        <time>2012-05-27T09:34:31Z</time>
      </trkpt>
      <trkpt lat="43.12749" lon="5.84534">
        <ele>29.94</ele>
        <time>2012-05-27T09:34:32Z</time>
      </trkpt>
      <trkpt lat="43.12755" lon="5.84528">
        <ele>29.94</ele>
        <time>2012-05-27T09:34:33Z</time>
      </trkpt>
      <trkpt lat="43.12837" lon="5.84453">
        <ele>31.86</ele>
        <time>2012-05-27T09:34:45Z</time>
      </trkpt>
      <trkpt lat="43.12844" lon="5.84449">
        <ele>31.38</ele>
        <time>2012-05-27T09:34:46Z</time>
      </trkpt>
      <trkpt lat="43.1285" lon="5.84446">
        <ele>32.34</ele>
        <time>2012-05-27T09:34:47Z</time>
      </trkpt>
      <trkpt lat="43.12856" lon="5.84444">
        <ele>32.34</ele>
        <time>2012-05-27T09:34:48Z</time>
      </trkpt>
      <trkpt lat="43.12861" lon="5.84444">
        <ele>31.86</ele>
        <time>2012-05-27T09:34:49Z</time>
      </trkpt>
      <trkpt lat="43.12866" lon="5.84444">
        <ele>31.86</ele>
        <time>2012-05-27T09:34:50Z</time>
      </trkpt>
      <trkpt lat="43.12883" lon="5.84444">
        <ele>32.34</ele>
        <time>2012-05-27T09:34:53Z</time>
      </trkpt>
      <trkpt lat="43.12888" lon="5.84441">
        <ele>32.34</ele>
        <time>2012-05-27T09:34:54Z</time>
      </trkpt>
      <trkpt lat="43.12892" lon="5.84435">
        <ele>32.82</ele>
        <time>2012-05-27T09:34:55Z</time>
      </trkpt>
      <trkpt lat="43.12893" lon="5.84428">
        <ele>32.82</ele>
        <time>2012-05-27T09:34:56Z</time>
      </trkpt>
      <trkpt lat="43.12892" lon="5.8442">
        <ele>32.82</ele>
        <time>2012-05-27T09:34:57Z</time>
      </trkpt>
      <trkpt lat="43.12889" lon="5.84412">
        <ele>32.34</ele>
        <time>2012-05-27T09:34:58Z</time>
      </trkpt>
      <trkpt lat="43.12886" lon="5.84405">
        <ele>32.34</ele>
        <time>2012-05-27T09:34:59Z</time>
      </trkpt>
      <trkpt lat="43.12863" lon="5.8437">
        <ele>32.34</ele>
        <time>2012-05-27T09:35:04Z</time>
      </trkpt>
      <trkpt lat="43.12857" lon="5.84364">
        <ele>31.86</ele>
        <time>2012-05-27T09:35:05Z</time>
      </trkpt>
      <trkpt lat="43.12788" lon="5.84273">
        <ele>30.9</ele>
        <time>2012-05-27T09:35:17Z</time>
      </trkpt>
      <trkpt lat="43.12774" lon="5.8424">
        <ele>29.46</ele>
        <time>2012-05-27T09:35:20Z</time>
      </trkpt>
      <trkpt lat="43.12761" lon="5.84204">
        <ele>28.02</ele>
        <time>2012-05-27T09:35:23Z</time>
      </trkpt>
      <trkpt lat="43.12703" lon="5.84071">
        <ele>25.13</ele>
        <time>2012-05-27T09:35:34Z</time>
      </trkpt>
      <trkpt lat="43.127" lon="5.84057">
        <ele>25.13</ele>
        <time>2012-05-27T09:35:35Z</time>
      </trkpt>
      <trkpt lat="43.12698" lon="5.84043">
        <ele>24.65</ele>
        <time>2012-05-27T09:35:36Z</time>
      </trkpt>
      <trkpt lat="43.12697" lon="5.84029">
        <ele>24.65</ele>
        <time>2012-05-27T09:35:37Z</time>
      </trkpt>
      <trkpt lat="43.12697" lon="5.84015">
        <ele>24.65</ele>
        <time>2012-05-27T09:35:38Z</time>
      </trkpt>
      <trkpt lat="43.12697" lon="5.84001">
        <ele>24.65</ele>
        <time>2012-05-27T09:35:39Z</time>
      </trkpt>
      <trkpt lat="43.12695" lon="5.83935">
        <ele>24.17</ele>
        <time>2012-05-27T09:35:44Z</time>
      </trkpt>
      <trkpt lat="43.12692" lon="5.83922">
        <ele>24.65</ele>
        <time>2012-05-27T09:35:45Z</time>
      </trkpt>
      <trkpt lat="43.12688" lon="5.83911">
        <ele>24.65</ele>
        <time>2012-05-27T09:35:46Z</time>
      </trkpt>
      <trkpt lat="43.12682" lon="5.839">
        <ele>24.17</ele>
        <time>2012-05-27T09:35:47Z</time>
      </trkpt>
      <trkpt lat="43.12676" lon="5.83891">
        <ele>24.17</ele>
        <time>2012-05-27T09:35:48Z</time>
      </trkpt>
      <trkpt lat="43.12668" lon="5.83884">
        <ele>24.17</ele>
        <time>2012-05-27T09:35:49Z</time>
      </trkpt>
      <trkpt lat="43.1266" lon="5.83878">
        <ele>24.17</ele>
        <time>2012-05-27T09:35:50Z</time>
      </trkpt>
      <trkpt lat="43.12651" lon="5.83872">
        <ele>23.69</ele>
        <time>2012-05-27T09:35:51Z</time>
      </trkpt>
      <trkpt lat="43.12642" lon="5.83867">
        <ele>22.73</ele>
        <time>2012-05-27T09:35:52Z</time>
      </trkpt>
      <trkpt lat="43.12616" lon="5.83847">
        <ele>22.73</ele>
        <time>2012-05-27T09:35:55Z</time>
      </trkpt>
      <trkpt lat="43.12609" lon="5.83837">
        <ele>22.73</ele>
        <time>2012-05-27T09:35:56Z</time>
      </trkpt>
      <trkpt lat="43.12603" lon="5.83827">
        <ele>22.73</ele>
        <time>2012-05-27T09:35:57Z</time>
      </trkpt>
      <trkpt lat="43.12598" lon="5.83815">
        <ele>22.25</ele>
        <time>2012-05-27T09:35:58Z</time>
      </trkpt>
      <trkpt lat="43.12595" lon="5.83802">
        <ele>22.73</ele>
        <time>2012-05-27T09:35:59Z</time>
      </trkpt>
      <trkpt lat="43.12593" lon="5.83789">
        <ele>22.25</ele>
        <time>2012-05-27T09:36:00Z</time>
      </trkpt>
      <trkpt lat="43.1256" lon="5.83614">
        <ele>21.77</ele>
        <time>2012-05-27T09:36:14Z</time>
      </trkpt>
      <trkpt lat="43.1256" lon="5.83601">
        <ele>22.25</ele>
        <time>2012-05-27T09:36:15Z</time>
      </trkpt>
      <trkpt lat="43.12561" lon="5.83562">
        <ele>21.29</ele>
        <time>2012-05-27T09:36:18Z</time>
      </trkpt>
      <trkpt lat="43.12564" lon="5.83549">
        <ele>21.29</ele>
        <time>2012-05-27T09:36:19Z</time>
      </trkpt>
      <trkpt lat="43.12572" lon="5.83512">
        <ele>21.29</ele>
        <time>2012-05-27T09:36:22Z</time>
      </trkpt>
      <trkpt lat="43.12573" lon="5.83499">
        <ele>21.29</ele>
        <time>2012-05-27T09:36:23Z</time>
      </trkpt>
      <trkpt lat="43.12578" lon="5.83267">
        <ele>20.81</ele>
        <time>2012-05-27T09:36:41Z</time>
      </trkpt>
      <trkpt lat="43.12582" lon="5.83052">
        <ele>20.32</ele>
        <time>2012-05-27T09:36:58Z</time>
      </trkpt>
      <trkpt lat="43.12587" lon="5.82823">
        <ele>20.81</ele>
        <time>2012-05-27T09:37:16Z</time>
      </trkpt>
      <trkpt lat="43.12592" lon="5.82775">
        <ele>21.77</ele>
        <time>2012-05-27T09:37:20Z</time>
      </trkpt>
      <trkpt lat="43.12643" lon="5.82626">
        <ele>22.73</ele>
        <time>2012-05-27T09:37:34Z</time>
      </trkpt>
      <trkpt lat="43.12656" lon="5.82531">
        <ele>26.09</ele>
        <time>2012-05-27T09:37:43Z</time>
      </trkpt>
      <trkpt lat="43.12655" lon="5.8252">
        <ele>25.61</ele>
        <time>2012-05-27T09:37:44Z</time>
      </trkpt>
      <trkpt lat="43.12647" lon="5.82479">
        <ele>26.57</ele>
        <time>2012-05-27T09:37:48Z</time>
      </trkpt>
      <trkpt lat="43.1259" lon="5.82337">
        <ele>25.13</ele>
        <time>2012-05-27T09:38:03Z</time>
      </trkpt>
      <trkpt lat="43.12584" lon="5.82329">
        <ele>25.13</ele>
        <time>2012-05-27T09:38:04Z</time>
      </trkpt>
      <trkpt lat="43.12576" lon="5.82322">
        <ele>25.13</ele>
        <time>2012-05-27T09:38:05Z</time>
      </trkpt>
      <trkpt lat="43.12569" lon="5.82315">
        <ele>24.17</ele>
        <time>2012-05-27T09:38:06Z</time>
      </trkpt>
      <trkpt lat="43.1256" lon="5.8231">
        <ele>23.21</ele>
        <time>2012-05-27T09:38:07Z</time>
      </trkpt>
      <trkpt lat="43.12552" lon="5.82305">
        <ele>22.73</ele>
        <time>2012-05-27T09:38:08Z</time>
      </trkpt>
      <trkpt lat="43.12542" lon="5.823">
        <ele>22.25</ele>
        <time>2012-05-27T09:38:09Z</time>
      </trkpt>
      <trkpt lat="43.12523" lon="5.82293">
        <ele>20.32</ele>
        <time>2012-05-27T09:38:11Z</time>
      </trkpt>
      <trkpt lat="43.12513" lon="5.8229">
        <ele>20.32</ele>
        <time>2012-05-27T09:38:12Z</time>
      </trkpt>
      <trkpt lat="43.12482" lon="5.82286">
        <ele>18.88</ele>
        <time>2012-05-27T09:38:15Z</time>
      </trkpt>
      <trkpt lat="43.12429" lon="5.82282">
        <ele>16.96</ele>
        <time>2012-05-27T09:38:20Z</time>
      </trkpt>
      <trkpt lat="43.12328" lon="5.82254">
        <ele>13.6</ele>
        <time>2012-05-27T09:38:30Z</time>
      </trkpt>
      <trkpt lat="43.12297" lon="5.82242">
        <ele>12.63</ele>
        <time>2012-05-27T09:38:33Z</time>
      </trkpt>
      <trkpt lat="43.1223" lon="5.8222">
        <ele>12.15</ele>
        <time>2012-05-27T09:38:40Z</time>
      </trkpt>
      <trkpt lat="43.12222" lon="5.82215">
        <ele>12.15</ele>
        <time>2012-05-27T09:38:41Z</time>
      </trkpt>
      <trkpt lat="43.12214" lon="5.82209">
        <ele>12.63</ele>
        <time>2012-05-27T09:38:42Z</time>
      </trkpt>
      <trkpt lat="43.12207" lon="5.82201">
        <ele>12.15</ele>
        <time>2012-05-27T09:38:43Z</time>
      </trkpt>
      <trkpt lat="43.122" lon="5.82192">
        <ele>12.63</ele>
        <time>2012-05-27T09:38:44Z</time>
      </trkpt>
      <trkpt lat="43.12195" lon="5.82181">
        <ele>12.63</ele>
        <time>2012-05-27T09:38:45Z</time>
      </trkpt>
      <trkpt lat="43.12191" lon="5.8217">
        <ele>12.63</ele>
        <time>2012-05-27T09:38:46Z</time>
      </trkpt>
      <trkpt lat="43.12187" lon="5.82158">
        <ele>12.63</ele>
        <time>2012-05-27T09:38:47Z</time>
      </trkpt>
      <trkpt lat="43.12159" lon="5.82014">
        <ele>11.19</ele>
        <time>2012-05-27T09:38:59Z</time>
      </trkpt>
      <trkpt lat="43.12159" lon="5.82002">
        <ele>11.67</ele>
        <time>2012-05-27T09:39:00Z</time>
      </trkpt>
      <trkpt lat="43.1216" lon="5.81989">
        <ele>11.19</ele>
        <time>2012-05-27T09:39:01Z</time>
      </trkpt>
      <trkpt lat="43.12163" lon="5.81977">
        <ele>11.19</ele>
        <time>2012-05-27T09:39:02Z</time>
      </trkpt>
      <trkpt lat="43.12166" lon="5.81965">
        <ele>11.67</ele>
        <time>2012-05-27T09:39:03Z</time>
      </trkpt>
      <trkpt lat="43.12173" lon="5.81927">
        <ele>11.19</ele>
        <time>2012-05-27T09:39:06Z</time>
      </trkpt>
      <trkpt lat="43.12174" lon="5.81914">
        <ele>10.71</ele>
        <time>2012-05-27T09:39:07Z</time>
      </trkpt>
      <trkpt lat="43.12173" lon="5.81901">
        <ele>10.71</ele>
        <time>2012-05-27T09:39:08Z</time>
      </trkpt>
      <trkpt lat="43.1217" lon="5.81888">
        <ele>11.19</ele>
        <time>2012-05-27T09:39:09Z</time>
      </trkpt>
      <trkpt lat="43.12167" lon="5.81876">
        <ele>10.71</ele>
        <time>2012-05-27T09:39:10Z</time>
      </trkpt>
      <trkpt lat="43.12163" lon="5.81863">
        <ele>10.71</ele>
        <time>2012-05-27T09:39:11Z</time>
      </trkpt>
      <trkpt lat="43.12158" lon="5.81851">
        <ele>10.23</ele>
        <time>2012-05-27T09:39:12Z</time>
      </trkpt>
      <trkpt lat="43.12104" lon="5.81697">
        <ele>9.75</ele>
        <time>2012-05-27T09:39:25Z</time>
      </trkpt>
      <trkpt lat="43.12079" lon="5.81547">
        <ele>8.79</ele>
        <time>2012-05-27T09:39:37Z</time>
      </trkpt>
      <trkpt lat="43.12047" lon="5.81414">
        <ele>8.79</ele>
        <time>2012-05-27T09:39:48Z</time>
      </trkpt>
      <trkpt lat="43.12042" lon="5.81404">
        <ele>8.31</ele>
        <time>2012-05-27T09:39:49Z</time>
      </trkpt>
      <trkpt lat="43.11962" lon="5.81289">
        <ele>6.87</ele>
        <time>2012-05-27T09:40:03Z</time>
      </trkpt>
      <trkpt lat="43.11926" lon="5.81189">
        <ele>6.39</ele>
        <time>2012-05-27T09:40:15Z</time>
      </trkpt>
      <trkpt lat="43.11911" lon="5.81138">
        <ele>5.42</ele>
        <time>2012-05-27T09:40:22Z</time>
      </trkpt>
      <trkpt lat="43.11911" lon="5.8113">
        <ele>5.91</ele>
        <time>2012-05-27T09:40:23Z</time>
      </trkpt>
      <trkpt lat="43.1191" lon="5.81123">
        <ele>5.91</ele>
        <time>2012-05-27T09:40:24Z</time>
      </trkpt>
      <trkpt lat="43.1191" lon="5.81116">
        <ele>6.39</ele>
        <time>2012-05-27T09:40:25Z</time>
      </trkpt>
      <trkpt lat="43.11911" lon="5.8111">
        <ele>6.39</ele>
        <time>2012-05-27T09:40:26Z</time>
      </trkpt>
      <trkpt lat="43.11911" lon="5.81106">
        <ele>6.87</ele>
        <time>2012-05-27T09:40:27Z</time>
      </trkpt>
      <trkpt lat="43.11911" lon="5.81104">
        <ele>6.39</ele>
        <time>2012-05-27T09:40:28Z</time>
      </trkpt>
      <trkpt lat="43.11911" lon="5.81103">
        <ele>5.91</ele>
        <time>2012-05-27T09:40:29Z</time>
      </trkpt>
      <trkpt lat="43.11912" lon="5.811">
        <ele>6.39</ele>
        <time>2012-05-27T09:40:30Z</time>
      </trkpt>
      <trkpt lat="43.11913" lon="5.81097">
        <ele>6.39</ele>
        <time>2012-05-27T09:40:31Z</time>
      </trkpt>
      <trkpt lat="43.11914" lon="5.81093">
        <ele>6.39</ele>
        <time>2012-05-27T09:40:32Z</time>
      </trkpt>
      <trkpt lat="43.11916" lon="5.81088">
        <ele>6.39</ele>
        <time>2012-05-27T09:40:33Z</time>
      </trkpt>
      <trkpt lat="43.11916" lon="5.81083">
        <ele>6.39</ele>
        <time>2012-05-27T09:40:34Z</time>
      </trkpt>
      <trkpt lat="43.11916" lon="5.81077">
        <ele>6.39</ele>
        <time>2012-05-27T09:40:35Z</time>
      </trkpt>
      <trkpt lat="43.11914" lon="5.81073">
        <ele>6.39</ele>
        <time>2012-05-27T09:40:36Z</time>
      </trkpt>
      <trkpt lat="43.11911" lon="5.8107">
        <ele>6.39</ele>
        <time>2012-05-27T09:40:37Z</time>
      </trkpt>
      <trkpt lat="43.11909" lon="5.81068">
        <ele>6.87</ele>
        <time>2012-05-27T09:40:38Z</time>
      </trkpt>
      <trkpt lat="43.11907" lon="5.81067">
        <ele>6.87</ele>
        <time>2012-05-27T09:40:39Z</time>
      </trkpt>
      <trkpt lat="43.11905" lon="5.81066">
        <ele>6.39</ele>
        <time>2012-05-27T09:40:40Z</time>
      </trkpt>
      <trkpt lat="43.11891" lon="5.8106">
        <ele>5.91</ele>
        <time>2012-05-27T09:40:44Z</time>
      </trkpt>
      <trkpt lat="43.11887" lon="5.81056">
        <ele>5.91</ele>
        <time>2012-05-27T09:40:45Z</time>
      </trkpt>
      <trkpt lat="43.11883" lon="5.81052">
        <ele>6.39</ele>
        <time>2012-05-27T09:40:46Z</time>
      </trkpt>
      <trkpt lat="43.11881" lon="5.81047">
        <ele>5.91</ele>
        <time>2012-05-27T09:40:47Z</time>
      </trkpt>
      <trkpt lat="43.11878" lon="5.81041">
        <ele>5.91</ele>
        <time>2012-05-27T09:40:48Z</time>
      </trkpt>
      <trkpt lat="43.11876" lon="5.81035">
        <ele>5.91</ele>
        <time>2012-05-27T09:40:49Z</time>
      </trkpt>
      <trkpt lat="43.1185" lon="5.8095">
        <ele>5.91</ele>
        <time>2012-05-27T09:41:01Z</time>
      </trkpt>
      <trkpt lat="43.11843" lon="5.80931">
        <ele>5.42</ele>
        <time>2012-05-27T09:41:05Z</time>
      </trkpt>
      <trkpt lat="43.11842" lon="5.80925">
        <ele>5.91</ele>
        <time>2012-05-27T09:41:06Z</time>
      </trkpt>
      <trkpt lat="43.11841" lon="5.80918">
        <ele>4.94</ele>
        <time>2012-05-27T09:41:07Z</time>
      </trkpt>
      <trkpt lat="43.1184" lon="5.80912">
        <ele>5.42</ele>
        <time>2012-05-27T09:41:08Z</time>
      </trkpt>
      <trkpt lat="43.11839" lon="5.80905">
        <ele>5.42</ele>
        <time>2012-05-27T09:41:09Z</time>
      </trkpt>
      <trkpt lat="43.11823" lon="5.80864">
        <ele>4.94</ele>
        <time>2012-05-27T09:41:18Z</time>
      </trkpt>
      <trkpt lat="43.11816" lon="5.80844">
        <ele>5.42</ele>
        <time>2012-05-27T09:41:25Z</time>
      </trkpt>
      <trkpt lat="43.11815" lon="5.80842">
        <ele>5.42</ele>
        <time>2012-05-27T09:41:26Z</time>
      </trkpt>
      <trkpt lat="43.11815" lon="5.80839">
        <ele>5.91</ele>
        <time>2012-05-27T09:41:27Z</time>
      </trkpt>
      <trkpt lat="43.11798" lon="5.80784">
        <ele>4.46</ele>
        <time>2012-05-27T09:41:38Z</time>
      </trkpt>
      <trkpt lat="43.11785" lon="5.80748">
        <ele>4.46</ele>
        <time>2012-05-27T09:41:43Z</time>
      </trkpt>
      <trkpt lat="43.11741" lon="5.80681">
        <ele>3.02</ele>
        <time>2012-05-27T09:41:53Z</time>
      </trkpt>
      <trkpt lat="43.11678" lon="5.8064">
        <ele>3.5</ele>
        <time>2012-05-27T09:42:05Z</time>
      </trkpt>
      <trkpt lat="43.11638" lon="5.80624">
        <ele>4.46</ele>
        <time>2012-05-27T09:42:14Z</time>
      </trkpt>
      <trkpt lat="43.11638" lon="5.80622">
        <ele>3.98</ele>
        <time>2012-05-27T09:42:15Z</time>
      </trkpt>
      <trkpt lat="43.11638" lon="5.8062">
        <ele>3.98</ele>
        <time>2012-05-27T09:42:16Z</time>
      </trkpt>
      <trkpt lat="43.11637" lon="5.80618">
        <ele>3.98</ele>
        <time>2012-05-27T09:42:17Z</time>
      </trkpt>
      <trkpt lat="43.11636" lon="5.80616">
        <ele>3.98</ele>
        <time>2012-05-27T09:42:18Z</time>
      </trkpt>
      <trkpt lat="43.11625" lon="5.80604">
        <ele>4.46</ele>
        <time>2012-05-27T09:42:24Z</time>
      </trkpt>
      <trkpt lat="43.11623" lon="5.80604">
        <ele>3.98</ele>
        <time>2012-05-27T09:42:25Z</time>
      </trkpt>
      <trkpt lat="43.11621" lon="5.80604">
        <ele>3.98</ele>
        <time>2012-05-27T09:42:26Z</time>
      </trkpt>
      <trkpt lat="43.11614" lon="5.80606">
        <ele>3.98</ele>
        <time>2012-05-27T09:42:28Z</time>
      </trkpt>
      <trkpt lat="43.11612" lon="5.8061">
        <ele>3.98</ele>
        <time>2012-05-27T09:42:29Z</time>
      </trkpt>
      <trkpt lat="43.1161" lon="5.80615">
        <ele>4.46</ele>
        <time>2012-05-27T09:42:30Z</time>
      </trkpt>
      <trkpt lat="43.11609" lon="5.80621">
        <ele>3.5</ele>
        <time>2012-05-27T09:42:31Z</time>
      </trkpt>
      <trkpt lat="43.11609" lon="5.80628">
        <ele>3.98</ele>
        <time>2012-05-27T09:42:32Z</time>
      </trkpt>
      <trkpt lat="43.11609" lon="5.80635">
        <ele>3.5</ele>
        <time>2012-05-27T09:42:33Z</time>
      </trkpt>
      <trkpt lat="43.11608" lon="5.80642">
        <ele>3.02</ele>
        <time>2012-05-27T09:42:34Z</time>
      </trkpt>
      <trkpt lat="43.11607" lon="5.80648">
        <ele>3.5</ele>
        <time>2012-05-27T09:42:35Z</time>
      </trkpt>
      <trkpt lat="43.11599" lon="5.80677">
        <ele>3.5</ele>
        <time>2012-05-27T09:42:39Z</time>
      </trkpt>
      <trkpt lat="43.11597" lon="5.80684">
        <ele>3.98</ele>
        <time>2012-05-27T09:42:40Z</time>
      </trkpt>
      <trkpt lat="43.11555" lon="5.80831">
        <ele>3.98</ele>
        <time>2012-05-27T09:42:58Z</time>
      </trkpt>
      <trkpt lat="43.11546" lon="5.80855">
        <ele>3.02</ele>
        <time>2012-05-27T09:43:01Z</time>
      </trkpt>
      <trkpt lat="43.11542" lon="5.80862">
        <ele>3.02</ele>
        <time>2012-05-27T09:43:02Z</time>
      </trkpt>
      <trkpt lat="43.11531" lon="5.80883">
        <ele>3.02</ele>
        <time>2012-05-27T09:43:05Z</time>
      </trkpt>
      <trkpt lat="43.1146" lon="5.80958">
        <ele>3.02</ele>
        <time>2012-05-27T09:43:19Z</time>
      </trkpt>
      <trkpt lat="43.11404" lon="5.81011">
        <ele>3.02</ele>
        <time>2012-05-27T09:43:29Z</time>
      </trkpt>
    </trkseg>
  </trk>
</gpx>